<?xml version='1.0' encoding='UTF-8'?><gpx version="1.1" creator="JPX - https://github.com/jenetics/jpx" xmlns="http://www.topografix.com/GPX/1/1"><trk><trkseg><trkpt lat="45.40971333986863" lon="7.672887576939199"><ele>492.0</ele><time>2026-04-25T12:57:25Z</time></trkpt><trkpt lat="45.40969366440899" lon="7.672996568823894"><ele>492.00000000000006</ele><time>2026-04-25T12:57:54.999Z</time></trkpt><trkpt lat="45.40972372617058" lon="7.673130300816118"><ele>492.00000000000006</ele><time>2026-04-25T12:57:56.999Z</time></trkpt><trkpt lat="45.409778651559954" lon="7.67323096442508"><ele>492.0</ele><time>2026-04-25T12:57:58.999Z</time></trkpt><trkpt lat="45.40986941339971" lon="7.673292050456093"><ele>492.0</ele><time>2026-04-25T12:58:00.999Z</time></trkpt><trkpt lat="45.41000541604904" lon="7.673451661919982"><ele>492.0</ele><time>2026-04-25T12:58:02.999Z</time></trkpt><trkpt lat="45.4101306302072" lon="7.673566259809696"><ele>492.00000000000006</ele><time>2026-04-25T12:58:03.999Z</time></trkpt><trkpt lat="45.41021437936362" lon="7.673657380478807"><ele>492.00000000000006</ele><time>2026-04-25T12:58:04.999Z</time></trkpt><trkpt lat="45.41029440156828" lon="7.67377037738022"><ele>492.0</ele><time>2026-04-25T12:58:05.999Z</time></trkpt><trkpt lat="45.41034565687772" lon="7.673860617300823"><ele>492.0</ele><time>2026-04-25T12:58:06.999Z</time></trkpt><trkpt lat="45.410400165485065" lon="7.673907253956615"><ele>492.1666666666667</ele><time>2026-04-25T12:58:08.999Z</time></trkpt><trkpt lat="45.41047474436359" lon="7.673863568035455"><ele>492.33333333333337</ele><time>2026-04-25T12:58:10.999Z</time></trkpt><trkpt lat="45.41054848282136" lon="7.673791773923789"><ele>492.5</ele><time>2026-04-25T12:58:12.999Z</time></trkpt><trkpt lat="45.41061456157145" lon="7.673750803286486"><ele>492.6666666666667</ele><time>2026-04-25T12:58:14.999Z</time></trkpt><trkpt lat="45.41071037177003" lon="7.67370989776947"><ele>492.83333333333337</ele><time>2026-04-25T12:58:18.999Z</time></trkpt><trkpt lat="45.41072025305131" lon="7.673607456972845"><ele>493.0</ele><time>2026-04-25T12:58:19.999Z</time></trkpt><trkpt lat="45.41078091909964" lon="7.673518742269089"><ele>493.00000000000006</ele><time>2026-04-25T12:58:21.999Z</time></trkpt><trkpt lat="45.4108848302919" lon="7.673531442688554"><ele>493.0</ele><time>2026-04-25T12:58:39.999Z</time></trkpt><trkpt lat="45.41094310562687" lon="7.673587478740453"><ele>493.0</ele><time>2026-04-25T12:58:44.999Z</time></trkpt><trkpt lat="45.41099022505436" lon="7.673660749345128"><ele>493.0</ele><time>2026-04-25T12:58:47.999Z</time></trkpt><trkpt lat="45.41104419060435" lon="7.673751320142674"><ele>493.00000000000006</ele><time>2026-04-25T12:58:51.999Z</time></trkpt><trkpt lat="45.411048437406876" lon="7.673862924605323"><ele>493.0</ele><time>2026-04-25T12:58:53.999Z</time></trkpt><trkpt lat="45.41107675660287" lon="7.6739510158220785"><ele>493.00000000000006</ele><time>2026-04-25T12:58:57.998Z</time></trkpt><trkpt lat="45.411112615585225" lon="7.674031919284297"><ele>493.0</ele><time>2026-04-25T12:59:09.999Z</time></trkpt><trkpt lat="45.41120250968546" lon="7.674094877804577"><ele>493.0</ele><time>2026-04-25T12:59:11.999Z</time></trkpt><trkpt lat="45.41129270630326" lon="7.674183105431063"><ele>493.0</ele><time>2026-04-25T12:59:14.999Z</time></trkpt><trkpt lat="45.41134311523993" lon="7.674264883857156"><ele>493.00000000000006</ele><time>2026-04-25T12:59:15.999Z</time></trkpt><trkpt lat="45.411359590467306" lon="7.67436802266105"><ele>493.0</ele><time>2026-04-25T12:59:19.999Z</time></trkpt><trkpt lat="45.41136685986554" lon="7.674463214149564"><ele>492.83333333333337</ele><time>2026-04-25T12:59:30.999Z</time></trkpt><trkpt lat="45.41144196990073" lon="7.674475180132741"><ele>492.6666666666667</ele><time>2026-04-25T12:59:32.999Z</time></trkpt><trkpt lat="45.411496946146656" lon="7.67441644112518"><ele>492.5</ele><time>2026-04-25T12:59:33.999Z</time></trkpt><trkpt lat="45.411542187847736" lon="7.67435389394049"><ele>492.33333333333337</ele><time>2026-04-25T12:59:35.999Z</time></trkpt><trkpt lat="45.4116340369759" lon="7.674298104364014"><ele>492.1666666666667</ele><time>2026-04-25T12:59:38.999Z</time></trkpt><trkpt lat="45.41166911236604" lon="7.674174357095976"><ele>492.0</ele><time>2026-04-25T12:59:40.999Z</time></trkpt><trkpt lat="45.411683518008914" lon="7.674071179231893"><ele>493.40000000000003</ele><time>2026-04-25T12:59:42.999Z</time></trkpt><trkpt lat="45.41174285521818" lon="7.67397485831321"><ele>494.80000000000007</ele><time>2026-04-25T12:59:44.999Z</time></trkpt><trkpt lat="45.41181857953966" lon="7.673841875676379"><ele>496.2</ele><time>2026-04-25T12:59:46.999Z</time></trkpt><trkpt lat="45.41188169582038" lon="7.673737998509641"><ele>497.6</ele><time>2026-04-25T12:59:48.999Z</time></trkpt><trkpt lat="45.41192398707585" lon="7.673633095328429"><ele>499.0</ele><time>2026-04-25T12:59:51.999Z</time></trkpt><trkpt lat="45.41197493859631" lon="7.673530679172239"><ele>500.5</ele><time>2026-04-25T12:59:54.999Z</time></trkpt><trkpt lat="45.412132848329726" lon="7.673375194637751"><ele>502.0</ele><time>2026-04-25T12:59:57.999Z</time></trkpt><trkpt lat="45.41221743769216" lon="7.6733263546231445"><ele>503.5</ele><time>2026-04-25T12:59:59.999Z</time></trkpt><trkpt lat="45.41228431107951" lon="7.673255502072234"><ele>505.0</ele><time>2026-04-25T13:00:01.999Z</time></trkpt><trkpt lat="45.41233592923194" lon="7.673154656801475"><ele>505.8</ele><time>2026-04-25T13:00:03.999Z</time></trkpt><trkpt lat="45.41238781255217" lon="7.673024542788903"><ele>506.6</ele><time>2026-04-25T13:00:05.999Z</time></trkpt><trkpt lat="45.41245046770883" lon="7.672922155604025"><ele>507.4</ele><time>2026-04-25T13:00:07.999Z</time></trkpt><trkpt lat="45.41246330590251" lon="7.672827755723646"><ele>508.2</ele><time>2026-04-25T13:00:08.999Z</time></trkpt><trkpt lat="45.412486497957694" lon="7.672715419189754"><ele>509.0</ele><time>2026-04-25T13:00:09.999Z</time></trkpt><trkpt lat="45.41255932545538" lon="7.67258923263957"><ele>509.79999999999995</ele><time>2026-04-25T13:00:11.999Z</time></trkpt><trkpt lat="45.412606621135296" lon="7.672474972093857"><ele>510.59999999999997</ele><time>2026-04-25T13:00:12.999Z</time></trkpt><trkpt lat="45.41266621677994" lon="7.672379250003229"><ele>511.4</ele><time>2026-04-25T13:00:13.999Z</time></trkpt><trkpt lat="45.41272081999552" lon="7.672255381191021"><ele>512.1999999999999</ele><time>2026-04-25T13:00:14.999Z</time></trkpt><trkpt lat="45.412783306689185" lon="7.672126841969464"><ele>513.0</ele><time>2026-04-25T13:00:15.999Z</time></trkpt><trkpt lat="45.412867922188994" lon="7.671961059695361"><ele>514.5</ele><time>2026-04-25T13:00:16.999Z</time></trkpt><trkpt lat="45.412919401811315" lon="7.671840100552104"><ele>516.0</ele><time>2026-04-25T13:00:17.999Z</time></trkpt><trkpt lat="45.41297376636121" lon="7.67172377716967"><ele>517.5</ele><time>2026-04-25T13:00:18.999Z</time></trkpt><trkpt lat="45.41306441419748" lon="7.671583956781602"><ele>519.0</ele><time>2026-04-25T13:00:19.999Z</time></trkpt><trkpt lat="45.41315431571471" lon="7.67145617687676"><ele>521.0</ele><time>2026-04-25T13:00:20.999Z</time></trkpt><trkpt lat="45.41323584990244" lon="7.671380584882129"><ele>523.0</ele><time>2026-04-25T13:00:21.999Z</time></trkpt><trkpt lat="45.41331474120324" lon="7.671269505792893"><ele>525.0</ele><time>2026-04-25T13:00:22.999Z</time></trkpt><trkpt lat="45.41342133781151" lon="7.671118121779173"><ele>527.0</ele><time>2026-04-25T13:00:23.999Z</time></trkpt><trkpt lat="45.413512810098695" lon="7.670944756100321"><ele>527.1666666666666</ele><time>2026-04-25T13:00:24.999Z</time></trkpt><trkpt lat="45.41358284913647" lon="7.67083258093152"><ele>527.3333333333333</ele><time>2026-04-25T13:00:25.999Z</time></trkpt><trkpt lat="45.41362973595828" lon="7.670737239272083"><ele>527.5</ele><time>2026-04-25T13:00:26.999Z</time></trkpt><trkpt lat="45.41365398901191" lon="7.67064261920952"><ele>527.6666666666666</ele><time>2026-04-25T13:00:27.999Z</time></trkpt><trkpt lat="45.413688769185434" lon="7.670558958398127"><ele>527.8333333333334</ele><time>2026-04-25T13:00:28.999Z</time></trkpt><trkpt lat="45.41374259648402" lon="7.670487436138707"><ele>528.0</ele><time>2026-04-25T13:00:29.999Z</time></trkpt><trkpt lat="45.41381620780133" lon="7.670444216265921"><ele>528.8</ele><time>2026-04-25T13:00:30.999Z</time></trkpt><trkpt lat="45.41388617355993" lon="7.670388265843483"><ele>529.5999999999999</ele><time>2026-04-25T13:00:31.999Z</time></trkpt><trkpt lat="45.41393687244429" lon="7.670327003133146"><ele>530.4000000000001</ele><time>2026-04-25T13:00:32.999Z</time></trkpt><trkpt lat="45.4140197302734" lon="7.670251146784855"><ele>531.2</ele><time>2026-04-25T13:00:33.999Z</time></trkpt><trkpt lat="45.41409563453697" lon="7.6701782956020965"><ele>532.0</ele><time>2026-04-25T13:00:34.999Z</time></trkpt><trkpt lat="45.41419204446311" lon="7.670091227995186"><ele>532.6</ele><time>2026-04-25T13:00:35.999Z</time></trkpt><trkpt lat="45.41429577326344" lon="7.66999085605815"><ele>533.2</ele><time>2026-04-25T13:00:36.999Z</time></trkpt><trkpt lat="45.41437417967512" lon="7.669899488218828"><ele>533.8</ele><time>2026-04-25T13:00:37.999Z</time></trkpt><trkpt lat="45.41445446684715" lon="7.66982734735314"><ele>534.4</ele><time>2026-04-25T13:00:38.999Z</time></trkpt><trkpt lat="45.41452743389428" lon="7.669743678799083"><ele>535.0</ele><time>2026-04-25T13:00:39.999Z</time></trkpt><trkpt lat="45.414614601011834" lon="7.669659928013958"><ele>536.8</ele><time>2026-04-25T13:00:40.999Z</time></trkpt><trkpt lat="45.414702734567705" lon="7.669570003403548"><ele>538.6</ele><time>2026-04-25T13:00:41.999Z</time></trkpt><trkpt lat="45.414792104796454" lon="7.6694658747446445"><ele>540.4</ele><time>2026-04-25T13:00:42.999Z</time></trkpt><trkpt lat="45.414876636658484" lon="7.669361878286104"><ele>542.2</ele><time>2026-04-25T13:00:43.999Z</time></trkpt><trkpt lat="45.41496471911293" lon="7.669267857979978"><ele>544.0</ele><time>2026-04-25T13:00:44.999Z</time></trkpt><trkpt lat="45.41505574643002" lon="7.669170225245016"><ele>545.25</ele><time>2026-04-25T13:00:45.999Z</time></trkpt><trkpt lat="45.415168765595034" lon="7.669109682797864"><ele>546.5</ele><time>2026-04-25T13:00:46.999Z</time></trkpt><trkpt lat="45.415274795751216" lon="7.6690478872551635"><ele>547.75</ele><time>2026-04-25T13:00:47.999Z</time></trkpt><trkpt lat="45.41538389487852" lon="7.668986067329741"><ele>549.0</ele><time>2026-04-25T13:00:48.999Z</time></trkpt><trkpt lat="45.4154878118789" lon="7.668914012447016"><ele>550.2</ele><time>2026-04-25T13:00:49.999Z</time></trkpt><trkpt lat="45.41559404221759" lon="7.6688663850907925"><ele>551.4</ele><time>2026-04-25T13:00:50.999Z</time></trkpt><trkpt lat="45.41568520891274" lon="7.668815366935191"><ele>552.6</ele><time>2026-04-25T13:00:51.999Z</time></trkpt><trkpt lat="45.41575665951603" lon="7.6687816266414695"><ele>553.8</ele><time>2026-04-25T13:00:52.999Z</time></trkpt><trkpt lat="45.415848582905966" lon="7.668722128879584"><ele>555.0</ele><time>2026-04-25T13:00:53.999Z</time></trkpt><trkpt lat="45.41593124204466" lon="7.668660694643136"><ele>555.8</ele><time>2026-04-25T13:00:54.999Z</time></trkpt><trkpt lat="45.41602225156355" lon="7.66860672099419"><ele>556.6</ele><time>2026-04-25T13:00:56.999Z</time></trkpt><trkpt lat="45.41607675208775" lon="7.6685528199856865"><ele>557.4</ele><time>2026-04-25T13:00:58.999Z</time></trkpt><trkpt lat="45.41616454413808" lon="7.668466348613401"><ele>558.2</ele><time>2026-04-25T13:01:03.999Z</time></trkpt><trkpt lat="45.41624370497723" lon="7.668471004112718"><ele>559.0</ele><time>2026-04-25T13:01:06Z</time></trkpt><trkpt lat="45.416353895012165" lon="7.668539419218323"><ele>558.6</ele><time>2026-04-25T13:01:08Z</time></trkpt><trkpt lat="45.41645707078648" lon="7.668575708110558"><ele>558.2</ele><time>2026-04-25T13:01:10Z</time></trkpt><trkpt lat="45.41653845998526" lon="7.6686188667780675"><ele>557.8000000000001</ele><time>2026-04-25T13:01:12Z</time></trkpt><trkpt lat="45.41665901555634" lon="7.6686843568604885"><ele>557.4</ele><time>2026-04-25T13:01:14Z</time></trkpt><trkpt lat="45.41673366263796" lon="7.668695230543878"><ele>557.0</ele><time>2026-04-25T13:01:15Z</time></trkpt><trkpt lat="45.416817609245655" lon="7.668689040014996"><ele>557.0</ele><time>2026-04-25T13:01:16Z</time></trkpt><trkpt lat="45.4169017307876" lon="7.668678123266556"><ele>557.0</ele><time>2026-04-25T13:01:17Z</time></trkpt><trkpt lat="45.41698337439478" lon="7.668603140833689"><ele>557.0</ele><time>2026-04-25T13:01:18Z</time></trkpt><trkpt lat="45.41707519836334" lon="7.668533565933116"><ele>557.0</ele><time>2026-04-25T13:01:19Z</time></trkpt><trkpt lat="45.41715536870132" lon="7.668487818805237"><ele>557.0</ele><time>2026-04-25T13:01:20Z</time></trkpt><trkpt lat="45.417227379365926" lon="7.668455015005204"><ele>557.0</ele><time>2026-04-25T13:01:21Z</time></trkpt><trkpt lat="45.41732689588271" lon="7.668352740952164"><ele>559.5</ele><time>2026-04-25T13:01:23Z</time></trkpt><trkpt lat="45.41740583220605" lon="7.668281001256247"><ele>562.0</ele><time>2026-04-25T13:01:24Z</time></trkpt><trkpt lat="45.417481588890546" lon="7.6681977706551105"><ele>564.5</ele><time>2026-04-25T13:01:25Z</time></trkpt><trkpt lat="45.417546571966064" lon="7.668145269462428"><ele>567.0</ele><time>2026-04-25T13:01:26Z</time></trkpt><trkpt lat="45.417614203400724" lon="7.668075231718489"><ele>569.5</ele><time>2026-04-25T13:01:27Z</time></trkpt><trkpt lat="45.417687867606716" lon="7.667997826169351"><ele>572.0</ele><time>2026-04-25T13:01:28Z</time></trkpt><trkpt lat="45.417744180986524" lon="7.66793634739061"><ele>572.0</ele><time>2026-04-25T13:01:29Z</time></trkpt><trkpt lat="45.417801234256565" lon="7.66786176482445"><ele>572.0</ele><time>2026-04-25T13:01:30Z</time></trkpt><trkpt lat="45.41786136887503" lon="7.667822799635265"><ele>572.0</ele><time>2026-04-25T13:01:31Z</time></trkpt><trkpt lat="45.41795378243325" lon="7.66782588335709"><ele>572.0</ele><time>2026-04-25T13:01:32Z</time></trkpt><trkpt lat="45.41803259670755" lon="7.6678132776142345"><ele>572.0</ele><time>2026-04-25T13:01:33Z</time></trkpt><trkpt lat="45.418124990064214" lon="7.66780546643227"><ele>572.0</ele><time>2026-04-25T13:01:34Z</time></trkpt><trkpt lat="45.418221192558214" lon="7.667806033383172"><ele>572.0</ele><time>2026-04-25T13:01:35Z</time></trkpt><trkpt lat="45.418335942282205" lon="7.66781912934125"><ele>572.0</ele><time>2026-04-25T13:01:36Z</time></trkpt><trkpt lat="45.41842963321787" lon="7.667833896094575"><ele>572.0</ele><time>2026-04-25T13:01:37Z</time></trkpt><trkpt lat="45.41852362528397" lon="7.667847215149566"><ele>572.0</ele><time>2026-04-25T13:01:38Z</time></trkpt><trkpt lat="45.41861242205199" lon="7.667852220822801"><ele>572.0</ele><time>2026-04-25T13:01:39Z</time></trkpt><trkpt lat="45.418701244650805" lon="7.6678533949400585"><ele>572.0</ele><time>2026-04-25T13:01:40Z</time></trkpt><trkpt lat="45.41878732740483" lon="7.667845401415934"><ele>572.0</ele><time>2026-04-25T13:01:41Z</time></trkpt><trkpt lat="45.41886556722284" lon="7.667827054534145"><ele>572.0</ele><time>2026-04-25T13:01:42Z</time></trkpt><trkpt lat="45.41894632220624" lon="7.667770877330202"><ele>572.0</ele><time>2026-04-25T13:01:43Z</time></trkpt><trkpt lat="45.419020930506626" lon="7.667701268485385"><ele>572.0</ele><time>2026-04-25T13:01:44Z</time></trkpt><trkpt lat="45.41909938762914" lon="7.667611378029565"><ele>572.0</ele><time>2026-04-25T13:01:45Z</time></trkpt><trkpt lat="45.41917742196422" lon="7.667537236507311"><ele>575.4</ele><time>2026-04-25T13:01:46Z</time></trkpt><trkpt lat="45.41927140041583" lon="7.667491881329502"><ele>578.8000000000001</ele><time>2026-04-25T13:01:47Z</time></trkpt><trkpt lat="45.41937677628509" lon="7.667459861004185"><ele>582.2</ele><time>2026-04-25T13:01:48Z</time></trkpt><trkpt lat="45.419495528678475" lon="7.667427557884738"><ele>585.6</ele><time>2026-04-25T13:01:49Z</time></trkpt><trkpt lat="45.419613587869684" lon="7.667395443455886"><ele>589.0</ele><time>2026-04-25T13:01:50Z</time></trkpt><trkpt lat="45.41973903041861" lon="7.667364526950508"><ele>591.0</ele><time>2026-04-25T13:01:51Z</time></trkpt><trkpt lat="45.41986565071099" lon="7.667326113590867"><ele>593.0</ele><time>2026-04-25T13:01:52Z</time></trkpt><trkpt lat="45.419973563667355" lon="7.667237009443779"><ele>595.0</ele><time>2026-04-25T13:01:53Z</time></trkpt><trkpt lat="45.42007737469776" lon="7.667223656306638"><ele>597.0</ele><time>2026-04-25T13:01:53.999Z</time></trkpt><trkpt lat="45.42014755498028" lon="7.667226575747119"><ele>599.0</ele><time>2026-04-25T13:01:54.999Z</time></trkpt><trkpt lat="45.42025662512943" lon="7.66731294844566"><ele>599.0</ele><time>2026-04-25T13:01:56.999Z</time></trkpt><trkpt lat="45.42038302328623" lon="7.667305684070847"><ele>599.0</ele><time>2026-04-25T13:01:58.999Z</time></trkpt><trkpt lat="45.42045995008985" lon="7.66725055726956"><ele>599.0</ele><time>2026-04-25T13:01:59.999Z</time></trkpt><trkpt lat="45.4205439127951" lon="7.667227130293518"><ele>599.0</ele><time>2026-04-25T13:02:00.999Z</time></trkpt><trkpt lat="45.42063827150158" lon="7.667248151922207"><ele>599.0</ele><time>2026-04-25T13:02:01.999Z</time></trkpt><trkpt lat="45.42072917113024" lon="7.667271916430001"><ele>601.6666666666666</ele><time>2026-04-25T13:02:02.999Z</time></trkpt><trkpt lat="45.42082045080238" lon="7.667287284740361"><ele>604.3333333333333</ele><time>2026-04-25T13:02:04.999Z</time></trkpt><trkpt lat="45.42089345832907" lon="7.667279534544558"><ele>607.0</ele><time>2026-04-25T13:02:06.999Z</time></trkpt><trkpt lat="45.42095668494375" lon="7.667246966604602"><ele>609.6666666666666</ele><time>2026-04-25T13:02:08.999Z</time></trkpt><trkpt lat="45.421038397716536" lon="7.667202868933239"><ele>612.3333333333334</ele><time>2026-04-25T13:02:10.999Z</time></trkpt><trkpt lat="45.421095063336764" lon="7.667120082503298"><ele>615.0</ele><time>2026-04-25T13:02:12.999Z</time></trkpt><trkpt lat="45.421167869957046" lon="7.6670591360260225"><ele>615.0</ele><time>2026-04-25T13:02:15.999Z</time></trkpt><trkpt lat="45.421228923064895" lon="7.667034841249828"><ele>615.0</ele><time>2026-04-25T13:03:05.999Z</time></trkpt><trkpt lat="45.42116542040801" lon="7.667049568794203"><ele>615.0</ele><time>2026-04-25T13:03:13Z</time></trkpt><trkpt lat="45.42109301042317" lon="7.6671204617585955"><ele>615.0</ele><time>2026-04-25T13:03:16Z</time></trkpt><trkpt lat="45.4210447979797" lon="7.6671805592312925"><ele>615.0</ele><time>2026-04-25T13:03:19Z</time></trkpt><trkpt lat="45.42098752838681" lon="7.6672363546141105"><ele>615.0</ele><time>2026-04-25T13:03:22Z</time></trkpt><trkpt lat="45.42091775381155" lon="7.66722837049584"><ele>615.0</ele><time>2026-04-25T13:03:25Z</time></trkpt><trkpt lat="45.420926152458414" lon="7.667135861194966"><ele>615.0</ele><time>2026-04-25T13:03:30Z</time></trkpt><trkpt lat="45.42095331927468" lon="7.667053809848225"><ele>615.0</ele><time>2026-04-25T13:03:34Z</time></trkpt><trkpt lat="45.42097594853253" lon="7.666937856555902"><ele>615.0</ele><time>2026-04-25T13:03:38Z</time></trkpt><trkpt lat="45.4209901072805" lon="7.666834757399481"><ele>615.0</ele><time>2026-04-25T13:03:41Z</time></trkpt><trkpt lat="45.420984668124035" lon="7.666740501420302"><ele>615.0</ele><time>2026-04-25T13:03:44Z</time></trkpt><trkpt lat="45.42100922420119" lon="7.666616403728604"><ele>615.0</ele><time>2026-04-25T13:03:50Z</time></trkpt><trkpt lat="45.42104712865847" lon="7.666527317256125"><ele>616.6666666666666</ele><time>2026-04-25T13:03:52Z</time></trkpt><trkpt lat="45.42110691437622" lon="7.666449506859132"><ele>618.3333333333334</ele><time>2026-04-25T13:03:55Z</time></trkpt><trkpt lat="45.42115585618189" lon="7.666358137519733"><ele>620.0</ele><time>2026-04-25T13:03:57Z</time></trkpt><trkpt lat="45.42122495374221" lon="7.666319512857254"><ele>621.6666666666667</ele><time>2026-04-25T13:03:59Z</time></trkpt><trkpt lat="45.42131375493573" lon="7.666254833292668"><ele>623.3333333333334</ele><time>2026-04-25T13:04:02Z</time></trkpt><trkpt lat="45.42137279155218" lon="7.6661776191147"><ele>625.0</ele><time>2026-04-25T13:04:05Z</time></trkpt><trkpt lat="45.42145454851528" lon="7.6661131762289045"><ele>627.7142857142858</ele><time>2026-04-25T13:04:08Z</time></trkpt><trkpt lat="45.42151311910906" lon="7.666065628726154"><ele>630.4285714285714</ele><time>2026-04-25T13:04:11Z</time></trkpt><trkpt lat="45.42157428711842" lon="7.666034992919005"><ele>633.1428571428571</ele><time>2026-04-25T13:04:13Z</time></trkpt><trkpt lat="45.421653048959705" lon="7.665973661105956"><ele>635.8571428571429</ele><time>2026-04-25T13:04:16Z</time></trkpt><trkpt lat="45.421717574143784" lon="7.665947515114332"><ele>638.5714285714286</ele><time>2026-04-25T13:04:18.999Z</time></trkpt><trkpt lat="45.42178718821041" lon="7.6659166036698565"><ele>641.2857142857143</ele><time>2026-04-25T13:04:20.999Z</time></trkpt><trkpt lat="45.42184955717743" lon="7.665882648211918"><ele>644.0</ele><time>2026-04-25T13:04:22.999Z</time></trkpt><trkpt lat="45.421909708863005" lon="7.665849981800843"><ele>644.0</ele><time>2026-04-25T13:04:26.999Z</time></trkpt><trkpt lat="45.4219710087286" lon="7.6658110229145535"><ele>644.0</ele><time>2026-04-25T13:04:59.999Z</time></trkpt><trkpt lat="45.421897446863284" lon="7.665805345015538"><ele>644.0</ele><time>2026-04-25T13:05:14.999Z</time></trkpt><trkpt lat="45.42182584907225" lon="7.665875066187681"><ele>644.0</ele><time>2026-04-25T13:05:18Z</time></trkpt><trkpt lat="45.421742899342355" lon="7.66590748704685"><ele>644.0</ele><time>2026-04-25T13:05:20Z</time></trkpt><trkpt lat="45.421666172659776" lon="7.665940774320774"><ele>644.0</ele><time>2026-04-25T13:05:23Z</time></trkpt><trkpt lat="45.42156793431818" lon="7.6659800118987445"><ele>644.0</ele><time>2026-04-25T13:05:28Z</time></trkpt><trkpt lat="45.42147400727361" lon="7.666044345597142"><ele>644.0</ele><time>2026-04-25T13:05:32Z</time></trkpt><trkpt lat="45.42141731776786" lon="7.666101631251979"><ele>644.0</ele><time>2026-04-25T13:05:34Z</time></trkpt><trkpt lat="45.42134724461532" lon="7.666132242688804"><ele>644.0</ele><time>2026-04-25T13:06:16Z</time></trkpt><trkpt lat="45.421275874664744" lon="7.666189678323151"><ele>644.0</ele><time>2026-04-25T13:06:22.999Z</time></trkpt><trkpt lat="45.421226554287614" lon="7.666249361414885"><ele>644.0</ele><time>2026-04-25T13:06:26.999Z</time></trkpt><trkpt lat="45.421170286194304" lon="7.6663458525754065"><ele>640.8333333333333</ele><time>2026-04-25T13:06:29.999Z</time></trkpt><trkpt lat="45.421112865871464" lon="7.666449599307509"><ele>637.6666666666666</ele><time>2026-04-25T13:06:32.999Z</time></trkpt><trkpt lat="45.42106302023221" lon="7.6665432479451106"><ele>634.5</ele><time>2026-04-25T13:06:35.999Z</time></trkpt><trkpt lat="45.420994232360734" lon="7.666607486995004"><ele>631.3333333333334</ele><time>2026-04-25T13:06:39.999Z</time></trkpt><trkpt lat="45.42100477631556" lon="7.6667217733285415"><ele>628.1666666666667</ele><time>2026-04-25T13:06:43.999Z</time></trkpt><trkpt lat="45.42097184297938" lon="7.6668324038885265"><ele>625.0</ele><time>2026-04-25T13:06:46.999Z</time></trkpt><trkpt lat="45.42095043774355" lon="7.666941448042661"><ele>623.3333333333334</ele><time>2026-04-25T13:06:49.999Z</time></trkpt><trkpt lat="45.420905537378694" lon="7.667014665606331"><ele>621.6666666666667</ele><time>2026-04-25T13:06:53.999Z</time></trkpt><trkpt lat="45.420885389849175" lon="7.667152602995926"><ele>620.0</ele><time>2026-04-25T13:07:02.999Z</time></trkpt><trkpt lat="45.420952978477665" lon="7.667222373692187"><ele>618.3333333333334</ele><time>2026-04-25T13:07:10.999Z</time></trkpt><trkpt lat="45.421032531725906" lon="7.667195101155327"><ele>616.6666666666666</ele><time>2026-04-25T13:07:11.999Z</time></trkpt><trkpt lat="45.42109104754431" lon="7.667131217011157"><ele>615.0</ele><time>2026-04-25T13:07:15.999Z</time></trkpt><trkpt lat="45.421184615972194" lon="7.667085847846534"><ele>615.0</ele><time>2026-04-25T13:07:32Z</time></trkpt><trkpt lat="45.4212498883591" lon="7.6671285612331435"><ele>615.0</ele><time>2026-04-25T13:08:18Z</time></trkpt><trkpt lat="45.42131239204998" lon="7.667107985408092"><ele>615.0</ele><time>2026-04-25T13:09:19.999Z</time></trkpt><trkpt lat="45.421385014281924" lon="7.667055552601249"><ele>615.0</ele><time>2026-04-25T13:09:23.999Z</time></trkpt><trkpt lat="45.42144946841484" lon="7.667053596238951"><ele>615.0</ele><time>2026-04-25T13:09:49Z</time></trkpt><trkpt lat="45.42150096342705" lon="7.666992274413231"><ele>615.0</ele><time>2026-04-25T13:09:52Z</time></trkpt><trkpt lat="45.42145845012617" lon="7.6669247263653455"><ele>615.0</ele><time>2026-04-25T13:10:08Z</time></trkpt><trkpt lat="45.42151904711741" lon="7.6668837012362765"><ele>616.4285714285714</ele><time>2026-04-25T13:10:19Z</time></trkpt><trkpt lat="45.42148517841199" lon="7.666799413375735"><ele>617.8571428571429</ele><time>2026-04-25T13:10:26Z</time></trkpt><trkpt lat="45.42142087822241" lon="7.6668078722990955"><ele>619.2857142857143</ele><time>2026-04-25T13:10:37Z</time></trkpt><trkpt lat="45.42135666644167" lon="7.666759649223959"><ele>620.7142857142858</ele><time>2026-04-25T13:10:44.999Z</time></trkpt><trkpt lat="45.42129330361407" lon="7.666711019217904"><ele>622.1428571428571</ele><time>2026-04-25T13:10:51.999Z</time></trkpt><trkpt lat="45.42133364970251" lon="7.666636162849134"><ele>623.5714285714287</ele><time>2026-04-25T13:11:09.999Z</time></trkpt><trkpt lat="45.4213978511529" lon="7.666595077440982"><ele>625.0</ele><time>2026-04-25T13:11:14.999Z</time></trkpt><trkpt lat="45.421474686347246" lon="7.6665573446731585"><ele>627.8</ele><time>2026-04-25T13:11:17.999Z</time></trkpt><trkpt lat="45.421538475159984" lon="7.66648483556221"><ele>630.6</ele><time>2026-04-25T13:11:19.999Z</time></trkpt><trkpt lat="45.42167576512749" lon="7.66640287563229"><ele>633.4</ele><time>2026-04-25T13:11:21.999Z</time></trkpt><trkpt lat="45.42175053210233" lon="7.66632193535666"><ele>636.2</ele><time>2026-04-25T13:11:23.999Z</time></trkpt><trkpt lat="45.42184718899162" lon="7.666268668452041"><ele>639.0</ele><time>2026-04-25T13:11:25.999Z</time></trkpt><trkpt lat="45.421926633363654" lon="7.666230400412057"><ele>639.0</ele><time>2026-04-25T13:11:26.999Z</time></trkpt><trkpt lat="45.42199810718186" lon="7.666168682026221"><ele>639.0</ele><time>2026-04-25T13:11:27.999Z</time></trkpt><trkpt lat="45.42209762253048" lon="7.666120841750217"><ele>639.0</ele><time>2026-04-25T13:11:28.999Z</time></trkpt><trkpt lat="45.42221480820124" lon="7.666050691047665"><ele>639.0</ele><time>2026-04-25T13:11:29.999Z</time></trkpt><trkpt lat="45.42228100831348" lon="7.666010378859941"><ele>639.0</ele><time>2026-04-25T13:11:30.999Z</time></trkpt><trkpt lat="45.42237424217183" lon="7.665953158579866"><ele>641.6</ele><time>2026-04-25T13:11:32.999Z</time></trkpt><trkpt lat="45.42244961289441" lon="7.665888718410349"><ele>644.2</ele><time>2026-04-25T13:11:35Z</time></trkpt><trkpt lat="45.422513872039225" lon="7.665805458271029"><ele>646.8000000000001</ele><time>2026-04-25T13:11:40Z</time></trkpt><trkpt lat="45.422599780146484" lon="7.665803023034759"><ele>649.4</ele><time>2026-04-25T13:11:44Z</time></trkpt><trkpt lat="45.42268784264794" lon="7.665711536961676"><ele>652.0</ele><time>2026-04-25T13:11:46Z</time></trkpt><trkpt lat="45.42277284802154" lon="7.665624295471147"><ele>652.0</ele><time>2026-04-25T13:11:48Z</time></trkpt><trkpt lat="45.42288564910392" lon="7.665537928989496"><ele>652.0</ele><time>2026-04-25T13:11:51Z</time></trkpt><trkpt lat="45.422908441148074" lon="7.665428761158493"><ele>652.0</ele><time>2026-04-25T13:11:53Z</time></trkpt><trkpt lat="45.422986742454036" lon="7.665307542827834"><ele>652.0</ele><time>2026-04-25T13:11:55Z</time></trkpt><trkpt lat="45.42315869059173" lon="7.6650600553205335"><ele>655.2</ele><time>2026-04-25T13:11:57Z</time></trkpt><trkpt lat="45.42325728612313" lon="7.664986737535812"><ele>658.4000000000001</ele><time>2026-04-25T13:11:58Z</time></trkpt><trkpt lat="45.423343639499684" lon="7.6649320249340125"><ele>661.5999999999999</ele><time>2026-04-25T13:11:59Z</time></trkpt><trkpt lat="45.42342311627166" lon="7.664865159739306"><ele>664.8</ele><time>2026-04-25T13:12:00Z</time></trkpt><trkpt lat="45.423486789218146" lon="7.664803875970953"><ele>668.0</ele><time>2026-04-25T13:12:01Z</time></trkpt><trkpt lat="45.423602477935475" lon="7.664760697371687"><ele>668.0</ele><time>2026-04-25T13:12:04Z</time></trkpt><trkpt lat="45.4236875679029" lon="7.664746017589844"><ele>668.0</ele><time>2026-04-25T13:12:05Z</time></trkpt><trkpt lat="45.42378503753812" lon="7.664728046205844"><ele>668.0</ele><time>2026-04-25T13:12:07Z</time></trkpt><trkpt lat="45.42387867297191" lon="7.664690302375396"><ele>668.0</ele><time>2026-04-25T13:12:09Z</time></trkpt><trkpt lat="45.423956811670806" lon="7.664625291416693"><ele>668.0</ele><time>2026-04-25T13:12:11Z</time></trkpt><trkpt lat="45.42400607148213" lon="7.6645510006432005"><ele>668.0</ele><time>2026-04-25T13:13:05.999Z</time></trkpt><trkpt lat="45.42395480148805" lon="7.664616168791642"><ele>668.0</ele><time>2026-04-25T13:13:12.999Z</time></trkpt><trkpt lat="45.42389634802455" lon="7.664667373548907"><ele>668.0</ele><time>2026-04-25T13:13:18.999Z</time></trkpt><trkpt lat="45.423835037962895" lon="7.664706774658508"><ele>668.0</ele><time>2026-04-25T13:13:21.999Z</time></trkpt><trkpt lat="45.42377182428443" lon="7.6647507963648245"><ele>668.0</ele><time>2026-04-25T13:13:24.999Z</time></trkpt><trkpt lat="45.423693170415916" lon="7.664757970721237"><ele>668.0</ele><time>2026-04-25T13:13:26.999Z</time></trkpt><trkpt lat="45.42373889915243" lon="7.664673029344952"><ele>668.0</ele><time>2026-04-25T13:13:36.999Z</time></trkpt><trkpt lat="45.423797400399756" lon="7.664632253398243"><ele>668.0</ele><time>2026-04-25T13:13:48Z</time></trkpt><trkpt lat="45.423734233364385" lon="7.664603010663236"><ele>668.0</ele><time>2026-04-25T13:13:55Z</time></trkpt><trkpt lat="45.423706679946015" lon="7.664508209311901"><ele>668.0</ele><time>2026-04-25T13:13:58Z</time></trkpt><trkpt lat="45.42371781297079" lon="7.6643692675960065"><ele>668.0</ele><time>2026-04-25T13:14:18Z</time></trkpt><trkpt lat="45.42371672672334" lon="7.66426757454908"><ele>668.0</ele><time>2026-04-25T13:14:19Z</time></trkpt><trkpt lat="45.423695240183086" lon="7.664165644515829"><ele>668.0</ele><time>2026-04-25T13:14:23Z</time></trkpt><trkpt lat="45.42376492138704" lon="7.664134838872059"><ele>668.0</ele><time>2026-04-25T13:14:25Z</time></trkpt><trkpt lat="45.42383951327629" lon="7.664135430454143"><ele>670.0</ele><time>2026-04-25T13:14:26Z</time></trkpt><trkpt lat="45.42392848425952" lon="7.664141109687493"><ele>672.0</ele><time>2026-04-25T13:14:27Z</time></trkpt><trkpt lat="45.42402359061784" lon="7.66413903373137"><ele>674.0</ele><time>2026-04-25T13:14:28Z</time></trkpt><trkpt lat="45.424123204070774" lon="7.664045864221628"><ele>676.0</ele><time>2026-04-25T13:14:30Z</time></trkpt><trkpt lat="45.424169729762525" lon="7.663950912896455"><ele>678.0</ele><time>2026-04-25T13:14:31Z</time></trkpt><trkpt lat="45.42421992544653" lon="7.663835898872421"><ele>678.0</ele><time>2026-04-25T13:14:32Z</time></trkpt><trkpt lat="45.42428728524393" lon="7.663719697971605"><ele>678.0</ele><time>2026-04-25T13:14:33Z</time></trkpt><trkpt lat="45.42435654347125" lon="7.66363054477018"><ele>678.0</ele><time>2026-04-25T13:14:34Z</time></trkpt><trkpt lat="45.42443125004112" lon="7.663584556421217"><ele>678.0</ele><time>2026-04-25T13:14:35Z</time></trkpt><trkpt lat="45.42448244583158" lon="7.663522513334434"><ele>678.0</ele><time>2026-04-25T13:14:36Z</time></trkpt><trkpt lat="45.42453462030929" lon="7.663468457352602"><ele>678.0</ele><time>2026-04-25T13:14:37Z</time></trkpt><trkpt lat="45.42459717932921" lon="7.663410710389354"><ele>678.75</ele><time>2026-04-25T13:14:37.999Z</time></trkpt><trkpt lat="45.42474426268798" lon="7.663669534777361"><ele>679.5</ele><time>2026-04-25T13:14:38.999Z</time></trkpt><trkpt lat="45.42484336378398" lon="7.663623614548187"><ele>680.25</ele><time>2026-04-25T13:14:39.999Z</time></trkpt><trkpt lat="45.42492781104516" lon="7.663598680276343"><ele>681.0</ele><time>2026-04-25T13:14:40.999Z</time></trkpt><trkpt lat="45.42500716017167" lon="7.66356721950613"><ele>681.0</ele><time>2026-04-25T13:14:42.999Z</time></trkpt><trkpt lat="45.42500549095478" lon="7.663835600736557"><ele>681.0</ele><time>2026-04-25T13:14:45.999Z</time></trkpt><trkpt lat="45.424984246464284" lon="7.663956226523389"><ele>681.0</ele><time>2026-04-25T13:14:47.999Z</time></trkpt><trkpt lat="45.425041745777975" lon="7.664028647495395"><ele>681.0</ele><time>2026-04-25T13:14:49.999Z</time></trkpt><trkpt lat="45.42513988592428" lon="7.6640554781562"><ele>681.0</ele><time>2026-04-25T13:14:51.999Z</time></trkpt><trkpt lat="45.42528368054685" lon="7.664083302900077"><ele>681.0</ele><time>2026-04-25T13:14:53.999Z</time></trkpt><trkpt lat="45.425381395853165" lon="7.6640957941503975"><ele>681.0</ele><time>2026-04-25T13:14:54.999Z</time></trkpt><trkpt lat="45.42550845238666" lon="7.664111581974781"><ele>681.0</ele><time>2026-04-25T13:14:55.999Z</time></trkpt><trkpt lat="45.425595742973684" lon="7.6641659592688"><ele>683.8</ele><time>2026-04-25T13:14:56.999Z</time></trkpt><trkpt lat="45.42567049127166" lon="7.664211801012857"><ele>686.5999999999999</ele><time>2026-04-25T13:14:57.999Z</time></trkpt><trkpt lat="45.42576033767553" lon="7.664225024307596"><ele>689.4</ele><time>2026-04-25T13:14:58.999Z</time></trkpt><trkpt lat="45.42585998275454" lon="7.664273101145395"><ele>692.2</ele><time>2026-04-25T13:14:59.999Z</time></trkpt><trkpt lat="45.42593296171227" lon="7.6642710712994795"><ele>695.0</ele><time>2026-04-25T13:15:00.999Z</time></trkpt><trkpt lat="45.426093963332065" lon="7.664205892509901"><ele>695.0</ele><time>2026-04-25T13:15:02.999Z</time></trkpt><trkpt lat="45.426169708307576" lon="7.664174107741265"><ele>695.0</ele><time>2026-04-25T13:15:03.999Z</time></trkpt><trkpt lat="45.426255579497415" lon="7.664186511515388"><ele>695.0</ele><time>2026-04-25T13:15:04.999Z</time></trkpt><trkpt lat="45.426334577783386" lon="7.664196968169945"><ele>695.0</ele><time>2026-04-25T13:15:05.999Z</time></trkpt><trkpt lat="45.42641436677573" lon="7.664168545577493"><ele>695.0</ele><time>2026-04-25T13:15:06.999Z</time></trkpt><trkpt lat="45.42650944978779" lon="7.6641691087274255"><ele>695.0</ele><time>2026-04-25T13:15:07.999Z</time></trkpt><trkpt lat="45.42660235061816" lon="7.664158860036547"><ele>696.3333333333333</ele><time>2026-04-25T13:15:08.999Z</time></trkpt><trkpt lat="45.42662416665376" lon="7.664243790667625"><ele>697.6666666666666</ele><time>2026-04-25T13:15:16.999Z</time></trkpt><trkpt lat="45.42667812486706" lon="7.664359232614374"><ele>699.0</ele><time>2026-04-25T13:15:20.999Z</time></trkpt><trkpt lat="45.42673657261616" lon="7.6643945467392385"><ele>700.3333333333334</ele><time>2026-04-25T13:15:22.999Z</time></trkpt><trkpt lat="45.426774203162324" lon="7.664469264975708"><ele>701.6666666666667</ele><time>2026-04-25T13:15:24.999Z</time></trkpt><trkpt lat="45.426890225346305" lon="7.664518146634852"><ele>703.0</ele><time>2026-04-25T13:15:26.999Z</time></trkpt><trkpt lat="45.426967075233684" lon="7.664502640318005"><ele>703.0</ele><time>2026-04-25T13:15:28.999Z</time></trkpt><trkpt lat="45.427036495693194" lon="7.664454388594995"><ele>703.0</ele><time>2026-04-25T13:15:31.999Z</time></trkpt><trkpt lat="45.427088928046615" lon="7.664375518276392"><ele>703.0</ele><time>2026-04-25T13:15:34.999Z</time></trkpt><trkpt lat="45.42718163492002" lon="7.664306706179333"><ele>703.0</ele><time>2026-04-25T13:15:36.999Z</time></trkpt><trkpt lat="45.427288037497775" lon="7.664266418060182"><ele>703.0</ele><time>2026-04-25T13:15:38.999Z</time></trkpt><trkpt lat="45.42741887980768" lon="7.664241704595039"><ele>705.0</ele><time>2026-04-25T13:16:57.999Z</time></trkpt><trkpt lat="45.4274590838778" lon="7.664168357053495"><ele>707.0</ele><time>2026-04-25T13:18:19Z</time></trkpt><trkpt lat="45.4273847580439" lon="7.664097306551776"><ele>709.0</ele><time>2026-04-25T13:18:35Z</time></trkpt><trkpt lat="45.427485242030286" lon="7.664166810558961"><ele>711.0</ele><time>2026-04-25T13:21:16.999Z</time></trkpt><trkpt lat="45.427422211026176" lon="7.6641499959465005"><ele>713.0</ele><time>2026-04-25T13:21:38.999Z</time></trkpt><trkpt lat="45.42735959939782" lon="7.664248759635974"><ele>715.0</ele><time>2026-04-25T13:21:58.999Z</time></trkpt><trkpt lat="45.427339307694" lon="7.664148295762572"><ele>715.0</ele><time>2026-04-25T13:35:11Z</time></trkpt><trkpt lat="45.427331628320196" lon="7.664246049668739"><ele>715.0</ele><time>2026-04-25T13:35:17Z</time></trkpt><trkpt lat="45.42729736846063" lon="7.664169547720291"><ele>715.0</ele><time>2026-04-25T13:35:40Z</time></trkpt><trkpt lat="45.42739945249159" lon="7.664242431218036"><ele>715.0</ele><time>2026-04-25T13:36:59.998Z</time></trkpt><trkpt lat="45.427465392549415" lon="7.664232829206386"><ele>715.0</ele><time>2026-04-25T13:37:58.999Z</time></trkpt><trkpt lat="45.42745443246415" lon="7.664321911595534"><ele>715.0</ele><time>2026-04-25T13:39:41.998Z</time></trkpt><trkpt lat="45.42742385891384" lon="7.664241830509997"><ele>715.0</ele><time>2026-04-25T13:40:08.999Z</time></trkpt><trkpt lat="45.42749335728148" lon="7.664190202383119"><ele>715.0</ele><time>2026-04-25T13:40:47.999Z</time></trkpt><trkpt lat="45.4274219402538" lon="7.664217413386237"><ele>715.0</ele><time>2026-04-25T13:41:10.997Z</time></trkpt><trkpt lat="45.42737903873749" lon="7.66428721311745"><ele>715.0</ele><time>2026-04-25T13:52:15.001Z</time></trkpt><trkpt lat="45.42743246652921" lon="7.6642310854138325"><ele>715.0</ele><time>2026-04-25T13:52:40.001Z</time></trkpt><trkpt lat="45.427362306982026" lon="7.664290593732467"><ele>715.0</ele><time>2026-04-25T13:53:27.001Z</time></trkpt><trkpt lat="45.427301715538945" lon="7.664349899948829"><ele>715.0</ele><time>2026-04-25T13:53:29.001Z</time></trkpt><trkpt lat="45.42724344562745" lon="7.664387961403364"><ele>715.0</ele><time>2026-04-25T13:53:30.001Z</time></trkpt><trkpt lat="45.427186721173406" lon="7.664447168184745"><ele>714.5</ele><time>2026-04-25T13:53:31.001Z</time></trkpt><trkpt lat="45.42711904172536" lon="7.664486234672576"><ele>714.0</ele><time>2026-04-25T13:53:32.001Z</time></trkpt><trkpt lat="45.42706572583051" lon="7.664540414154631"><ele>713.5</ele><time>2026-04-25T13:53:33.001Z</time></trkpt><trkpt lat="45.426980021551216" lon="7.664542180071075"><ele>713.0</ele><time>2026-04-25T13:53:34.999Z</time></trkpt><trkpt lat="45.42689917541924" lon="7.664540041227872"><ele>712.5</ele><time>2026-04-25T13:53:36.999Z</time></trkpt><trkpt lat="45.42681696904074" lon="7.664462414337041"><ele>712.0</ele><time>2026-04-25T13:53:38.999Z</time></trkpt><trkpt lat="45.4267392012703" lon="7.6644429809683485"><ele>712.0</ele><time>2026-04-25T13:53:41.999Z</time></trkpt><trkpt lat="45.4267560166851" lon="7.664327588265221"><ele>712.0</ele><time>2026-04-25T13:53:47.999Z</time></trkpt><trkpt lat="45.426680382941264" lon="7.664281976157652"><ele>712.0</ele><time>2026-04-25T13:53:52.999Z</time></trkpt><trkpt lat="45.42658157493522" lon="7.664324185179867"><ele>712.0</ele><time>2026-04-25T13:53:55Z</time></trkpt><trkpt lat="45.426525180562884" lon="7.66440332227246"><ele>712.0</ele><time>2026-04-25T13:53:57Z</time></trkpt><trkpt lat="45.426536827434234" lon="7.6644987367617725"><ele>712.0</ele><time>2026-04-25T13:54:01Z</time></trkpt><trkpt lat="45.42648285433613" lon="7.6645831528642905"><ele>712.0</ele><time>2026-04-25T13:54:03Z</time></trkpt><trkpt lat="45.426363675018386" lon="7.664646697673657"><ele>712.0</ele><time>2026-04-25T13:54:05Z</time></trkpt><trkpt lat="45.426288127878635" lon="7.66469818262724"><ele>712.0</ele><time>2026-04-25T13:54:07Z</time></trkpt><trkpt lat="45.42622448558947" lon="7.664665191480036"><ele>712.0</ele><time>2026-04-25T13:54:09Z</time></trkpt><trkpt lat="45.42616095340586" lon="7.664711625012007"><ele>712.0</ele><time>2026-04-25T13:54:50Z</time></trkpt><trkpt lat="45.426239819813624" lon="7.664763412122673"><ele>712.0</ele><time>2026-04-25T13:54:55Z</time></trkpt><trkpt lat="45.42617706080872" lon="7.664716209711852"><ele>707.75</ele><time>2026-04-25T13:55:07Z</time></trkpt><trkpt lat="45.42607726300038" lon="7.664750958846514"><ele>703.5</ele><time>2026-04-25T13:55:11Z</time></trkpt><trkpt lat="45.42591035147356" lon="7.6647559575681585"><ele>699.25</ele><time>2026-04-25T13:55:13Z</time></trkpt><trkpt lat="45.425815095336375" lon="7.664779488831945"><ele>695.0</ele><time>2026-04-25T13:55:14Z</time></trkpt><trkpt lat="45.42572836873404" lon="7.66476710117655"><ele>695.0</ele><time>2026-04-25T13:55:15Z</time></trkpt><trkpt lat="45.42565161852687" lon="7.664782464725014"><ele>695.0</ele><time>2026-04-25T13:55:16Z</time></trkpt><trkpt lat="45.4255413288475" lon="7.664830264989474"><ele>695.0</ele><time>2026-04-25T13:55:17Z</time></trkpt><trkpt lat="45.42543717189616" lon="7.6649098198454"><ele>695.0</ele><time>2026-04-25T13:55:18Z</time></trkpt><trkpt lat="45.42533496539415" lon="7.664926539021698"><ele>695.0</ele><time>2026-04-25T13:55:19Z</time></trkpt><trkpt lat="45.425254201058" lon="7.664948145368778"><ele>690.75</ele><time>2026-04-25T13:55:20Z</time></trkpt><trkpt lat="45.425142084596644" lon="7.664989270918039"><ele>686.5</ele><time>2026-04-25T13:55:22Z</time></trkpt><trkpt lat="45.42501915407435" lon="7.6650945423114285"><ele>682.25</ele><time>2026-04-25T13:55:23Z</time></trkpt><trkpt lat="45.424915543892894" lon="7.665172168156643"><ele>678.0</ele><time>2026-04-25T13:55:24Z</time></trkpt><trkpt lat="45.42487995845113" lon="7.665277071234216"><ele>679.6666666666666</ele><time>2026-04-25T13:55:25Z</time></trkpt><trkpt lat="45.424837640224986" lon="7.665367473165196"><ele>681.3333333333334</ele><time>2026-04-25T13:55:26Z</time></trkpt><trkpt lat="45.42479504467058" lon="7.665483679411484"><ele>683.0</ele><time>2026-04-25T13:55:27Z</time></trkpt><trkpt lat="45.424753931547265" lon="7.6656010063329845"><ele>684.6666666666667</ele><time>2026-04-25T13:55:28Z</time></trkpt><trkpt lat="45.424731074155794" lon="7.665695100935873"><ele>686.3333333333334</ele><time>2026-04-25T13:55:29Z</time></trkpt><trkpt lat="45.42466247976551" lon="7.665660854327645"><ele>688.0</ele><time>2026-04-25T13:55:31Z</time></trkpt><trkpt lat="45.424598572726225" lon="7.665815770221121"><ele>686.2</ele><time>2026-04-25T13:55:34Z</time></trkpt><trkpt lat="45.42454136374106" lon="7.665913956050855"><ele>684.4</ele><time>2026-04-25T13:55:35Z</time></trkpt><trkpt lat="45.42443451976389" lon="7.665984534275872"><ele>682.6</ele><time>2026-04-25T13:55:36Z</time></trkpt><trkpt lat="45.42432743742088" lon="7.666071099901962"><ele>680.8000000000001</ele><time>2026-04-25T13:55:37Z</time></trkpt><trkpt lat="45.42425523169088" lon="7.666139816313884"><ele>679.0</ele><time>2026-04-25T13:55:38Z</time></trkpt><trkpt lat="45.424198641377835" lon="7.666290729372916"><ele>679.0</ele><time>2026-04-25T13:55:39.998Z</time></trkpt><trkpt lat="45.42418517065934" lon="7.6664766927498595"><ele>679.0</ele><time>2026-04-25T13:55:41.998Z</time></trkpt><trkpt lat="45.424138828812076" lon="7.666594449564699"><ele>679.0</ele><time>2026-04-25T13:55:42.998Z</time></trkpt><trkpt lat="45.42405124937778" lon="7.666734099857876"><ele>679.0</ele><time>2026-04-25T13:55:43.998Z</time></trkpt><trkpt lat="45.423968720037095" lon="7.666855593254039"><ele>679.0</ele><time>2026-04-25T13:55:44.998Z</time></trkpt><trkpt lat="45.42389917042241" lon="7.6669318382684315"><ele>679.0</ele><time>2026-04-25T13:55:45.998Z</time></trkpt><trkpt lat="45.42384790823318" lon="7.667000844588263"><ele>679.0</ele><time>2026-04-25T13:55:46.998Z</time></trkpt><trkpt lat="45.42378934772583" lon="7.667040415245677"><ele>679.0</ele><time>2026-04-25T13:55:47.998Z</time></trkpt><trkpt lat="45.42372174382665" lon="7.667054141554047"><ele>679.0</ele><time>2026-04-25T13:55:48.999Z</time></trkpt><trkpt lat="45.42365868608181" lon="7.667120633018417"><ele>679.0</ele><time>2026-04-25T13:55:50.999Z</time></trkpt><trkpt lat="45.423549024032084" lon="7.667198884037081"><ele>678.5</ele><time>2026-04-25T13:55:51.999Z</time></trkpt><trkpt lat="45.42344790535053" lon="7.66725174896322"><ele>678.0</ele><time>2026-04-25T13:55:52.999Z</time></trkpt><trkpt lat="45.423373690627905" lon="7.6672489340354595"><ele>677.5</ele><time>2026-04-25T13:55:53.999Z</time></trkpt><trkpt lat="45.42330630943644" lon="7.667266631362251"><ele>677.0</ele><time>2026-04-25T13:55:54.999Z</time></trkpt><trkpt lat="45.423217889191655" lon="7.6672491702549905"><ele>676.5</ele><time>2026-04-25T13:55:55.999Z</time></trkpt><trkpt lat="45.42311729128972" lon="7.667259068947476"><ele>676.0</ele><time>2026-04-25T13:55:56.999Z</time></trkpt><trkpt lat="45.42297344346926" lon="7.66727010658909"><ele>671.1999999999999</ele><time>2026-04-25T13:55:58.999Z</time></trkpt><trkpt lat="45.422902588625256" lon="7.667304215645901"><ele>666.4</ele><time>2026-04-25T13:55:59.999Z</time></trkpt><trkpt lat="45.42278302139883" lon="7.667441739177729"><ele>661.6</ele><time>2026-04-25T13:56:01.999Z</time></trkpt><trkpt lat="45.42270694080833" lon="7.667552501496376"><ele>656.8</ele><time>2026-04-25T13:56:02.999Z</time></trkpt><trkpt lat="45.42263625648701" lon="7.667655234269694"><ele>652.0</ele><time>2026-04-25T13:56:03.999Z</time></trkpt><trkpt lat="45.422584875927235" lon="7.667746210850674"><ele>653.25</ele><time>2026-04-25T13:56:04.999Z</time></trkpt><trkpt lat="45.42247382431538" lon="7.6678517829757125"><ele>654.5</ele><time>2026-04-25T13:56:05.999Z</time></trkpt><trkpt lat="45.422411953192594" lon="7.667922476529479"><ele>655.75</ele><time>2026-04-25T13:56:06.999Z</time></trkpt><trkpt lat="45.42236629256967" lon="7.668141244846653"><ele>657.0</ele><time>2026-04-25T13:56:07.999Z</time></trkpt><trkpt lat="45.422297030632066" lon="7.668244698492877"><ele>657.0</ele><time>2026-04-25T13:56:08.999Z</time></trkpt><trkpt lat="45.422228362791856" lon="7.668360776177947"><ele>657.0</ele><time>2026-04-25T13:56:09.999Z</time></trkpt><trkpt lat="45.42213979099052" lon="7.668443842577112"><ele>657.0</ele><time>2026-04-25T13:56:11.999Z</time></trkpt><trkpt lat="45.42207781054133" lon="7.668474699558311"><ele>657.0</ele><time>2026-04-25T13:56:12.999Z</time></trkpt><trkpt lat="45.42197782316499" lon="7.668459409692133"><ele>657.0</ele><time>2026-04-25T13:56:14.999Z</time></trkpt><trkpt lat="45.42189758075413" lon="7.668444654315296"><ele>652.4</ele><time>2026-04-25T13:56:15.999Z</time></trkpt><trkpt lat="45.421798595846745" lon="7.668434418929736"><ele>647.8000000000001</ele><time>2026-04-25T13:56:16.999Z</time></trkpt><trkpt lat="45.42173506153532" lon="7.668446003836646"><ele>643.2</ele><time>2026-04-25T13:56:17.999Z</time></trkpt><trkpt lat="45.421631199218446" lon="7.668547853461678"><ele>638.6</ele><time>2026-04-25T13:56:19.999Z</time></trkpt><trkpt lat="45.42154812187314" lon="7.66859860192484"><ele>634.0</ele><time>2026-04-25T13:56:20.999Z</time></trkpt><trkpt lat="45.421498414080055" lon="7.668726719527521"><ele>633.8</ele><time>2026-04-25T13:56:22.999Z</time></trkpt><trkpt lat="45.421489357707976" lon="7.668866458735106"><ele>633.5999999999999</ele><time>2026-04-25T13:56:24.999Z</time></trkpt><trkpt lat="45.421460918409906" lon="7.668967833014773"><ele>633.4</ele><time>2026-04-25T13:56:25.999Z</time></trkpt><trkpt lat="45.42144260020472" lon="7.6690807410940325"><ele>633.1999999999999</ele><time>2026-04-25T13:56:26.999Z</time></trkpt><trkpt lat="45.421428256682425" lon="7.66932143750548"><ele>633.0</ele><time>2026-04-25T13:56:27.999Z</time></trkpt><trkpt lat="45.42138010193402" lon="7.669421174687991"><ele>632.3333333333334</ele><time>2026-04-25T13:56:28.999Z</time></trkpt><trkpt lat="45.421330258748036" lon="7.669483787156777"><ele>631.6666666666666</ele><time>2026-04-25T13:56:30.999Z</time></trkpt><trkpt lat="45.42132732892053" lon="7.669575580940779"><ele>631.0</ele><time>2026-04-25T13:56:33.999Z</time></trkpt><trkpt lat="45.42142775507779" lon="7.669685866611533"><ele>630.3333333333333</ele><time>2026-04-25T13:56:35.999Z</time></trkpt><trkpt lat="45.42147447859959" lon="7.669753140606696"><ele>629.6666666666666</ele><time>2026-04-25T13:56:36.999Z</time></trkpt><trkpt lat="45.421527037567934" lon="7.669848210312216"><ele>629.0</ele><time>2026-04-25T13:56:38Z</time></trkpt><trkpt lat="45.4215698849211" lon="7.669939902241476"><ele>629.0</ele><time>2026-04-25T13:56:39Z</time></trkpt><trkpt lat="45.42161207029156" lon="7.670019804424809"><ele>629.0</ele><time>2026-04-25T13:56:40Z</time></trkpt><trkpt lat="45.42166524136132" lon="7.670128080965425"><ele>629.0</ele><time>2026-04-25T13:56:41Z</time></trkpt><trkpt lat="45.42173645056506" lon="7.670247121313067"><ele>629.0</ele><time>2026-04-25T13:56:43Z</time></trkpt><trkpt lat="45.42180186833276" lon="7.670327743274671"><ele>629.0</ele><time>2026-04-25T13:56:45Z</time></trkpt><trkpt lat="45.42190809663188" lon="7.670316429231066"><ele>630.0</ele><time>2026-04-25T13:56:46Z</time></trkpt><trkpt lat="45.42199296249869" lon="7.670352961747732"><ele>631.0</ele><time>2026-04-25T13:56:47Z</time></trkpt><trkpt lat="45.42209421954754" lon="7.6703886916025"><ele>632.0</ele><time>2026-04-25T13:56:48Z</time></trkpt><trkpt lat="45.42219805680256" lon="7.670415462656793"><ele>633.0</ele><time>2026-04-25T13:56:49Z</time></trkpt><trkpt lat="45.42229976658735" lon="7.670410282016146"><ele>634.0</ele><time>2026-04-25T13:56:50Z</time></trkpt><trkpt lat="45.42239129345707" lon="7.670411186873193"><ele>634.0</ele><time>2026-04-25T13:56:51Z</time></trkpt><trkpt lat="45.4224583807485" lon="7.670408600688595"><ele>634.0</ele><time>2026-04-25T13:56:52Z</time></trkpt><trkpt lat="45.42254839544311" lon="7.670456738008734"><ele>634.0</ele><time>2026-04-25T13:56:53Z</time></trkpt><trkpt lat="45.42263256922383" lon="7.670510839949385"><ele>634.0</ele><time>2026-04-25T13:56:54Z</time></trkpt><trkpt lat="45.42267067087824" lon="7.670636110848506"><ele>634.0</ele><time>2026-04-25T13:56:55Z</time></trkpt><trkpt lat="45.42277015752818" lon="7.670814157279772"><ele>634.0</ele><time>2026-04-25T13:56:56Z</time></trkpt><trkpt lat="45.42283818641415" lon="7.670881843907549"><ele>634.0</ele><time>2026-04-25T13:56:57Z</time></trkpt><trkpt lat="45.42299114533241" lon="7.670879384464823"><ele>634.0</ele><time>2026-04-25T13:57:01Z</time></trkpt><trkpt lat="45.423061690173675" lon="7.670848638935825"><ele>634.0</ele><time>2026-04-25T13:57:02Z</time></trkpt><trkpt lat="45.42312116174864" lon="7.670774726384355"><ele>634.0</ele><time>2026-04-25T13:57:04Z</time></trkpt><trkpt lat="45.42319036466" lon="7.670825039261992"><ele>637.6</ele><time>2026-04-25T13:57:05Z</time></trkpt><trkpt lat="45.42329742044414" lon="7.6708692733101715"><ele>641.2</ele><time>2026-04-25T13:57:06Z</time></trkpt><trkpt lat="45.42338304765907" lon="7.670830102003982"><ele>644.8000000000001</ele><time>2026-04-25T13:57:07Z</time></trkpt><trkpt lat="45.42344253342478" lon="7.670777534514579"><ele>648.4</ele><time>2026-04-25T13:57:08Z</time></trkpt><trkpt lat="45.42354000993575" lon="7.67067289531883"><ele>652.0</ele><time>2026-04-25T13:57:09Z</time></trkpt><trkpt lat="45.423625029687145" lon="7.670604595827869"><ele>652.0</ele><time>2026-04-25T13:57:10Z</time></trkpt><trkpt lat="45.42373276640789" lon="7.6705815963304405"><ele>652.0</ele><time>2026-04-25T13:57:11Z</time></trkpt><trkpt lat="45.42375761737283" lon="7.670701701071516"><ele>652.0</ele><time>2026-04-25T13:57:15Z</time></trkpt><trkpt lat="45.42375931188322" lon="7.670863975463854"><ele>652.0</ele><time>2026-04-25T13:57:17Z</time></trkpt><trkpt lat="45.423770223697105" lon="7.671016804569217"><ele>652.0</ele><time>2026-04-25T13:57:18Z</time></trkpt><trkpt lat="45.42374948955378" lon="7.671177444848695"><ele>652.2</ele><time>2026-04-25T13:57:19Z</time></trkpt><trkpt lat="45.42378020027673" lon="7.671330970013785"><ele>652.4000000000001</ele><time>2026-04-25T13:57:21Z</time></trkpt><trkpt lat="45.42381690359781" lon="7.6714136023875215"><ele>652.5999999999999</ele><time>2026-04-25T13:57:22Z</time></trkpt><trkpt lat="45.42389555220302" lon="7.67152311894569"><ele>652.8</ele><time>2026-04-25T13:57:24Z</time></trkpt><trkpt lat="45.424002303363075" lon="7.6716120885459205"><ele>653.0</ele><time>2026-04-25T13:57:26Z</time></trkpt><trkpt lat="45.42410506583511" lon="7.671679042860437"><ele>653.0</ele><time>2026-04-25T13:57:28Z</time></trkpt><trkpt lat="45.42421339086391" lon="7.671694051721029"><ele>653.0</ele><time>2026-04-25T13:57:29Z</time></trkpt><trkpt lat="45.42431977791958" lon="7.671648431195375"><ele>653.0</ele><time>2026-04-25T13:57:30Z</time></trkpt><trkpt lat="45.424443066624" lon="7.671630920713324"><ele>653.0</ele><time>2026-04-25T13:57:31Z</time></trkpt><trkpt lat="45.424528964015174" lon="7.671657654348345"><ele>653.0</ele><time>2026-04-25T13:57:32Z</time></trkpt><trkpt lat="45.42465129556925" lon="7.671609026021049"><ele>652.5</ele><time>2026-04-25T13:57:33Z</time></trkpt><trkpt lat="45.42475947539953" lon="7.6715309902724815"><ele>652.0</ele><time>2026-04-25T13:57:34Z</time></trkpt><trkpt lat="45.424891539011796" lon="7.671415166790012"><ele>651.5</ele><time>2026-04-25T13:57:35Z</time></trkpt><trkpt lat="45.4249813890858" lon="7.671304852167921"><ele>651.0</ele><time>2026-04-25T13:57:36Z</time></trkpt><trkpt lat="45.42503973968183" lon="7.671206127012525"><ele>651.0</ele><time>2026-04-25T13:57:37Z</time></trkpt><trkpt lat="45.425115909852394" lon="7.6711349562236135"><ele>651.0</ele><time>2026-04-25T13:57:38Z</time></trkpt><trkpt lat="45.42517423589658" lon="7.671048406974836"><ele>651.0</ele><time>2026-04-25T13:57:39Z</time></trkpt><trkpt lat="45.4252217024126" lon="7.670962932576717"><ele>651.0</ele><time>2026-04-25T13:57:40Z</time></trkpt><trkpt lat="45.42528110849396" lon="7.670882102607757"><ele>651.0</ele><time>2026-04-25T13:57:41Z</time></trkpt><trkpt lat="45.425355890911526" lon="7.670826388296734"><ele>651.0</ele><time>2026-04-25T13:57:42Z</time></trkpt><trkpt lat="45.42541405428205" lon="7.670788788048027"><ele>652.1428571428571</ele><time>2026-04-25T13:57:43Z</time></trkpt><trkpt lat="45.425441944514354" lon="7.670875576357944"><ele>653.2857142857142</ele><time>2026-04-25T13:57:53Z</time></trkpt><trkpt lat="45.42549226929704" lon="7.670931014632479"><ele>654.4285714285714</ele><time>2026-04-25T13:58:01Z</time></trkpt><trkpt lat="45.42552369142205" lon="7.671014037259992"><ele>655.5714285714286</ele><time>2026-04-25T13:58:07Z</time></trkpt><trkpt lat="45.42554752322312" lon="7.67110900237955"><ele>656.7142857142857</ele><time>2026-04-25T13:58:12Z</time></trkpt><trkpt lat="45.42553127895766" lon="7.671219289926246"><ele>657.8571428571429</ele><time>2026-04-25T13:58:19Z</time></trkpt><trkpt lat="45.42554447158276" lon="7.671334411985144"><ele>659.0</ele><time>2026-04-25T13:58:22Z</time></trkpt><trkpt lat="45.42556278761376" lon="7.671476960132824"><ele>655.5</ele><time>2026-04-25T13:58:25Z</time></trkpt><trkpt lat="45.42557663655536" lon="7.671566243407597"><ele>652.0</ele><time>2026-04-25T13:58:27Z</time></trkpt><trkpt lat="45.42559580654565" lon="7.671660086862466"><ele>648.5</ele><time>2026-04-25T13:58:29Z</time></trkpt><trkpt lat="45.425592256148995" lon="7.671765896309935"><ele>645.0</ele><time>2026-04-25T13:58:32Z</time></trkpt><trkpt lat="45.42558207155014" lon="7.671870142265678"><ele>641.5</ele><time>2026-04-25T13:58:35Z</time></trkpt><trkpt lat="45.425554239429786" lon="7.672002259397965"><ele>638.0</ele><time>2026-04-25T13:58:38Z</time></trkpt><trkpt lat="45.42553445442158" lon="7.6721099888301225"><ele>635.8571428571429</ele><time>2026-04-25T13:58:41Z</time></trkpt><trkpt lat="45.42551322322502" lon="7.672205413357301"><ele>633.7142857142857</ele><time>2026-04-25T13:58:44Z</time></trkpt><trkpt lat="45.425562941785124" lon="7.672267416945147"><ele>631.5714285714286</ele><time>2026-04-25T13:58:50Z</time></trkpt><trkpt lat="45.425611831614695" lon="7.672333559076411"><ele>629.4285714285714</ele><time>2026-04-25T13:58:54Z</time></trkpt><trkpt lat="45.425653703555945" lon="7.672414270855967"><ele>627.2857142857142</ele><time>2026-04-25T13:58:58Z</time></trkpt><trkpt lat="45.425725963317134" lon="7.672424818389126"><ele>625.1428571428571</ele><time>2026-04-25T13:59:03Z</time></trkpt><trkpt lat="45.42579679359236" lon="7.672449655589204"><ele>623.0</ele><time>2026-04-25T13:59:07Z</time></trkpt><trkpt lat="45.425902697645725" lon="7.672486709669304"><ele>623.0</ele><time>2026-04-25T13:59:10Z</time></trkpt><trkpt lat="45.42596575925168" lon="7.672554733097652"><ele>623.0</ele><time>2026-04-25T13:59:12Z</time></trkpt><trkpt lat="45.4260302412268" lon="7.6726289748603005"><ele>623.0</ele><time>2026-04-25T13:59:14Z</time></trkpt><trkpt lat="45.42615978748518" lon="7.672732412438716"><ele>623.0</ele><time>2026-04-25T13:59:25Z</time></trkpt><trkpt lat="45.426176624148745" lon="7.6728235137454"><ele>623.0</ele><time>2026-04-25T13:59:28Z</time></trkpt><trkpt lat="45.42624141578845" lon="7.6728458542411495"><ele>623.0</ele><time>2026-04-25T13:59:45Z</time></trkpt><trkpt lat="45.42627091984599" lon="7.672927886607145"><ele>623.7142857142857</ele><time>2026-04-25T13:59:51.999Z</time></trkpt><trkpt lat="45.4262416880211" lon="7.673025597550738"><ele>624.4285714285714</ele><time>2026-04-25T13:59:56.999Z</time></trkpt><trkpt lat="45.426275025345305" lon="7.673109837505177"><ele>625.1428571428571</ele><time>2026-04-25T14:00:00.999Z</time></trkpt><trkpt lat="45.426289265206286" lon="7.673198712608769"><ele>625.8571428571429</ele><time>2026-04-25T14:00:03.999Z</time></trkpt><trkpt lat="45.4262955776013" lon="7.673306253997877"><ele>626.5714285714286</ele><time>2026-04-25T14:00:06.999Z</time></trkpt><trkpt lat="45.42630955715723" lon="7.67341331477002"><ele>627.2857142857142</ele><time>2026-04-25T14:00:10.999Z</time></trkpt><trkpt lat="45.42629504913709" lon="7.6735124844436005"><ele>628.0</ele><time>2026-04-25T14:00:18.999Z</time></trkpt><trkpt lat="45.42621562048836" lon="7.673501746552068"><ele>628.0</ele><time>2026-04-25T14:00:27Z</time></trkpt><trkpt lat="45.42627685103679" lon="7.673478656073766"><ele>628.0</ele><time>2026-04-25T14:00:49Z</time></trkpt><trkpt lat="45.426346995072386" lon="7.6734760610635355"><ele>628.0</ele><time>2026-04-25T14:01:02Z</time></trkpt><trkpt lat="45.42641225545728" lon="7.673578588886428"><ele>628.0</ele><time>2026-04-25T14:01:43Z</time></trkpt><trkpt lat="45.426344944928815" lon="7.673566049609877"><ele>628.0</ele><time>2026-04-25T14:02:26.999Z</time></trkpt><trkpt lat="45.42627531977272" lon="7.6736097517958735"><ele>628.0</ele><time>2026-04-25T14:02:44Z</time></trkpt><trkpt lat="45.42623143128835" lon="7.673706199962682"><ele>629.7142857142857</ele><time>2026-04-25T14:02:45Z</time></trkpt><trkpt lat="45.426204690917444" lon="7.67380237950427"><ele>631.4285714285714</ele><time>2026-04-25T14:02:48Z</time></trkpt><trkpt lat="45.426168471231506" lon="7.6739427688183754"><ele>633.1428571428571</ele><time>2026-04-25T14:02:50Z</time></trkpt><trkpt lat="45.426200440831664" lon="7.67402031998419"><ele>634.8571428571429</ele><time>2026-04-25T14:02:53Z</time></trkpt><trkpt lat="45.42625619366887" lon="7.674062956622353"><ele>636.5714285714286</ele><time>2026-04-25T14:02:55Z</time></trkpt><trkpt lat="45.42628124260732" lon="7.674158151295781"><ele>638.2857142857142</ele><time>2026-04-25T14:03:00Z</time></trkpt><trkpt lat="45.42634165528191" lon="7.674184913206338"><ele>640.0</ele><time>2026-04-25T14:03:03Z</time></trkpt><trkpt lat="45.42641036017737" lon="7.674239115374543"><ele>640.0</ele><time>2026-04-25T14:03:22Z</time></trkpt><trkpt lat="45.42635911890246" lon="7.6743012624594105"><ele>640.0</ele><time>2026-04-25T14:03:28Z</time></trkpt><trkpt lat="45.42629524186462" lon="7.67436061998465"><ele>640.0</ele><time>2026-04-25T14:03:29Z</time></trkpt><trkpt lat="45.42623075978178" lon="7.6744648440315615"><ele>640.0</ele><time>2026-04-25T14:03:30Z</time></trkpt><trkpt lat="45.426175519983914" lon="7.674547520258555"><ele>640.0</ele><time>2026-04-25T14:03:31Z</time></trkpt><trkpt lat="45.426101534433855" lon="7.674696378274151"><ele>640.0</ele><time>2026-04-25T14:03:33Z</time></trkpt><trkpt lat="45.425993222405744" lon="7.674803973848378"><ele>641.6</ele><time>2026-04-25T14:03:35Z</time></trkpt><trkpt lat="45.42590170986915" lon="7.674847054706963"><ele>643.2</ele><time>2026-04-25T14:03:36Z</time></trkpt><trkpt lat="45.42579193001029" lon="7.674883770704068"><ele>644.8</ele><time>2026-04-25T14:03:37Z</time></trkpt><trkpt lat="45.425693577008566" lon="7.674906142653703"><ele>646.4</ele><time>2026-04-25T14:03:38Z</time></trkpt><trkpt lat="45.42559720794843" lon="7.674892041181571"><ele>648.0</ele><time>2026-04-25T14:03:39Z</time></trkpt><trkpt lat="45.425520238244" lon="7.674894835459273"><ele>644.6</ele><time>2026-04-25T14:03:40Z</time></trkpt><trkpt lat="45.42543167987606" lon="7.674913485560986"><ele>641.1999999999999</ele><time>2026-04-25T14:03:41Z</time></trkpt><trkpt lat="45.42532800672338" lon="7.674961921993775"><ele>637.8</ele><time>2026-04-25T14:03:42Z</time></trkpt><trkpt lat="45.42521420628153" lon="7.6750154146275"><ele>634.4</ele><time>2026-04-25T14:03:43Z</time></trkpt><trkpt lat="45.425107660441746" lon="7.675072287988882"><ele>631.0</ele><time>2026-04-25T14:03:44.001Z</time></trkpt><trkpt lat="45.425032338299836" lon="7.675110111915277"><ele>631.0</ele><time>2026-04-25T14:03:45.001Z</time></trkpt><trkpt lat="45.42494232840171" lon="7.675158857859814"><ele>631.0</ele><time>2026-04-25T14:03:47.001Z</time></trkpt><trkpt lat="45.42489314865203" lon="7.675246035378642"><ele>631.0</ele><time>2026-04-25T14:03:48.001Z</time></trkpt><trkpt lat="45.42482616907399" lon="7.675363181324877"><ele>631.0</ele><time>2026-04-25T14:03:49.001Z</time></trkpt><trkpt lat="45.42473631226313" lon="7.675517097565861"><ele>631.0</ele><time>2026-04-25T14:03:50.001Z</time></trkpt><trkpt lat="45.424658855828326" lon="7.675629993480729"><ele>629.8333333333334</ele><time>2026-04-25T14:03:51.001Z</time></trkpt><trkpt lat="45.42458406694062" lon="7.675726727598975"><ele>628.6666666666667</ele><time>2026-04-25T14:03:52.001Z</time></trkpt><trkpt lat="45.42452201637652" lon="7.675804818261369"><ele>627.5</ele><time>2026-04-25T14:03:53.001Z</time></trkpt><trkpt lat="45.424472759570335" lon="7.675869167870925"><ele>626.3333333333334</ele><time>2026-04-25T14:03:54.001Z</time></trkpt><trkpt lat="45.424382728291064" lon="7.675889625056979"><ele>625.1666666666666</ele><time>2026-04-25T14:03:55.001Z</time></trkpt><trkpt lat="45.42429175043854" lon="7.675928371094915"><ele>624.0</ele><time>2026-04-25T14:03:56.001Z</time></trkpt><trkpt lat="45.42421033781782" lon="7.675964339252265"><ele>624.0</ele><time>2026-04-25T14:03:57.001Z</time></trkpt><trkpt lat="45.42415219406333" lon="7.6760401027993215"><ele>624.0</ele><time>2026-04-25T14:03:58.001Z</time></trkpt><trkpt lat="45.424122606093086" lon="7.67613618777843"><ele>624.0</ele><time>2026-04-25T14:03:59.001Z</time></trkpt><trkpt lat="45.42411023757837" lon="7.67623467894005"><ele>624.0</ele><time>2026-04-25T14:04:00.001Z</time></trkpt><trkpt lat="45.42415608759949" lon="7.676412551567912"><ele>624.0</ele><time>2026-04-25T14:04:02.001Z</time></trkpt><trkpt lat="45.424211664163956" lon="7.676525422594042"><ele>624.0</ele><time>2026-04-25T14:04:03.001Z</time></trkpt><trkpt lat="45.42424056443946" lon="7.67665158989067"><ele>624.0</ele><time>2026-04-25T14:04:03.999Z</time></trkpt><trkpt lat="45.42424596838247" lon="7.676775006752747"><ele>624.0</ele><time>2026-04-25T14:04:04.999Z</time></trkpt><trkpt lat="45.42423222108787" lon="7.676892420275254"><ele>624.0</ele><time>2026-04-25T14:04:05.999Z</time></trkpt><trkpt lat="45.42414720485574" lon="7.676977897945555"><ele>624.0</ele><time>2026-04-25T14:04:06.999Z</time></trkpt><trkpt lat="45.42414768749887" lon="7.67711498700158"><ele>624.4</ele><time>2026-04-25T14:04:07.999Z</time></trkpt><trkpt lat="45.42408630343497" lon="7.677199477540873"><ele>624.8</ele><time>2026-04-25T14:04:08.999Z</time></trkpt><trkpt lat="45.42401364462358" lon="7.677261609170527"><ele>625.2</ele><time>2026-04-25T14:04:09.999Z</time></trkpt><trkpt lat="45.42392160959796" lon="7.677284197371664"><ele>625.6</ele><time>2026-04-25T14:04:10.999Z</time></trkpt><trkpt lat="45.423830230025445" lon="7.677314631782489"><ele>626.0</ele><time>2026-04-25T14:04:11.999Z</time></trkpt><trkpt lat="45.42374279958763" lon="7.677371937009228"><ele>622.3333333333333</ele><time>2026-04-25T14:04:12.999Z</time></trkpt><trkpt lat="45.423663520609196" lon="7.677444735300698"><ele>618.6666666666666</ele><time>2026-04-25T14:04:13.999Z</time></trkpt><trkpt lat="45.42359477457523" lon="7.677521026836978"><ele>615.0</ele><time>2026-04-25T14:04:14.999Z</time></trkpt><trkpt lat="45.42353923997868" lon="7.677611166191014"><ele>611.3333333333334</ele><time>2026-04-25T14:04:15.999Z</time></trkpt><trkpt lat="45.423503127941835" lon="7.677715503759159"><ele>607.6666666666667</ele><time>2026-04-25T14:04:16.999Z</time></trkpt><trkpt lat="45.42348832389092" lon="7.6778169838749974"><ele>604.0</ele><time>2026-04-25T14:04:17.999Z</time></trkpt><trkpt lat="45.42349281595151" lon="7.677926193996385"><ele>603.0</ele><time>2026-04-25T14:04:18.999Z</time></trkpt><trkpt lat="45.42349559214427" lon="7.678025082867547"><ele>602.0</ele><time>2026-04-25T14:04:19.999Z</time></trkpt><trkpt lat="45.42348007299418" lon="7.678114211041487"><ele>601.0</ele><time>2026-04-25T14:04:20.999Z</time></trkpt><trkpt lat="45.42348091193853" lon="7.6782098068448805"><ele>600.0</ele><time>2026-04-25T14:04:21.999Z</time></trkpt><trkpt lat="45.42351884907715" lon="7.6783014207521045"><ele>599.0</ele><time>2026-04-25T14:04:22.999Z</time></trkpt><trkpt lat="45.42360051912396" lon="7.678404403443712"><ele>598.0</ele><time>2026-04-25T14:04:23.999Z</time></trkpt><trkpt lat="45.423676578887765" lon="7.678499981549998"><ele>597.8333333333334</ele><time>2026-04-25T14:04:24.999Z</time></trkpt><trkpt lat="45.423719717518786" lon="7.678614281301065"><ele>597.6666666666667</ele><time>2026-04-25T14:04:25.999Z</time></trkpt><trkpt lat="45.42373992666332" lon="7.678747763734136"><ele>597.5</ele><time>2026-04-25T14:04:26.999Z</time></trkpt><trkpt lat="45.42375966290998" lon="7.678859932221117"><ele>597.3333333333334</ele><time>2026-04-25T14:04:27.999Z</time></trkpt><trkpt lat="45.42376659066802" lon="7.67895565896156"><ele>597.1666666666666</ele><time>2026-04-25T14:04:28.999Z</time></trkpt><trkpt lat="45.42376365701951" lon="7.679071855263553"><ele>597.0</ele><time>2026-04-25T14:04:30Z</time></trkpt><trkpt lat="45.42374120655381" lon="7.679193665510622"><ele>597.0</ele><time>2026-04-25T14:04:31Z</time></trkpt><trkpt lat="45.42370314731341" lon="7.679301748818862"><ele>597.0</ele><time>2026-04-25T14:04:32Z</time></trkpt><trkpt lat="45.42363379306082" lon="7.679370440919574"><ele>597.0</ele><time>2026-04-25T14:04:33Z</time></trkpt><trkpt lat="45.42353966972368" lon="7.6794426575016415"><ele>597.0</ele><time>2026-04-25T14:04:34Z</time></trkpt><trkpt lat="45.4234472626113" lon="7.6795016406260626"><ele>597.0</ele><time>2026-04-25T14:04:35Z</time></trkpt><trkpt lat="45.42337994938643" lon="7.679552142690554"><ele>597.3333333333334</ele><time>2026-04-25T14:04:36Z</time></trkpt><trkpt lat="45.42334075600947" lon="7.679660557891221"><ele>597.6666666666666</ele><time>2026-04-25T14:04:38Z</time></trkpt><trkpt lat="45.42338905942462" lon="7.679749383632094"><ele>598.0</ele><time>2026-04-25T14:04:40Z</time></trkpt><trkpt lat="45.423456449612026" lon="7.67983884323646"><ele>598.3333333333333</ele><time>2026-04-25T14:04:41Z</time></trkpt><trkpt lat="45.423505438637356" lon="7.679951584166882"><ele>598.6666666666666</ele><time>2026-04-25T14:04:42Z</time></trkpt><trkpt lat="45.423560660324256" lon="7.680065097998302"><ele>599.0</ele><time>2026-04-25T14:04:43Z</time></trkpt><trkpt lat="45.423591082441305" lon="7.680179772072321"><ele>599.0</ele><time>2026-04-25T14:04:44Z</time></trkpt><trkpt lat="45.42362000124917" lon="7.680284101117363"><ele>599.0</ele><time>2026-04-25T14:04:45Z</time></trkpt><trkpt lat="45.42364747356757" lon="7.680409793402284"><ele>599.0</ele><time>2026-04-25T14:04:46Z</time></trkpt><trkpt lat="45.423692066315326" lon="7.680530554420226"><ele>599.0</ele><time>2026-04-25T14:04:47Z</time></trkpt><trkpt lat="45.423750259371744" lon="7.680643039230027"><ele>599.0</ele><time>2026-04-25T14:04:48Z</time></trkpt><trkpt lat="45.42380819810548" lon="7.680715927177173"><ele>599.0</ele><time>2026-04-25T14:04:49Z</time></trkpt><trkpt lat="45.42387173523039" lon="7.680800088849568"><ele>601.0</ele><time>2026-04-25T14:04:50Z</time></trkpt><trkpt lat="45.42397624420314" lon="7.680808323658056"><ele>603.0</ele><time>2026-04-25T14:04:51Z</time></trkpt><trkpt lat="45.42407312729337" lon="7.680838791361164"><ele>605.0</ele><time>2026-04-25T14:04:52Z</time></trkpt><trkpt lat="45.424149578778106" lon="7.680914943374913"><ele>607.0</ele><time>2026-04-25T14:04:53Z</time></trkpt><trkpt lat="45.42421801650432" lon="7.681011064273642"><ele>609.0</ele><time>2026-04-25T14:04:54Z</time></trkpt><trkpt lat="45.424363503796684" lon="7.681077179980399"><ele>610.0</ele><time>2026-04-25T14:04:55Z</time></trkpt><trkpt lat="45.424484015756356" lon="7.681144196032094"><ele>611.0</ele><time>2026-04-25T14:04:56Z</time></trkpt><trkpt lat="45.424624067169134" lon="7.681208883742425"><ele>612.0</ele><time>2026-04-25T14:04:57Z</time></trkpt><trkpt lat="45.42475910746156" lon="7.681253887183769"><ele>613.0</ele><time>2026-04-25T14:04:58Z</time></trkpt><trkpt lat="45.42485788845942" lon="7.681297918667879"><ele>613.0</ele><time>2026-04-25T14:04:59Z</time></trkpt><trkpt lat="45.42493665680866" lon="7.681324392603056"><ele>613.0</ele><time>2026-04-25T14:05:00Z</time></trkpt><trkpt lat="45.4249948326748" lon="7.681359101441308"><ele>613.0</ele><time>2026-04-25T14:05:01Z</time></trkpt><trkpt lat="45.425083150961015" lon="7.681394959898483"><ele>613.0</ele><time>2026-04-25T14:05:02Z</time></trkpt><trkpt lat="45.425186166638255" lon="7.681469079690653"><ele>613.0</ele><time>2026-04-25T14:05:03Z</time></trkpt><trkpt lat="45.425304411453766" lon="7.681523192042278"><ele>613.0</ele><time>2026-04-25T14:05:04Z</time></trkpt><trkpt lat="45.42541430390171" lon="7.6816105728224615"><ele>613.0</ele><time>2026-04-25T14:05:05Z</time></trkpt><trkpt lat="45.425537470236726" lon="7.681689237216962"><ele>613.0</ele><time>2026-04-25T14:05:06Z</time></trkpt><trkpt lat="45.425654640426465" lon="7.6817767591164765"><ele>613.0</ele><time>2026-04-25T14:05:07Z</time></trkpt><trkpt lat="45.42575873029887" lon="7.68184518040805"><ele>612.75</ele><time>2026-04-25T14:05:08Z</time></trkpt><trkpt lat="45.42588220667974" lon="7.682008567482448"><ele>612.5</ele><time>2026-04-25T14:05:09Z</time></trkpt><trkpt lat="45.4259824925502" lon="7.6821161031344865"><ele>612.25</ele><time>2026-04-25T14:05:10Z</time></trkpt><trkpt lat="45.426069530940545" lon="7.68222588205891"><ele>612.0</ele><time>2026-04-25T14:05:11Z</time></trkpt><trkpt lat="45.4261488780684" lon="7.682316306603223"><ele>612.0</ele><time>2026-04-25T14:05:12Z</time></trkpt><trkpt lat="45.42621119894762" lon="7.682340164303156"><ele>612.0</ele><time>2026-04-25T14:05:13.001Z</time></trkpt><trkpt lat="45.42628908408954" lon="7.682359981269536"><ele>612.0</ele><time>2026-04-25T14:05:14.001Z</time></trkpt><trkpt lat="45.4263560733846" lon="7.68233616294299"><ele>612.0</ele><time>2026-04-25T14:05:15.001Z</time></trkpt><trkpt lat="45.426492116898224" lon="7.682207890844013"><ele>612.0</ele><time>2026-04-25T14:05:17.001Z</time></trkpt><trkpt lat="45.426567932924506" lon="7.682181236863185"><ele>613.6666666666666</ele><time>2026-04-25T14:05:18.001Z</time></trkpt><trkpt lat="45.42665843974517" lon="7.682209002898521"><ele>615.3333333333334</ele><time>2026-04-25T14:05:19.001Z</time></trkpt><trkpt lat="45.42673946132804" lon="7.682258218342046"><ele>617.0</ele><time>2026-04-25T14:05:20.001Z</time></trkpt><trkpt lat="45.4268064766789" lon="7.682340313056445"><ele>618.6666666666667</ele><time>2026-04-25T14:05:21.001Z</time></trkpt><trkpt lat="45.426843737323196" lon="7.682427932961521"><ele>620.3333333333334</ele><time>2026-04-25T14:05:22.001Z</time></trkpt><trkpt lat="45.426912495590585" lon="7.682487152622148"><ele>622.0</ele><time>2026-04-25T14:05:23.001Z</time></trkpt><trkpt lat="45.427005705172334" lon="7.6825134495757945"><ele>622.0</ele><time>2026-04-25T14:05:24.001Z</time></trkpt><trkpt lat="45.42711774864401" lon="7.682519277985564"><ele>622.0</ele><time>2026-04-25T14:05:25.001Z</time></trkpt><trkpt lat="45.427220437282706" lon="7.682510122700274"><ele>622.0</ele><time>2026-04-25T14:05:26.001Z</time></trkpt><trkpt lat="45.42730653667824" lon="7.682463761662592"><ele>622.0</ele><time>2026-04-25T14:05:27.001Z</time></trkpt><trkpt lat="45.42741594105496" lon="7.682408311876512"><ele>622.0</ele><time>2026-04-25T14:05:28.001Z</time></trkpt><trkpt lat="45.42752170750988" lon="7.682349392780145"><ele>623.2</ele><time>2026-04-25T14:05:29.001Z</time></trkpt><trkpt lat="45.42761599917391" lon="7.682327734695918"><ele>624.4000000000001</ele><time>2026-04-25T14:05:30.001Z</time></trkpt><trkpt lat="45.42772457767715" lon="7.6823237442152985"><ele>625.5999999999999</ele><time>2026-04-25T14:05:31.001Z</time></trkpt><trkpt lat="45.42783258575338" lon="7.682378242719503"><ele>626.8</ele><time>2026-04-25T14:05:32.001Z</time></trkpt><trkpt lat="45.42795167478182" lon="7.682386413220837"><ele>628.0</ele><time>2026-04-25T14:05:33.001Z</time></trkpt><trkpt lat="45.428097800536456" lon="7.682374582128754"><ele>629.25</ele><time>2026-04-25T14:05:34.001Z</time></trkpt><trkpt lat="45.42824638755473" lon="7.682354155199493"><ele>630.5</ele><time>2026-04-25T14:05:35.001Z</time></trkpt><trkpt lat="45.428389670786984" lon="7.682354410943598"><ele>631.75</ele><time>2026-04-25T14:05:36.001Z</time></trkpt><trkpt lat="45.42851319276728" lon="7.682368241552757"><ele>633.0</ele><time>2026-04-25T14:05:37.001Z</time></trkpt><trkpt lat="45.42863360562533" lon="7.682377346754978"><ele>633.0</ele><time>2026-04-25T14:05:38.001Z</time></trkpt><trkpt lat="45.42875509409155" lon="7.682364992367559"><ele>633.0</ele><time>2026-04-25T14:05:39.001Z</time></trkpt><trkpt lat="45.42888163585738" lon="7.682338486853022"><ele>633.0</ele><time>2026-04-25T14:05:40.001Z</time></trkpt><trkpt lat="45.42900684610592" lon="7.682311400147157"><ele>633.0</ele><time>2026-04-25T14:05:41.001Z</time></trkpt><trkpt lat="45.42911484409085" lon="7.68229920573413"><ele>635.8</ele><time>2026-04-25T14:05:42.001Z</time></trkpt><trkpt lat="45.42920093641863" lon="7.682303499250965"><ele>638.5999999999999</ele><time>2026-04-25T14:05:43.001Z</time></trkpt><trkpt lat="45.42927443551797" lon="7.682334002149127"><ele>641.4000000000001</ele><time>2026-04-25T14:05:44.001Z</time></trkpt><trkpt lat="45.42936845159411" lon="7.682384671234735"><ele>644.2</ele><time>2026-04-25T14:05:45.001Z</time></trkpt><trkpt lat="45.42945400717383" lon="7.682431212703684"><ele>647.0</ele><time>2026-04-25T14:05:46.001Z</time></trkpt><trkpt lat="45.42955607541841" lon="7.6824766055399545"><ele>648.75</ele><time>2026-04-25T14:05:47.001Z</time></trkpt><trkpt lat="45.42966847954399" lon="7.6824863051254235"><ele>650.5</ele><time>2026-04-25T14:05:48.001Z</time></trkpt><trkpt lat="45.42977134100346" lon="7.6824743220703855"><ele>652.25</ele><time>2026-04-25T14:05:49.001Z</time></trkpt><trkpt lat="45.4298929455858" lon="7.682397486435436"><ele>654.0</ele><time>2026-04-25T14:05:50.001Z</time></trkpt><trkpt lat="45.4300227831457" lon="7.68235124153949"><ele>654.0</ele><time>2026-04-25T14:05:51.001Z</time></trkpt><trkpt lat="45.43013508177589" lon="7.682367236891666"><ele>654.0</ele><time>2026-04-25T14:05:52.001Z</time></trkpt><trkpt lat="45.43020261909205" lon="7.682339695247704"><ele>654.0</ele><time>2026-04-25T14:05:53.001Z</time></trkpt><trkpt lat="45.430292432367594" lon="7.682298887052344"><ele>654.0</ele><time>2026-04-25T14:05:55.001Z</time></trkpt><trkpt lat="45.43042663408589" lon="7.682454205506676"><ele>656.8000000000001</ele><time>2026-04-25T14:05:57.001Z</time></trkpt><trkpt lat="45.430516163344606" lon="7.682542708331461"><ele>659.6</ele><time>2026-04-25T14:05:58.001Z</time></trkpt><trkpt lat="45.43057954735481" lon="7.682595608759539"><ele>662.4</ele><time>2026-04-25T14:05:59.001Z</time></trkpt><trkpt lat="45.43063889462536" lon="7.682645984301066"><ele>665.2</ele><time>2026-04-25T14:06:00.001Z</time></trkpt><trkpt lat="45.4307259521023" lon="7.682708239627962"><ele>668.0</ele><time>2026-04-25T14:06:01.001Z</time></trkpt><trkpt lat="45.430844383890765" lon="7.682757318427822"><ele>668.8</ele><time>2026-04-25T14:06:02.001Z</time></trkpt><trkpt lat="45.43095808437337" lon="7.6827818785583775"><ele>669.5999999999999</ele><time>2026-04-25T14:06:03.001Z</time></trkpt><trkpt lat="45.43105430813152" lon="7.6827939164347425"><ele>670.4000000000001</ele><time>2026-04-25T14:06:04.001Z</time></trkpt><trkpt lat="45.431151898298204" lon="7.6828007127169355"><ele>671.2</ele><time>2026-04-25T14:06:05.001Z</time></trkpt><trkpt lat="45.43124219551164" lon="7.682774181477476"><ele>672.0</ele><time>2026-04-25T14:06:06.001Z</time></trkpt><trkpt lat="45.431335793088365" lon="7.682764628820229"><ele>672.0</ele><time>2026-04-25T14:06:07.002Z</time></trkpt><trkpt lat="45.43148602469482" lon="7.682909429037021"><ele>672.0</ele><time>2026-04-25T14:06:09.002Z</time></trkpt><trkpt lat="45.431585205235855" lon="7.683032455865859"><ele>672.0</ele><time>2026-04-25T14:06:10.001Z</time></trkpt><trkpt lat="45.4316958621953" lon="7.683149836493132"><ele>672.0</ele><time>2026-04-25T14:06:11.001Z</time></trkpt><trkpt lat="45.43181071555906" lon="7.683232031220158"><ele>672.0</ele><time>2026-04-25T14:06:12.001Z</time></trkpt><trkpt lat="45.431914704933554" lon="7.683306785344417"><ele>672.0</ele><time>2026-04-25T14:06:13.001Z</time></trkpt><trkpt lat="45.43203342101341" lon="7.683382462873836"><ele>672.0</ele><time>2026-04-25T14:06:14.001Z</time></trkpt><trkpt lat="45.43215450324628" lon="7.683462786683174"><ele>671.25</ele><time>2026-04-25T14:06:15.001Z</time></trkpt><trkpt lat="45.432279447046355" lon="7.683557756679864"><ele>670.5</ele><time>2026-04-25T14:06:16.001Z</time></trkpt><trkpt lat="45.432385788925835" lon="7.683644066412953"><ele>669.75</ele><time>2026-04-25T14:06:17.001Z</time></trkpt><trkpt lat="45.43247916717201" lon="7.6836939956219386"><ele>669.0</ele><time>2026-04-25T14:06:18.001Z</time></trkpt><trkpt lat="45.432589567313215" lon="7.683704957621578"><ele>669.0</ele><time>2026-04-25T14:06:19.001Z</time></trkpt><trkpt lat="45.4327251362882" lon="7.683696877555896"><ele>669.0</ele><time>2026-04-25T14:06:20.001Z</time></trkpt><trkpt lat="45.43286657581389" lon="7.683686021930082"><ele>669.0</ele><time>2026-04-25T14:06:21.001Z</time></trkpt><trkpt lat="45.43300537046963" lon="7.683661476788548"><ele>669.0</ele><time>2026-04-25T14:06:22.001Z</time></trkpt><trkpt lat="45.43314191031239" lon="7.683635401579381"><ele>671.25</ele><time>2026-04-25T14:06:23.001Z</time></trkpt><trkpt lat="45.433269036339766" lon="7.683616832739028"><ele>673.5</ele><time>2026-04-25T14:06:24.001Z</time></trkpt><trkpt lat="45.433399309579926" lon="7.68360341395122"><ele>675.75</ele><time>2026-04-25T14:06:25.001Z</time></trkpt><trkpt lat="45.43351667911144" lon="7.683589077586808"><ele>678.0</ele><time>2026-04-25T14:06:26.001Z</time></trkpt><trkpt lat="45.433632878795684" lon="7.683571131537903"><ele>683.25</ele><time>2026-04-25T14:06:27.001Z</time></trkpt><trkpt lat="45.433743616629855" lon="7.683536302645693"><ele>688.5</ele><time>2026-04-25T14:06:28.001Z</time></trkpt><trkpt lat="45.433860228547886" lon="7.683496050841879"><ele>693.75</ele><time>2026-04-25T14:06:29.001Z</time></trkpt><trkpt lat="45.43396176409171" lon="7.683437169701911"><ele>699.0</ele><time>2026-04-25T14:06:30.001Z</time></trkpt><trkpt lat="45.43407334757601" lon="7.683412062867068"><ele>700.5</ele><time>2026-04-25T14:06:31.001Z</time></trkpt><trkpt lat="45.4341957245255" lon="7.683440816465289"><ele>702.0</ele><time>2026-04-25T14:06:32.001Z</time></trkpt><trkpt lat="45.43429624091108" lon="7.683469063723646"><ele>703.5</ele><time>2026-04-25T14:06:33.001Z</time></trkpt><trkpt lat="45.434402574740304" lon="7.683487704520567"><ele>705.0</ele><time>2026-04-25T14:06:34.001Z</time></trkpt><trkpt lat="45.4345192980095" lon="7.683445978288876"><ele>705.0</ele><time>2026-04-25T14:06:35.001Z</time></trkpt><trkpt lat="45.4346309716917" lon="7.683370931479705"><ele>705.0</ele><time>2026-04-25T14:06:36.001Z</time></trkpt><trkpt lat="45.43471430495045" lon="7.6833285875306405"><ele>705.0</ele><time>2026-04-25T14:06:37.001Z</time></trkpt><trkpt lat="45.43477682230386" lon="7.6832860622560055"><ele>705.0</ele><time>2026-04-25T14:06:38.001Z</time></trkpt><trkpt lat="45.43482638488396" lon="7.683228451793829"><ele>705.0</ele><time>2026-04-25T14:06:40.001Z</time></trkpt><trkpt lat="45.43480419125244" lon="7.683119552729629"><ele>705.0</ele><time>2026-04-25T14:06:42.001Z</time></trkpt><trkpt lat="45.434745287031234" lon="7.682941979049333"><ele>705.6666666666666</ele><time>2026-04-25T14:06:44.001Z</time></trkpt><trkpt lat="45.434708745364496" lon="7.68282785525663"><ele>706.3333333333334</ele><time>2026-04-25T14:06:45.001Z</time></trkpt><trkpt lat="45.434754605620235" lon="7.682733611249183"><ele>707.0</ele><time>2026-04-25T14:06:48.001Z</time></trkpt><trkpt lat="45.434827407630124" lon="7.682712038350589"><ele>707.6666666666667</ele><time>2026-04-25T14:06:49.001Z</time></trkpt><trkpt lat="45.434897200546104" lon="7.682704899852546"><ele>708.3333333333334</ele><time>2026-04-25T14:06:50.001Z</time></trkpt><trkpt lat="45.43497711356838" lon="7.6826920134246315"><ele>709.0</ele><time>2026-04-25T14:06:51.001Z</time></trkpt><trkpt lat="45.435067750438996" lon="7.68265045010234"><ele>711.0</ele><time>2026-04-25T14:06:52.001Z</time></trkpt><trkpt lat="45.4351559742415" lon="7.682615601359745"><ele>713.0</ele><time>2026-04-25T14:06:53.001Z</time></trkpt><trkpt lat="45.435236417636865" lon="7.6826088629220495"><ele>715.0</ele><time>2026-04-25T14:06:54.001Z</time></trkpt><trkpt lat="45.43530453899306" lon="7.682572074454183"><ele>717.0</ele><time>2026-04-25T14:06:55.001Z</time></trkpt><trkpt lat="45.4353856658844" lon="7.682503842857267"><ele>719.0</ele><time>2026-04-25T14:06:58.001Z</time></trkpt><trkpt lat="45.43548156067521" lon="7.682429403343433"><ele>721.0</ele><time>2026-04-25T14:07:00.001Z</time></trkpt><trkpt lat="45.435574296855265" lon="7.682353252953694"><ele>723.1999999999999</ele><time>2026-04-25T14:07:02.001Z</time></trkpt><trkpt lat="45.43563943757116" lon="7.68229925245797"><ele>725.4</ele><time>2026-04-25T14:07:03.001Z</time></trkpt><trkpt lat="45.435763288852456" lon="7.682226005528733"><ele>727.6</ele><time>2026-04-25T14:07:04.001Z</time></trkpt><trkpt lat="45.43584583669541" lon="7.682169424806423"><ele>729.8</ele><time>2026-04-25T14:07:05.001Z</time></trkpt><trkpt lat="45.435910028431486" lon="7.682231931473248"><ele>732.0</ele><time>2026-04-25T14:07:07.001Z</time></trkpt><trkpt lat="45.43600054655571" lon="7.682198798453164"><ele>732.0</ele><time>2026-04-25T14:07:09.001Z</time></trkpt><trkpt lat="45.43609709136393" lon="7.682153863024574"><ele>732.0</ele><time>2026-04-25T14:07:10.001Z</time></trkpt><trkpt lat="45.43617907306598" lon="7.682133820150397"><ele>732.0</ele><time>2026-04-25T14:07:12.001Z</time></trkpt><trkpt lat="45.43631303528091" lon="7.6821699906403405"><ele>732.0</ele><time>2026-04-25T14:07:14.001Z</time></trkpt><trkpt lat="45.43637944919171" lon="7.68213789687938"><ele>732.0</ele><time>2026-04-25T14:07:15.001Z</time></trkpt><trkpt lat="45.436492473100714" lon="7.682193408269"><ele>737.5</ele><time>2026-04-25T14:07:17.001Z</time></trkpt><trkpt lat="45.43656755138159" lon="7.682257450418533"><ele>743.0</ele><time>2026-04-25T14:07:18.001Z</time></trkpt><trkpt lat="45.43716336636882" lon="7.68237246304692"><ele>745.5999999999999</ele><time>2026-04-25T14:07:19.001Z</time></trkpt><trkpt lat="45.43730458335368" lon="7.6823048784226975"><ele>748.1999999999999</ele><time>2026-04-25T14:07:20.001Z</time></trkpt><trkpt lat="45.437384822472154" lon="7.682251999203249"><ele>750.8</ele><time>2026-04-25T14:07:21.001Z</time></trkpt><trkpt lat="45.43748793583513" lon="7.6821925401521955"><ele>753.4</ele><time>2026-04-25T14:07:22.001Z</time></trkpt><trkpt lat="45.43753244679754" lon="7.682305959576239"><ele>756.0</ele><time>2026-04-25T14:07:25.001Z</time></trkpt><trkpt lat="45.437617496452276" lon="7.682334270286163"><ele>756.0</ele><time>2026-04-25T14:07:26.002Z</time></trkpt><trkpt lat="45.43760289692259" lon="7.682546157880131"><ele>756.0</ele><time>2026-04-25T14:07:28.002Z</time></trkpt><trkpt lat="45.43756697281237" lon="7.682760343918748"><ele>756.0</ele><time>2026-04-25T14:07:30.002Z</time></trkpt><trkpt lat="45.437564523172746" lon="7.68286842031293"><ele>756.0</ele><time>2026-04-25T14:07:31.002Z</time></trkpt><trkpt lat="45.4375463730741" lon="7.6829745303014025"><ele>755.8</ele><time>2026-04-25T14:07:32.002Z</time></trkpt><trkpt lat="45.43752509729621" lon="7.683197719538149"><ele>755.5999999999999</ele><time>2026-04-25T14:07:34.002Z</time></trkpt><trkpt lat="45.4375449673285" lon="7.683299002402854"><ele>755.4</ele><time>2026-04-25T14:07:36.002Z</time></trkpt><trkpt lat="45.437630994561694" lon="7.683323884646236"><ele>755.2</ele><time>2026-04-25T14:07:39.002Z</time></trkpt><trkpt lat="45.437705302662394" lon="7.683342679395981"><ele>755.0</ele><time>2026-04-25T14:07:40.002Z</time></trkpt><trkpt lat="45.437821168485016" lon="7.68333866744938"><ele>755.0</ele><time>2026-04-25T14:07:41.002Z</time></trkpt><trkpt lat="45.43771488005514" lon="7.683255682023002"><ele>755.0</ele><time>2026-04-25T14:07:42.002Z</time></trkpt><trkpt lat="45.43781394377958" lon="7.683255435332635"><ele>755.0</ele><time>2026-04-25T14:07:43.002Z</time></trkpt><trkpt lat="45.437983579837216" lon="7.6831428466048886"><ele>755.0</ele><time>2026-04-25T14:07:45.002Z</time></trkpt><trkpt lat="45.438053048804065" lon="7.683148185094458"><ele>757.4</ele><time>2026-04-25T14:07:46.002Z</time></trkpt><trkpt lat="45.43810208949462" lon="7.683089320589348"><ele>759.8</ele><time>2026-04-25T14:07:47.002Z</time></trkpt><trkpt lat="45.43819294647742" lon="7.682984162325542"><ele>762.2</ele><time>2026-04-25T14:07:49.002Z</time></trkpt><trkpt lat="45.43825905500893" lon="7.683002431710787"><ele>764.6</ele><time>2026-04-25T14:07:50.002Z</time></trkpt><trkpt lat="45.43832395090237" lon="7.682892832775175"><ele>767.0</ele><time>2026-04-25T14:07:52.002Z</time></trkpt><trkpt lat="45.438404238442686" lon="7.682666171568431"><ele>768.5</ele><time>2026-04-25T14:07:54.002Z</time></trkpt><trkpt lat="45.43842911491907" lon="7.682579381334776"><ele>770.0</ele><time>2026-04-25T14:07:56.002Z</time></trkpt><trkpt lat="45.43851904210912" lon="7.68254896392728"><ele>771.5</ele><time>2026-04-25T14:07:58.002Z</time></trkpt><trkpt lat="45.43860527130372" lon="7.682480461191321"><ele>773.0</ele><time>2026-04-25T14:08:00.002Z</time></trkpt><trkpt lat="45.43866786286778" lon="7.682355476467846"><ele>774.5000000000001</ele><time>2026-04-25T14:08:02.002Z</time></trkpt><trkpt lat="45.43867654650652" lon="7.682240240393146"><ele>776.0</ele><time>2026-04-25T14:08:05.002Z</time></trkpt><trkpt lat="45.43866175680806" lon="7.682094586721602"><ele>776.0000000000001</ele><time>2026-04-25T14:08:08.002Z</time></trkpt><trkpt lat="45.438698399850495" lon="7.681977032736112"><ele>776.0</ele><time>2026-04-25T14:08:10.002Z</time></trkpt><trkpt lat="45.438675244067284" lon="7.6818806333374"><ele>776.0</ele><time>2026-04-25T14:08:12.002Z</time></trkpt><trkpt lat="45.43869331572354" lon="7.681751635304575"><ele>776.0</ele><time>2026-04-25T14:08:15.002Z</time></trkpt><trkpt lat="45.438682252778584" lon="7.681634883595143"><ele>776.0000000000001</ele><time>2026-04-25T14:08:18.002Z</time></trkpt><trkpt lat="45.43870583866081" lon="7.681523023792565"><ele>776.0</ele><time>2026-04-25T14:08:20.002Z</time></trkpt><trkpt lat="45.4387604174135" lon="7.681438082804876"><ele>776.0</ele><time>2026-04-25T14:08:21.002Z</time></trkpt><trkpt lat="45.43877531734744" lon="7.68129108602748"><ele>776.0</ele><time>2026-04-25T14:08:22.002Z</time></trkpt><trkpt lat="45.438727659731846" lon="7.6811461546133275"><ele>776.0</ele><time>2026-04-25T14:08:23.002Z</time></trkpt><trkpt lat="45.438687570780694" lon="7.68105402820274"><ele>776.0</ele><time>2026-04-25T14:08:25.002Z</time></trkpt><trkpt lat="45.438682548483776" lon="7.68090655211595"><ele>776.0</ele><time>2026-04-25T14:08:27.002Z</time></trkpt><trkpt lat="45.4386316496405" lon="7.68083380958731"><ele>777.25</ele><time>2026-04-25T14:08:28.002Z</time></trkpt><trkpt lat="45.43868281549863" lon="7.6806609169160875"><ele>778.5</ele><time>2026-04-25T14:08:29.002Z</time></trkpt><trkpt lat="45.4385957136511" lon="7.680556493445779"><ele>779.75</ele><time>2026-04-25T14:08:31.002Z</time></trkpt><trkpt lat="45.43853411420698" lon="7.680449336068665"><ele>781.0</ele><time>2026-04-25T14:08:32.001Z</time></trkpt><trkpt lat="45.438629606950954" lon="7.6801317621513014"><ele>783.75</ele><time>2026-04-25T14:08:33.001Z</time></trkpt><trkpt lat="45.43857334251872" lon="7.680027248553016"><ele>786.5</ele><time>2026-04-25T14:08:34.001Z</time></trkpt><trkpt lat="45.438564795492695" lon="7.679852700730251"><ele>789.25</ele><time>2026-04-25T14:08:35.001Z</time></trkpt><trkpt lat="45.43836726895979" lon="7.679714672854117"><ele>792.0</ele><time>2026-04-25T14:08:36.001Z</time></trkpt><trkpt lat="45.43824245575111" lon="7.67972772692893"><ele>792.0</ele><time>2026-04-25T14:08:37.001Z</time></trkpt><trkpt lat="45.43813081470675" lon="7.67962693256471"><ele>792.0</ele><time>2026-04-25T14:08:38.001Z</time></trkpt><trkpt lat="45.43799360867025" lon="7.679597937660287"><ele>792.0</ele><time>2026-04-25T14:08:39.001Z</time></trkpt><trkpt lat="45.437862508220576" lon="7.679532768087642"><ele>792.0</ele><time>2026-04-25T14:08:40.001Z</time></trkpt><trkpt lat="45.437793255069096" lon="7.67940460512033"><ele>793.1666666666666</ele><time>2026-04-25T14:08:41.001Z</time></trkpt><trkpt lat="45.43774315241358" lon="7.679251296773227"><ele>794.3333333333333</ele><time>2026-04-25T14:08:43.001Z</time></trkpt><trkpt lat="45.43781587168557" lon="7.679206831819938"><ele>795.5</ele><time>2026-04-25T14:08:47.001Z</time></trkpt><trkpt lat="45.43789292589124" lon="7.679217475718404"><ele>796.6666666666666</ele><time>2026-04-25T14:08:48.001Z</time></trkpt><trkpt lat="45.43797334653594" lon="7.679200769078625"><ele>797.8333333333333</ele><time>2026-04-25T14:08:49.001Z</time></trkpt><trkpt lat="45.43805326538634" lon="7.679171037275476"><ele>799.0</ele><time>2026-04-25T14:08:50.001Z</time></trkpt><trkpt lat="45.43811153193284" lon="7.679118854142327"><ele>800.8000000000001</ele><time>2026-04-25T14:08:51.001Z</time></trkpt><trkpt lat="45.43817129787513" lon="7.679032493063846"><ele>802.6</ele><time>2026-04-25T14:08:52.001Z</time></trkpt><trkpt lat="45.43823637219215" lon="7.678940459114549"><ele>804.4</ele><time>2026-04-25T14:08:53.001Z</time></trkpt><trkpt lat="45.438315834985" lon="7.678853711186147"><ele>806.2</ele><time>2026-04-25T14:08:54.001Z</time></trkpt><trkpt lat="45.438384366060774" lon="7.678786517186551"><ele>808.0</ele><time>2026-04-25T14:08:55.001Z</time></trkpt><trkpt lat="45.438468479111066" lon="7.67869894538767"><ele>808.0</ele><time>2026-04-25T14:08:56.001Z</time></trkpt><trkpt lat="45.43854632021975" lon="7.678610199424534"><ele>808.0</ele><time>2026-04-25T14:08:57.001Z</time></trkpt><trkpt lat="45.438615705681386" lon="7.678499069127767"><ele>808.0</ele><time>2026-04-25T14:08:58.001Z</time></trkpt><trkpt lat="45.438690589709985" lon="7.678380142322444"><ele>808.0</ele><time>2026-04-25T14:08:59.001Z</time></trkpt><trkpt lat="45.43876796089607" lon="7.678239336751001"><ele>808.0</ele><time>2026-04-25T14:09:00.001Z</time></trkpt><trkpt lat="45.43883647536866" lon="7.678119866932406"><ele>809.4</ele><time>2026-04-25T14:09:01.001Z</time></trkpt><trkpt lat="45.43888966890006" lon="7.678029102326591"><ele>810.8</ele><time>2026-04-25T14:09:02.001Z</time></trkpt><trkpt lat="45.43897287801184" lon="7.677980971426006"><ele>812.2</ele><time>2026-04-25T14:09:03.001Z</time></trkpt><trkpt lat="45.43906773297257" lon="7.677946059309859"><ele>813.6</ele><time>2026-04-25T14:09:04.001Z</time></trkpt><trkpt lat="45.43917808966247" lon="7.677922811133519"><ele>815.0</ele><time>2026-04-25T14:09:05.001Z</time></trkpt><trkpt lat="45.43928691242401" lon="7.677900118746981"><ele>815.0</ele><time>2026-04-25T14:09:06.001Z</time></trkpt><trkpt lat="45.439410985606095" lon="7.677873054817442"><ele>815.0</ele><time>2026-04-25T14:09:07.001Z</time></trkpt><trkpt lat="45.43953646502525" lon="7.677856130564427"><ele>815.0</ele><time>2026-04-25T14:09:08.001Z</time></trkpt><trkpt lat="45.439660016794555" lon="7.677838500210284"><ele>815.0</ele><time>2026-04-25T14:09:09.001Z</time></trkpt><trkpt lat="45.439776951592634" lon="7.677801657965555"><ele>817.4</ele><time>2026-04-25T14:09:10.001Z</time></trkpt><trkpt lat="45.43987345422443" lon="7.677771417481048"><ele>819.8</ele><time>2026-04-25T14:09:11.001Z</time></trkpt><trkpt lat="45.43995949505194" lon="7.677779999464078"><ele>822.2</ele><time>2026-04-25T14:09:12.001Z</time></trkpt><trkpt lat="45.44003519353941" lon="7.677820472546695"><ele>824.6</ele><time>2026-04-25T14:09:13.001Z</time></trkpt><trkpt lat="45.440164223145224" lon="7.677837566467728"><ele>827.0</ele><time>2026-04-25T14:09:17.001Z</time></trkpt><trkpt lat="45.44033922771368" lon="7.6781456840913265"><ele>827.0</ele><time>2026-04-25T14:09:18.001Z</time></trkpt><trkpt lat="45.440455517111005" lon="7.678268130621472"><ele>827.0</ele><time>2026-04-25T14:09:19.001Z</time></trkpt><trkpt lat="45.440587528309734" lon="7.678270332419848"><ele>827.0</ele><time>2026-04-25T14:09:20.001Z</time></trkpt><trkpt lat="45.44067668641869" lon="7.678257741419714"><ele>827.0</ele><time>2026-04-25T14:09:21.001Z</time></trkpt><trkpt lat="45.44076530620087" lon="7.6782408129401905"><ele>828.6</ele><time>2026-04-25T14:09:22.001Z</time></trkpt><trkpt lat="45.440847754239144" lon="7.6782151684740745"><ele>830.2</ele><time>2026-04-25T14:09:23.001Z</time></trkpt><trkpt lat="45.44091364992771" lon="7.678180109459761"><ele>831.8</ele><time>2026-04-25T14:09:24.001Z</time></trkpt><trkpt lat="45.44078948541691" lon="7.6780123403609455"><ele>833.4</ele><time>2026-04-25T14:09:28.001Z</time></trkpt><trkpt lat="45.440694844859856" lon="7.678009002754805"><ele>835.0</ele><time>2026-04-25T14:09:29.001Z</time></trkpt><trkpt lat="45.44060378110736" lon="7.678000930322715"><ele>835.0</ele><time>2026-04-25T14:09:30.001Z</time></trkpt><trkpt lat="45.4405391085557" lon="7.6778804721696865"><ele>835.0</ele><time>2026-04-25T14:09:32.001Z</time></trkpt><trkpt lat="45.44055650406649" lon="7.677776300074837"><ele>835.0</ele><time>2026-04-25T14:09:33.001Z</time></trkpt><trkpt lat="45.44055305531708" lon="7.677664302758062"><ele>835.0</ele><time>2026-04-25T14:09:34.001Z</time></trkpt><trkpt lat="45.440551617051156" lon="7.6775345018445424"><ele>835.0</ele><time>2026-04-25T14:09:35.001Z</time></trkpt><trkpt lat="45.44057028208741" lon="7.677390461070762"><ele>838.2</ele><time>2026-04-25T14:09:36.001Z</time></trkpt><trkpt lat="45.44058777854109" lon="7.677237045613128"><ele>841.4</ele><time>2026-04-25T14:09:37.002Z</time></trkpt><trkpt lat="45.440609965028685" lon="7.67706003203228"><ele>844.5999999999999</ele><time>2026-04-25T14:09:38.002Z</time></trkpt><trkpt lat="45.44061771756098" lon="7.676914848452875"><ele>847.8</ele><time>2026-04-25T14:09:39.002Z</time></trkpt><trkpt lat="45.440614510579906" lon="7.676793149105289"><ele>851.0</ele><time>2026-04-25T14:09:40.002Z</time></trkpt><trkpt lat="45.44057516234299" lon="7.676654432739047"><ele>852.8333333333334</ele><time>2026-04-25T14:09:41.002Z</time></trkpt><trkpt lat="45.440533232330615" lon="7.6765273751643734"><ele>854.6666666666667</ele><time>2026-04-25T14:09:42.002Z</time></trkpt><trkpt lat="45.44050374680715" lon="7.676377411931788"><ele>856.5</ele><time>2026-04-25T14:09:43.002Z</time></trkpt><trkpt lat="45.440502259929" lon="7.676242346458605"><ele>858.3333333333333</ele><time>2026-04-25T14:09:44.002Z</time></trkpt><trkpt lat="45.4404992589962" lon="7.676143577309803"><ele>860.1666666666666</ele><time>2026-04-25T14:09:45.002Z</time></trkpt><trkpt lat="45.440530015993964" lon="7.676054402938952"><ele>862.0</ele><time>2026-04-25T14:09:46.002Z</time></trkpt><trkpt lat="45.44056571164611" lon="7.675950546781804"><ele>862.9999999999999</ele><time>2026-04-25T14:09:47.002Z</time></trkpt><trkpt lat="45.440620591600585" lon="7.675859959778335"><ele>864.0</ele><time>2026-04-25T14:09:48.002Z</time></trkpt><trkpt lat="45.44071955541559" lon="7.675828953087052"><ele>865.0</ele><time>2026-04-25T14:09:50.002Z</time></trkpt><trkpt lat="45.44076595592399" lon="7.675918900459582"><ele>866.0</ele><time>2026-04-25T14:09:51.002Z</time></trkpt><trkpt lat="45.44082868838458" lon="7.675996286853874"><ele>866.9999999999999</ele><time>2026-04-25T14:09:52.002Z</time></trkpt><trkpt lat="45.440918477436064" lon="7.676011483896075"><ele>868.0</ele><time>2026-04-25T14:09:53.002Z</time></trkpt><trkpt lat="45.440992277963986" lon="7.676037441349814"><ele>867.9999999999999</ele><time>2026-04-25T14:09:54.002Z</time></trkpt><trkpt lat="45.44107494635449" lon="7.676030786620303"><ele>868.0</ele><time>2026-04-25T14:09:55.002Z</time></trkpt><trkpt lat="45.441161375863636" lon="7.676024892652618"><ele>868.0</ele><time>2026-04-25T14:09:56.002Z</time></trkpt><trkpt lat="45.44123858142799" lon="7.676003836611431"><ele>868.0</ele><time>2026-04-25T14:09:57.002Z</time></trkpt><trkpt lat="45.44133627305024" lon="7.676001993354416"><ele>867.9999999999999</ele><time>2026-04-25T14:09:58.002Z</time></trkpt><trkpt lat="45.441414008226864" lon="7.675975920711643"><ele>868.0</ele><time>2026-04-25T14:09:59.002Z</time></trkpt><trkpt lat="45.4415760609152" lon="7.675936697372635"><ele>872.5</ele><time>2026-04-25T14:10:01.002Z</time></trkpt><trkpt lat="45.44167098843391" lon="7.675887751605485"><ele>877.0</ele><time>2026-04-25T14:10:02.002Z</time></trkpt><trkpt lat="45.44178445648694" lon="7.675834491363059"><ele>881.5</ele><time>2026-04-25T14:10:03.002Z</time></trkpt><trkpt lat="45.44190407185998" lon="7.675746780790563"><ele>886.0</ele><time>2026-04-25T14:10:04.002Z</time></trkpt><trkpt lat="45.44199836793525" lon="7.675683462286516"><ele>886.0</ele><time>2026-04-25T14:10:05.002Z</time></trkpt><trkpt lat="45.4420883860064" lon="7.67563913603891"><ele>885.9999999999999</ele><time>2026-04-25T14:10:07.002Z</time></trkpt><trkpt lat="45.442151341215336" lon="7.675497588142306"><ele>885.9999999999999</ele><time>2026-04-25T14:10:08.002Z</time></trkpt><trkpt lat="45.44220065336941" lon="7.6753299802680255"><ele>886.0</ele><time>2026-04-25T14:10:09.002Z</time></trkpt><trkpt lat="45.4422300827415" lon="7.6752295975594444"><ele>886.0</ele><time>2026-04-25T14:10:10.002Z</time></trkpt><trkpt lat="45.442300762559455" lon="7.675225518414148"><ele>887.4</ele><time>2026-04-25T14:10:12.002Z</time></trkpt><trkpt lat="45.44239889461149" lon="7.675264991158226"><ele>888.8</ele><time>2026-04-25T14:10:13.002Z</time></trkpt><trkpt lat="45.44250517949523" lon="7.675288019238472"><ele>890.1999999999999</ele><time>2026-04-25T14:10:14.002Z</time></trkpt><trkpt lat="45.44256452399762" lon="7.675324390401687"><ele>891.5999999999999</ele><time>2026-04-25T14:10:15.002Z</time></trkpt><trkpt lat="45.44270598667048" lon="7.675335972908401"><ele>893.0</ele><time>2026-04-25T14:10:17.002Z</time></trkpt><trkpt lat="45.4428236025827" lon="7.675335119722392"><ele>899.6666666666667</ele><time>2026-04-25T14:10:18.002Z</time></trkpt><trkpt lat="45.44304479731884" lon="7.67535410136444"><ele>906.3333333333333</ele><time>2026-04-25T14:10:19.002Z</time></trkpt><trkpt lat="45.44320944118965" lon="7.675420352542574"><ele>913.0</ele><time>2026-04-25T14:10:20.002Z</time></trkpt><trkpt lat="45.44334554838455" lon="7.67545674747013"><ele>912.9999999999999</ele><time>2026-04-25T14:10:21.002Z</time></trkpt><trkpt lat="45.443417536711586" lon="7.675451048092135"><ele>913.0</ele><time>2026-04-25T14:10:23.002Z</time></trkpt><trkpt lat="45.4435115324477" lon="7.675456541689664"><ele>913.0</ele><time>2026-04-25T14:10:24.002Z</time></trkpt><trkpt lat="45.44359327689646" lon="7.675428668504326"><ele>913.0</ele><time>2026-04-25T14:10:25.002Z</time></trkpt><trkpt lat="45.44361915751446" lon="7.675512113154032"><ele>912.9999999999999</ele><time>2026-04-25T14:10:26.002Z</time></trkpt><trkpt lat="45.44368402773413" lon="7.675581418351477"><ele>913.0</ele><time>2026-04-25T14:10:27.002Z</time></trkpt><trkpt lat="45.44375317035218" lon="7.675611417009081"><ele>917.0</ele><time>2026-04-25T14:10:28.002Z</time></trkpt><trkpt lat="45.44386071194796" lon="7.675741846848528"><ele>921.0</ele><time>2026-04-25T14:10:29.002Z</time></trkpt><trkpt lat="45.443921713623574" lon="7.675817719581568"><ele>925.0</ele><time>2026-04-25T14:10:30.002Z</time></trkpt><trkpt lat="45.44398237171398" lon="7.675907644253881"><ele>929.0</ele><time>2026-04-25T14:10:32.002Z</time></trkpt><trkpt lat="45.444049355313155" lon="7.675896557220586"><ele>933.0</ele><time>2026-04-25T14:10:33.002Z</time></trkpt><trkpt lat="45.444137843003205" lon="7.675831340682875"><ele>933.0</ele><time>2026-04-25T14:10:34.001Z</time></trkpt><trkpt lat="45.44426501210103" lon="7.675647355332794"><ele>933.0</ele><time>2026-04-25T14:10:35.001Z</time></trkpt><trkpt lat="45.44434737087653" lon="7.67553086128703"><ele>933.0</ele><time>2026-04-25T14:10:36.001Z</time></trkpt><trkpt lat="45.44439809657777" lon="7.6754497599460665"><ele>933.0</ele><time>2026-04-25T14:10:37.001Z</time></trkpt><trkpt lat="45.44441273126558" lon="7.675311421799564"><ele>935.6666666666666</ele><time>2026-04-25T14:10:38.001Z</time></trkpt><trkpt lat="45.44442132882994" lon="7.675150672028318"><ele>938.3333333333333</ele><time>2026-04-25T14:10:39.001Z</time></trkpt><trkpt lat="45.44444398781544" lon="7.675049698917231"><ele>941.0</ele><time>2026-04-25T14:10:40.001Z</time></trkpt><trkpt lat="45.44449559526719" lon="7.674937657305385"><ele>943.6666666666666</ele><time>2026-04-25T14:10:41.001Z</time></trkpt><trkpt lat="45.44453091373858" lon="7.674825888206999"><ele>946.3333333333333</ele><time>2026-04-25T14:10:42.001Z</time></trkpt><trkpt lat="45.44447427791469" lon="7.6747779840920805"><ele>949.0</ele><time>2026-04-25T14:10:44.001Z</time></trkpt><trkpt lat="45.444390044224654" lon="7.6748836784052985"><ele>949.0</ele><time>2026-04-25T14:10:46.001Z</time></trkpt><trkpt lat="45.4443315042636" lon="7.674808799026099"><ele>949.0000000000001</ele><time>2026-04-25T14:10:48.001Z</time></trkpt><trkpt lat="45.444255561988435" lon="7.674762124738636"><ele>949.0000000000001</ele><time>2026-04-25T14:10:49.001Z</time></trkpt><trkpt lat="45.444159925973295" lon="7.67465328441469"><ele>949.0</ele><time>2026-04-25T14:10:50.001Z</time></trkpt><trkpt lat="45.44405889147423" lon="7.67455162066877"><ele>949.0</ele><time>2026-04-25T14:10:51.001Z</time></trkpt><trkpt lat="45.44400151744826" lon="7.674489001482673"><ele>952.6</ele><time>2026-04-25T14:10:52.001Z</time></trkpt><trkpt lat="45.44393420481248" lon="7.674411116478102"><ele>956.2</ele><time>2026-04-25T14:10:53.001Z</time></trkpt><trkpt lat="45.44388465113254" lon="7.674349143581957"><ele>959.8000000000001</ele><time>2026-04-25T14:10:54.001Z</time></trkpt><trkpt lat="45.443848665073034" lon="7.674193459496628"><ele>963.4000000000001</ele><time>2026-04-25T14:10:56.001Z</time></trkpt><trkpt lat="45.443835491876584" lon="7.674083771406162"><ele>967.0</ele><time>2026-04-25T14:10:57.001Z</time></trkpt><trkpt lat="45.443837726949404" lon="7.6739292504477"><ele>966.9999999999999</ele><time>2026-04-25T14:10:58.001Z</time></trkpt><trkpt lat="45.443833461693885" lon="7.673819755793562"><ele>967.0</ele><time>2026-04-25T14:10:59.001Z</time></trkpt><trkpt lat="45.44381995293035" lon="7.673688761701018"><ele>967.0</ele><time>2026-04-25T14:11:00.001Z</time></trkpt><trkpt lat="45.44378927242214" lon="7.673582594124434"><ele>967.0</ele><time>2026-04-25T14:11:01.001Z</time></trkpt><trkpt lat="45.44373003570836" lon="7.673509093511186"><ele>966.9999999999999</ele><time>2026-04-25T14:11:02.001Z</time></trkpt><trkpt lat="45.44380429854932" lon="7.673482349845378"><ele>967.0</ele><time>2026-04-25T14:11:06.001Z</time></trkpt><trkpt lat="45.44388323927607" lon="7.673435770360848"><ele>970.2</ele><time>2026-04-25T14:11:10.001Z</time></trkpt><trkpt lat="45.44394605268707" lon="7.673482523274184"><ele>973.4000000000001</ele><time>2026-04-25T14:11:12.001Z</time></trkpt><trkpt lat="45.44404306081453" lon="7.673495299587318"><ele>976.5999999999999</ele><time>2026-04-25T14:11:13.001Z</time></trkpt><trkpt lat="45.444163284173506" lon="7.673400285922664"><ele>979.8</ele><time>2026-04-25T14:11:14.001Z</time></trkpt><trkpt lat="45.44423023325013" lon="7.67334118111331"><ele>983.0</ele><time>2026-04-25T14:11:15.001Z</time></trkpt><trkpt lat="45.44433583193964" lon="7.673236220583536"><ele>983.0000000000001</ele><time>2026-04-25T14:11:16.001Z</time></trkpt><trkpt lat="45.44441219448192" lon="7.673157003472799"><ele>983.0</ele><time>2026-04-25T14:11:17.001Z</time></trkpt><trkpt lat="45.44443399006043" lon="7.6730496057579485"><ele>983.0</ele><time>2026-04-25T14:11:20.001Z</time></trkpt><trkpt lat="45.44437585286433" lon="7.6729599186408715"><ele>983.0</ele><time>2026-04-25T14:11:22.001Z</time></trkpt><trkpt lat="45.444319038762" lon="7.672894310060114"><ele>983.0000000000001</ele><time>2026-04-25T14:11:23.001Z</time></trkpt><trkpt lat="45.44426282306855" lon="7.672797549629893"><ele>983.0</ele><time>2026-04-25T14:11:24.001Z</time></trkpt><trkpt lat="45.44419496874492" lon="7.672717410307905"><ele>988.75</ele><time>2026-04-25T14:11:25.001Z</time></trkpt><trkpt lat="45.444107431579255" lon="7.6726111664753125"><ele>994.5</ele><time>2026-04-25T14:11:27.001Z</time></trkpt><trkpt lat="45.444085455789434" lon="7.672412087723"><ele>1000.25</ele><time>2026-04-25T14:11:29.001Z</time></trkpt><trkpt lat="45.444084710398336" lon="7.672245531649265"><ele>1006.0</ele><time>2026-04-25T14:11:30.001Z</time></trkpt><trkpt lat="45.44405345055685" lon="7.6720922189956715"><ele>1010.5999999999999</ele><time>2026-04-25T14:11:31.001Z</time></trkpt><trkpt lat="45.44400315172764" lon="7.671914332013458"><ele>1015.1999999999999</ele><time>2026-04-25T14:11:32.001Z</time></trkpt><trkpt lat="45.443974210649074" lon="7.67181584264294"><ele>1019.8000000000001</ele><time>2026-04-25T14:11:33.001Z</time></trkpt><trkpt lat="45.44392826468167" lon="7.671691212582283"><ele>1024.4</ele><time>2026-04-25T14:11:34.001Z</time></trkpt><trkpt lat="45.44389598647758" lon="7.671527890423077"><ele>1029.0</ele><time>2026-04-25T14:11:35.001Z</time></trkpt><trkpt lat="45.44384628455276" lon="7.671401439279141"><ele>1029.0</ele><time>2026-04-25T14:11:36.001Z</time></trkpt><trkpt lat="45.44380174790761" lon="7.6712523409541085"><ele>1029.0</ele><time>2026-04-25T14:11:37.001Z</time></trkpt><trkpt lat="45.44376873833482" lon="7.67116044531658"><ele>1029.0</ele><time>2026-04-25T14:11:38.001Z</time></trkpt><trkpt lat="45.44368230698352" lon="7.671137441453999"><ele>1029.0</ele><time>2026-04-25T14:11:40.001Z</time></trkpt><trkpt lat="45.44372396427021" lon="7.671066986804489"><ele>1029.0</ele><time>2026-04-25T14:11:47.001Z</time></trkpt><trkpt lat="45.44380482742994" lon="7.6710393047154035"><ele>1029.0</ele><time>2026-04-25T14:11:49.001Z</time></trkpt><trkpt lat="45.44387183059173" lon="7.670994436430657"><ele>1031.0</ele><time>2026-04-25T14:11:51.001Z</time></trkpt><trkpt lat="45.44394298544928" lon="7.670959696845671"><ele>1033.0</ele><time>2026-04-25T14:11:53.001Z</time></trkpt><trkpt lat="45.44403219039539" lon="7.670980259572956"><ele>1035.0</ele><time>2026-04-25T14:11:55.001Z</time></trkpt><trkpt lat="45.444108276477195" lon="7.671024917155934"><ele>1037.0</ele><time>2026-04-25T14:11:57.001Z</time></trkpt><trkpt lat="45.44417931262121" lon="7.671044916732059"><ele>1039.0</ele><time>2026-04-25T14:11:59.001Z</time></trkpt><trkpt lat="45.444208296253585" lon="7.670939280954051"><ele>1041.0</ele><time>2026-04-25T14:12:00.001Z</time></trkpt><trkpt lat="45.44424658557503" lon="7.670849986602844"><ele>1041.0</ele><time>2026-04-25T14:12:01.001Z</time></trkpt><trkpt lat="45.44433400141117" lon="7.670870964555693"><ele>1041.0</ele><time>2026-04-25T14:12:03.001Z</time></trkpt><trkpt lat="45.444411381780505" lon="7.670889015640119"><ele>1041.0</ele><time>2026-04-25T14:12:04.001Z</time></trkpt><trkpt lat="45.44442978346453" lon="7.670754006301776"><ele>1041.0</ele><time>2026-04-25T14:12:05.001Z</time></trkpt><trkpt lat="45.44439678844885" lon="7.6706544117133415"><ele>1041.0</ele><time>2026-04-25T14:12:06.001Z</time></trkpt><trkpt lat="45.44436464400408" lon="7.6705681370923"><ele>1041.0</ele><time>2026-04-25T14:12:07.001Z</time></trkpt><trkpt lat="45.44428520167654" lon="7.670432723312772"><ele>1041.0</ele><time>2026-04-25T14:12:08.001Z</time></trkpt><trkpt lat="45.44421234554812" lon="7.670353016539466"><ele>1041.0</ele><time>2026-04-25T14:12:09.001Z</time></trkpt><trkpt lat="45.4441293196417" lon="7.670235333985485"><ele>1041.0</ele><time>2026-04-25T14:12:11.001Z</time></trkpt><trkpt lat="45.44402338696649" lon="7.67015434542297"><ele>1041.0</ele><time>2026-04-25T14:12:13.001Z</time></trkpt><trkpt lat="45.44391334135992" lon="7.670149415488223"><ele>1041.0</ele><time>2026-04-25T14:12:14.001Z</time></trkpt><trkpt lat="45.443837157984106" lon="7.670143160235204"><ele>1044.0</ele><time>2026-04-25T14:12:15.001Z</time></trkpt><trkpt lat="45.44374333165491" lon="7.670110044143981"><ele>1047.0</ele><time>2026-04-25T14:12:16.001Z</time></trkpt><trkpt lat="45.44364889010936" lon="7.670057295937548"><ele>1050.0</ele><time>2026-04-25T14:12:17.001Z</time></trkpt><trkpt lat="45.443582032030996" lon="7.670027047324047"><ele>1053.0</ele><time>2026-04-25T14:12:18.001Z</time></trkpt><trkpt lat="45.443538997831006" lon="7.669899799646417"><ele>1056.0</ele><time>2026-04-25T14:12:21.001Z</time></trkpt><trkpt lat="45.4435977736685" lon="7.6698053192959055"><ele>1056.0</ele><time>2026-04-25T14:12:23.001Z</time></trkpt><trkpt lat="45.44372906410032" lon="7.6697594931513295"><ele>1056.0</ele><time>2026-04-25T14:12:25.001Z</time></trkpt><trkpt lat="45.443833815347325" lon="7.669708378882565"><ele>1056.0</ele><time>2026-04-25T14:12:26.001Z</time></trkpt><trkpt lat="45.44396157723164" lon="7.6696447860652395"><ele>1056.0</ele><time>2026-04-25T14:12:27.001Z</time></trkpt><trkpt lat="45.44410812837956" lon="7.669596784402311"><ele>1056.6666666666667</ele><time>2026-04-25T14:12:28Z</time></trkpt><trkpt lat="45.44420052799598" lon="7.669602877375112"><ele>1057.3333333333333</ele><time>2026-04-25T14:12:29Z</time></trkpt><trkpt lat="45.444293390461446" lon="7.6696377262933595"><ele>1058.0</ele><time>2026-04-25T14:12:30Z</time></trkpt><trkpt lat="45.44436764718018" lon="7.669650602474914"><ele>1058.6666666666665</ele><time>2026-04-25T14:12:31Z</time></trkpt><trkpt lat="45.44445512437941" lon="7.66964126223567"><ele>1059.3333333333333</ele><time>2026-04-25T14:12:32Z</time></trkpt><trkpt lat="45.44451619217268" lon="7.6696120187394135"><ele>1060.0</ele><time>2026-04-25T14:12:33Z</time></trkpt><trkpt lat="45.444577315826976" lon="7.669583188928733"><ele>1062.8</ele><time>2026-04-25T14:12:34Z</time></trkpt><trkpt lat="45.44467145879998" lon="7.669562488148221"><ele>1065.6</ele><time>2026-04-25T14:12:35Z</time></trkpt><trkpt lat="45.44478381355631" lon="7.669564054712932"><ele>1068.4</ele><time>2026-04-25T14:12:36Z</time></trkpt><trkpt lat="45.444899066540806" lon="7.669554880023184"><ele>1071.2</ele><time>2026-04-25T14:12:37Z</time></trkpt><trkpt lat="45.44497379161275" lon="7.669568400066613"><ele>1074.0</ele><time>2026-04-25T14:12:38Z</time></trkpt><trkpt lat="45.445057496091394" lon="7.6695852463431615"><ele>1074.0</ele><time>2026-04-25T14:12:39Z</time></trkpt><trkpt lat="45.44516959340526" lon="7.669622357158674"><ele>1074.0</ele><time>2026-04-25T14:12:40Z</time></trkpt><trkpt lat="45.445262284969196" lon="7.669637508469254"><ele>1074.0</ele><time>2026-04-25T14:12:42Z</time></trkpt><trkpt lat="45.445330741017806" lon="7.669662212839509"><ele>1074.0</ele><time>2026-04-25T14:12:43Z</time></trkpt><trkpt lat="45.44542458598754" lon="7.66960548402073"><ele>1074.0</ele><time>2026-04-25T14:12:44Z</time></trkpt><trkpt lat="45.44553616039219" lon="7.669502071624461"><ele>1075.0</ele><time>2026-04-25T14:12:45Z</time></trkpt><trkpt lat="45.445607952697394" lon="7.669475658345663"><ele>1076.0</ele><time>2026-04-25T14:12:46Z</time></trkpt><trkpt lat="45.44569378747252" lon="7.669456793193856"><ele>1077.0</ele><time>2026-04-25T14:12:47Z</time></trkpt><trkpt lat="45.44577128147083" lon="7.669419259059419"><ele>1078.0</ele><time>2026-04-25T14:12:48Z</time></trkpt><trkpt lat="45.445847051762456" lon="7.669350730247336"><ele>1079.0</ele><time>2026-04-25T14:12:50Z</time></trkpt><trkpt lat="45.44595620248333" lon="7.669345923411061"><ele>1080.0</ele><time>2026-04-25T14:13:36Z</time></trkpt><trkpt lat="45.44601049672692" lon="7.6692391596480185"><ele>1083.5</ele><time>2026-04-25T14:15:17Z</time></trkpt><trkpt lat="45.44606000341441" lon="7.669095640203285"><ele>1087.0</ele><time>2026-04-25T14:15:19Z</time></trkpt><trkpt lat="45.446082225192264" lon="7.668998254999526"><ele>1090.5</ele><time>2026-04-25T14:15:20Z</time></trkpt><trkpt lat="45.44610974684078" lon="7.668885099183969"><ele>1094.0</ele><time>2026-04-25T14:15:21Z</time></trkpt><trkpt lat="45.44611771258451" lon="7.668764054669705"><ele>1097.5</ele><time>2026-04-25T14:15:22Z</time></trkpt><trkpt lat="45.4461089151599" lon="7.6686688069863544"><ele>1101.0</ele><time>2026-04-25T14:15:23Z</time></trkpt><trkpt lat="45.44612130013453" lon="7.668578504164703"><ele>1101.1666666666667</ele><time>2026-04-25T14:15:24Z</time></trkpt><trkpt lat="45.44606584530002" lon="7.668461300531057"><ele>1101.3333333333333</ele><time>2026-04-25T14:15:25Z</time></trkpt><trkpt lat="45.44604009587233" lon="7.668328252216143"><ele>1101.5</ele><time>2026-04-25T14:15:26Z</time></trkpt><trkpt lat="45.44601643310738" lon="7.668201431148595"><ele>1101.6666666666665</ele><time>2026-04-25T14:15:27Z</time></trkpt><trkpt lat="45.44599600122519" lon="7.6681102941224"><ele>1101.8333333333333</ele><time>2026-04-25T14:15:28Z</time></trkpt><trkpt lat="45.445996063032965" lon="7.668014959600311"><ele>1102.0</ele><time>2026-04-25T14:15:29Z</time></trkpt><trkpt lat="45.44601000986456" lon="7.6679080361599175"><ele>1102.0</ele><time>2026-04-25T14:15:30Z</time></trkpt><trkpt lat="45.446034077964" lon="7.667807045772774"><ele>1102.0</ele><time>2026-04-25T14:15:32.001Z</time></trkpt><trkpt lat="45.4461105066509" lon="7.66779582220714"><ele>1102.0</ele><time>2026-04-25T14:15:34.001Z</time></trkpt><trkpt lat="45.44623019690374" lon="7.667825947156392"><ele>1102.0</ele><time>2026-04-25T14:15:36.001Z</time></trkpt><trkpt lat="45.44629593598268" lon="7.667808808397975"><ele>1102.0</ele><time>2026-04-25T14:15:37.001Z</time></trkpt><trkpt lat="45.44635896062355" lon="7.667803209991131"><ele>1102.0</ele><time>2026-04-25T14:15:38.001Z</time></trkpt><trkpt lat="45.44647633992438" lon="7.667755934610545"><ele>1100.6</ele><time>2026-04-25T14:15:40.001Z</time></trkpt><trkpt lat="45.44652024390624" lon="7.667645150635494"><ele>1099.2</ele><time>2026-04-25T14:15:42.001Z</time></trkpt><trkpt lat="45.44655068794224" lon="7.6675415177603465"><ele>1097.8</ele><time>2026-04-25T14:15:43.001Z</time></trkpt><trkpt lat="45.446589866702475" lon="7.66742024787715"><ele>1096.4</ele><time>2026-04-25T14:15:44.001Z</time></trkpt><trkpt lat="45.44667242510537" lon="7.66733063624061"><ele>1095.0</ele><time>2026-04-25T14:15:45.001Z</time></trkpt><trkpt lat="45.44675340889032" lon="7.667209865341493"><ele>1095.0</ele><time>2026-04-25T14:15:46.001Z</time></trkpt><trkpt lat="45.44684009602473" lon="7.66708325780392"><ele>1095.0</ele><time>2026-04-25T14:15:47.001Z</time></trkpt><trkpt lat="45.446943138643576" lon="7.667001934642756"><ele>1095.0</ele><time>2026-04-25T14:15:48.001Z</time></trkpt><trkpt lat="45.44699112513753" lon="7.666885451864505"><ele>1095.0</ele><time>2026-04-25T14:15:49.001Z</time></trkpt><trkpt lat="45.44705354777568" lon="7.66673144962912"><ele>1094.75</ele><time>2026-04-25T14:15:50.001Z</time></trkpt><trkpt lat="45.4471372686939" lon="7.666528866723327"><ele>1094.5</ele><time>2026-04-25T14:15:51.001Z</time></trkpt><trkpt lat="45.44721035508917" lon="7.666371313790813"><ele>1094.25</ele><time>2026-04-25T14:15:52.001Z</time></trkpt><trkpt lat="45.44726565025615" lon="7.66626199937645"><ele>1094.0</ele><time>2026-04-25T14:15:53.001Z</time></trkpt><trkpt lat="45.44732139193981" lon="7.666158318265781"><ele>1099.0</ele><time>2026-04-25T14:15:54.001Z</time></trkpt><trkpt lat="45.44738576498009" lon="7.666047378405256"><ele>1104.0</ele><time>2026-04-25T14:15:55.001Z</time></trkpt><trkpt lat="45.447480145686036" lon="7.665912391805979"><ele>1109.0</ele><time>2026-04-25T14:15:56.001Z</time></trkpt><trkpt lat="45.447597410401954" lon="7.66576921001594"><ele>1114.0</ele><time>2026-04-25T14:15:57.001Z</time></trkpt><trkpt lat="45.44768539511314" lon="7.665653730920967"><ele>1114.0</ele><time>2026-04-25T14:15:58.001Z</time></trkpt><trkpt lat="45.44774735254578" lon="7.6655700570352625"><ele>1114.0</ele><time>2026-04-25T14:15:59.001Z</time></trkpt><trkpt lat="45.447792093064244" lon="7.665487815461805"><ele>1114.0</ele><time>2026-04-25T14:16:00.001Z</time></trkpt><trkpt lat="45.44783745183457" lon="7.665414007668941"><ele>1114.0</ele><time>2026-04-25T14:16:01.001Z</time></trkpt><trkpt lat="45.44791719989474" lon="7.665336756864485"><ele>1114.0</ele><time>2026-04-25T14:16:03.001Z</time></trkpt><trkpt lat="45.448000791716986" lon="7.665369687389623"><ele>1114.0</ele><time>2026-04-25T14:16:05.001Z</time></trkpt><trkpt lat="45.447975113303514" lon="7.665491100940148"><ele>1118.0</ele><time>2026-04-25T14:16:08.001Z</time></trkpt><trkpt lat="45.44800685561348" lon="7.666057185398624"><ele>1122.0</ele><time>2026-04-25T14:16:10.001Z</time></trkpt><trkpt lat="45.447983458846" lon="7.666222938554943"><ele>1122.0</ele><time>2026-04-25T14:16:11.001Z</time></trkpt><trkpt lat="45.44799203279036" lon="7.666370856820789"><ele>1122.0</ele><time>2026-04-25T14:16:12.001Z</time></trkpt><trkpt lat="45.44801171864306" lon="7.666494488858348"><ele>1122.0</ele><time>2026-04-25T14:16:13.001Z</time></trkpt><trkpt lat="45.44798536564762" lon="7.666592446660346"><ele>1122.0</ele><time>2026-04-25T14:16:14.001Z</time></trkpt><trkpt lat="45.447976999842695" lon="7.666753575918769"><ele>1122.0</ele><time>2026-04-25T14:16:15.001Z</time></trkpt><trkpt lat="45.44798066170264" lon="7.666906993357467"><ele>1119.0</ele><time>2026-04-25T14:16:16.001Z</time></trkpt><trkpt lat="45.447990919999796" lon="7.667063473285193"><ele>1116.0</ele><time>2026-04-25T14:16:17.001Z</time></trkpt><trkpt lat="45.44800969199718" lon="7.667198076259337"><ele>1113.0</ele><time>2026-04-25T14:16:18.001Z</time></trkpt><trkpt lat="45.44803029290714" lon="7.667345055783518"><ele>1110.0</ele><time>2026-04-25T14:16:19.001Z</time></trkpt><trkpt lat="45.44806627126383" lon="7.667535172264807"><ele>1110.0</ele><time>2026-04-25T14:16:20.001Z</time></trkpt><trkpt lat="45.44812456644225" lon="7.667693197491147"><ele>1110.0</ele><time>2026-04-25T14:16:21.001Z</time></trkpt><trkpt lat="45.4481866682307" lon="7.667860533517063"><ele>1110.0</ele><time>2026-04-25T14:16:22.001Z</time></trkpt><trkpt lat="45.44828522148358" lon="7.6680659196794005"><ele>1110.0</ele><time>2026-04-25T14:16:23.001Z</time></trkpt><trkpt lat="45.448357258473706" lon="7.66832295698297"><ele>1105.25</ele><time>2026-04-25T14:16:24.001Z</time></trkpt><trkpt lat="45.448431562708784" lon="7.668513931714917"><ele>1100.5</ele><time>2026-04-25T14:16:25.001Z</time></trkpt><trkpt lat="45.448490369732106" lon="7.668709868023104"><ele>1095.75</ele><time>2026-04-25T14:16:26.001Z</time></trkpt><trkpt lat="45.44854635143908" lon="7.668874520959891"><ele>1091.0</ele><time>2026-04-25T14:16:27.001Z</time></trkpt><trkpt lat="45.448559559103906" lon="7.669043773091206"><ele>1089.0</ele><time>2026-04-25T14:16:28.001Z</time></trkpt><trkpt lat="45.44857710352453" lon="7.669186335102641"><ele>1087.0</ele><time>2026-04-25T14:16:29.001Z</time></trkpt><trkpt lat="45.44861084244993" lon="7.669285870144997"><ele>1085.0</ele><time>2026-04-25T14:16:30.001Z</time></trkpt><trkpt lat="45.44870998847274" lon="7.669417065061019"><ele>1083.0</ele><time>2026-04-25T14:16:32.001Z</time></trkpt><trkpt lat="45.44878752080352" lon="7.669467074630807"><ele>1081.0</ele><time>2026-04-25T14:16:33.001Z</time></trkpt><trkpt lat="45.448732351812716" lon="7.669324516474726"><ele>1081.0</ele><time>2026-04-25T14:16:40.001Z</time></trkpt><trkpt lat="45.448737970498954" lon="7.669201208785236"><ele>1081.0</ele><time>2026-04-25T14:16:44.001Z</time></trkpt><trkpt lat="45.44884531653891" lon="7.669360941154368"><ele>1081.0</ele><time>2026-04-25T14:16:49.001Z</time></trkpt><trkpt lat="45.448908223562846" lon="7.669543982647319"><ele>1081.0</ele><time>2026-04-25T14:16:50.001Z</time></trkpt><trkpt lat="45.44899240296075" lon="7.669698648835771"><ele>1085.3999999999999</ele><time>2026-04-25T14:16:51.001Z</time></trkpt><trkpt lat="45.44906662530672" lon="7.66977237352045"><ele>1089.8</ele><time>2026-04-25T14:16:52.001Z</time></trkpt><trkpt lat="45.44916272180873" lon="7.669873813177869"><ele>1094.1999999999998</ele><time>2026-04-25T14:16:53.001Z</time></trkpt><trkpt lat="45.44925315196223" lon="7.669958109633013"><ele>1098.6</ele><time>2026-04-25T14:16:54.001Z</time></trkpt><trkpt lat="45.4493497560356" lon="7.670026118414775"><ele>1103.0</ele><time>2026-04-25T14:16:56.001Z</time></trkpt><trkpt lat="45.44940237162936" lon="7.67008216185772"><ele>1103.0</ele><time>2026-04-25T14:16:57.001Z</time></trkpt><trkpt lat="45.44947471053383" lon="7.670159102311705"><ele>1103.0</ele><time>2026-04-25T14:16:58.001Z</time></trkpt><trkpt lat="45.449594558964336" lon="7.670328300909964"><ele>1103.0</ele><time>2026-04-25T14:17:00.001Z</time></trkpt><trkpt lat="45.449724647086825" lon="7.670381047596638"><ele>1103.0</ele><time>2026-04-25T14:17:01.001Z</time></trkpt><trkpt lat="45.449846423767795" lon="7.670408261081474"><ele>1105.2</ele><time>2026-04-25T14:17:02.001Z</time></trkpt><trkpt lat="45.44994857971811" lon="7.670419509408791"><ele>1107.4</ele><time>2026-04-25T14:17:03.001Z</time></trkpt><trkpt lat="45.45006680620346" lon="7.670463893709586"><ele>1109.6000000000001</ele><time>2026-04-25T14:17:05.001Z</time></trkpt><trkpt lat="45.45012527407951" lon="7.670533848804272"><ele>1111.8</ele><time>2026-04-25T14:17:06.001Z</time></trkpt><trkpt lat="45.45018389332108" lon="7.670669939959427"><ele>1114.0</ele><time>2026-04-25T14:17:07.001Z</time></trkpt><trkpt lat="45.4502232241131" lon="7.670781220989893"><ele>1114.0</ele><time>2026-04-25T14:17:08.001Z</time></trkpt><trkpt lat="45.45031231934784" lon="7.67089852396818"><ele>1114.0</ele><time>2026-04-25T14:17:09.001Z</time></trkpt><trkpt lat="45.45039657168768" lon="7.670932137856635"><ele>1114.0</ele><time>2026-04-25T14:17:10Z</time></trkpt><trkpt lat="45.45046533717003" lon="7.670923879831999"><ele>1114.0</ele><time>2026-04-25T14:17:11Z</time></trkpt><trkpt lat="45.4505316778" lon="7.671006186321346"><ele>1114.0</ele><time>2026-04-25T14:17:13Z</time></trkpt><trkpt lat="45.450492983028035" lon="7.671116351305081"><ele>1111.6666666666665</ele><time>2026-04-25T14:17:16Z</time></trkpt><trkpt lat="45.45042525961414" lon="7.671219547455913"><ele>1109.3333333333333</ele><time>2026-04-25T14:17:19Z</time></trkpt><trkpt lat="45.45038292844677" lon="7.671334980176421"><ele>1107.0</ele><time>2026-04-25T14:17:21Z</time></trkpt><trkpt lat="45.45032070146519" lon="7.671444409507066"><ele>1104.6666666666667</ele><time>2026-04-25T14:17:23Z</time></trkpt><trkpt lat="45.45032882313388" lon="7.671536297100871"><ele>1102.3333333333335</ele><time>2026-04-25T14:17:26Z</time></trkpt><trkpt lat="45.45031031747457" lon="7.671636688762289"><ele>1100.0</ele><time>2026-04-25T14:17:28Z</time></trkpt><trkpt lat="45.450266788129724" lon="7.6717039972988195"><ele>1100.0</ele><time>2026-04-25T14:17:30Z</time></trkpt><trkpt lat="45.45023907111254" lon="7.671799262587531"><ele>1100.0</ele><time>2026-04-25T14:17:32Z</time></trkpt><trkpt lat="45.4502279207876" lon="7.6719084707525305"><ele>1100.0</ele><time>2026-04-25T14:17:34Z</time></trkpt><trkpt lat="45.45021645725031" lon="7.6720144114754065"><ele>1100.0</ele><time>2026-04-25T14:17:36Z</time></trkpt><trkpt lat="45.45023353682321" lon="7.6721588690141385"><ele>1100.0</ele><time>2026-04-25T14:17:39Z</time></trkpt><trkpt lat="45.45022741510732" lon="7.672278087622298"><ele>1100.0</ele><time>2026-04-25T14:17:42Z</time></trkpt><trkpt lat="45.45022565389848" lon="7.67237103470249"><ele>1098.8333333333335</ele><time>2026-04-25T14:17:44Z</time></trkpt><trkpt lat="45.45024443138076" lon="7.672463236670608"><ele>1097.6666666666667</ele><time>2026-04-25T14:17:47Z</time></trkpt><trkpt lat="45.45026555227053" lon="7.67261822677322"><ele>1096.5</ele><time>2026-04-25T14:17:48Z</time></trkpt><trkpt lat="45.450299611786214" lon="7.672712609754588"><ele>1095.3333333333333</ele><time>2026-04-25T14:17:50Z</time></trkpt><trkpt lat="45.450336644166754" lon="7.6728161888431865"><ele>1094.1666666666665</ele><time>2026-04-25T14:17:53Z</time></trkpt><trkpt lat="45.45034211432113" lon="7.672928282030628"><ele>1093.0</ele><time>2026-04-25T14:17:55Z</time></trkpt><trkpt lat="45.45036601185804" lon="7.673028152650469"><ele>1091.6</ele><time>2026-04-25T14:17:57Z</time></trkpt><trkpt lat="45.45044025535371" lon="7.673126367037199"><ele>1090.1999999999998</ele><time>2026-04-25T14:17:59Z</time></trkpt><trkpt lat="45.45050134148135" lon="7.673164191312436"><ele>1088.8</ele><time>2026-04-25T14:18:01Z</time></trkpt><trkpt lat="45.45057236609031" lon="7.673260238665289"><ele>1087.3999999999999</ele><time>2026-04-25T14:18:03Z</time></trkpt><trkpt lat="45.45070567136166" lon="7.673247313120326"><ele>1086.0</ele><time>2026-04-25T14:18:05Z</time></trkpt><trkpt lat="45.45092274774684" lon="7.673302671716675"><ele>1086.0</ele><time>2026-04-25T14:18:07Z</time></trkpt><trkpt lat="45.4509997597734" lon="7.673284689049822"><ele>1086.0</ele><time>2026-04-25T14:18:08Z</time></trkpt><trkpt lat="45.4511289787595" lon="7.673347884575167"><ele>1086.0</ele><time>2026-04-25T14:18:10Z</time></trkpt><trkpt lat="45.45121457086432" lon="7.6733922850268925"><ele>1086.0</ele><time>2026-04-25T14:18:11Z</time></trkpt><trkpt lat="45.45129230462647" lon="7.673405977747455"><ele>1086.0</ele><time>2026-04-25T14:18:12Z</time></trkpt><trkpt lat="45.45138404143591" lon="7.673449829394411"><ele>1085.8333333333333</ele><time>2026-04-25T14:18:13Z</time></trkpt><trkpt lat="45.4514553408282" lon="7.673475549699511"><ele>1085.6666666666667</ele><time>2026-04-25T14:18:14Z</time></trkpt><trkpt lat="45.45154986249684" lon="7.673483774593359"><ele>1085.5</ele><time>2026-04-25T14:18:16Z</time></trkpt><trkpt lat="45.451622590198426" lon="7.673418401593283"><ele>1085.3333333333335</ele><time>2026-04-25T14:18:20Z</time></trkpt><trkpt lat="45.4516870621788" lon="7.673396396187541"><ele>1085.1666666666667</ele><time>2026-04-25T14:18:23Z</time></trkpt><trkpt lat="45.45173128268747" lon="7.673299453501283"><ele>1085.0</ele><time>2026-04-25T14:18:24Z</time></trkpt><trkpt lat="45.45179320378963" lon="7.673256833667585"><ele>1085.0</ele><time>2026-04-25T14:18:25Z</time></trkpt><trkpt lat="45.45185228363518" lon="7.673178042867911"><ele>1085.0</ele><time>2026-04-25T14:18:26Z</time></trkpt><trkpt lat="45.451909965816505" lon="7.67313091782029"><ele>1085.0</ele><time>2026-04-25T14:18:27Z</time></trkpt><trkpt lat="45.45197279795549" lon="7.673093514032613"><ele>1085.0</ele><time>2026-04-25T14:18:29Z</time></trkpt><trkpt lat="45.45201284538871" lon="7.673014561326678"><ele>1085.0</ele><time>2026-04-25T14:18:31Z</time></trkpt><trkpt lat="45.452093794335894" lon="7.672933133107179"><ele>1085.0</ele><time>2026-04-25T14:18:33Z</time></trkpt><trkpt lat="45.45211164595034" lon="7.67283598009025"><ele>1087.2857142857142</ele><time>2026-04-25T14:18:36Z</time></trkpt><trkpt lat="45.452181889651115" lon="7.6727495864265025"><ele>1089.5714285714284</ele><time>2026-04-25T14:18:39Z</time></trkpt><trkpt lat="45.452226044063295" lon="7.67268036658226"><ele>1091.857142857143</ele><time>2026-04-25T14:18:43Z</time></trkpt><trkpt lat="45.452291771723765" lon="7.672664295433068"><ele>1094.142857142857</ele><time>2026-04-25T14:18:48Z</time></trkpt><trkpt lat="45.45233010590206" lon="7.672581191294953"><ele>1096.4285714285713</ele><time>2026-04-25T14:18:59Z</time></trkpt><trkpt lat="45.45237622629933" lon="7.672501948343665"><ele>1098.7142857142858</ele><time>2026-04-25T14:19:15Z</time></trkpt><trkpt lat="45.45239328610927" lon="7.672408151283621"><ele>1101.0</ele><time>2026-04-25T14:19:18Z</time></trkpt><trkpt lat="45.452422856680776" lon="7.672322255323367"><ele>1101.0</ele><time>2026-04-25T14:19:21Z</time></trkpt><trkpt lat="45.45245121129997" lon="7.672210057925491"><ele>1101.0</ele><time>2026-04-25T14:19:59Z</time></trkpt><trkpt lat="45.45250889637194" lon="7.672340315562222"><ele>1101.0</ele><time>2026-04-25T14:20:03Z</time></trkpt><trkpt lat="45.4525361907174" lon="7.672431824606304"><ele>1101.0</ele><time>2026-04-25T14:20:05Z</time></trkpt><trkpt lat="45.452556590725614" lon="7.672578229274797"><ele>1101.0</ele><time>2026-04-25T14:20:07Z</time></trkpt><trkpt lat="45.452595580172" lon="7.6726848356418"><ele>1097.8</ele><time>2026-04-25T14:20:10Z</time></trkpt><trkpt lat="45.45263860380527" lon="7.672806815937816"><ele>1094.6</ele><time>2026-04-25T14:20:13Z</time></trkpt><trkpt lat="45.45267883387425" lon="7.672881456207407"><ele>1091.4</ele><time>2026-04-25T14:20:14Z</time></trkpt><trkpt lat="45.45276621655313" lon="7.672953495457892"><ele>1088.2</ele><time>2026-04-25T14:20:16Z</time></trkpt><trkpt lat="45.4528306366285" lon="7.673006724658875"><ele>1085.0</ele><time>2026-04-25T14:20:17Z</time></trkpt><trkpt lat="45.45294297223373" lon="7.672986457976836"><ele>1086.5</ele><time>2026-04-25T14:20:19Z</time></trkpt><trkpt lat="45.45302643597828" lon="7.672982518592937"><ele>1088.0</ele><time>2026-04-25T14:20:21Z</time></trkpt><trkpt lat="45.45311048843672" lon="7.672941250268566"><ele>1089.5</ele><time>2026-04-25T14:20:23Z</time></trkpt><trkpt lat="45.453197395513236" lon="7.67292074967198"><ele>1091.0</ele><time>2026-04-25T14:20:25Z</time></trkpt><trkpt lat="45.45328928677962" lon="7.672892044039279"><ele>1092.5</ele><time>2026-04-25T14:20:27Z</time></trkpt><trkpt lat="45.45335199433304" lon="7.672989263502872"><ele>1094.0</ele><time>2026-04-25T14:20:30Z</time></trkpt><trkpt lat="45.453422587519135" lon="7.6729355610019745"><ele>1094.0</ele><time>2026-04-25T14:20:32Z</time></trkpt><trkpt lat="45.45349403616755" lon="7.672898734790695"><ele>1094.0</ele><time>2026-04-25T14:20:35Z</time></trkpt><trkpt lat="45.45368147051093" lon="7.672930868532702"><ele>1094.0</ele><time>2026-04-25T14:20:43Z</time></trkpt><trkpt lat="45.453760259069114" lon="7.673016510528327"><ele>1094.0</ele><time>2026-04-25T14:20:45Z</time></trkpt><trkpt lat="45.45384429133968" lon="7.6730415462525015"><ele>1097.6000000000001</ele><time>2026-04-25T14:20:47Z</time></trkpt><trkpt lat="45.45390030223403" lon="7.67313093406299"><ele>1101.2</ele><time>2026-04-25T14:20:49Z</time></trkpt><trkpt lat="45.453956707214765" lon="7.673190024618313"><ele>1104.8000000000002</ele><time>2026-04-25T14:20:51Z</time></trkpt><trkpt lat="45.454045775595716" lon="7.6732730934620585"><ele>1108.4</ele><time>2026-04-25T14:20:52.998Z</time></trkpt><trkpt lat="45.45411507601465" lon="7.673342365027811"><ele>1112.0</ele><time>2026-04-25T14:20:54.998Z</time></trkpt><trkpt lat="45.454211488516634" lon="7.673467535309685"><ele>1106.2</ele><time>2026-04-25T14:20:56.998Z</time></trkpt><trkpt lat="45.45428977184818" lon="7.673611885086381"><ele>1100.4</ele><time>2026-04-25T14:20:58.998Z</time></trkpt><trkpt lat="45.45435150672138" lon="7.673723454148558"><ele>1094.6</ele><time>2026-04-25T14:21:00.998Z</time></trkpt><trkpt lat="45.45442423616327" lon="7.673838533664479"><ele>1088.8</ele><time>2026-04-25T14:21:03.998Z</time></trkpt><trkpt lat="45.45451692592655" lon="7.673930549039176"><ele>1083.0</ele><time>2026-04-25T14:21:05.998Z</time></trkpt><trkpt lat="45.454576532476665" lon="7.673980260086179"><ele>1086.1666666666667</ele><time>2026-04-25T14:21:06.998Z</time></trkpt><trkpt lat="45.45466903630697" lon="7.674045916988852"><ele>1089.3333333333333</ele><time>2026-04-25T14:21:08.998Z</time></trkpt><trkpt lat="45.45474614797218" lon="7.6740858294197345"><ele>1092.5</ele><time>2026-04-25T14:21:10.998Z</time></trkpt><trkpt lat="45.45484309118718" lon="7.674077347547978"><ele>1095.6666666666665</ele><time>2026-04-25T14:21:12.998Z</time></trkpt><trkpt lat="45.454938304128916" lon="7.6740802571453415"><ele>1098.8333333333333</ele><time>2026-04-25T14:21:15.999Z</time></trkpt><trkpt lat="45.45499812121793" lon="7.674118752464888"><ele>1102.0</ele><time>2026-04-25T14:21:18.999Z</time></trkpt><trkpt lat="45.455078227684496" lon="7.67412898219907"><ele>1102.0</ele><time>2026-04-25T14:21:21.999Z</time></trkpt><trkpt lat="45.45514709060158" lon="7.674171875460013"><ele>1102.0</ele><time>2026-04-25T14:21:24.999Z</time></trkpt><trkpt lat="45.45521802933113" lon="7.67424134395242"><ele>1102.0</ele><time>2026-04-25T14:21:26.999Z</time></trkpt><trkpt lat="45.45528335901196" lon="7.674296189505541"><ele>1102.0</ele><time>2026-04-25T14:21:28.999Z</time></trkpt><trkpt lat="45.455472502439186" lon="7.674281036719582"><ele>1102.0</ele><time>2026-04-25T14:21:34.999Z</time></trkpt><trkpt lat="45.45554058060668" lon="7.6743157204841275"><ele>1100.6666666666665</ele><time>2026-04-25T14:21:37.999Z</time></trkpt><trkpt lat="45.45562720895307" lon="7.674320471738546"><ele>1099.3333333333333</ele><time>2026-04-25T14:21:41.999Z</time></trkpt><trkpt lat="45.45569514273245" lon="7.674357962630794"><ele>1098.0</ele><time>2026-04-25T14:21:44.999Z</time></trkpt><trkpt lat="45.455713976312616" lon="7.674473152908168"><ele>1096.6666666666667</ele><time>2026-04-25T14:21:46.999Z</time></trkpt><trkpt lat="45.45579156143643" lon="7.674539192358434"><ele>1095.3333333333335</ele><time>2026-04-25T14:21:51.999Z</time></trkpt><trkpt lat="45.455861899013485" lon="7.674599450721114"><ele>1094.0</ele><time>2026-04-25T14:21:53.999Z</time></trkpt><trkpt lat="45.455916380195" lon="7.674659436032114"><ele>1094.0</ele><time>2026-04-25T14:21:55.999Z</time></trkpt><trkpt lat="45.45597204408943" lon="7.674706931285218"><ele>1094.0</ele><time>2026-04-25T14:21:57.999Z</time></trkpt><trkpt lat="45.45601543169775" lon="7.674834115393466"><ele>1094.0</ele><time>2026-04-25T14:21:59.999Z</time></trkpt><trkpt lat="45.456067177713365" lon="7.674925420297218"><ele>1094.0</ele><time>2026-04-25T14:22:01.999Z</time></trkpt><trkpt lat="45.456146904074274" lon="7.675007563575291"><ele>1094.0</ele><time>2026-04-25T14:22:03.999Z</time></trkpt><trkpt lat="45.45621888957931" lon="7.675022930294942"><ele>1094.0</ele><time>2026-04-25T14:22:04.999Z</time></trkpt><trkpt lat="45.456284192480915" lon="7.675064324354962"><ele>1094.6666666666667</ele><time>2026-04-25T14:22:06.999Z</time></trkpt><trkpt lat="45.456354240303824" lon="7.675066910361644"><ele>1095.3333333333335</ele><time>2026-04-25T14:22:08.999Z</time></trkpt><trkpt lat="45.45643135282693" lon="7.675117301187628"><ele>1096.0</ele><time>2026-04-25T14:22:10.999Z</time></trkpt><trkpt lat="45.4564869143247" lon="7.675166121852397"><ele>1096.6666666666667</ele><time>2026-04-25T14:22:12.999Z</time></trkpt><trkpt lat="45.45656113427998" lon="7.675254688133412"><ele>1097.3333333333333</ele><time>2026-04-25T14:22:15.999Z</time></trkpt><trkpt lat="45.45662128492191" lon="7.675327756146172"><ele>1098.0</ele><time>2026-04-25T14:22:18.999Z</time></trkpt><trkpt lat="45.45667319515689" lon="7.675380234335188"><ele>1095.142857142857</ele><time>2026-04-25T14:22:21.999Z</time></trkpt><trkpt lat="45.456733264711886" lon="7.675424293682251"><ele>1092.2857142857142</ele><time>2026-04-25T14:22:24.999Z</time></trkpt><trkpt lat="45.456807719188554" lon="7.675457970577809"><ele>1089.4285714285716</ele><time>2026-04-25T14:22:29.999Z</time></trkpt><trkpt lat="45.45687620324576" lon="7.67549857628105"><ele>1086.5714285714284</ele><time>2026-04-25T14:22:34.999Z</time></trkpt><trkpt lat="45.45685767218414" lon="7.675591713703112"><ele>1083.7142857142858</ele><time>2026-04-25T14:22:53.999Z</time></trkpt><trkpt lat="45.45687311867232" lon="7.675706942470127"><ele>1080.857142857143</ele><time>2026-04-25T14:22:59.996Z</time></trkpt><trkpt lat="45.45693030796696" lon="7.675783830694795"><ele>1078.0</ele><time>2026-04-25T14:23:01.996Z</time></trkpt><trkpt lat="45.457114182183744" lon="7.675784050752402"><ele>1077.6</ele><time>2026-04-25T14:23:21.998Z</time></trkpt><trkpt lat="45.457173787321764" lon="7.675711291393566"><ele>1077.1999999999998</ele><time>2026-04-25T14:23:23.998Z</time></trkpt><trkpt lat="45.457295011517054" lon="7.675694000678636"><ele>1076.8</ele><time>2026-04-25T14:23:27.998Z</time></trkpt><trkpt lat="45.457385205821964" lon="7.675633175318474"><ele>1076.3999999999999</ele><time>2026-04-25T14:23:29.998Z</time></trkpt><trkpt lat="45.45745603577219" lon="7.675586719346117"><ele>1076.0</ele><time>2026-04-25T14:23:30.998Z</time></trkpt><trkpt lat="45.45756945449134" lon="7.675509354384997"><ele>1076.0</ele><time>2026-04-25T14:23:32.998Z</time></trkpt><trkpt lat="45.457662077883874" lon="7.675437603521445"><ele>1076.0</ele><time>2026-04-25T14:23:35.999Z</time></trkpt><trkpt lat="45.457772442697745" lon="7.675361952396169"><ele>1076.0</ele><time>2026-04-25T14:23:37.999Z</time></trkpt><trkpt lat="45.457821187097714" lon="7.6753046469250155"><ele>1076.0</ele><time>2026-04-25T14:23:39.999Z</time></trkpt><trkpt lat="45.45786194305882" lon="7.675232032236759"><ele>1076.0</ele><time>2026-04-25T14:23:41.999Z</time></trkpt><trkpt lat="45.45790696440831" lon="7.675165033888469"><ele>1076.0</ele><time>2026-04-25T14:23:42.999Z</time></trkpt><trkpt lat="45.45796950796232" lon="7.675072049492005"><ele>1075.2857142857142</ele><time>2026-04-25T14:23:45.999Z</time></trkpt><trkpt lat="45.458007711191996" lon="7.674999134929649"><ele>1074.5714285714287</ele><time>2026-04-25T14:23:48.999Z</time></trkpt><trkpt lat="45.458079652979706" lon="7.674900118285231"><ele>1073.857142857143</ele><time>2026-04-25T14:23:52.999Z</time></trkpt><trkpt lat="45.45811409805582" lon="7.674821377600421"><ele>1073.142857142857</ele><time>2026-04-25T14:23:54.999Z</time></trkpt><trkpt lat="45.458160127793285" lon="7.674757485336296"><ele>1072.4285714285716</ele><time>2026-04-25T14:23:56.999Z</time></trkpt><trkpt lat="45.45821464488299" lon="7.6746912210817575"><ele>1071.7142857142858</ele><time>2026-04-25T14:23:59.999Z</time></trkpt><trkpt lat="45.45827535101971" lon="7.674630786473435"><ele>1071.0</ele><time>2026-04-25T14:24:02.999Z</time></trkpt><trkpt lat="45.458338254401376" lon="7.67454868966302"><ele>1071.0</ele><time>2026-04-25T14:24:05.999Z</time></trkpt><trkpt lat="45.458400599260216" lon="7.67448873625397"><ele>1071.0</ele><time>2026-04-25T14:24:08.999Z</time></trkpt><trkpt lat="45.45847685847369" lon="7.67441213290795"><ele>1071.0</ele><time>2026-04-25T14:24:11.999Z</time></trkpt><trkpt lat="45.458550361590476" lon="7.674318656652764"><ele>1071.0</ele><time>2026-04-25T14:24:13.999Z</time></trkpt><trkpt lat="45.45862285886438" lon="7.674270336556093"><ele>1071.0</ele><time>2026-04-25T14:24:16.999Z</time></trkpt><trkpt lat="45.458677357572604" lon="7.674224672719781"><ele>1071.0</ele><time>2026-04-25T14:24:20.999Z</time></trkpt><trkpt lat="45.458744558897415" lon="7.674225030405199"><ele>1072.142857142857</ele><time>2026-04-25T14:24:25Z</time></trkpt><trkpt lat="45.4587928754781" lon="7.6742893815036535"><ele>1073.2857142857142</ele><time>2026-04-25T14:24:46Z</time></trkpt><trkpt lat="45.45886042622477" lon="7.674252621168617"><ele>1074.4285714285716</ele><time>2026-04-25T14:24:55Z</time></trkpt><trkpt lat="45.45892326095143" lon="7.674201131187038"><ele>1075.5714285714284</ele><time>2026-04-25T14:24:59Z</time></trkpt><trkpt lat="45.45899428532295" lon="7.674168148785281"><ele>1076.7142857142858</ele><time>2026-04-25T14:25:03.997Z</time></trkpt><trkpt lat="45.45905009309613" lon="7.674116339614391"><ele>1077.857142857143</ele><time>2026-04-25T14:25:08.997Z</time></trkpt><trkpt lat="45.45912469369392" lon="7.674100371901031"><ele>1079.0</ele><time>2026-04-25T14:25:19.998Z</time></trkpt><trkpt lat="45.459187604622095" lon="7.674087737861702"><ele>1079.0</ele><time>2026-04-25T14:25:26.998Z</time></trkpt><trkpt lat="45.459268027300645" lon="7.67405216782435"><ele>1079.0</ele><time>2026-04-25T14:25:30.998Z</time></trkpt><trkpt lat="45.45936470014506" lon="7.674039246341395"><ele>1079.0</ele><time>2026-04-25T14:25:51.999Z</time></trkpt><trkpt lat="45.45935771170724" lon="7.67391341776195"><ele>1079.0</ele><time>2026-04-25T14:26:10Z</time></trkpt><trkpt lat="45.45941485159424" lon="7.673972766353209"><ele>1079.0</ele><time>2026-04-25T14:26:22Z</time></trkpt><trkpt lat="45.45954382768359" lon="7.674047177027488"><ele>1079.0</ele><time>2026-04-25T14:29:52.002Z</time></trkpt><trkpt lat="45.45958958362389" lon="7.674113241022185"><ele>1079.0</ele><time>2026-04-25T14:30:01.002Z</time></trkpt><trkpt lat="45.45955370011068" lon="7.674210680766695"><ele>1079.0</ele><time>2026-04-25T14:36:30.001Z</time></trkpt><trkpt lat="45.459611648267455" lon="7.674286996952446"><ele>1079.0</ele><time>2026-04-25T14:36:37.001Z</time></trkpt><trkpt lat="45.45965705372912" lon="7.674362785157063"><ele>1079.0</ele><time>2026-04-25T14:37:06.002Z</time></trkpt><trkpt lat="45.45961460410647" lon="7.674452759654006"><ele>1079.0</ele><time>2026-04-25T14:37:09.002Z</time></trkpt><trkpt lat="45.459621217114766" lon="7.674576313743549"><ele>1078.3333333333335</ele><time>2026-04-25T14:37:12.002Z</time></trkpt><trkpt lat="45.459600652731595" lon="7.674665272839839"><ele>1077.6666666666667</ele><time>2026-04-25T14:37:27.002Z</time></trkpt><trkpt lat="45.459577229808176" lon="7.674749988742278"><ele>1077.0</ele><time>2026-04-25T14:37:37.003Z</time></trkpt><trkpt lat="45.45951096511943" lon="7.67477893194136"><ele>1076.3333333333333</ele><time>2026-04-25T14:37:42Z</time></trkpt><trkpt lat="45.459455207202325" lon="7.674867126252586"><ele>1075.6666666666665</ele><time>2026-04-25T14:37:48Z</time></trkpt><trkpt lat="45.45941843358829" lon="7.674969630126187"><ele>1075.0</ele><time>2026-04-25T14:37:50Z</time></trkpt><trkpt lat="45.459383676557614" lon="7.67518753039624"><ele>1075.3333333333333</ele><time>2026-04-25T14:38:04Z</time></trkpt><trkpt lat="45.459362414902465" lon="7.6753100935113"><ele>1075.6666666666665</ele><time>2026-04-25T14:38:07Z</time></trkpt><trkpt lat="45.45937205658452" lon="7.675447479522202"><ele>1076.0</ele><time>2026-04-25T14:38:10Z</time></trkpt><trkpt lat="45.45935791735621" lon="7.675575230511034"><ele>1076.3333333333333</ele><time>2026-04-25T14:38:13Z</time></trkpt><trkpt lat="45.45934957704705" lon="7.675693604348912"><ele>1076.6666666666667</ele><time>2026-04-25T14:38:15Z</time></trkpt><trkpt lat="45.45935932403771" lon="7.675800109116733"><ele>1077.0</ele><time>2026-04-25T14:38:17Z</time></trkpt><trkpt lat="45.45938689163668" lon="7.675916359314966"><ele>1077.0</ele><time>2026-04-25T14:38:20.001Z</time></trkpt><trkpt lat="45.45939854379811" lon="7.676037609089451"><ele>1077.0</ele><time>2026-04-25T14:38:23.001Z</time></trkpt><trkpt lat="45.45941288516356" lon="7.676151722003591"><ele>1077.0</ele><time>2026-04-25T14:38:27.001Z</time></trkpt><trkpt lat="45.4594213313759" lon="7.676263041741013"><ele>1077.0</ele><time>2026-04-25T14:38:30.001Z</time></trkpt><trkpt lat="45.45943742790674" lon="7.676350942747184"><ele>1077.0</ele><time>2026-04-25T14:38:32.001Z</time></trkpt><trkpt lat="45.45946154471842" lon="7.676464936102365"><ele>1077.0</ele><time>2026-04-25T14:38:36.001Z</time></trkpt><trkpt lat="45.45950805278065" lon="7.676558347631701"><ele>1075.75</ele><time>2026-04-25T14:38:40.001Z</time></trkpt><trkpt lat="45.45953697645367" lon="7.676641773386923"><ele>1074.5</ele><time>2026-04-25T14:38:43.001Z</time></trkpt><trkpt lat="45.45955278006822" lon="7.676867732338676"><ele>1073.25</ele><time>2026-04-25T14:38:57.002Z</time></trkpt><trkpt lat="45.45957430937951" lon="7.677034746048533"><ele>1072.0</ele><time>2026-04-25T14:38:59.002Z</time></trkpt><trkpt lat="45.45959319501629" lon="7.677191266838257"><ele>1069.8</ele><time>2026-04-25T14:39:01.002Z</time></trkpt><trkpt lat="45.45959156874246" lon="7.677322046477999"><ele>1067.6</ele><time>2026-04-25T14:39:03.002Z</time></trkpt><trkpt lat="45.459595801614235" lon="7.677445068586539"><ele>1065.3999999999999</ele><time>2026-04-25T14:39:05.002Z</time></trkpt><trkpt lat="45.45962471666289" lon="7.677551100863772"><ele>1063.2</ele><time>2026-04-25T14:39:08.002Z</time></trkpt><trkpt lat="45.45962623679989" lon="7.677693565164797"><ele>1061.0</ele><time>2026-04-25T14:39:10.002Z</time></trkpt><trkpt lat="45.459635787654136" lon="7.677854735290104"><ele>1065.2857142857144</ele><time>2026-04-25T14:39:12.002Z</time></trkpt><trkpt lat="45.45963256383657" lon="7.677947348444391"><ele>1069.5714285714287</ele><time>2026-04-25T14:39:13.002Z</time></trkpt><trkpt lat="45.45962608516661" lon="7.678051265005907"><ele>1073.857142857143</ele><time>2026-04-25T14:39:14.002Z</time></trkpt><trkpt lat="45.459665537392446" lon="7.678128105069375"><ele>1078.1428571428573</ele><time>2026-04-25T14:39:19.002Z</time></trkpt><trkpt lat="45.45972405219895" lon="7.678165947544049"><ele>1082.4285714285716</ele><time>2026-04-25T14:39:22.002Z</time></trkpt><trkpt lat="45.459806665372774" lon="7.678189543951497"><ele>1086.7142857142858</ele><time>2026-04-25T14:39:24.002Z</time></trkpt><trkpt lat="45.459882548742655" lon="7.6782414314533955"><ele>1091.0</ele><time>2026-04-25T14:39:26.002Z</time></trkpt><trkpt lat="45.459973552374805" lon="7.67828901069442"><ele>1091.0</ele><time>2026-04-25T14:39:29.002Z</time></trkpt><trkpt lat="45.46004381604418" lon="7.678332725182933"><ele>1091.0</ele><time>2026-04-25T14:39:31.003Z</time></trkpt><trkpt lat="45.460147855527325" lon="7.678368279631928"><ele>1091.0</ele><time>2026-04-25T14:39:33.003Z</time></trkpt><trkpt lat="45.46023410641373" lon="7.678383186851493"><ele>1091.0</ele><time>2026-04-25T14:39:35.003Z</time></trkpt><trkpt lat="45.460309354515424" lon="7.6784107997582565"><ele>1091.0</ele><time>2026-04-25T14:39:37.003Z</time></trkpt><trkpt lat="45.460413175457695" lon="7.6784867150871055"><ele>1095.1666666666667</ele><time>2026-04-25T14:39:39.003Z</time></trkpt><trkpt lat="45.46049000281525" lon="7.678494418506645"><ele>1099.3333333333335</ele><time>2026-04-25T14:39:41.003Z</time></trkpt><trkpt lat="45.46056131124511" lon="7.678519943907977"><ele>1103.5</ele><time>2026-04-25T14:39:45.003Z</time></trkpt><trkpt lat="45.46062681823177" lon="7.678519465590918"><ele>1107.6666666666667</ele><time>2026-04-25T14:40:02Z</time></trkpt><trkpt lat="45.460704647805386" lon="7.678546476046975"><ele>1111.8333333333333</ele><time>2026-04-25T14:40:12Z</time></trkpt><trkpt lat="45.460790597675135" lon="7.678562089364866"><ele>1116.0</ele><time>2026-04-25T14:40:16Z</time></trkpt><trkpt lat="45.46089954356146" lon="7.678577321042221"><ele>1116.0</ele><time>2026-04-25T14:40:19Z</time></trkpt><trkpt lat="45.46097490651581" lon="7.678590948626409"><ele>1116.0</ele><time>2026-04-25T14:40:22Z</time></trkpt><trkpt lat="45.46104641285504" lon="7.678618372311734"><ele>1116.0</ele><time>2026-04-25T14:40:24Z</time></trkpt><trkpt lat="45.461122932712364" lon="7.678611122816198"><ele>1116.0</ele><time>2026-04-25T14:40:28.001Z</time></trkpt><trkpt lat="45.46122392519882" lon="7.6786608794767615"><ele>1116.0</ele><time>2026-04-25T14:40:32.001Z</time></trkpt><trkpt lat="45.461302667750296" lon="7.678679628331296"><ele>1116.0</ele><time>2026-04-25T14:40:40.001Z</time></trkpt><trkpt lat="45.461357130125855" lon="7.678730354215596"><ele>1114.8333333333333</ele><time>2026-04-25T14:40:45.001Z</time></trkpt><trkpt lat="45.4614258067541" lon="7.67876416786893"><ele>1113.6666666666667</ele><time>2026-04-25T14:41:07.002Z</time></trkpt><trkpt lat="45.46153256760324" lon="7.678804320984279"><ele>1112.5</ele><time>2026-04-25T14:41:21.002Z</time></trkpt><trkpt lat="45.46151088658216" lon="7.678890591169662"><ele>1111.3333333333335</ele><time>2026-04-25T14:41:34.003Z</time></trkpt><trkpt lat="45.461474060654155" lon="7.679010357996888"><ele>1110.1666666666667</ele><time>2026-04-25T14:41:42.003Z</time></trkpt><trkpt lat="45.46147353212412" lon="7.679100281913654"><ele>1109.0</ele><time>2026-04-25T14:41:46.003Z</time></trkpt><trkpt lat="45.46148232171263" lon="7.679198475357711"><ele>1109.0</ele><time>2026-04-25T14:41:51.003Z</time></trkpt><trkpt lat="45.461510002372734" lon="7.679317498691057"><ele>1109.0</ele><time>2026-04-25T14:41:54Z</time></trkpt><trkpt lat="45.46153991486227" lon="7.679476757140348"><ele>1109.0</ele><time>2026-04-25T14:41:58Z</time></trkpt><trkpt lat="45.46155696857574" lon="7.679568658821572"><ele>1109.0</ele><time>2026-04-25T14:42:01Z</time></trkpt><trkpt lat="45.46156497504386" lon="7.679692983013638"><ele>1109.0</ele><time>2026-04-25T14:42:05Z</time></trkpt><trkpt lat="45.46156412718526" lon="7.679810415479853"><ele>1109.0</ele><time>2026-04-25T14:42:08Z</time></trkpt><trkpt lat="45.4614988916441" lon="7.679940925306461"><ele>1110.4</ele><time>2026-04-25T14:42:10Z</time></trkpt><trkpt lat="45.46143803058233" lon="7.680035112363575"><ele>1111.8000000000002</ele><time>2026-04-25T14:42:13Z</time></trkpt><trkpt lat="45.461405631901236" lon="7.680114435438639"><ele>1113.1999999999998</ele><time>2026-04-25T14:42:15Z</time></trkpt><trkpt lat="45.461358475181136" lon="7.680292927731705"><ele>1114.6</ele><time>2026-04-25T14:42:18Z</time></trkpt><trkpt lat="45.461308532353854" lon="7.680368792904141"><ele>1116.0</ele><time>2026-04-25T14:42:21Z</time></trkpt><trkpt lat="45.46128081666344" lon="7.680498546365936"><ele>1112.5714285714284</ele><time>2026-04-25T14:42:25.001Z</time></trkpt><trkpt lat="45.46125864346815" lon="7.680603287831202"><ele>1109.142857142857</ele><time>2026-04-25T14:42:27.001Z</time></trkpt><trkpt lat="45.46122305124302" lon="7.680678447852878"><ele>1105.7142857142858</ele><time>2026-04-25T14:42:29.001Z</time></trkpt><trkpt lat="45.461166688120464" lon="7.680768112795487"><ele>1102.2857142857142</ele><time>2026-04-25T14:42:39.001Z</time></trkpt><trkpt lat="45.461139644388076" lon="7.680853579187555"><ele>1098.857142857143</ele><time>2026-04-25T14:42:47.001Z</time></trkpt><trkpt lat="45.46108099992379" lon="7.680909846320721"><ele>1095.4285714285713</ele><time>2026-04-25T14:42:53.001Z</time></trkpt><trkpt lat="45.461060069023034" lon="7.681022040643592"><ele>1092.0</ele><time>2026-04-25T14:43:02.002Z</time></trkpt><trkpt lat="45.46112584853541" lon="7.681137359298819"><ele>1092.0</ele><time>2026-04-25T14:43:06.002Z</time></trkpt><trkpt lat="45.46120451297886" lon="7.681311939133387"><ele>1092.0</ele><time>2026-04-25T14:43:28.002Z</time></trkpt><trkpt lat="45.46112581666576" lon="7.681296636714281"><ele>1092.0</ele><time>2026-04-25T14:43:34.003Z</time></trkpt><trkpt lat="45.4611398247483" lon="7.681410109029591"><ele>1092.0</ele><time>2026-04-25T14:43:49.003Z</time></trkpt><trkpt lat="45.46149010022656" lon="7.681712057404875"><ele>1097.0</ele><time>2026-04-25T14:43:56.003Z</time></trkpt><trkpt lat="45.461599500020036" lon="7.681711815792058"><ele>1102.0</ele><time>2026-04-25T14:43:57.003Z</time></trkpt><trkpt lat="45.461687576553736" lon="7.6817196638057315"><ele>1107.0</ele><time>2026-04-25T14:43:57.999Z</time></trkpt><trkpt lat="45.461761591773616" lon="7.681747862977366"><ele>1112.0</ele><time>2026-04-25T14:43:58.999Z</time></trkpt><trkpt lat="45.46183254759662" lon="7.681794756506785"><ele>1117.0</ele><time>2026-04-25T14:43:59.999Z</time></trkpt><trkpt lat="45.461889465090444" lon="7.681907501307014"><ele>1117.0</ele><time>2026-04-25T14:44:01.999Z</time></trkpt><trkpt lat="45.46196748881832" lon="7.681883115526512"><ele>1117.0</ele><time>2026-04-25T14:44:03.999Z</time></trkpt><trkpt lat="45.46208169401303" lon="7.6819523550204"><ele>1117.0</ele><time>2026-04-25T14:44:06.999Z</time></trkpt><trkpt lat="45.4621497433998" lon="7.681997895895998"><ele>1117.0</ele><time>2026-04-25T14:44:07.999Z</time></trkpt><trkpt lat="45.46224548236795" lon="7.682058035601363"><ele>1117.0</ele><time>2026-04-25T14:44:08.999Z</time></trkpt><trkpt lat="45.462311384424446" lon="7.682073360838583"><ele>1112.2</ele><time>2026-04-25T14:44:11.999Z</time></trkpt><trkpt lat="45.4623634513191" lon="7.682018182372614"><ele>1107.4</ele><time>2026-04-25T14:44:22Z</time></trkpt><trkpt lat="45.46244362490769" lon="7.6820875704364395"><ele>1102.6</ele><time>2026-04-25T14:44:24Z</time></trkpt><trkpt lat="45.46256144590048" lon="7.682167163621342"><ele>1097.8</ele><time>2026-04-25T14:44:26Z</time></trkpt><trkpt lat="45.462640763405304" lon="7.682203124797007"><ele>1093.0</ele><time>2026-04-25T14:44:27Z</time></trkpt><trkpt lat="45.46271293280195" lon="7.682264992922754"><ele>1093.0</ele><time>2026-04-25T14:44:28Z</time></trkpt><trkpt lat="45.46278629376675" lon="7.6823375667694105"><ele>1093.0</ele><time>2026-04-25T14:44:29Z</time></trkpt><trkpt lat="45.462849418876" lon="7.682394283807175"><ele>1093.0</ele><time>2026-04-25T14:44:30Z</time></trkpt><trkpt lat="45.46292621980278" lon="7.682480440659725"><ele>1093.0</ele><time>2026-04-25T14:44:31Z</time></trkpt><trkpt lat="45.462996496800635" lon="7.6825481692695305"><ele>1093.0</ele><time>2026-04-25T14:44:32Z</time></trkpt><trkpt lat="45.46305969053272" lon="7.682616773350324"><ele>1093.0</ele><time>2026-04-25T14:44:33Z</time></trkpt><trkpt lat="45.46311160006755" lon="7.682673057466881"><ele>1092.1666666666665</ele><time>2026-04-25T14:44:34Z</time></trkpt><trkpt lat="45.46316971691667" lon="7.682730414632348"><ele>1091.3333333333333</ele><time>2026-04-25T14:44:35Z</time></trkpt><trkpt lat="45.463245563939" lon="7.682767874030248"><ele>1090.5</ele><time>2026-04-25T14:44:36Z</time></trkpt><trkpt lat="45.46330986204231" lon="7.682802841493704"><ele>1089.6666666666667</ele><time>2026-04-25T14:44:37Z</time></trkpt><trkpt lat="45.46336982479951" lon="7.682856098961613"><ele>1088.8333333333335</ele><time>2026-04-25T14:44:38.001Z</time></trkpt><trkpt lat="45.46341265990299" lon="7.682935082279261"><ele>1088.0</ele><time>2026-04-25T14:44:39.001Z</time></trkpt><trkpt lat="45.46347599930111" lon="7.683089325602452"><ele>1088.0</ele><time>2026-04-25T14:44:41.001Z</time></trkpt><trkpt lat="45.46350976868944" lon="7.683235208111359"><ele>1088.0</ele><time>2026-04-25T14:44:43.001Z</time></trkpt><trkpt lat="45.46361405011582" lon="7.683302617722115"><ele>1088.0</ele><time>2026-04-25T14:44:49.001Z</time></trkpt><trkpt lat="45.46367687358768" lon="7.683346979152413"><ele>1088.0</ele><time>2026-04-25T14:44:52.001Z</time></trkpt><trkpt lat="45.46372517941223" lon="7.683409137832422"><ele>1088.0</ele><time>2026-04-25T14:45:08.002Z</time></trkpt><trkpt lat="45.46373208123194" lon="7.683511909414645"><ele>1088.0</ele><time>2026-04-25T14:45:14.002Z</time></trkpt><trkpt lat="45.46382005682476" lon="7.683571186444803"><ele>1087.0</ele><time>2026-04-25T14:45:58.003Z</time></trkpt><trkpt lat="45.463888616327495" lon="7.68359400571728"><ele>1086.0</ele><time>2026-04-25T14:46:00.003Z</time></trkpt><trkpt lat="45.463806759140724" lon="7.683656034469374"><ele>1085.0</ele><time>2026-04-25T14:48:52Z</time></trkpt><trkpt lat="45.46372023194804" lon="7.683771622240824"><ele>1084.0</ele><time>2026-04-25T14:49:24.001Z</time></trkpt><trkpt lat="45.463689097335646" lon="7.683892628836002"><ele>1083.0</ele><time>2026-04-25T14:50:42Z</time></trkpt><trkpt lat="45.46367545670875" lon="7.683995789695012"><ele>1082.0</ele><time>2026-04-25T14:50:43Z</time></trkpt><trkpt lat="45.46365876887901" lon="7.684095061008523"><ele>1082.0</ele><time>2026-04-25T14:50:44Z</time></trkpt><trkpt lat="45.46363154440698" lon="7.6841782117727435"><ele>1082.0</ele><time>2026-04-25T14:50:45Z</time></trkpt><trkpt lat="45.46364310063981" lon="7.684360444909476"><ele>1082.0</ele><time>2026-04-25T14:50:47.001Z</time></trkpt><trkpt lat="45.46370089785188" lon="7.684413410793811"><ele>1082.0</ele><time>2026-04-25T14:50:48.001Z</time></trkpt><trkpt lat="45.4636829989859" lon="7.684511732733632"><ele>1082.0</ele><time>2026-04-25T14:50:50.001Z</time></trkpt><trkpt lat="45.46365892584545" lon="7.684689211159571"><ele>1082.3333333333335</ele><time>2026-04-25T14:50:51.001Z</time></trkpt><trkpt lat="45.463598242309324" lon="7.684903569715193"><ele>1082.6666666666667</ele><time>2026-04-25T14:50:52.001Z</time></trkpt><trkpt lat="45.46356490764417" lon="7.6850981987541775"><ele>1083.0</ele><time>2026-04-25T14:50:53.001Z</time></trkpt><trkpt lat="45.46345428240429" lon="7.685253459442419"><ele>1086.4</ele><time>2026-04-25T14:50:54.001Z</time></trkpt><trkpt lat="45.46341404761112" lon="7.685376666410737"><ele>1089.8</ele><time>2026-04-25T14:50:55.001Z</time></trkpt><trkpt lat="45.463337516493844" lon="7.685519127738724"><ele>1093.2</ele><time>2026-04-25T14:50:56.001Z</time></trkpt><trkpt lat="45.46326972444793" lon="7.685636217172505"><ele>1096.6</ele><time>2026-04-25T14:50:57.001Z</time></trkpt><trkpt lat="45.46322754026323" lon="7.685756721040894"><ele>1100.0</ele><time>2026-04-25T14:50:59.001Z</time></trkpt><trkpt lat="45.463110699299754" lon="7.68578917178241"><ele>1100.0</ele><time>2026-04-25T14:51:02.001Z</time></trkpt><trkpt lat="45.463003594896584" lon="7.685853858718005"><ele>1100.0</ele><time>2026-04-25T14:51:06.001Z</time></trkpt><trkpt lat="45.462892262669904" lon="7.685928275466188"><ele>1100.0</ele><time>2026-04-25T14:51:07.001Z</time></trkpt><trkpt lat="45.46275519461271" lon="7.6860113214069"><ele>1100.0</ele><time>2026-04-25T14:51:08.001Z</time></trkpt><trkpt lat="45.46263975466721" lon="7.686084574816151"><ele>1106.6666666666667</ele><time>2026-04-25T14:51:09.001Z</time></trkpt><trkpt lat="45.462509683925774" lon="7.686133253408508"><ele>1113.3333333333333</ele><time>2026-04-25T14:51:10.001Z</time></trkpt><trkpt lat="45.46233946060589" lon="7.686205823196756"><ele>1120.0</ele><time>2026-04-25T14:51:11.001Z</time></trkpt><trkpt lat="45.462202865339556" lon="7.686253149176893"><ele>1119.8</ele><time>2026-04-25T14:51:12.001Z</time></trkpt><trkpt lat="45.46209769028491" lon="7.6862551409084094"><ele>1119.6</ele><time>2026-04-25T14:51:13.001Z</time></trkpt><trkpt lat="45.46198762076115" lon="7.6862615775721554"><ele>1119.4</ele><time>2026-04-25T14:51:14.001Z</time></trkpt><trkpt lat="45.461891856208695" lon="7.686258226374328"><ele>1119.2</ele><time>2026-04-25T14:51:15.001Z</time></trkpt><trkpt lat="45.46180976711037" lon="7.68624485667405"><ele>1119.0</ele><time>2026-04-25T14:51:16.001Z</time></trkpt><trkpt lat="45.46171464697528" lon="7.686228917413089"><ele>1119.0</ele><time>2026-04-25T14:51:17.001Z</time></trkpt><trkpt lat="45.461630075817936" lon="7.68621439084864"><ele>1119.0</ele><time>2026-04-25T14:51:18.001Z</time></trkpt><trkpt lat="45.46149770556948" lon="7.68617086405306"><ele>1119.0</ele><time>2026-04-25T14:51:19.001Z</time></trkpt><trkpt lat="45.461381870119396" lon="7.686130856686661"><ele>1119.0</ele><time>2026-04-25T14:51:20.002Z</time></trkpt><trkpt lat="45.46128769141871" lon="7.68612145883257"><ele>1119.0</ele><time>2026-04-25T14:51:21.002Z</time></trkpt><trkpt lat="45.46119937585572" lon="7.686142296353844"><ele>1119.2</ele><time>2026-04-25T14:51:22.002Z</time></trkpt><trkpt lat="45.461127433435216" lon="7.686140995005389"><ele>1119.4</ele><time>2026-04-25T14:51:23.002Z</time></trkpt><trkpt lat="45.461028278855046" lon="7.686147886165217"><ele>1119.6</ele><time>2026-04-25T14:51:24.002Z</time></trkpt><trkpt lat="45.46092414758562" lon="7.6861412235323"><ele>1119.8</ele><time>2026-04-25T14:51:25.002Z</time></trkpt><trkpt lat="45.4608302582716" lon="7.686253139285778"><ele>1120.0</ele><time>2026-04-25T14:51:27.002Z</time></trkpt><trkpt lat="45.46073660729671" lon="7.686374008982486"><ele>1120.0</ele><time>2026-04-25T14:51:28.002Z</time></trkpt><trkpt lat="45.46067146460686" lon="7.686502729211661"><ele>1120.0</ele><time>2026-04-25T14:51:29.002Z</time></trkpt><trkpt lat="45.460596017467815" lon="7.686596419283697"><ele>1120.0</ele><time>2026-04-25T14:51:31.002Z</time></trkpt><trkpt lat="45.46045008570147" lon="7.686625328410866"><ele>1120.0</ele><time>2026-04-25T14:51:32.002Z</time></trkpt><trkpt lat="45.46034781828248" lon="7.686742369443341"><ele>1117.2</ele><time>2026-04-25T14:51:33.002Z</time></trkpt><trkpt lat="45.460272919929096" lon="7.686820647221951"><ele>1114.4</ele><time>2026-04-25T14:51:34.002Z</time></trkpt><trkpt lat="45.46016835921627" lon="7.686896347497577"><ele>1111.6</ele><time>2026-04-25T14:51:35.002Z</time></trkpt><trkpt lat="45.4600981670888" lon="7.6869623197218155"><ele>1108.8</ele><time>2026-04-25T14:51:36.002Z</time></trkpt><trkpt lat="45.45996957914963" lon="7.686928025427515"><ele>1106.0</ele><time>2026-04-25T14:51:38.002Z</time></trkpt><trkpt lat="45.4598838158785" lon="7.686943494454079"><ele>1110.5</ele><time>2026-04-25T14:51:39.002Z</time></trkpt><trkpt lat="45.45979460503644" lon="7.686950698921333"><ele>1115.0</ele><time>2026-04-25T14:51:40.002Z</time></trkpt><trkpt lat="45.45963254144111" lon="7.686999227132078"><ele>1119.5</ele><time>2026-04-25T14:51:41.002Z</time></trkpt><trkpt lat="45.45944711962067" lon="7.687010383318086"><ele>1124.0</ele><time>2026-04-25T14:51:42.002Z</time></trkpt><trkpt lat="45.45928168337093" lon="7.68706398844783"><ele>1124.0</ele><time>2026-04-25T14:51:43.002Z</time></trkpt><trkpt lat="45.459162487897146" lon="7.687118934504676"><ele>1124.0</ele><time>2026-04-25T14:51:44.002Z</time></trkpt><trkpt lat="45.45905669390002" lon="7.687213354117675"><ele>1124.0</ele><time>2026-04-25T14:51:45.002Z</time></trkpt><trkpt lat="45.4589988731934" lon="7.687346498301331"><ele>1124.0</ele><time>2026-04-25T14:51:46.002Z</time></trkpt><trkpt lat="45.45891179160808" lon="7.687457857169711"><ele>1124.0</ele><time>2026-04-25T14:51:47.002Z</time></trkpt><trkpt lat="45.458868700284754" lon="7.6875889590611575"><ele>1124.0</ele><time>2026-04-25T14:51:49.002Z</time></trkpt><trkpt lat="45.458867744010846" lon="7.687692125545358"><ele>1124.0</ele><time>2026-04-25T14:51:50.002Z</time></trkpt><trkpt lat="45.458885294098245" lon="7.687897597365043"><ele>1124.0</ele><time>2026-04-25T14:51:52.002Z</time></trkpt><trkpt lat="45.45887656723608" lon="7.687993190688687"><ele>1124.0</ele><time>2026-04-25T14:51:53.003Z</time></trkpt><trkpt lat="45.458828908981445" lon="7.688098537731264"><ele>1121.5</ele><time>2026-04-25T14:51:54.003Z</time></trkpt><trkpt lat="45.45877020566936" lon="7.688224515279354"><ele>1119.0</ele><time>2026-04-25T14:51:55.003Z</time></trkpt><trkpt lat="45.458737119310406" lon="7.688371764761363"><ele>1116.5</ele><time>2026-04-25T14:51:56.003Z</time></trkpt><trkpt lat="45.45867765186575" lon="7.6884915716047795"><ele>1114.0</ele><time>2026-04-25T14:51:57.003Z</time></trkpt><trkpt lat="45.458578143315954" lon="7.6886646542343895"><ele>1120.25</ele><time>2026-04-25T14:51:58.003Z</time></trkpt><trkpt lat="45.45849255194345" lon="7.688790831488892"><ele>1126.5</ele><time>2026-04-25T14:51:59.003Z</time></trkpt><trkpt lat="45.45834709229299" lon="7.68889757527528"><ele>1132.75</ele><time>2026-04-25T14:52:00.003Z</time></trkpt><trkpt lat="45.45822242204156" lon="7.688997480865977"><ele>1139.0</ele><time>2026-04-25T14:52:01.003Z</time></trkpt><trkpt lat="45.45812021935843" lon="7.68904595215195"><ele>1139.0</ele><time>2026-04-25T14:52:02.003Z</time></trkpt><trkpt lat="45.45805160524811" lon="7.689083251957172"><ele>1139.0</ele><time>2026-04-25T14:52:03.003Z</time></trkpt><trkpt lat="45.4581072302447" lon="7.689158235480989"><ele>1139.0</ele><time>2026-04-25T14:52:09.003Z</time></trkpt><trkpt lat="45.45820759946675" lon="7.689128554585558"><ele>1139.0</ele><time>2026-04-25T14:52:11.003Z</time></trkpt><trkpt lat="45.45827211323002" lon="7.6890895523458"><ele>1139.0</ele><time>2026-04-25T14:52:12.003Z</time></trkpt><trkpt lat="45.45836649428515" lon="7.689068023432768"><ele>1139.0</ele><time>2026-04-25T14:52:13.003Z</time></trkpt><trkpt lat="45.45845456895247" lon="7.689032417205976"><ele>1139.0</ele><time>2026-04-25T14:52:14.003Z</time></trkpt><trkpt lat="45.458575232123906" lon="7.689086344812926"><ele>1139.0</ele><time>2026-04-25T14:52:15.003Z</time></trkpt><trkpt lat="45.458675136413625" lon="7.6890418452120075"><ele>1139.0</ele><time>2026-04-25T14:52:16.003Z</time></trkpt><trkpt lat="45.4587668086024" lon="7.688983432111773"><ele>1139.0</ele><time>2026-04-25T14:52:17.003Z</time></trkpt><trkpt lat="45.45884586050229" lon="7.6889072467350745"><ele>1139.0</ele><time>2026-04-25T14:52:18.003Z</time></trkpt><trkpt lat="45.45894024820162" lon="7.688837727496915"><ele>1143.4</ele><time>2026-04-25T14:52:19.003Z</time></trkpt><trkpt lat="45.45901944260287" lon="7.688799067222034"><ele>1147.8000000000002</ele><time>2026-04-25T14:52:20.003Z</time></trkpt><trkpt lat="45.459089169222615" lon="7.688769100616724"><ele>1152.1999999999998</ele><time>2026-04-25T14:52:21.002Z</time></trkpt><trkpt lat="45.45921525236505" lon="7.688728027410597"><ele>1156.6</ele><time>2026-04-25T14:52:23.002Z</time></trkpt><trkpt lat="45.459324507139804" lon="7.688708130221636"><ele>1161.0</ele><time>2026-04-25T14:52:25.001Z</time></trkpt><trkpt lat="45.45939191679545" lon="7.688700132759804"><ele>1161.0</ele><time>2026-04-25T14:52:26.001Z</time></trkpt><trkpt lat="45.459458424835276" lon="7.6886787368509095"><ele>1161.0</ele><time>2026-04-25T14:52:27.001Z</time></trkpt><trkpt lat="45.45952068684436" lon="7.688707796678619"><ele>1161.0</ele><time>2026-04-25T14:52:28.001Z</time></trkpt><trkpt lat="45.459593532054505" lon="7.688727847386663"><ele>1161.0</ele><time>2026-04-25T14:52:29.001Z</time></trkpt><trkpt lat="45.45969652770083" lon="7.688756336388948"><ele>1161.0</ele><time>2026-04-25T14:52:30.001Z</time></trkpt><trkpt lat="45.45976064316646" lon="7.688767787885457"><ele>1161.0</ele><time>2026-04-25T14:52:31.001Z</time></trkpt><trkpt lat="45.45989806380382" lon="7.688729012610037"><ele>1159.6</ele><time>2026-04-25T14:52:33.001Z</time></trkpt><trkpt lat="45.4600148757434" lon="7.688681556411953"><ele>1158.1999999999998</ele><time>2026-04-25T14:52:34.001Z</time></trkpt><trkpt lat="45.46010879578071" lon="7.68865003015763"><ele>1156.8000000000002</ele><time>2026-04-25T14:52:35.001Z</time></trkpt><trkpt lat="45.460192127091595" lon="7.688625081619716"><ele>1155.4</ele><time>2026-04-25T14:52:36.001Z</time></trkpt><trkpt lat="45.460265702984" lon="7.688603476310879"><ele>1154.0</ele><time>2026-04-25T14:52:37.001Z</time></trkpt><trkpt lat="45.46034477337822" lon="7.688579538579934"><ele>1154.0</ele><time>2026-04-25T14:52:38.001Z</time></trkpt><trkpt lat="45.46042007911517" lon="7.688546272140373"><ele>1154.0</ele><time>2026-04-25T14:52:39.001Z</time></trkpt><trkpt lat="45.46048833834362" lon="7.688498494735589"><ele>1154.0</ele><time>2026-04-25T14:52:40.001Z</time></trkpt><trkpt lat="45.46054425682132" lon="7.688443582845704"><ele>1154.0</ele><time>2026-04-25T14:52:41.001Z</time></trkpt><trkpt lat="45.46063705161622" lon="7.688279306093301"><ele>1154.0</ele><time>2026-04-25T14:52:43.001Z</time></trkpt><trkpt lat="45.46075601989964" lon="7.68813980291953"><ele>1156.6666666666667</ele><time>2026-04-25T14:52:45.001Z</time></trkpt><trkpt lat="45.460818174894754" lon="7.688114381743685"><ele>1159.3333333333335</ele><time>2026-04-25T14:52:46.001Z</time></trkpt><trkpt lat="45.460932443990586" lon="7.68811028735472"><ele>1162.0</ele><time>2026-04-25T14:52:48.001Z</time></trkpt><trkpt lat="45.46099952321113" lon="7.688121957169241"><ele>1164.6666666666667</ele><time>2026-04-25T14:52:49.001Z</time></trkpt><trkpt lat="45.461067079304016" lon="7.688108323097861"><ele>1167.3333333333333</ele><time>2026-04-25T14:52:50.001Z</time></trkpt><trkpt lat="45.46114296735996" lon="7.688130632411769"><ele>1170.0</ele><time>2026-04-25T14:52:51.001Z</time></trkpt><trkpt lat="45.46120627910292" lon="7.688156644266639"><ele>1170.6666666666667</ele><time>2026-04-25T14:52:52.001Z</time></trkpt><trkpt lat="45.46130338214878" lon="7.688233872667534"><ele>1171.3333333333333</ele><time>2026-04-25T14:52:54.001Z</time></trkpt><trkpt lat="45.46136490128941" lon="7.688289037655008"><ele>1172.0</ele><time>2026-04-25T14:52:55.001Z</time></trkpt><trkpt lat="45.46142480944294" lon="7.688339658511727"><ele>1172.6666666666665</ele><time>2026-04-25T14:52:56.001Z</time></trkpt><trkpt lat="45.46148000489588" lon="7.688407446305931"><ele>1173.3333333333333</ele><time>2026-04-25T14:52:57.001Z</time></trkpt><trkpt lat="45.46157284646292" lon="7.688463136284427"><ele>1174.0</ele><time>2026-04-25T14:52:58.001Z</time></trkpt><trkpt lat="45.46166499557492" lon="7.68853456609904"><ele>1179.5</ele><time>2026-04-25T14:52:59.001Z</time></trkpt><trkpt lat="45.46175451414091" lon="7.688667280673827"><ele>1185.0</ele><time>2026-04-25T14:53:00.001Z</time></trkpt><trkpt lat="45.46186399278814" lon="7.688711432830121"><ele>1190.5</ele><time>2026-04-25T14:53:01.001Z</time></trkpt><trkpt lat="45.46195789677022" lon="7.688834691442484"><ele>1196.0</ele><time>2026-04-25T14:53:02.001Z</time></trkpt><trkpt lat="45.4620397064002" lon="7.688926337525245"><ele>1196.0</ele><time>2026-04-25T14:53:03.001Z</time></trkpt><trkpt lat="45.462114472570406" lon="7.689004034972005"><ele>1196.0</ele><time>2026-04-25T14:53:04.001Z</time></trkpt><trkpt lat="45.46219407909451" lon="7.689077256506384"><ele>1196.0</ele><time>2026-04-25T14:53:05.001Z</time></trkpt><trkpt lat="45.462288047306785" lon="7.689205287266178"><ele>1196.0</ele><time>2026-04-25T14:53:06.001Z</time></trkpt><trkpt lat="45.46235283727226" lon="7.68930705919661"><ele>1196.0</ele><time>2026-04-25T14:53:07.001Z</time></trkpt><trkpt lat="45.4624300490631" lon="7.689403206805115"><ele>1198.6</ele><time>2026-04-25T14:53:08.001Z</time></trkpt><trkpt lat="45.46251056879545" lon="7.689481239965439"><ele>1201.1999999999998</ele><time>2026-04-25T14:53:09.001Z</time></trkpt><trkpt lat="45.462582264776216" lon="7.689591370950257"><ele>1203.8000000000002</ele><time>2026-04-25T14:53:10.001Z</time></trkpt><trkpt lat="45.46266322254018" lon="7.6896599861926624"><ele>1206.4</ele><time>2026-04-25T14:53:11.001Z</time></trkpt><trkpt lat="45.46273094346585" lon="7.6897102879729555"><ele>1209.0</ele><time>2026-04-25T14:53:12.001Z</time></trkpt><trkpt lat="45.462837404271475" lon="7.68978957761542"><ele>1209.0</ele><time>2026-04-25T14:53:13.001Z</time></trkpt><trkpt lat="45.462922067739875" lon="7.689908711039745"><ele>1209.0</ele><time>2026-04-25T14:53:14.001Z</time></trkpt><trkpt lat="45.46299107574844" lon="7.689986566531038"><ele>1209.0</ele><time>2026-04-25T14:53:15.001Z</time></trkpt><trkpt lat="45.46306592304157" lon="7.690018095217285"><ele>1209.0</ele><time>2026-04-25T14:53:16.001Z</time></trkpt><trkpt lat="45.46315048904499" lon="7.690104705211562"><ele>1209.0</ele><time>2026-04-25T14:53:18.001Z</time></trkpt><trkpt lat="45.463220615874285" lon="7.690137803980048"><ele>1207.8</ele><time>2026-04-25T14:53:20.001Z</time></trkpt><trkpt lat="45.46335703763836" lon="7.69016680412346"><ele>1206.6000000000001</ele><time>2026-04-25T14:53:38.001Z</time></trkpt><trkpt lat="45.46337124070547" lon="7.690301238938365"><ele>1205.4</ele><time>2026-04-25T14:53:39.001Z</time></trkpt><trkpt lat="45.46344300907658" lon="7.690323170620126"><ele>1204.2</ele><time>2026-04-25T14:53:43.001Z</time></trkpt><trkpt lat="45.463555711074925" lon="7.690342351539671"><ele>1203.0</ele><time>2026-04-25T14:53:45.001Z</time></trkpt><trkpt lat="45.463628417624264" lon="7.690355572641007"><ele>1207.3333333333333</ele><time>2026-04-25T14:53:58.001Z</time></trkpt><trkpt lat="45.46366849651255" lon="7.6904489710726285"><ele>1211.6666666666667</ele><time>2026-04-25T14:54:00.001Z</time></trkpt><trkpt lat="45.46373809026667" lon="7.690538966521652"><ele>1216.0</ele><time>2026-04-25T14:54:02.001Z</time></trkpt><trkpt lat="45.46380067926561" lon="7.690522662900132"><ele>1220.3333333333335</ele><time>2026-04-25T14:54:05.001Z</time></trkpt><trkpt lat="45.463885302272736" lon="7.690532694402066"><ele>1224.6666666666667</ele><time>2026-04-25T14:54:08.002Z</time></trkpt><trkpt lat="45.46394644529669" lon="7.690580338916732"><ele>1229.0</ele><time>2026-04-25T14:54:11.002Z</time></trkpt><trkpt lat="45.46400533485897" lon="7.690634229705712"><ele>1229.3333333333335</ele><time>2026-04-25T14:54:13.002Z</time></trkpt><trkpt lat="45.46402731808926" lon="7.6907348715130235"><ele>1229.6666666666667</ele><time>2026-04-25T14:54:31Z</time></trkpt><trkpt lat="45.46401388772524" lon="7.6908585422119415"><ele>1230.0</ele><time>2026-04-25T14:54:34Z</time></trkpt><trkpt lat="45.46399358719209" lon="7.690975144977085"><ele>1230.3333333333333</ele><time>2026-04-25T14:54:37Z</time></trkpt><trkpt lat="45.463976271993026" lon="7.6910706421068555"><ele>1230.6666666666665</ele><time>2026-04-25T14:54:40Z</time></trkpt><trkpt lat="45.46398235183475" lon="7.691193191206509"><ele>1231.0</ele><time>2026-04-25T14:54:43Z</time></trkpt><trkpt lat="45.46397712394472" lon="7.691297905018295"><ele>1233.8333333333333</ele><time>2026-04-25T14:54:55Z</time></trkpt><trkpt lat="45.464034040706494" lon="7.69135467930301"><ele>1236.6666666666665</ele><time>2026-04-25T14:54:57Z</time></trkpt><trkpt lat="45.464094090744695" lon="7.691421375514894"><ele>1239.5</ele><time>2026-04-25T14:54:59Z</time></trkpt><trkpt lat="45.464157442902916" lon="7.691475519211078"><ele>1242.3333333333333</ele><time>2026-04-25T14:55:23.001Z</time></trkpt><trkpt lat="45.46424040917181" lon="7.691464096478921"><ele>1245.1666666666667</ele><time>2026-04-25T14:55:27.001Z</time></trkpt><trkpt lat="45.46436137642554" lon="7.691486752905599"><ele>1248.0</ele><time>2026-04-25T14:55:42.001Z</time></trkpt><trkpt lat="45.464471388536026" lon="7.691518587560543"><ele>1248.0</ele><time>2026-04-25T14:55:44.001Z</time></trkpt><trkpt lat="45.464562614263585" lon="7.691594959604498"><ele>1248.0</ele><time>2026-04-25T14:55:46.001Z</time></trkpt><trkpt lat="45.46467793293664" lon="7.691647544188394"><ele>1248.0</ele><time>2026-04-25T14:55:48.001Z</time></trkpt><trkpt lat="45.46475560188891" lon="7.691741978675775"><ele>1248.0</ele><time>2026-04-25T14:55:50.001Z</time></trkpt><trkpt lat="45.464795754747605" lon="7.691830530706262"><ele>1248.0</ele><time>2026-04-25T14:55:52.001Z</time></trkpt><trkpt lat="45.46480675388446" lon="7.69194667180036"><ele>1249.1666666666667</ele><time>2026-04-25T14:55:54.001Z</time></trkpt><trkpt lat="45.46487349735717" lon="7.691892341129348"><ele>1250.3333333333333</ele><time>2026-04-25T15:07:49.001Z</time></trkpt><trkpt lat="45.46493544279701" lon="7.691912578512802"><ele>1251.5</ele><time>2026-04-25T15:09:22.998Z</time></trkpt><trkpt lat="45.46486655778095" lon="7.69192602068869"><ele>1252.6666666666665</ele><time>2026-04-25T15:10:20Z</time></trkpt><trkpt lat="45.46492786349484" lon="7.691975314760774"><ele>1253.8333333333333</ele><time>2026-04-25T15:11:55.999Z</time></trkpt><trkpt lat="45.46489592072718" lon="7.692108832543705"><ele>1255.0</ele><time>2026-04-25T15:11:57.999Z</time></trkpt><trkpt lat="45.464873411848686" lon="7.692205452917083"><ele>1255.0</ele><time>2026-04-25T15:11:58.999Z</time></trkpt><trkpt lat="45.46484937557088" lon="7.692317645275665"><ele>1255.0</ele><time>2026-04-25T15:11:59.999Z</time></trkpt><trkpt lat="45.464823477783746" lon="7.692440406783428"><ele>1255.0</ele><time>2026-04-25T15:12:00.999Z</time></trkpt><trkpt lat="45.464811866613616" lon="7.692533026208912"><ele>1255.0</ele><time>2026-04-25T15:12:01.999Z</time></trkpt><trkpt lat="45.46480154525718" lon="7.692649028772606"><ele>1255.0</ele><time>2026-04-25T15:12:03.999Z</time></trkpt><trkpt lat="45.46481359753556" lon="7.6927615360529"><ele>1255.0</ele><time>2026-04-25T15:12:05.999Z</time></trkpt><trkpt lat="45.464796273704835" lon="7.69288463643526"><ele>1253.1666666666665</ele><time>2026-04-25T15:12:07.999Z</time></trkpt><trkpt lat="45.464778797136944" lon="7.692972457518715"><ele>1251.3333333333333</ele><time>2026-04-25T15:12:09.999Z</time></trkpt><trkpt lat="45.46474056445989" lon="7.693046032540736"><ele>1249.5</ele><time>2026-04-25T15:12:11.999Z</time></trkpt><trkpt lat="45.46469138508077" lon="7.693173416494581"><ele>1247.6666666666667</ele><time>2026-04-25T15:12:13.999Z</time></trkpt><trkpt lat="45.46463044101328" lon="7.693281402149715"><ele>1245.8333333333335</ele><time>2026-04-25T15:12:15.999Z</time></trkpt><trkpt lat="45.46461468743044" lon="7.693377336058617"><ele>1244.0</ele><time>2026-04-25T15:12:18Z</time></trkpt><trkpt lat="45.464561533984686" lon="7.693475615220308"><ele>1243.3333333333335</ele><time>2026-04-25T15:12:20Z</time></trkpt><trkpt lat="45.46450813825839" lon="7.693573526131846"><ele>1242.6666666666667</ele><time>2026-04-25T15:12:22Z</time></trkpt><trkpt lat="45.46448229856445" lon="7.6936581486519575"><ele>1242.0</ele><time>2026-04-25T15:12:26Z</time></trkpt><trkpt lat="45.46444211566438" lon="7.693792707376029"><ele>1241.3333333333333</ele><time>2026-04-25T15:12:28Z</time></trkpt><trkpt lat="45.46441905112429" lon="7.693902996238734"><ele>1240.6666666666665</ele><time>2026-04-25T15:12:30Z</time></trkpt><trkpt lat="45.46438196264229" lon="7.694001951842443"><ele>1240.0</ele><time>2026-04-25T15:12:32Z</time></trkpt><trkpt lat="45.464358586999495" lon="7.694085879585808"><ele>1240.0</ele><time>2026-04-25T15:12:34Z</time></trkpt><trkpt lat="45.46432260827713" lon="7.69417412835801"><ele>1240.0</ele><time>2026-04-25T15:12:36Z</time></trkpt><trkpt lat="45.46425880330643" lon="7.694234313134243"><ele>1240.0</ele><time>2026-04-25T15:12:38Z</time></trkpt><trkpt lat="45.46420210944213" lon="7.694311619046672"><ele>1240.0</ele><time>2026-04-25T15:12:43Z</time></trkpt><trkpt lat="45.46414687452884" lon="7.694431131955267"><ele>1240.0</ele><time>2026-04-25T15:12:46Z</time></trkpt><trkpt lat="45.46411496609102" lon="7.694543095029374"><ele>1240.0</ele><time>2026-04-25T15:12:50.001Z</time></trkpt><trkpt lat="45.46408191721851" lon="7.694623161002947"><ele>1235.6666666666665</ele><time>2026-04-25T15:12:52.001Z</time></trkpt><trkpt lat="45.464029323665144" lon="7.694741913472952"><ele>1231.3333333333333</ele><time>2026-04-25T15:12:54.001Z</time></trkpt><trkpt lat="45.463980031039064" lon="7.694802681194392"><ele>1227.0</ele><time>2026-04-25T15:12:56.001Z</time></trkpt><trkpt lat="45.46394572456924" lon="7.694910733440302"><ele>1222.6666666666667</ele><time>2026-04-25T15:13:04.001Z</time></trkpt><trkpt lat="45.463893251198485" lon="7.6950320693879215"><ele>1218.3333333333335</ele><time>2026-04-25T15:13:06.001Z</time></trkpt><trkpt lat="45.46383964105942" lon="7.695153680839849"><ele>1214.0</ele><time>2026-04-25T15:13:08.001Z</time></trkpt><trkpt lat="45.46380272817036" lon="7.6952317066996745"><ele>1213.8571428571427</ele><time>2026-04-25T15:13:11.001Z</time></trkpt><trkpt lat="45.463762481699824" lon="7.695331915813355"><ele>1213.7142857142858</ele><time>2026-04-25T15:13:14.001Z</time></trkpt><trkpt lat="45.463741942988065" lon="7.695423395861108"><ele>1213.5714285714284</ele><time>2026-04-25T15:13:16.001Z</time></trkpt><trkpt lat="45.4637007322339" lon="7.695502380237844"><ele>1213.4285714285713</ele><time>2026-04-25T15:13:18.001Z</time></trkpt><trkpt lat="45.46367773082553" lon="7.695592684144659"><ele>1213.2857142857142</ele><time>2026-04-25T15:13:20.001Z</time></trkpt><trkpt lat="45.463633510063445" lon="7.6956792774316085"><ele>1213.142857142857</ele><time>2026-04-25T15:13:21.997Z</time></trkpt><trkpt lat="45.463568318507086" lon="7.695763898558712"><ele>1213.0</ele><time>2026-04-25T15:13:24.998Z</time></trkpt><trkpt lat="45.463523733297514" lon="7.695835696845856"><ele>1213.0</ele><time>2026-04-25T15:13:26.998Z</time></trkpt><trkpt lat="45.46347226756437" lon="7.69596193798303"><ele>1213.0</ele><time>2026-04-25T15:13:28.998Z</time></trkpt><trkpt lat="45.46342514249228" lon="7.696049956131086"><ele>1213.0</ele><time>2026-04-25T15:13:29.998Z</time></trkpt><trkpt lat="45.46336611995653" lon="7.696167147422353"><ele>1213.0</ele><time>2026-04-25T15:13:32.999Z</time></trkpt><trkpt lat="45.46332956106516" lon="7.696250084461304"><ele>1213.0</ele><time>2026-04-25T15:13:34.999Z</time></trkpt><trkpt lat="45.46327973795807" lon="7.69631069213855"><ele>1213.0</ele><time>2026-04-25T15:13:35.999Z</time></trkpt><trkpt lat="45.46322342959474" lon="7.696393177087438"><ele>1209.3333333333333</ele><time>2026-04-25T15:13:38.999Z</time></trkpt><trkpt lat="45.463162830581496" lon="7.6964605287128345"><ele>1205.6666666666665</ele><time>2026-04-25T15:13:41Z</time></trkpt><trkpt lat="45.46308750282957" lon="7.696499693631061"><ele>1202.0</ele><time>2026-04-25T15:13:43Z</time></trkpt><trkpt lat="45.46300464949376" lon="7.696542794577234"><ele>1198.3333333333333</ele><time>2026-04-25T15:13:45Z</time></trkpt><trkpt lat="45.46294318844945" lon="7.696570917206011"><ele>1194.6666666666667</ele><time>2026-04-25T15:13:47Z</time></trkpt><trkpt lat="45.4628715384567" lon="7.696564125715609"><ele>1191.0</ele><time>2026-04-25T15:13:49Z</time></trkpt><trkpt lat="45.4627871749484" lon="7.696541221388008"><ele>1190.5</ele><time>2026-04-25T15:13:51Z</time></trkpt><trkpt lat="45.46267690591565" lon="7.696512044761346"><ele>1190.0</ele><time>2026-04-25T15:13:53Z</time></trkpt><trkpt lat="45.4624666775893" lon="7.696497890834724"><ele>1189.5</ele><time>2026-04-25T15:13:55Z</time></trkpt><trkpt lat="45.46236753964212" lon="7.696483561600872"><ele>1189.0</ele><time>2026-04-25T15:13:58.001Z</time></trkpt><trkpt lat="45.46225715831374" lon="7.696530075759958"><ele>1189.0</ele><time>2026-04-25T15:14:00.001Z</time></trkpt><trkpt lat="45.46215174352811" lon="7.696577545051568"><ele>1189.0</ele><time>2026-04-25T15:14:02.001Z</time></trkpt><trkpt lat="45.462086024331406" lon="7.696630664461823"><ele>1189.0</ele><time>2026-04-25T15:14:04.001Z</time></trkpt><trkpt lat="45.462032177163934" lon="7.696679117780712"><ele>1189.0</ele><time>2026-04-25T15:14:08.001Z</time></trkpt><trkpt lat="45.461944709613874" lon="7.696750140689779"><ele>1189.0</ele><time>2026-04-25T15:14:10.001Z</time></trkpt><trkpt lat="45.46187277760786" lon="7.69679236721288"><ele>1189.0</ele><time>2026-04-25T15:14:12.001Z</time></trkpt><trkpt lat="45.4617877901978" lon="7.696824110018623"><ele>1188.2857142857142</ele><time>2026-04-25T15:14:14.001Z</time></trkpt><trkpt lat="45.461725999649374" lon="7.6968495840156"><ele>1187.5714285714287</ele><time>2026-04-25T15:14:19.001Z</time></trkpt><trkpt lat="45.46164525156322" lon="7.696885703920519"><ele>1186.857142857143</ele><time>2026-04-25T15:14:23.001Z</time></trkpt><trkpt lat="45.46157924263521" lon="7.696928415511281"><ele>1186.142857142857</ele><time>2026-04-25T15:14:26.002Z</time></trkpt><trkpt lat="45.46150909518812" lon="7.6969052137405525"><ele>1185.4285714285713</ele><time>2026-04-25T15:14:28.002Z</time></trkpt><trkpt lat="45.461445190550414" lon="7.6968768245740575"><ele>1184.7142857142858</ele><time>2026-04-25T15:14:30.002Z</time></trkpt><trkpt lat="45.46137251138171" lon="7.696863421472814"><ele>1184.0</ele><time>2026-04-25T15:14:32.002Z</time></trkpt><trkpt lat="45.461303337448975" lon="7.696886087772152"><ele>1183.4</ele><time>2026-04-25T15:14:34.002Z</time></trkpt><trkpt lat="45.46124040650691" lon="7.696914656165453"><ele>1182.8000000000002</ele><time>2026-04-25T15:14:37.002Z</time></trkpt><trkpt lat="45.46117042048627" lon="7.696922925728516"><ele>1182.1999999999998</ele><time>2026-04-25T15:14:39.002Z</time></trkpt><trkpt lat="45.46108200986579" lon="7.696909351159938"><ele>1181.6</ele><time>2026-04-25T15:14:42.002Z</time></trkpt><trkpt lat="45.4609176347784" lon="7.6970007501564845"><ele>1181.0</ele><time>2026-04-25T15:14:56.002Z</time></trkpt><trkpt lat="45.46083612331378" lon="7.697023590524326"><ele>1176.2</ele><time>2026-04-25T15:15:12.003Z</time></trkpt><trkpt lat="45.460773122022935" lon="7.697005091601871"><ele>1171.3999999999999</ele><time>2026-04-25T15:15:21.003Z</time></trkpt><trkpt lat="45.4606787335661" lon="7.697188610563096"><ele>1166.6</ele><time>2026-04-25T15:19:12.001Z</time></trkpt><trkpt lat="45.46062238697983" lon="7.697246565747679"><ele>1161.8</ele><time>2026-04-25T15:19:13.001Z</time></trkpt><trkpt lat="45.460582742586084" lon="7.6973174317983375"><ele>1157.0</ele><time>2026-04-25T15:19:14.001Z</time></trkpt><trkpt lat="45.46048967345656" lon="7.697387667062916"><ele>1158.4</ele><time>2026-04-25T15:19:16.001Z</time></trkpt><trkpt lat="45.46039772736372" lon="7.697454825746342"><ele>1159.8000000000002</ele><time>2026-04-25T15:19:18.001Z</time></trkpt><trkpt lat="45.4603248533991" lon="7.697485944168991"><ele>1161.2</ele><time>2026-04-25T15:19:19.001Z</time></trkpt><trkpt lat="45.46025121944743" lon="7.697545516138181"><ele>1162.6000000000001</ele><time>2026-04-25T15:19:20.002Z</time></trkpt><trkpt lat="45.4601864345454" lon="7.697588220892727"><ele>1164.0</ele><time>2026-04-25T15:19:21.002Z</time></trkpt><trkpt lat="45.46008493727486" lon="7.697683347669926"><ele>1164.0</ele><time>2026-04-25T15:19:23.002Z</time></trkpt><trkpt lat="45.45997568880277" lon="7.697682025154005"><ele>1164.0</ele><time>2026-04-25T15:19:24.002Z</time></trkpt><trkpt lat="45.45986320316396" lon="7.697651873358685"><ele>1164.0</ele><time>2026-04-25T15:19:25.002Z</time></trkpt><trkpt lat="45.45978578201246" lon="7.697692141733219"><ele>1164.0</ele><time>2026-04-25T15:19:26.002Z</time></trkpt><trkpt lat="45.45972946902172" lon="7.697742574987117"><ele>1164.0</ele><time>2026-04-25T15:19:27.002Z</time></trkpt><trkpt lat="45.45964962734342" lon="7.697805543010839"><ele>1159.5</ele><time>2026-04-25T15:19:29.002Z</time></trkpt><trkpt lat="45.45957782834123" lon="7.697877675429421"><ele>1155.0</ele><time>2026-04-25T15:19:30.002Z</time></trkpt><trkpt lat="45.45952037215456" lon="7.697995801502805"><ele>1150.5</ele><time>2026-04-25T15:19:31.002Z</time></trkpt><trkpt lat="45.45940103260438" lon="7.698202630745047"><ele>1146.0</ele><time>2026-04-25T15:19:33.002Z</time></trkpt><trkpt lat="45.45927296546324" lon="7.698322617974971"><ele>1146.0</ele><time>2026-04-25T15:19:34.002Z</time></trkpt><trkpt lat="45.45916756703573" lon="7.698404608778995"><ele>1146.0</ele><time>2026-04-25T15:19:35.002Z</time></trkpt><trkpt lat="45.459052182735434" lon="7.698517792423713"><ele>1146.0</ele><time>2026-04-25T15:19:36.002Z</time></trkpt><trkpt lat="45.45890006173163" lon="7.698602764364384"><ele>1146.0</ele><time>2026-04-25T15:19:37.002Z</time></trkpt><trkpt lat="45.458802691820516" lon="7.698664897911369"><ele>1144.6</ele><time>2026-04-25T15:19:38.002Z</time></trkpt><trkpt lat="45.45870183090974" lon="7.698725336755657"><ele>1143.1999999999998</ele><time>2026-04-25T15:19:39Z</time></trkpt><trkpt lat="45.45861142786846" lon="7.698802357818583"><ele>1141.8000000000002</ele><time>2026-04-25T15:19:40Z</time></trkpt><trkpt lat="45.45853563382138" lon="7.6988912832477965"><ele>1140.4</ele><time>2026-04-25T15:19:41Z</time></trkpt><trkpt lat="45.45849839210908" lon="7.698993933106974"><ele>1139.0</ele><time>2026-04-25T15:19:42Z</time></trkpt><trkpt lat="45.4584731848618" lon="7.699095237534756"><ele>1139.0</ele><time>2026-04-25T15:19:43Z</time></trkpt><trkpt lat="45.45846403512708" lon="7.699190889176331"><ele>1139.0</ele><time>2026-04-25T15:19:44Z</time></trkpt><trkpt lat="45.458396994126225" lon="7.699320690628527"><ele>1139.0</ele><time>2026-04-25T15:19:46Z</time></trkpt><trkpt lat="45.4583085053061" lon="7.69938784343683"><ele>1139.0</ele><time>2026-04-25T15:19:48Z</time></trkpt><trkpt lat="45.45820606006216" lon="7.699476810758448"><ele>1139.0</ele><time>2026-04-25T15:19:50Z</time></trkpt><trkpt lat="45.45809693831014" lon="7.699500686231481"><ele>1133.2</ele><time>2026-04-25T15:19:53Z</time></trkpt><trkpt lat="45.458041765644516" lon="7.699568575871181"><ele>1127.4</ele><time>2026-04-25T15:20:00Z</time></trkpt><trkpt lat="45.45799845074607" lon="7.6996447673648"><ele>1121.6</ele><time>2026-04-25T15:20:09Z</time></trkpt><trkpt lat="45.45817090751008" lon="7.699595821657626"><ele>1115.8</ele><time>2026-04-25T15:26:53Z</time></trkpt><trkpt lat="45.4582256527451" lon="7.699692610795121"><ele>1110.0</ele><time>2026-04-25T15:26:56Z</time></trkpt><trkpt lat="45.45826255355056" lon="7.699775778731711"><ele>1110.0</ele><time>2026-04-25T15:26:59.001Z</time></trkpt><trkpt lat="45.45826446609615" lon="7.699890398606044"><ele>1110.0</ele><time>2026-04-25T15:27:01.001Z</time></trkpt><trkpt lat="45.45831540683174" lon="7.699975936554171"><ele>1110.0</ele><time>2026-04-25T15:27:03.001Z</time></trkpt><trkpt lat="45.45836046366008" lon="7.700065694193992"><ele>1110.0</ele><time>2026-04-25T15:27:05.001Z</time></trkpt><trkpt lat="45.45839899516364" lon="7.700155362494798"><ele>1110.0</ele><time>2026-04-25T15:27:07.001Z</time></trkpt><trkpt lat="45.45843066200169" lon="7.700287189748712"><ele>1110.0</ele><time>2026-04-25T15:27:10.001Z</time></trkpt><trkpt lat="45.4584504398435" lon="7.700386497283776"><ele>1106.0</ele><time>2026-04-25T15:27:12.001Z</time></trkpt><trkpt lat="45.45847794109208" lon="7.700504376184039"><ele>1102.0</ele><time>2026-04-25T15:27:15.001Z</time></trkpt><trkpt lat="45.458472860275855" lon="7.700594999465486"><ele>1098.0</ele><time>2026-04-25T15:27:17.001Z</time></trkpt><trkpt lat="45.45845990751821" lon="7.700725354227176"><ele>1094.0</ele><time>2026-04-25T15:27:19.001Z</time></trkpt><trkpt lat="45.45843634753098" lon="7.70083488837517"><ele>1090.0</ele><time>2026-04-25T15:27:21.001Z</time></trkpt><trkpt lat="45.458361274017065" lon="7.700945797064968"><ele>1086.0</ele><time>2026-04-25T15:27:23.001Z</time></trkpt><trkpt lat="45.45829967594087" lon="7.700994201922608"><ele>1083.2</ele><time>2026-04-25T15:27:26.001Z</time></trkpt><trkpt lat="45.4582478359919" lon="7.701091304339664"><ele>1080.3999999999999</ele><time>2026-04-25T15:27:30.001Z</time></trkpt><trkpt lat="45.45817125292006" lon="7.7011538822023065"><ele>1077.6</ele><time>2026-04-25T15:27:33.001Z</time></trkpt><trkpt lat="45.45804668561497" lon="7.7012445132922585"><ele>1074.8</ele><time>2026-04-25T15:27:36.001Z</time></trkpt><trkpt lat="45.45799893002709" lon="7.701314894617624"><ele>1072.0</ele><time>2026-04-25T15:27:37.001Z</time></trkpt><trkpt lat="45.457931461453335" lon="7.701375192597035"><ele>1071.1666666666665</ele><time>2026-04-25T15:27:39.001Z</time></trkpt><trkpt lat="45.457852447049575" lon="7.701394652985391"><ele>1070.3333333333333</ele><time>2026-04-25T15:27:42.001Z</time></trkpt><trkpt lat="45.45778259328695" lon="7.7014177564929085"><ele>1069.5</ele><time>2026-04-25T15:27:44.001Z</time></trkpt><trkpt lat="45.45771677121191" lon="7.701456230825566"><ele>1068.6666666666667</ele><time>2026-04-25T15:27:45.001Z</time></trkpt><trkpt lat="45.45763134862612" lon="7.701503331965587"><ele>1067.8333333333335</ele><time>2026-04-25T15:27:46.001Z</time></trkpt><trkpt lat="45.45750517034627" lon="7.701525164242643"><ele>1067.0</ele><time>2026-04-25T15:27:47.001Z</time></trkpt><trkpt lat="45.45734254568211" lon="7.701525156216712"><ele>1067.0</ele><time>2026-04-25T15:27:48.001Z</time></trkpt><trkpt lat="45.45721131665901" lon="7.701658955319948"><ele>1067.0</ele><time>2026-04-25T15:27:49.001Z</time></trkpt><trkpt lat="45.457066683631716" lon="7.701680074153339"><ele>1067.0</ele><time>2026-04-25T15:27:50.001Z</time></trkpt><trkpt lat="45.456965880118084" lon="7.7016793517045485"><ele>1067.0</ele><time>2026-04-25T15:27:51.001Z</time></trkpt><trkpt lat="45.45681665919392" lon="7.701728374174952"><ele>1067.5</ele><time>2026-04-25T15:27:52.001Z</time></trkpt><trkpt lat="45.456698232425666" lon="7.701768721350202"><ele>1068.0</ele><time>2026-04-25T15:27:53.001Z</time></trkpt><trkpt lat="45.45656278482681" lon="7.701853186087569"><ele>1068.5</ele><time>2026-04-25T15:27:54.001Z</time></trkpt><trkpt lat="45.45641513559029" lon="7.701787798610645"><ele>1069.0</ele><time>2026-04-25T15:27:55.001Z</time></trkpt><trkpt lat="45.456281902277034" lon="7.70186840358898"><ele>1062.5</ele><time>2026-04-25T15:27:56.001Z</time></trkpt><trkpt lat="45.456157380062415" lon="7.701954279655569"><ele>1056.0</ele><time>2026-04-25T15:27:57.001Z</time></trkpt><trkpt lat="45.456056527736145" lon="7.702034823365636"><ele>1049.5</ele><time>2026-04-25T15:27:58.001Z</time></trkpt><trkpt lat="45.455926439668566" lon="7.702148795312082"><ele>1043.0</ele><time>2026-04-25T15:27:59.001Z</time></trkpt><trkpt lat="45.45579572169579" lon="7.702264261105366"><ele>1043.0</ele><time>2026-04-25T15:28:00.001Z</time></trkpt><trkpt lat="45.45565599679338" lon="7.70237057983688"><ele>1043.0</ele><time>2026-04-25T15:28:01.001Z</time></trkpt><trkpt lat="45.45550578754931" lon="7.702450115099757"><ele>1043.0</ele><time>2026-04-25T15:28:02.001Z</time></trkpt><trkpt lat="45.455374235828685" lon="7.702500631395651"><ele>1042.75</ele><time>2026-04-25T15:28:02.999Z</time></trkpt><trkpt lat="45.45530177223462" lon="7.702516608368178"><ele>1042.5</ele><time>2026-04-25T15:28:03.999Z</time></trkpt><trkpt lat="45.455171753142714" lon="7.702520898729532"><ele>1042.25</ele><time>2026-04-25T15:28:04.999Z</time></trkpt><trkpt lat="45.45502107726507" lon="7.702491663763348"><ele>1042.0</ele><time>2026-04-25T15:28:05.999Z</time></trkpt><trkpt lat="45.454901502427525" lon="7.702423359792461"><ele>1042.0</ele><time>2026-04-25T15:28:06.999Z</time></trkpt><trkpt lat="45.454807775145234" lon="7.7023986696538564"><ele>1042.0</ele><time>2026-04-25T15:28:08Z</time></trkpt><trkpt lat="45.45472434117864" lon="7.702349041219046"><ele>1042.0</ele><time>2026-04-25T15:28:09Z</time></trkpt><trkpt lat="45.454657584975514" lon="7.702317646718143"><ele>1042.0</ele><time>2026-04-25T15:28:10Z</time></trkpt><trkpt lat="45.454549694350995" lon="7.7021959287728805"><ele>1042.0</ele><time>2026-04-25T15:28:11Z</time></trkpt><trkpt lat="45.45445752948967" lon="7.702063109168729"><ele>1039.4</ele><time>2026-04-25T15:28:12Z</time></trkpt><trkpt lat="45.45440174670032" lon="7.701980942464747"><ele>1036.8000000000002</ele><time>2026-04-25T15:28:13Z</time></trkpt><trkpt lat="45.4543300007396" lon="7.701905397737271"><ele>1034.2</ele><time>2026-04-25T15:28:15Z</time></trkpt><trkpt lat="45.45423967989992" lon="7.701887775223536"><ele>1031.6000000000001</ele><time>2026-04-25T15:28:20Z</time></trkpt><trkpt lat="45.45410705401826" lon="7.701967358899231"><ele>1029.0</ele><time>2026-04-25T15:28:22Z</time></trkpt><trkpt lat="45.453706346461864" lon="7.702000039757016"><ele>1029.0</ele><time>2026-04-25T15:28:23Z</time></trkpt><trkpt lat="45.45354709288067" lon="7.701943586711555"><ele>1029.0</ele><time>2026-04-25T15:28:24Z</time></trkpt><trkpt lat="45.45339865199286" lon="7.7019513307588685"><ele>1029.0</ele><time>2026-04-25T15:28:25Z</time></trkpt><trkpt lat="45.453297160385674" lon="7.701953385209534"><ele>1029.0</ele><time>2026-04-25T15:28:26Z</time></trkpt><trkpt lat="45.45315327243742" lon="7.7019593346656"><ele>1029.0</ele><time>2026-04-25T15:28:28Z</time></trkpt><trkpt lat="45.45307631947931" lon="7.701952436104147"><ele>1029.0</ele><time>2026-04-25T15:28:29Z</time></trkpt><trkpt lat="45.453006185242415" lon="7.701954741349022"><ele>1029.0</ele><time>2026-04-25T15:28:30Z</time></trkpt><trkpt lat="45.45288280345585" lon="7.701972345818197"><ele>1029.0</ele><time>2026-04-25T15:28:32Z</time></trkpt><trkpt lat="45.452813005459475" lon="7.702001961105524"><ele>1029.0</ele><time>2026-04-25T15:28:33Z</time></trkpt><trkpt lat="45.452706215056445" lon="7.702004095199128"><ele>1028.25</ele><time>2026-04-25T15:28:34Z</time></trkpt><trkpt lat="45.45257893345654" lon="7.701982858088661"><ele>1027.5</ele><time>2026-04-25T15:28:35Z</time></trkpt><trkpt lat="45.4524379520624" lon="7.701953004534333"><ele>1026.75</ele><time>2026-04-25T15:28:36Z</time></trkpt><trkpt lat="45.45232148655635" lon="7.701931234853489"><ele>1026.0</ele><time>2026-04-25T15:28:37Z</time></trkpt><trkpt lat="45.45220311738862" lon="7.701915630754143"><ele>1028.0</ele><time>2026-04-25T15:28:38Z</time></trkpt><trkpt lat="45.45206617009524" lon="7.70191253058126"><ele>1030.0</ele><time>2026-04-25T15:28:39Z</time></trkpt><trkpt lat="45.45194497995473" lon="7.701871801582114"><ele>1032.0</ele><time>2026-04-25T15:28:40Z</time></trkpt><trkpt lat="45.45183824284558" lon="7.701813021160467"><ele>1034.0</ele><time>2026-04-25T15:28:41Z</time></trkpt><trkpt lat="45.451755135198354" lon="7.701748699983333"><ele>1035.0</ele><time>2026-04-25T15:28:42Z</time></trkpt><trkpt lat="45.45173188625714" lon="7.700765143040316"><ele>1035.0</ele><time>2026-04-25T15:28:44Z</time></trkpt><trkpt lat="45.45166291274194" lon="7.700644800297093"><ele>1035.0</ele><time>2026-04-25T15:28:45Z</time></trkpt><trkpt lat="45.45163547994698" lon="7.700474188560931"><ele>1035.0</ele><time>2026-04-25T15:28:48Z</time></trkpt><trkpt lat="45.45161252446795" lon="7.70036277904726"><ele>1035.0</ele><time>2026-04-25T15:28:49Z</time></trkpt><trkpt lat="45.45154411773529" lon="7.7002521177759915"><ele>1035.0</ele><time>2026-04-25T15:28:51Z</time></trkpt><trkpt lat="45.451507090799396" lon="7.700171309689448"><ele>1035.6</ele><time>2026-04-25T15:28:52Z</time></trkpt><trkpt lat="45.451429286843926" lon="7.700126485992931"><ele>1036.2</ele><time>2026-04-25T15:28:53Z</time></trkpt><trkpt lat="45.45136907733235" lon="7.6999673925680225"><ele>1036.8</ele><time>2026-04-25T15:28:54Z</time></trkpt><trkpt lat="45.45129308082339" lon="7.699853464386591"><ele>1037.4</ele><time>2026-04-25T15:28:55Z</time></trkpt><trkpt lat="45.45124494191541" lon="7.699777801993099"><ele>1038.0</ele><time>2026-04-25T15:28:56Z</time></trkpt><trkpt lat="45.45117837840209" lon="7.699759322914599"><ele>1038.0</ele><time>2026-04-25T15:28:57Z</time></trkpt><trkpt lat="45.45106665478378" lon="7.6997489130274905"><ele>1038.0</ele><time>2026-04-25T15:28:58Z</time></trkpt><trkpt lat="45.45097764816857" lon="7.699709403332111"><ele>1038.0</ele><time>2026-04-25T15:28:59Z</time></trkpt><trkpt lat="45.45090417174921" lon="7.699696818222954"><ele>1038.0</ele><time>2026-04-25T15:29:00Z</time></trkpt><trkpt lat="45.45088876482545" lon="7.699603952917331"><ele>1038.0</ele><time>2026-04-25T15:29:02Z</time></trkpt><trkpt lat="45.4508224850442" lon="7.699713342863773"><ele>1038.0</ele><time>2026-04-25T15:29:04.001Z</time></trkpt><trkpt lat="45.450681803667855" lon="7.699619015277743"><ele>1038.0</ele><time>2026-04-25T15:29:07.001Z</time></trkpt><trkpt lat="45.450623320612166" lon="7.699672189498074"><ele>1038.0</ele><time>2026-04-25T15:29:08.001Z</time></trkpt><trkpt lat="45.45055627667931" lon="7.699650862542765"><ele>1038.0</ele><time>2026-04-25T15:29:09.001Z</time></trkpt><trkpt lat="45.45038553814998" lon="7.699685839318431"><ele>1038.0</ele><time>2026-04-25T15:29:10.001Z</time></trkpt><trkpt lat="45.45023714081091" lon="7.699682652854219"><ele>1038.6</ele><time>2026-04-25T15:29:11.001Z</time></trkpt><trkpt lat="45.45011857849606" lon="7.699684268253529"><ele>1039.1999999999998</ele><time>2026-04-25T15:29:12.001Z</time></trkpt><trkpt lat="45.450043929803755" lon="7.699644904622474"><ele>1039.8</ele><time>2026-04-25T15:29:14.001Z</time></trkpt><trkpt lat="45.44993944223337" lon="7.6996358724268426"><ele>1040.3999999999999</ele><time>2026-04-25T15:29:16.001Z</time></trkpt><trkpt lat="45.44987172224152" lon="7.699610113688789"><ele>1041.0</ele><time>2026-04-25T15:29:19.001Z</time></trkpt><trkpt lat="45.44978385285318" lon="7.699591828439456"><ele>1041.0</ele><time>2026-04-25T15:29:21.001Z</time></trkpt><trkpt lat="45.44973266517261" lon="7.699669681733784"><ele>1041.0</ele><time>2026-04-25T15:29:26.001Z</time></trkpt><trkpt lat="45.44966087557684" lon="7.699735613904445"><ele>1041.0</ele><time>2026-04-25T15:29:28.001Z</time></trkpt><trkpt lat="45.449579463231274" lon="7.699809929394897"><ele>1041.0</ele><time>2026-04-25T15:29:30.001Z</time></trkpt><trkpt lat="45.449556927204455" lon="7.699914509880963"><ele>1041.0</ele><time>2026-04-25T15:29:32.001Z</time></trkpt><trkpt lat="45.44954235746878" lon="7.700015844574606"><ele>1041.0</ele><time>2026-04-25T15:29:34.001Z</time></trkpt><trkpt lat="45.449487226290536" lon="7.700118386605548"><ele>1040.0</ele><time>2026-04-25T15:29:37.001Z</time></trkpt><trkpt lat="45.44943778747665" lon="7.7002370823057005"><ele>1039.0</ele><time>2026-04-25T15:29:40.001Z</time></trkpt><trkpt lat="45.44943577651368" lon="7.70032870486258"><ele>1038.0</ele><time>2026-04-25T15:29:42.001Z</time></trkpt><trkpt lat="45.449356214346984" lon="7.700427787692088"><ele>1037.0</ele><time>2026-04-25T15:29:44.001Z</time></trkpt><trkpt lat="45.44927611022905" lon="7.700495132970203"><ele>1036.0</ele><time>2026-04-25T15:29:46.001Z</time></trkpt><trkpt lat="45.44920691881047" lon="7.700641724819031"><ele>1034.0</ele><time>2026-04-25T15:29:48.001Z</time></trkpt><trkpt lat="45.44917859023647" lon="7.7008119418615575"><ele>1032.0</ele><time>2026-04-25T15:29:51.001Z</time></trkpt><trkpt lat="45.449143282364304" lon="7.700894654488266"><ele>1030.0</ele><time>2026-04-25T15:29:53.001Z</time></trkpt><trkpt lat="45.449076810769974" lon="7.700907445605346"><ele>1028.0</ele><time>2026-04-25T15:29:54.001Z</time></trkpt><trkpt lat="45.44900841135456" lon="7.700988317835998"><ele>1026.0</ele><time>2026-04-25T15:29:56.001Z</time></trkpt><trkpt lat="45.4489424649362" lon="7.701101599112004"><ele>1023.0</ele><time>2026-04-25T15:29:59.001Z</time></trkpt><trkpt lat="45.448928715465435" lon="7.7011951854115654"><ele>1020.0</ele><time>2026-04-25T15:30:01.001Z</time></trkpt><trkpt lat="45.44888456885177" lon="7.701266774100834"><ele>1017.0</ele><time>2026-04-25T15:30:03.001Z</time></trkpt><trkpt lat="45.448824589471315" lon="7.701373299800553"><ele>1014.0</ele><time>2026-04-25T15:30:06.001Z</time></trkpt><trkpt lat="45.4487775327867" lon="7.701472875873993"><ele>1011.0</ele><time>2026-04-25T15:30:08.001Z</time></trkpt><trkpt lat="45.44870719298007" lon="7.701565172290908"><ele>1008.0</ele><time>2026-04-25T15:30:11Z</time></trkpt><trkpt lat="45.44869458803466" lon="7.701654713619628"><ele>1008.0</ele><time>2026-04-25T15:30:14Z</time></trkpt><trkpt lat="45.44858606384226" lon="7.701780525968526"><ele>1008.0</ele><time>2026-04-25T15:30:16Z</time></trkpt><trkpt lat="45.44852825939744" lon="7.701831572525377"><ele>1008.0</ele><time>2026-04-25T15:30:18Z</time></trkpt><trkpt lat="45.448472589000254" lon="7.7019562171187115"><ele>1008.0</ele><time>2026-04-25T15:30:20Z</time></trkpt><trkpt lat="45.44839700160354" lon="7.702017435651331"><ele>1008.0</ele><time>2026-04-25T15:30:23Z</time></trkpt><trkpt lat="45.447610566812834" lon="7.702602792749042"><ele>1004.5</ele><time>2026-04-25T15:30:25Z</time></trkpt><trkpt lat="45.44747614055988" lon="7.702652932803666"><ele>1001.0</ele><time>2026-04-25T15:30:26Z</time></trkpt><trkpt lat="45.44741834069617" lon="7.702721742921812"><ele>997.5</ele><time>2026-04-25T15:30:27Z</time></trkpt><trkpt lat="45.447347073785664" lon="7.702772667508866"><ele>994.0</ele><time>2026-04-25T15:30:28Z</time></trkpt><trkpt lat="45.44736917429422" lon="7.702686598438976"><ele>990.5</ele><time>2026-04-25T15:30:45.001Z</time></trkpt><trkpt lat="45.44728385341573" lon="7.702688013247799"><ele>987.0</ele><time>2026-04-25T15:30:58.001Z</time></trkpt><trkpt lat="45.44721826642797" lon="7.7026998857042965"><ele>987.0</ele><time>2026-04-25T15:31:02.001Z</time></trkpt><trkpt lat="45.447151229833956" lon="7.702695847372874"><ele>987.0</ele><time>2026-04-25T15:32:15Z</time></trkpt><trkpt lat="45.44723691126096" lon="7.702667452203071"><ele>987.0</ele><time>2026-04-25T15:32:39Z</time></trkpt><trkpt lat="45.44732568298438" lon="7.702631817173868"><ele>987.0</ele><time>2026-04-25T15:32:41Z</time></trkpt><trkpt lat="45.44740868085542" lon="7.702582514633884"><ele>987.0</ele><time>2026-04-25T15:32:43Z</time></trkpt><trkpt lat="45.44750993246711" lon="7.702544226025243"><ele>987.0</ele><time>2026-04-25T15:32:45Z</time></trkpt><trkpt lat="45.44761572481616" lon="7.702532449534354"><ele>987.0</ele><time>2026-04-25T15:32:47Z</time></trkpt><trkpt lat="45.447683810324804" lon="7.702511367653925"><ele>987.0</ele><time>2026-04-25T15:32:48Z</time></trkpt><trkpt lat="45.447872831332674" lon="7.702461139747483"><ele>987.0</ele><time>2026-04-25T15:32:50Z</time></trkpt><trkpt lat="45.44802250738717" lon="7.702339343217249"><ele>987.0</ele><time>2026-04-25T15:32:51Z</time></trkpt><trkpt lat="45.448124739666284" lon="7.702234002492996"><ele>987.0</ele><time>2026-04-25T15:32:52Z</time></trkpt><trkpt lat="45.44817145748888" lon="7.702170169949952"><ele>987.0</ele><time>2026-04-25T15:32:53Z</time></trkpt><trkpt lat="45.448237770685594" lon="7.70208442109137"><ele>987.0</ele><time>2026-04-25T15:32:55Z</time></trkpt><trkpt lat="45.44830156944977" lon="7.7020738552240475"><ele>987.0</ele><time>2026-04-25T15:32:56Z</time></trkpt><trkpt lat="45.44830850610966" lon="7.701953488363486"><ele>987.0</ele><time>2026-04-25T15:32:59Z</time></trkpt><trkpt lat="45.44821575876709" lon="7.701957459821336"><ele>987.0</ele><time>2026-04-25T15:33:01Z</time></trkpt><trkpt lat="45.4481289244707" lon="7.702041255686118"><ele>987.0</ele><time>2026-04-25T15:33:05Z</time></trkpt><trkpt lat="45.44805644922538" lon="7.702030871564156"><ele>987.0</ele><time>2026-04-25T15:33:06Z</time></trkpt><trkpt lat="45.4479106862945" lon="7.702014151231704"><ele>987.0</ele><time>2026-04-25T15:33:08Z</time></trkpt><trkpt lat="45.447832383846574" lon="7.701936481355375"><ele>987.0</ele><time>2026-04-25T15:33:09Z</time></trkpt><trkpt lat="45.44776523898508" lon="7.701886239979644"><ele>987.0</ele><time>2026-04-25T15:33:10Z</time></trkpt><trkpt lat="45.44770926641299" lon="7.701842171703322"><ele>988.6</ele><time>2026-04-25T15:33:11Z</time></trkpt><trkpt lat="45.44761147179339" lon="7.701736568735604"><ele>990.2</ele><time>2026-04-25T15:33:13Z</time></trkpt><trkpt lat="45.447508658016865" lon="7.701620412533641"><ele>991.8</ele><time>2026-04-25T15:33:15Z</time></trkpt><trkpt lat="45.447428528155704" lon="7.701482354742496"><ele>993.4</ele><time>2026-04-25T15:33:17.001Z</time></trkpt><trkpt lat="45.447390440251894" lon="7.701408590400678"><ele>995.0</ele><time>2026-04-25T15:33:21.001Z</time></trkpt><trkpt lat="45.44737028732507" lon="7.701286099287286"><ele>995.0</ele><time>2026-04-25T15:33:24.001Z</time></trkpt><trkpt lat="45.44737112911166" lon="7.701184757336074"><ele>995.0</ele><time>2026-04-25T15:33:25.001Z</time></trkpt><trkpt lat="45.44735693934142" lon="7.701089236119271"><ele>995.0</ele><time>2026-04-25T15:33:26.001Z</time></trkpt><trkpt lat="45.447351592948294" lon="7.700951434656727"><ele>995.0</ele><time>2026-04-25T15:33:27.001Z</time></trkpt><trkpt lat="45.447365567619876" lon="7.700796441468388"><ele>995.0</ele><time>2026-04-25T15:33:28.001Z</time></trkpt><trkpt lat="45.447378119715836" lon="7.700649114251101"><ele>995.2</ele><time>2026-04-25T15:33:30.001Z</time></trkpt><trkpt lat="45.447374387414314" lon="7.700548718745256"><ele>995.4</ele><time>2026-04-25T15:33:32.001Z</time></trkpt><trkpt lat="45.447372166877976" lon="7.700382228326697"><ele>995.5999999999999</ele><time>2026-04-25T15:33:34.001Z</time></trkpt><trkpt lat="45.447447115859646" lon="7.70027410212389"><ele>995.8</ele><time>2026-04-25T15:33:35.001Z</time></trkpt><trkpt lat="45.44756602183507" lon="7.700154368930913"><ele>996.0</ele><time>2026-04-25T15:33:36.001Z</time></trkpt><trkpt lat="45.447729183395" lon="7.700026263755493"><ele>996.0</ele><time>2026-04-25T15:33:37.001Z</time></trkpt><trkpt lat="45.44782687312854" lon="7.699924191294657"><ele>995.9999999999999</ele><time>2026-04-25T15:33:38.001Z</time></trkpt><trkpt lat="45.44790119240925" lon="7.699834464425675"><ele>995.9999999999999</ele><time>2026-04-25T15:33:39.001Z</time></trkpt><trkpt lat="45.44795697938754" lon="7.6997648706851916"><ele>996.0</ele><time>2026-04-25T15:33:40.001Z</time></trkpt><trkpt lat="45.44804583091666" lon="7.699635082575903"><ele>996.0</ele><time>2026-04-25T15:33:42.001Z</time></trkpt><trkpt lat="45.448088702616644" lon="7.699554986797809"><ele>998.4</ele><time>2026-04-25T15:33:43.001Z</time></trkpt><trkpt lat="45.44814791020633" lon="7.699410669961747"><ele>1000.8</ele><time>2026-04-25T15:33:45.001Z</time></trkpt><trkpt lat="45.44818484607042" lon="7.699308180892782"><ele>1003.1999999999999</ele><time>2026-04-25T15:33:46.001Z</time></trkpt><trkpt lat="45.4482275519197" lon="7.699186014062606"><ele>1005.5999999999999</ele><time>2026-04-25T15:33:47.001Z</time></trkpt><trkpt lat="45.44826654535294" lon="7.699065606929217"><ele>1008.0</ele><time>2026-04-25T15:33:48.001Z</time></trkpt><trkpt lat="45.448309699915484" lon="7.698943713652299"><ele>1008.0</ele><time>2026-04-25T15:33:49.001Z</time></trkpt><trkpt lat="45.44836679663995" lon="7.698781569418232"><ele>1008.0</ele><time>2026-04-25T15:33:50.001Z</time></trkpt><trkpt lat="45.448405912078016" lon="7.6986597746741445"><ele>1008.0</ele><time>2026-04-25T15:33:51.001Z</time></trkpt><trkpt lat="45.44846269348817" lon="7.698580136405098"><ele>1008.0</ele><time>2026-04-25T15:33:52.001Z</time></trkpt><trkpt lat="45.44851787311685" lon="7.698511223711356"><ele>1008.0</ele><time>2026-04-25T15:33:53.001Z</time></trkpt><trkpt lat="45.44858692567237" lon="7.698423449609604"><ele>1008.2</ele><time>2026-04-25T15:33:55.001Z</time></trkpt><trkpt lat="45.44863520002923" lon="7.698280632018754"><ele>1008.4</ele><time>2026-04-25T15:33:57.001Z</time></trkpt><trkpt lat="45.448604493547855" lon="7.698119552950144"><ele>1008.6000000000001</ele><time>2026-04-25T15:33:59.001Z</time></trkpt><trkpt lat="45.44853807871692" lon="7.698030393289895"><ele>1008.8000000000001</ele><time>2026-04-25T15:34:00.001Z</time></trkpt><trkpt lat="45.448484752774796" lon="7.697978945789768"><ele>1009.0</ele><time>2026-04-25T15:34:01.001Z</time></trkpt><trkpt lat="45.44845416352585" lon="7.697839660049223"><ele>1009.0</ele><time>2026-04-25T15:34:03.001Z</time></trkpt><trkpt lat="45.448409921642934" lon="7.697774028769973"><ele>1009.0</ele><time>2026-04-25T15:34:04.001Z</time></trkpt><trkpt lat="45.44844003025677" lon="7.69757746434479"><ele>1009.0</ele><time>2026-04-25T15:34:06.001Z</time></trkpt><trkpt lat="45.44849957630621" lon="7.6974325412857185"><ele>1009.0</ele><time>2026-04-25T15:34:07.001Z</time></trkpt><trkpt lat="45.448578362480866" lon="7.697287480523127"><ele>1009.6</ele><time>2026-04-25T15:34:08.001Z</time></trkpt><trkpt lat="45.44867348491307" lon="7.697135476606453"><ele>1010.2</ele><time>2026-04-25T15:34:09.001Z</time></trkpt><trkpt lat="45.44874784580368" lon="7.697031408771883"><ele>1010.8000000000001</ele><time>2026-04-25T15:34:10.001Z</time></trkpt><trkpt lat="45.448788849174804" lon="7.696938029074727"><ele>1011.4000000000001</ele><time>2026-04-25T15:34:11.001Z</time></trkpt><trkpt lat="45.44880173474399" lon="7.696847998411443"><ele>1012.0</ele><time>2026-04-25T15:34:12.001Z</time></trkpt><trkpt lat="45.4488019378275" lon="7.696682457908721"><ele>1012.0000000000001</ele><time>2026-04-25T15:34:14.001Z</time></trkpt><trkpt lat="45.448817351782736" lon="7.696591733198031"><ele>1012.0</ele><time>2026-04-25T15:34:15.001Z</time></trkpt><trkpt lat="45.448742241914346" lon="7.696615741326001"><ele>1012.0000000000001</ele><time>2026-04-25T15:34:21.999Z</time></trkpt><trkpt lat="45.448684006588465" lon="7.696677268824056"><ele>1012.0000000000001</ele><time>2026-04-25T15:34:22.999Z</time></trkpt><trkpt lat="45.448603057474315" lon="7.696708790982526"><ele>1012.0</ele><time>2026-04-25T15:34:23.999Z</time></trkpt><trkpt lat="45.44857342892803" lon="7.696789703189757"><ele>1012.0000000000001</ele><time>2026-04-25T15:34:24.999Z</time></trkpt><trkpt lat="45.44856233749382" lon="7.696885590026863"><ele>1012.0000000000001</ele><time>2026-04-25T15:34:25.999Z</time></trkpt><trkpt lat="45.4485274825848" lon="7.696991979709718"><ele>1012.0</ele><time>2026-04-25T15:34:27.999Z</time></trkpt><trkpt lat="45.44847804686766" lon="7.697113000926415"><ele>1012.0</ele><time>2026-04-25T15:34:32.999Z</time></trkpt><trkpt lat="45.448462642566234" lon="7.697207843027773"><ele>1012.0</ele><time>2026-04-25T15:34:34.999Z</time></trkpt><trkpt lat="45.448396396064545" lon="7.697324907337126"><ele>1012.0</ele><time>2026-04-25T15:34:38Z</time></trkpt><trkpt lat="45.44832833324791" lon="7.6973965962221"><ele>1012.0</ele><time>2026-04-25T15:34:40Z</time></trkpt><trkpt lat="45.44825178938333" lon="7.69747192216925"><ele>1011.9999999999999</ele><time>2026-04-25T15:34:42Z</time></trkpt><trkpt lat="45.44818845000969" lon="7.697488665938888"><ele>1012.0</ele><time>2026-04-25T15:34:44Z</time></trkpt><trkpt lat="45.4481265430115" lon="7.697515204845428"><ele>1012.0</ele><time>2026-04-25T15:34:45Z</time></trkpt><trkpt lat="45.44803541657819" lon="7.697570194396256"><ele>1012.0</ele><time>2026-04-25T15:34:47Z</time></trkpt><trkpt lat="45.44797840297855" lon="7.6974915400992545"><ele>1011.9999999999999</ele><time>2026-04-25T15:34:48Z</time></trkpt><trkpt lat="45.447856596399625" lon="7.697524816169033"><ele>1012.0</ele><time>2026-04-25T15:34:49Z</time></trkpt><trkpt lat="45.447804645212386" lon="7.697641024063936"><ele>1007.25</ele><time>2026-04-25T15:34:50Z</time></trkpt><trkpt lat="45.44768587522184" lon="7.697707332506343"><ele>1002.5</ele><time>2026-04-25T15:34:51Z</time></trkpt><trkpt lat="45.44754329581149" lon="7.69777549407164"><ele>997.75</ele><time>2026-04-25T15:34:52Z</time></trkpt><trkpt lat="45.447438531483286" lon="7.697831638727079"><ele>993.0</ele><time>2026-04-25T15:34:53Z</time></trkpt><trkpt lat="45.44733971237613" lon="7.697876766964875"><ele>993.0</ele><time>2026-04-25T15:34:54Z</time></trkpt><trkpt lat="45.447264819742394" lon="7.697915533281296"><ele>993.0</ele><time>2026-04-25T15:34:55Z</time></trkpt><trkpt lat="45.44713591631116" lon="7.697869179469934"><ele>993.0</ele><time>2026-04-25T15:34:57Z</time></trkpt><trkpt lat="45.44705159274452" lon="7.697815976116909"><ele>993.0</ele><time>2026-04-25T15:34:58Z</time></trkpt><trkpt lat="45.44698523950458" lon="7.697768720075621"><ele>993.0</ele><time>2026-04-25T15:34:59Z</time></trkpt><trkpt lat="45.446918404503016" lon="7.697756051301828"><ele>993.0</ele><time>2026-04-25T15:35:00Z</time></trkpt><trkpt lat="45.4468241963394" lon="7.697717948955157"><ele>989.8333333333334</ele><time>2026-04-25T15:35:03Z</time></trkpt><trkpt lat="45.446725061260565" lon="7.697645704560421"><ele>986.6666666666667</ele><time>2026-04-25T15:35:05Z</time></trkpt><trkpt lat="45.446646842257294" lon="7.69765053831775"><ele>983.5</ele><time>2026-04-25T15:35:10Z</time></trkpt><trkpt lat="45.44658162725414" lon="7.697654598510263"><ele>980.3333333333334</ele><time>2026-04-25T15:35:11Z</time></trkpt><trkpt lat="45.44650783714895" lon="7.697625646153479"><ele>977.1666666666667</ele><time>2026-04-25T15:35:13Z</time></trkpt><trkpt lat="45.44642190397881" lon="7.697635829431334"><ele>974.0</ele><time>2026-04-25T15:35:16Z</time></trkpt><trkpt lat="45.446325369908166" lon="7.697637126097614"><ele>971.5</ele><time>2026-04-25T15:35:19Z</time></trkpt><trkpt lat="45.44625398786637" lon="7.697617199455055"><ele>969.0</ele><time>2026-04-25T15:35:21.001Z</time></trkpt><trkpt lat="45.44613994346963" lon="7.6976149449571425"><ele>966.5</ele><time>2026-04-25T15:35:23.001Z</time></trkpt><trkpt lat="45.446072484503695" lon="7.6976771736001055"><ele>964.0</ele><time>2026-04-25T15:35:26.001Z</time></trkpt><trkpt lat="45.445790982849076" lon="7.697664161365993"><ele>963.9999999999999</ele><time>2026-04-25T15:35:28.001Z</time></trkpt><trkpt lat="45.44569583273403" lon="7.697653555011148"><ele>964.0</ele><time>2026-04-25T15:35:29.001Z</time></trkpt><trkpt lat="45.445625358068" lon="7.6976414467030985"><ele>964.0</ele><time>2026-04-25T15:35:30.001Z</time></trkpt><trkpt lat="45.44555143250803" lon="7.697627326747889"><ele>964.0</ele><time>2026-04-25T15:35:31.001Z</time></trkpt><trkpt lat="45.445451578112795" lon="7.697645815967961"><ele>963.9999999999999</ele><time>2026-04-25T15:35:33.001Z</time></trkpt><trkpt lat="45.44535668278357" lon="7.697642305124573"><ele>964.0</ele><time>2026-04-25T15:35:35.001Z</time></trkpt><trkpt lat="45.44526646282328" lon="7.697658660971433"><ele>960.8333333333333</ele><time>2026-04-25T15:35:38.001Z</time></trkpt><trkpt lat="45.44518502184745" lon="7.697663057213886"><ele>957.6666666666666</ele><time>2026-04-25T15:35:40.001Z</time></trkpt><trkpt lat="45.44510779090579" lon="7.697646252415429"><ele>954.5</ele><time>2026-04-25T15:35:42.001Z</time></trkpt><trkpt lat="45.445029645035746" lon="7.69759695756162"><ele>951.3333333333333</ele><time>2026-04-25T15:35:44.001Z</time></trkpt><trkpt lat="45.44494809743726" lon="7.697594414436554"><ele>948.1666666666666</ele><time>2026-04-25T15:35:45.001Z</time></trkpt><trkpt lat="45.444871705410314" lon="7.697580636053655"><ele>945.0</ele><time>2026-04-25T15:35:46.001Z</time></trkpt><trkpt lat="45.44478498378463" lon="7.697557991473563"><ele>945.0</ele><time>2026-04-25T15:35:49.001Z</time></trkpt><trkpt lat="45.44485483076101" lon="7.697603794481253"><ele>945.0</ele><time>2026-04-25T15:35:50.001Z</time></trkpt><trkpt lat="45.44475600495904" lon="7.697587487100561"><ele>945.0</ele><time>2026-04-25T15:35:52.001Z</time></trkpt><trkpt lat="45.44469262198801" lon="7.697561538342581"><ele>945.0</ele><time>2026-04-25T15:35:53.001Z</time></trkpt><trkpt lat="45.44459103622557" lon="7.697577794329948"><ele>945.0</ele><time>2026-04-25T15:35:56.001Z</time></trkpt><trkpt lat="45.44452585620445" lon="7.697572279847328"><ele>945.0</ele><time>2026-04-25T15:35:57.001Z</time></trkpt><trkpt lat="45.44447237406236" lon="7.69768484401772"><ele>939.8</ele><time>2026-04-25T15:35:59.001Z</time></trkpt><trkpt lat="45.44443151781792" lon="7.6977971422811775"><ele>934.6</ele><time>2026-04-25T15:36:01.001Z</time></trkpt><trkpt lat="45.444450256110365" lon="7.697949079395562"><ele>929.4000000000001</ele><time>2026-04-25T15:36:03.001Z</time></trkpt><trkpt lat="45.444393702939905" lon="7.698040578351353"><ele>924.2</ele><time>2026-04-25T15:36:04.001Z</time></trkpt><trkpt lat="45.44428252689189" lon="7.698031246142391"><ele>919.0</ele><time>2026-04-25T15:36:08.001Z</time></trkpt><trkpt lat="45.44418424844181" lon="7.697982002721563"><ele>918.9999999999999</ele><time>2026-04-25T15:36:09.001Z</time></trkpt><trkpt lat="45.44410349918188" lon="7.697984874986988"><ele>919.0</ele><time>2026-04-25T15:36:11.001Z</time></trkpt><trkpt lat="45.44404333771942" lon="7.698019261418093"><ele>919.0</ele><time>2026-04-25T15:36:13.001Z</time></trkpt><trkpt lat="45.443980268625516" lon="7.698052845636836"><ele>919.0</ele><time>2026-04-25T15:36:15.001Z</time></trkpt><trkpt lat="45.44390729389852" lon="7.697999722509387"><ele>918.9999999999999</ele><time>2026-04-25T15:36:17.001Z</time></trkpt><trkpt lat="45.44381231701509" lon="7.697986167787575"><ele>919.0</ele><time>2026-04-25T15:36:20.002Z</time></trkpt><trkpt lat="45.44372887305984" lon="7.697961289523759"><ele>914.8333333333333</ele><time>2026-04-25T15:36:22.002Z</time></trkpt><trkpt lat="45.4436469911469" lon="7.698021500156613"><ele>910.6666666666666</ele><time>2026-04-25T15:36:24.002Z</time></trkpt><trkpt lat="45.44357759743742" lon="7.69797758588132"><ele>906.5</ele><time>2026-04-25T15:36:26.001Z</time></trkpt><trkpt lat="45.4435140590247" lon="7.6979448197557945"><ele>902.3333333333333</ele><time>2026-04-25T15:36:27.001Z</time></trkpt><trkpt lat="45.44339161477421" lon="7.697982670580262"><ele>898.1666666666666</ele><time>2026-04-25T15:36:29.001Z</time></trkpt><trkpt lat="45.443310400992914" lon="7.697960085555493"><ele>894.0</ele><time>2026-04-25T15:36:30.001Z</time></trkpt><trkpt lat="45.44320112193931" lon="7.697969232359597"><ele>894.0</ele><time>2026-04-25T15:36:31.001Z</time></trkpt><trkpt lat="45.443095166406195" lon="7.697914724941084"><ele>894.0</ele><time>2026-04-25T15:36:32.001Z</time></trkpt><trkpt lat="45.44301371675252" lon="7.697877792884739"><ele>894.0</ele><time>2026-04-25T15:36:33.001Z</time></trkpt><trkpt lat="45.442949437140456" lon="7.697856471802529"><ele>894.0</ele><time>2026-04-25T15:36:34.001Z</time></trkpt><trkpt lat="45.44287193544715" lon="7.697819295402185"><ele>894.0</ele><time>2026-04-25T15:36:35.001Z</time></trkpt><trkpt lat="45.44279163605241" lon="7.697786270883572"><ele>894.0</ele><time>2026-04-25T15:36:37.001Z</time></trkpt><trkpt lat="45.44271547477529" lon="7.6977813022279316"><ele>891.3333333333334</ele><time>2026-04-25T15:36:38.001Z</time></trkpt><trkpt lat="45.44264871379548" lon="7.697795801225174"><ele>888.6666666666667</ele><time>2026-04-25T15:36:39.001Z</time></trkpt><trkpt lat="45.442553583732334" lon="7.697855804333847"><ele>886.0</ele><time>2026-04-25T15:36:41.001Z</time></trkpt><trkpt lat="45.44244761384869" lon="7.697782924729927"><ele>883.3333333333334</ele><time>2026-04-25T15:36:42.001Z</time></trkpt><trkpt lat="45.442382152195805" lon="7.697776005293752"><ele>880.6666666666667</ele><time>2026-04-25T15:36:44.001Z</time></trkpt><trkpt lat="45.442295683267965" lon="7.697775767438613"><ele>878.0</ele><time>2026-04-25T15:36:45.001Z</time></trkpt><trkpt lat="45.442194093361216" lon="7.697803456729594"><ele>874.2</ele><time>2026-04-25T15:36:47.001Z</time></trkpt><trkpt lat="45.44210299857143" lon="7.697873005383054"><ele>870.4</ele><time>2026-04-25T15:36:50.001Z</time></trkpt><trkpt lat="45.4420034880669" lon="7.697855025073877"><ele>866.6000000000001</ele><time>2026-04-25T15:36:52.001Z</time></trkpt><trkpt lat="45.441865238634" lon="7.6978376497455585"><ele>862.8000000000001</ele><time>2026-04-25T15:36:54.001Z</time></trkpt><trkpt lat="45.441801499403574" lon="7.6978091758930995"><ele>859.0</ele><time>2026-04-25T15:36:56.001Z</time></trkpt><trkpt lat="45.44169952348351" lon="7.697814653969206"><ele>862.5</ele><time>2026-04-25T15:36:58.001Z</time></trkpt><trkpt lat="45.441615638745056" lon="7.697668625151785"><ele>866.0</ele><time>2026-04-25T15:37:00.001Z</time></trkpt><trkpt lat="45.44152764253855" lon="7.697600890692425"><ele>869.5</ele><time>2026-04-25T15:37:01.001Z</time></trkpt><trkpt lat="45.44146453788419" lon="7.697568360121512"><ele>873.0</ele><time>2026-04-25T15:37:02.001Z</time></trkpt><trkpt lat="45.44131587918515" lon="7.697516441452167"><ele>868.0</ele><time>2026-04-25T15:37:04.001Z</time></trkpt><trkpt lat="45.44119986299588" lon="7.6975018258170405"><ele>863.0</ele><time>2026-04-25T15:37:05.001Z</time></trkpt><trkpt lat="45.44113417913757" lon="7.697338019704635"><ele>858.0</ele><time>2026-04-25T15:37:06.001Z</time></trkpt><trkpt lat="45.44106848846728" lon="7.697328186021524"><ele>853.0</ele><time>2026-04-25T15:37:07.001Z</time></trkpt><trkpt lat="45.44100436738116" lon="7.697321059950802"><ele>848.0</ele><time>2026-04-25T15:37:08.001Z</time></trkpt><trkpt lat="45.44092193924221" lon="7.697270277237864"><ele>848.0000000000001</ele><time>2026-04-25T15:37:09.001Z</time></trkpt><trkpt lat="45.44085830079894" lon="7.697179740605703"><ele>848.0</ele><time>2026-04-25T15:37:10.001Z</time></trkpt><trkpt lat="45.440805192540324" lon="7.6971186762054815"><ele>848.0</ele><time>2026-04-25T15:37:11.001Z</time></trkpt><trkpt lat="45.440758985183486" lon="7.697036156464948"><ele>848.0</ele><time>2026-04-25T15:37:12.001Z</time></trkpt><trkpt lat="45.44072113173166" lon="7.696959923777392"><ele>848.0000000000001</ele><time>2026-04-25T15:37:13.001Z</time></trkpt><trkpt lat="45.4406325172611" lon="7.696835265412353"><ele>848.0</ele><time>2026-04-25T15:37:15.001Z</time></trkpt><trkpt lat="45.440590369672755" lon="7.696760896355645"><ele>849.6666666666667</ele><time>2026-04-25T15:37:16.001Z</time></trkpt><trkpt lat="45.44050456812159" lon="7.696686523413849"><ele>851.3333333333334</ele><time>2026-04-25T15:37:18.001Z</time></trkpt><trkpt lat="45.440444077285214" lon="7.696652257113465"><ele>853.0</ele><time>2026-04-25T15:37:20.001Z</time></trkpt><trkpt lat="45.440338442086315" lon="7.696602624267243"><ele>854.6666666666667</ele><time>2026-04-25T15:37:22.001Z</time></trkpt><trkpt lat="45.44027532024094" lon="7.696582673297286"><ele>856.3333333333334</ele><time>2026-04-25T15:37:23.001Z</time></trkpt><trkpt lat="45.4401835624964" lon="7.696512201088486"><ele>858.0</ele><time>2026-04-25T15:37:25.001Z</time></trkpt><trkpt lat="45.44012555940897" lon="7.6964700692787025"><ele>855.1666666666666</ele><time>2026-04-25T15:37:26.001Z</time></trkpt><trkpt lat="45.44005288203917" lon="7.696327119379325"><ele>852.3333333333333</ele><time>2026-04-25T15:37:28.001Z</time></trkpt><trkpt lat="45.44002578356066" lon="7.6962238528349465"><ele>849.5</ele><time>2026-04-25T15:37:29.001Z</time></trkpt><trkpt lat="45.43998103336372" lon="7.696132140660504"><ele>846.6666666666666</ele><time>2026-04-25T15:37:30.001Z</time></trkpt><trkpt lat="45.43995292589098" lon="7.69603058284609"><ele>843.8333333333333</ele><time>2026-04-25T15:37:31.001Z</time></trkpt><trkpt lat="45.43992983133112" lon="7.695944705637345"><ele>841.0</ele><time>2026-04-25T15:37:32.001Z</time></trkpt><trkpt lat="45.439907273649666" lon="7.695815624259996"><ele>841.0</ele><time>2026-04-25T15:37:34.001Z</time></trkpt><trkpt lat="45.439876017288064" lon="7.695677740806225"><ele>841.0</ele><time>2026-04-25T15:37:36.001Z</time></trkpt><trkpt lat="45.43985865472829" lon="7.695579951497495"><ele>841.0</ele><time>2026-04-25T15:37:37.001Z</time></trkpt><trkpt lat="45.43980024455225" lon="7.695444684626511"><ele>841.0</ele><time>2026-04-25T15:37:39.001Z</time></trkpt><trkpt lat="45.43978688401821" lon="7.695301156614265"><ele>841.0</ele><time>2026-04-25T15:37:41.001Z</time></trkpt><trkpt lat="45.43980251953825" lon="7.69519672333475"><ele>840.25</ele><time>2026-04-25T15:37:43.001Z</time></trkpt><trkpt lat="45.439805614387375" lon="7.695102429754197"><ele>839.5</ele><time>2026-04-25T15:37:45.001Z</time></trkpt><trkpt lat="45.43973586383442" lon="7.695015316627262"><ele>838.75</ele><time>2026-04-25T15:37:46.001Z</time></trkpt><trkpt lat="45.4395893206899" lon="7.694998076155473"><ele>838.0</ele><time>2026-04-25T15:37:47.001Z</time></trkpt><trkpt lat="45.439423487978566" lon="7.695055443000763"><ele>835.25</ele><time>2026-04-25T15:37:48.001Z</time></trkpt><trkpt lat="45.43928020378138" lon="7.695109365535445"><ele>832.5</ele><time>2026-04-25T15:37:49.001Z</time></trkpt><trkpt lat="45.439168137518074" lon="7.695124648837208"><ele>829.75</ele><time>2026-04-25T15:37:50.001Z</time></trkpt><trkpt lat="45.43904138414176" lon="7.6951142098559195"><ele>827.0</ele><time>2026-04-25T15:37:51.001Z</time></trkpt><trkpt lat="45.43889389828705" lon="7.695047929864824"><ele>827.0</ele><time>2026-04-25T15:37:52.001Z</time></trkpt><trkpt lat="45.43883905581392" lon="7.694942680595979"><ele>827.0</ele><time>2026-04-25T15:37:53.001Z</time></trkpt><trkpt lat="45.43877639754507" lon="7.694842656314282"><ele>827.0</ele><time>2026-04-25T15:37:54.001Z</time></trkpt><trkpt lat="45.43871296236301" lon="7.694754453146596"><ele>827.0</ele><time>2026-04-25T15:37:55.001Z</time></trkpt><trkpt lat="45.43868149793865" lon="7.694603401930146"><ele>827.0</ele><time>2026-04-25T15:37:56.001Z</time></trkpt><trkpt lat="45.438616524325" lon="7.694463937325461"><ele>826.3333333333334</ele><time>2026-04-25T15:37:57.001Z</time></trkpt><trkpt lat="45.43852631051448" lon="7.694354230100565"><ele>825.6666666666667</ele><time>2026-04-25T15:37:58.001Z</time></trkpt><trkpt lat="45.43842103029291" lon="7.694218878467846"><ele>825.0</ele><time>2026-04-25T15:37:59.002Z</time></trkpt><trkpt lat="45.438235835056645" lon="7.6940988536212025"><ele>825.0</ele><time>2026-04-25T15:38:00.002Z</time></trkpt><trkpt lat="45.43808251758859" lon="7.6939674978771135"><ele>825.0</ele><time>2026-04-25T15:38:01.002Z</time></trkpt><trkpt lat="45.43796235614696" lon="7.69385363346645"><ele>825.0</ele><time>2026-04-25T15:38:02.002Z</time></trkpt><trkpt lat="45.43785943836178" lon="7.693771897272166"><ele>825.0</ele><time>2026-04-25T15:38:03.002Z</time></trkpt><trkpt lat="45.43776117973655" lon="7.693662896396005"><ele>825.0</ele><time>2026-04-25T15:38:04.002Z</time></trkpt><trkpt lat="45.43769184384849" lon="7.69356014809696"><ele>825.0</ele><time>2026-04-25T15:38:05.002Z</time></trkpt><trkpt lat="45.43762616611005" lon="7.693457914115491"><ele>825.0</ele><time>2026-04-25T15:38:06.002Z</time></trkpt><trkpt lat="45.4375801067863" lon="7.693373241503011"><ele>825.0</ele><time>2026-04-25T15:38:07.002Z</time></trkpt><trkpt lat="45.43754463021128" lon="7.693294063515027"><ele>825.0</ele><time>2026-04-25T15:38:08.002Z</time></trkpt><trkpt lat="45.43751123179593" lon="7.693164147756133"><ele>825.0</ele><time>2026-04-25T15:38:09.002Z</time></trkpt><trkpt lat="45.43748058480317" lon="7.693025645806489"><ele>825.0</ele><time>2026-04-25T15:38:10.002Z</time></trkpt><trkpt lat="45.43744272083755" lon="7.692896031425865"><ele>825.0</ele><time>2026-04-25T15:38:11.002Z</time></trkpt><trkpt lat="45.43740393829679" lon="7.692755826254769"><ele>825.0</ele><time>2026-04-25T15:38:12.002Z</time></trkpt><trkpt lat="45.43736343722572" lon="7.692618585230369"><ele>825.0</ele><time>2026-04-25T15:38:13.002Z</time></trkpt><trkpt lat="45.43731409941716" lon="7.692471410499632"><ele>825.0</ele><time>2026-04-25T15:38:14.002Z</time></trkpt><trkpt lat="45.43726882879138" lon="7.692335869366187"><ele>825.3333333333334</ele><time>2026-04-25T15:38:15.002Z</time></trkpt><trkpt lat="45.437224927700235" lon="7.692208639924436"><ele>825.6666666666667</ele><time>2026-04-25T15:38:16.002Z</time></trkpt><trkpt lat="45.4371740281233" lon="7.692096166691442"><ele>826.0</ele><time>2026-04-25T15:38:17.002Z</time></trkpt><trkpt lat="45.43713232104638" lon="7.692008702418981"><ele>826.3333333333334</ele><time>2026-04-25T15:38:18.002Z</time></trkpt><trkpt lat="45.43709291245443" lon="7.691902240537406"><ele>826.6666666666667</ele><time>2026-04-25T15:38:19.002Z</time></trkpt><trkpt lat="45.43704768799024" lon="7.691801725007313"><ele>827.0</ele><time>2026-04-25T15:38:20.002Z</time></trkpt><trkpt lat="45.436992332938246" lon="7.691703040664685"><ele>825.8</ele><time>2026-04-25T15:38:21.002Z</time></trkpt><trkpt lat="45.43692142378716" lon="7.691585805828734"><ele>824.6</ele><time>2026-04-25T15:38:22.002Z</time></trkpt><trkpt lat="45.4368437915704" lon="7.691478454301085"><ele>823.4</ele><time>2026-04-25T15:38:23.002Z</time></trkpt><trkpt lat="45.436775328372605" lon="7.691375235587112"><ele>822.1999999999999</ele><time>2026-04-25T15:38:24.002Z</time></trkpt><trkpt lat="45.436702742727135" lon="7.691282584609205"><ele>821.0</ele><time>2026-04-25T15:38:25.002Z</time></trkpt><trkpt lat="45.4366094324986" lon="7.691186057525301"><ele>818.1999999999999</ele><time>2026-04-25T15:38:26.002Z</time></trkpt><trkpt lat="45.43653569913321" lon="7.691078681800857"><ele>815.4</ele><time>2026-04-25T15:38:27.002Z</time></trkpt><trkpt lat="45.436480108260085" lon="7.691015268339166"><ele>812.6</ele><time>2026-04-25T15:38:28.002Z</time></trkpt><trkpt lat="45.436387976155245" lon="7.690887859813863"><ele>809.8</ele><time>2026-04-25T15:38:30.002Z</time></trkpt><trkpt lat="45.436327108400825" lon="7.690814402973583"><ele>807.0</ele><time>2026-04-25T15:38:31.002Z</time></trkpt><trkpt lat="45.43626721465495" lon="7.69076382721984"><ele>807.0</ele><time>2026-04-25T15:38:32.001Z</time></trkpt><trkpt lat="45.43619773411036" lon="7.690725329436787"><ele>807.0</ele><time>2026-04-25T15:38:33.001Z</time></trkpt><trkpt lat="45.43613586941599" lon="7.69070419455511"><ele>807.0</ele><time>2026-04-25T15:38:34.001Z</time></trkpt><trkpt lat="45.43606124671578" lon="7.690674479216264"><ele>807.0</ele><time>2026-04-25T15:38:35.001Z</time></trkpt><trkpt lat="45.43611084823377" lon="7.690604638938303"><ele>807.0</ele><time>2026-04-25T15:38:43.001Z</time></trkpt><trkpt lat="45.436189764069645" lon="7.690610262709489"><ele>807.0</ele><time>2026-04-25T15:38:44.001Z</time></trkpt><trkpt lat="45.43630693788403" lon="7.690613926406373"><ele>806.5</ele><time>2026-04-25T15:38:45.001Z</time></trkpt><trkpt lat="45.436414412475266" lon="7.690613413905694"><ele>806.0</ele><time>2026-04-25T15:38:46.001Z</time></trkpt><trkpt lat="45.43649033846833" lon="7.690617116164665"><ele>805.5</ele><time>2026-04-25T15:38:47.001Z</time></trkpt><trkpt lat="45.436563217391104" lon="7.69064898549495"><ele>805.0</ele><time>2026-04-25T15:38:48.001Z</time></trkpt><trkpt lat="45.4366529860528" lon="7.69067852009273"><ele>804.5</ele><time>2026-04-25T15:38:49.001Z</time></trkpt><trkpt lat="45.43674266332023" lon="7.690695442141959"><ele>804.0</ele><time>2026-04-25T15:38:50.001Z</time></trkpt><trkpt lat="45.436832084056185" lon="7.690715379312975"><ele>804.0</ele><time>2026-04-25T15:38:51.001Z</time></trkpt><trkpt lat="45.43691434533839" lon="7.690765221712264"><ele>804.0</ele><time>2026-04-25T15:38:52.001Z</time></trkpt><trkpt lat="45.436980282187356" lon="7.690791736727333"><ele>804.0</ele><time>2026-04-25T15:38:53.001Z</time></trkpt><trkpt lat="45.437090765706174" lon="7.69081056244641"><ele>804.0</ele><time>2026-04-25T15:38:55.001Z</time></trkpt><trkpt lat="45.43717990627643" lon="7.690877988452543"><ele>804.0</ele><time>2026-04-25T15:38:56.001Z</time></trkpt><trkpt lat="45.43725995341021" lon="7.690991837651305"><ele>805.0</ele><time>2026-04-25T15:38:57.001Z</time></trkpt><trkpt lat="45.43737885288227" lon="7.691096159996441"><ele>806.0</ele><time>2026-04-25T15:38:59.001Z</time></trkpt><trkpt lat="45.43747827812922" lon="7.691127872242487"><ele>807.0</ele><time>2026-04-25T15:39:00.001Z</time></trkpt><trkpt lat="45.43758372953811" lon="7.691185124200709"><ele>808.0</ele><time>2026-04-25T15:39:01.001Z</time></trkpt><trkpt lat="45.43767980808621" lon="7.691184974676081"><ele>808.0</ele><time>2026-04-25T15:39:03.001Z</time></trkpt><trkpt lat="45.43778080918004" lon="7.691224887906345"><ele>808.0</ele><time>2026-04-25T15:39:05.001Z</time></trkpt><trkpt lat="45.43782877874557" lon="7.691315475242455"><ele>808.0</ele><time>2026-04-25T15:39:08.001Z</time></trkpt><trkpt lat="45.437863025473355" lon="7.691214969542042"><ele>808.0</ele><time>2026-04-25T15:39:10.001Z</time></trkpt><trkpt lat="45.43778931151528" lon="7.691049512059327"><ele>808.0</ele><time>2026-04-25T15:39:12.001Z</time></trkpt><trkpt lat="45.43774982529903" lon="7.690942279409399"><ele>804.2</ele><time>2026-04-25T15:39:13.001Z</time></trkpt><trkpt lat="45.43765113581738" lon="7.690871981684718"><ele>800.4</ele><time>2026-04-25T15:39:14.001Z</time></trkpt><trkpt lat="45.43760274858218" lon="7.690792547172143"><ele>796.6</ele><time>2026-04-25T15:39:15.001Z</time></trkpt><trkpt lat="45.437575693461525" lon="7.690690183245482"><ele>792.8000000000001</ele><time>2026-04-25T15:39:16.001Z</time></trkpt><trkpt lat="45.43749172108875" lon="7.690582450565956"><ele>789.0</ele><time>2026-04-25T15:39:17.001Z</time></trkpt><trkpt lat="45.43742348051643" lon="7.6904453929343015"><ele>789.0</ele><time>2026-04-25T15:39:19.001Z</time></trkpt><trkpt lat="45.43736511082202" lon="7.690360267272893"><ele>789.0</ele><time>2026-04-25T15:39:20.001Z</time></trkpt><trkpt lat="45.43737156522009" lon="7.690222225692941"><ele>789.0</ele><time>2026-04-25T15:39:22.001Z</time></trkpt><trkpt lat="45.437332330222176" lon="7.690095679486963"><ele>789.0</ele><time>2026-04-25T15:39:24.001Z</time></trkpt><trkpt lat="45.4373076123189" lon="7.6899415791422285"><ele>789.0</ele><time>2026-04-25T15:39:27.001Z</time></trkpt><trkpt lat="45.437254826428195" lon="7.6898659507928055"><ele>788.5</ele><time>2026-04-25T15:39:28.001Z</time></trkpt><trkpt lat="45.43715912717185" lon="7.68977363486153"><ele>788.0</ele><time>2026-04-25T15:39:29.001Z</time></trkpt><trkpt lat="45.4370782802924" lon="7.689695528478021"><ele>787.5</ele><time>2026-04-25T15:39:30.001Z</time></trkpt><trkpt lat="45.437015935496035" lon="7.689643020029094"><ele>787.0</ele><time>2026-04-25T15:39:31.001Z</time></trkpt><trkpt lat="45.43695300910506" lon="7.689596797462916"><ele>786.5</ele><time>2026-04-25T15:39:32.001Z</time></trkpt><trkpt lat="45.43696687547118" lon="7.689471932383086"><ele>786.0</ele><time>2026-04-25T15:39:34.001Z</time></trkpt><trkpt lat="45.43691830203865" lon="7.689388958751237"><ele>778.75</ele><time>2026-04-25T15:39:35.001Z</time></trkpt><trkpt lat="45.43683412996588" lon="7.689325601026115"><ele>771.5</ele><time>2026-04-25T15:39:36.001Z</time></trkpt><trkpt lat="45.436749625032995" lon="7.689259268865142"><ele>764.25</ele><time>2026-04-25T15:39:37.001Z</time></trkpt><trkpt lat="45.43659372049366" lon="7.6892278457753624"><ele>757.0</ele><time>2026-04-25T15:39:39.001Z</time></trkpt><trkpt lat="45.43648080264368" lon="7.6892467991077265"><ele>757.0</ele><time>2026-04-25T15:39:40.001Z</time></trkpt><trkpt lat="45.43635116412535" lon="7.689199058056197"><ele>757.0</ele><time>2026-04-25T15:39:41.001Z</time></trkpt><trkpt lat="45.43623280923263" lon="7.68918557112841"><ele>757.0</ele><time>2026-04-25T15:39:42.001Z</time></trkpt><trkpt lat="45.43616918554764" lon="7.689180691644263"><ele>757.0</ele><time>2026-04-25T15:39:43.001Z</time></trkpt><trkpt lat="45.4360784463211" lon="7.689110378265442"><ele>757.0</ele><time>2026-04-25T15:39:44.001Z</time></trkpt><trkpt lat="45.435901298375114" lon="7.689065481586112"><ele>757.2</ele><time>2026-04-25T15:39:46.001Z</time></trkpt><trkpt lat="45.43575388846042" lon="7.689096844955152"><ele>757.4000000000001</ele><time>2026-04-25T15:39:47.001Z</time></trkpt><trkpt lat="45.435667118960005" lon="7.689070459394848"><ele>757.5999999999999</ele><time>2026-04-25T15:39:48.001Z</time></trkpt><trkpt lat="45.43559442454461" lon="7.689008912895408"><ele>757.8</ele><time>2026-04-25T15:39:50.001Z</time></trkpt><trkpt lat="45.43551927957693" lon="7.688973380994849"><ele>758.0</ele><time>2026-04-25T15:39:56.001Z</time></trkpt><trkpt lat="45.435457289085555" lon="7.688951251176472"><ele>758.0</ele><time>2026-04-25T15:40:00.001Z</time></trkpt><trkpt lat="45.43541409587849" lon="7.688833867046603"><ele>758.0</ele><time>2026-04-25T15:40:18.001Z</time></trkpt><trkpt lat="45.435355615160816" lon="7.68877501606854"><ele>758.0</ele><time>2026-04-25T15:40:24.002Z</time></trkpt><trkpt lat="45.43527660458833" lon="7.688746330201293"><ele>758.0</ele><time>2026-04-25T15:40:28.002Z</time></trkpt><trkpt lat="45.43514490018849" lon="7.688727270275681"><ele>758.0</ele><time>2026-04-25T15:40:30.002Z</time></trkpt><trkpt lat="45.43506298861465" lon="7.68867521100029"><ele>758.0</ele><time>2026-04-25T15:40:32.002Z</time></trkpt><trkpt lat="45.434989321901995" lon="7.688661928467693"><ele>758.0</ele><time>2026-04-25T15:40:35.002Z</time></trkpt><trkpt lat="45.434900158681174" lon="7.688605964950736"><ele>758.0</ele><time>2026-04-25T15:40:37.002Z</time></trkpt><trkpt lat="45.43483739945959" lon="7.688589190369807"><ele>758.0</ele><time>2026-04-25T15:40:38.001Z</time></trkpt><trkpt lat="45.43475387713127" lon="7.688575867235282"><ele>758.0</ele><time>2026-04-25T15:40:40.001Z</time></trkpt><trkpt lat="45.43468779818425" lon="7.688498650636112"><ele>758.0</ele><time>2026-04-25T15:40:43.001Z</time></trkpt><trkpt lat="45.434602136045235" lon="7.688452674719301"><ele>751.0</ele><time>2026-04-25T15:40:45.001Z</time></trkpt><trkpt lat="45.43447300693194" lon="7.688428895615088"><ele>744.0</ele><time>2026-04-25T15:40:48.001Z</time></trkpt><trkpt lat="45.43439594162177" lon="7.688427719144079"><ele>737.0</ele><time>2026-04-25T15:40:49.001Z</time></trkpt><trkpt lat="45.43430127299866" lon="7.6883675150658775"><ele>730.0</ele><time>2026-04-25T15:40:51.001Z</time></trkpt><trkpt lat="45.43424029537562" lon="7.688335213952357"><ele>723.0</ele><time>2026-04-25T15:40:52.001Z</time></trkpt><trkpt lat="45.43416676213087" lon="7.6883581154481835"><ele>723.0</ele><time>2026-04-25T15:40:54.001Z</time></trkpt><trkpt lat="45.43408080591411" lon="7.688405963048419"><ele>723.0</ele><time>2026-04-25T15:40:57.001Z</time></trkpt><trkpt lat="45.434005705933274" lon="7.688397458936424"><ele>723.0</ele><time>2026-04-25T15:40:58.001Z</time></trkpt><trkpt lat="45.433932408988454" lon="7.688351932098142"><ele>723.0</ele><time>2026-04-25T15:41:00.001Z</time></trkpt><trkpt lat="45.43387915491097" lon="7.688297907982317"><ele>723.0</ele><time>2026-04-25T15:41:04.001Z</time></trkpt><trkpt lat="45.43379621165823" lon="7.68825369450795"><ele>723.0</ele><time>2026-04-25T15:41:06.001Z</time></trkpt><trkpt lat="45.43373329750602" lon="7.688283918176161"><ele>723.5</ele><time>2026-04-25T15:41:08.001Z</time></trkpt><trkpt lat="45.43367797581582" lon="7.688377558315702"><ele>724.0</ele><time>2026-04-25T15:41:12.001Z</time></trkpt><trkpt lat="45.43362988753548" lon="7.688305266384002"><ele>724.5</ele><time>2026-04-25T15:41:14.001Z</time></trkpt><trkpt lat="45.433540608219964" lon="7.688279357254212"><ele>725.0</ele><time>2026-04-25T15:41:16.001Z</time></trkpt><trkpt lat="45.43349919968925" lon="7.688357107749849"><ele>725.5</ele><time>2026-04-25T15:41:17.001Z</time></trkpt><trkpt lat="45.43343435147967" lon="7.688417793902897"><ele>726.0</ele><time>2026-04-25T15:41:20.001Z</time></trkpt><trkpt lat="45.43334098487796" lon="7.688402430565276"><ele>726.0</ele><time>2026-04-25T15:41:21.001Z</time></trkpt><trkpt lat="45.433249635288924" lon="7.68840185832602"><ele>726.0</ele><time>2026-04-25T15:41:22.001Z</time></trkpt><trkpt lat="45.43317162444396" lon="7.688418541841447"><ele>726.0</ele><time>2026-04-25T15:41:23.001Z</time></trkpt><trkpt lat="45.43198078073596" lon="7.687829191554412"><ele>722.75</ele><time>2026-04-25T15:41:25.001Z</time></trkpt><trkpt lat="45.43177999515035" lon="7.687845219656727"><ele>719.5</ele><time>2026-04-25T15:41:27.001Z</time></trkpt><trkpt lat="45.4316677149709" lon="7.687797659893988"><ele>716.25</ele><time>2026-04-25T15:41:28.001Z</time></trkpt><trkpt lat="45.431549959356836" lon="7.6877729609551455"><ele>713.0</ele><time>2026-04-25T15:41:29.001Z</time></trkpt><trkpt lat="45.4314394913987" lon="7.687765227704898"><ele>709.0</ele><time>2026-04-25T15:41:30.001Z</time></trkpt><trkpt lat="45.43134018140529" lon="7.687759868695728"><ele>705.0</ele><time>2026-04-25T15:41:31.001Z</time></trkpt><trkpt lat="45.431233686736874" lon="7.687779185086026"><ele>701.0</ele><time>2026-04-25T15:41:32.001Z</time></trkpt><trkpt lat="45.43112963655373" lon="7.687786113646256"><ele>697.0</ele><time>2026-04-25T15:41:33.001Z</time></trkpt><trkpt lat="45.43103032298968" lon="7.687810783391053"><ele>693.0</ele><time>2026-04-25T15:41:34.001Z</time></trkpt><trkpt lat="45.430915547283064" lon="7.687842662672017"><ele>693.0</ele><time>2026-04-25T15:41:35.001Z</time></trkpt><trkpt lat="45.430818684688894" lon="7.687894713067979"><ele>693.0</ele><time>2026-04-25T15:41:37.001Z</time></trkpt><trkpt lat="45.43069252060558" lon="7.687895259763815"><ele>693.0</ele><time>2026-04-25T15:42:39.001Z</time></trkpt><trkpt lat="45.43066399464932" lon="7.688005662287777"><ele>693.0</ele><time>2026-04-25T15:43:01.001Z</time></trkpt><trkpt lat="45.4306406799468" lon="7.688101112660409"><ele>693.0</ele><time>2026-04-25T15:43:02.001Z</time></trkpt><trkpt lat="45.430613046147414" lon="7.688191217665037"><ele>693.0</ele><time>2026-04-25T15:43:03.001Z</time></trkpt><trkpt lat="45.430606773094844" lon="7.688284890868666"><ele>693.0</ele><time>2026-04-25T15:43:04.001Z</time></trkpt><trkpt lat="45.43060161958142" lon="7.68840225286335"><ele>693.0</ele><time>2026-04-25T15:43:05.001Z</time></trkpt><trkpt lat="45.43050072019377" lon="7.688389263731543"><ele>693.0</ele><time>2026-04-25T15:43:08.001Z</time></trkpt><trkpt lat="45.43042938795721" lon="7.688391248665612"><ele>693.0</ele><time>2026-04-25T15:43:10.001Z</time></trkpt><trkpt lat="45.43036003548324" lon="7.688438833432079"><ele>693.0</ele><time>2026-04-25T15:43:12.001Z</time></trkpt><trkpt lat="45.430243154431075" lon="7.688313950514003"><ele>689.0</ele><time>2026-04-25T15:43:14.001Z</time></trkpt><trkpt lat="45.43024923813122" lon="7.688159271270959"><ele>685.0</ele><time>2026-04-25T15:43:15.001Z</time></trkpt><trkpt lat="45.430233396835135" lon="7.688007703112779"><ele>681.0</ele><time>2026-04-25T15:43:16.001Z</time></trkpt><trkpt lat="45.43022201764176" lon="7.68783909117346"><ele>677.0</ele><time>2026-04-25T15:43:17.001Z</time></trkpt><trkpt lat="45.430216938605106" lon="7.687678256735464"><ele>673.0</ele><time>2026-04-25T15:43:18.001Z</time></trkpt><trkpt lat="45.43023303813977" lon="7.6875716953447535"><ele>672.8</ele><time>2026-04-25T15:43:19.001Z</time></trkpt><trkpt lat="45.430266325940245" lon="7.68748928995171"><ele>672.5999999999999</ele><time>2026-04-25T15:43:20.001Z</time></trkpt><trkpt lat="45.43031469582478" lon="7.687331578788079"><ele>672.4000000000001</ele><time>2026-04-25T15:43:22.001Z</time></trkpt><trkpt lat="45.430367163410104" lon="7.687212113397893"><ele>672.2</ele><time>2026-04-25T15:43:24.001Z</time></trkpt><trkpt lat="45.43038622531341" lon="7.687116978951539"><ele>672.0</ele><time>2026-04-25T15:43:26.001Z</time></trkpt><trkpt lat="45.430221882795294" lon="7.686951148746031"><ele>670.6</ele><time>2026-04-25T15:43:28.001Z</time></trkpt><trkpt lat="45.43012302685199" lon="7.686894280961358"><ele>669.2</ele><time>2026-04-25T15:43:29.001Z</time></trkpt><trkpt lat="45.43003298963185" lon="7.686864711258234"><ele>667.8</ele><time>2026-04-25T15:43:30.001Z</time></trkpt><trkpt lat="45.429941333831344" lon="7.686854392869111"><ele>666.4</ele><time>2026-04-25T15:43:31.001Z</time></trkpt><trkpt lat="45.429835019788534" lon="7.68688733362531"><ele>665.0</ele><time>2026-04-25T15:43:32.001Z</time></trkpt><trkpt lat="45.429765758836574" lon="7.686917357756927"><ele>663.8</ele><time>2026-04-25T15:43:33.001Z</time></trkpt><trkpt lat="45.429705281370595" lon="7.686944886535384"><ele>662.6</ele><time>2026-04-25T15:43:34.001Z</time></trkpt><trkpt lat="45.42959456383566" lon="7.686984098804411"><ele>661.4000000000001</ele><time>2026-04-25T15:43:36.001Z</time></trkpt><trkpt lat="45.4295049340976" lon="7.687014302533589"><ele>660.2</ele><time>2026-04-25T15:43:37.001Z</time></trkpt><trkpt lat="45.429396118129134" lon="7.687038464572677"><ele>659.0</ele><time>2026-04-25T15:43:38.001Z</time></trkpt><trkpt lat="45.42927728379483" lon="7.687034061999878"><ele>659.0</ele><time>2026-04-25T15:43:39.001Z</time></trkpt><trkpt lat="45.42917357831567" lon="7.687045137190214"><ele>659.0</ele><time>2026-04-25T15:43:40.001Z</time></trkpt><trkpt lat="45.429110105858335" lon="7.687055929056455"><ele>659.0</ele><time>2026-04-25T15:43:41.001Z</time></trkpt><trkpt lat="45.4290722289933" lon="7.687316758691231"><ele>659.0</ele><time>2026-04-25T15:43:45.001Z</time></trkpt><trkpt lat="45.42907215606379" lon="7.68751194717491"><ele>659.0</ele><time>2026-04-25T15:43:46.001Z</time></trkpt><trkpt lat="45.42905878549683" lon="7.687631858575728"><ele>659.0</ele><time>2026-04-25T15:43:47.001Z</time></trkpt><trkpt lat="45.429075677008655" lon="7.687741707669877"><ele>659.0</ele><time>2026-04-25T15:43:48.001Z</time></trkpt><trkpt lat="45.42911254186633" lon="7.687862857494966"><ele>659.0</ele><time>2026-04-25T15:43:49.001Z</time></trkpt><trkpt lat="45.429172819227716" lon="7.687990764345315"><ele>659.0</ele><time>2026-04-25T15:43:50.001Z</time></trkpt><trkpt lat="45.42924433759227" lon="7.688098816600756"><ele>659.0</ele><time>2026-04-25T15:43:51.001Z</time></trkpt><trkpt lat="45.42930571477286" lon="7.688271920759475"><ele>659.0</ele><time>2026-04-25T15:43:52.001Z</time></trkpt><trkpt lat="45.42935514815518" lon="7.6884419382951"><ele>659.0</ele><time>2026-04-25T15:43:53.001Z</time></trkpt><trkpt lat="45.42940420542935" lon="7.688602012958135"><ele>659.0</ele><time>2026-04-25T15:43:54.001Z</time></trkpt><trkpt lat="45.42944373617588" lon="7.688731950458433"><ele>658.2</ele><time>2026-04-25T15:43:55.001Z</time></trkpt><trkpt lat="45.4294764380223" lon="7.688880255167269"><ele>657.4000000000001</ele><time>2026-04-25T15:43:56.001Z</time></trkpt><trkpt lat="45.429494075406595" lon="7.6890142797216035"><ele>656.6</ele><time>2026-04-25T15:43:57.001Z</time></trkpt><trkpt lat="45.429513125514546" lon="7.689157357631089"><ele>655.8</ele><time>2026-04-25T15:43:58.001Z</time></trkpt><trkpt lat="45.42953203554049" lon="7.689289056853972"><ele>655.0</ele><time>2026-04-25T15:43:59.001Z</time></trkpt><trkpt lat="45.429556708617405" lon="7.689402663642191"><ele>655.0</ele><time>2026-04-25T15:44:00.001Z</time></trkpt><trkpt lat="45.42957528186609" lon="7.689510476060191"><ele>655.0</ele><time>2026-04-25T15:44:01.001Z</time></trkpt><trkpt lat="45.42961173980639" lon="7.689587048581747"><ele>655.0</ele><time>2026-04-25T15:44:02.001Z</time></trkpt><trkpt lat="45.42965639139657" lon="7.689685293965837"><ele>655.0</ele><time>2026-04-25T15:44:03.001Z</time></trkpt><trkpt lat="45.429715251247345" lon="7.6897670141671"><ele>655.0</ele><time>2026-04-25T15:44:05.001Z</time></trkpt><trkpt lat="45.42973211028802" lon="7.689926525075319"><ele>655.0</ele><time>2026-04-25T15:44:08.001Z</time></trkpt><trkpt lat="45.42957700421271" lon="7.689979349475585"><ele>653.25</ele><time>2026-04-25T15:44:09.001Z</time></trkpt><trkpt lat="45.429450358083805" lon="7.690049968091063"><ele>651.5</ele><time>2026-04-25T15:44:10.001Z</time></trkpt><trkpt lat="45.42931161267887" lon="7.690112298057412"><ele>649.75</ele><time>2026-04-25T15:44:11.001Z</time></trkpt><trkpt lat="45.42920410038976" lon="7.690152773938691"><ele>648.0</ele><time>2026-04-25T15:44:12.001Z</time></trkpt><trkpt lat="45.429087243574195" lon="7.690193551092576"><ele>648.0</ele><time>2026-04-25T15:44:13.001Z</time></trkpt><trkpt lat="45.42898365135469" lon="7.690216909881829"><ele>648.0</ele><time>2026-04-25T15:44:14.001Z</time></trkpt><trkpt lat="45.42889515612164" lon="7.690211343020077"><ele>648.0</ele><time>2026-04-25T15:44:15.001Z</time></trkpt><trkpt lat="45.428811769173976" lon="7.690183354487159"><ele>648.0</ele><time>2026-04-25T15:44:16.001Z</time></trkpt><trkpt lat="45.428740292749595" lon="7.690147735894829"><ele>648.0</ele><time>2026-04-25T15:44:17.001Z</time></trkpt><trkpt lat="45.42868001122319" lon="7.690113010891565"><ele>648.0</ele><time>2026-04-25T15:44:18.001Z</time></trkpt><trkpt lat="45.428617006831345" lon="7.69007792252193"><ele>646.6666666666666</ele><time>2026-04-25T15:44:19.001Z</time></trkpt><trkpt lat="45.42854330334503" lon="7.6900642773049475"><ele>645.3333333333334</ele><time>2026-04-25T15:44:21.001Z</time></trkpt><trkpt lat="45.42851751601912" lon="7.690180098229493"><ele>644.0</ele><time>2026-04-25T15:44:23.001Z</time></trkpt><trkpt lat="45.42849014533052" lon="7.690295653147649"><ele>642.6666666666667</ele><time>2026-04-25T15:44:24.001Z</time></trkpt><trkpt lat="45.42849930153715" lon="7.6904044268160145"><ele>641.3333333333334</ele><time>2026-04-25T15:44:25.001Z</time></trkpt><trkpt lat="45.42851642289485" lon="7.690550343495754"><ele>640.0</ele><time>2026-04-25T15:44:27.001Z</time></trkpt><trkpt lat="45.42851571509059" lon="7.690679865830137"><ele>639.4</ele><time>2026-04-25T15:44:30.001Z</time></trkpt><trkpt lat="45.428411760148975" lon="7.690759389208965"><ele>638.8</ele><time>2026-04-25T15:44:32.001Z</time></trkpt><trkpt lat="45.428289505989945" lon="7.69076124051913"><ele>638.2</ele><time>2026-04-25T15:44:33.001Z</time></trkpt><trkpt lat="45.42818724402385" lon="7.6907450192751545"><ele>637.6</ele><time>2026-04-25T15:44:34.001Z</time></trkpt><trkpt lat="45.42810360183831" lon="7.6907470891989815"><ele>637.0</ele><time>2026-04-25T15:44:35.001Z</time></trkpt><trkpt lat="45.428029422106114" lon="7.690749662102193"><ele>636.6</ele><time>2026-04-25T15:44:36.001Z</time></trkpt><trkpt lat="45.42795586626272" lon="7.690758880476609"><ele>636.2</ele><time>2026-04-25T15:44:37.001Z</time></trkpt><trkpt lat="45.427871609236796" lon="7.690784437969988"><ele>635.8</ele><time>2026-04-25T15:44:38.001Z</time></trkpt><trkpt lat="45.427784986510325" lon="7.690804269715377"><ele>635.4</ele><time>2026-04-25T15:44:39.001Z</time></trkpt><trkpt lat="45.42767094317742" lon="7.690853127836999"><ele>635.0</ele><time>2026-04-25T15:44:40.001Z</time></trkpt><trkpt lat="45.42752743867582" lon="7.690921051134755"><ele>635.0</ele><time>2026-04-25T15:44:41.001Z</time></trkpt><trkpt lat="45.427393162690784" lon="7.690980041023165"><ele>635.0</ele><time>2026-04-25T15:44:42.001Z</time></trkpt><trkpt lat="45.42728019070548" lon="7.691036377426364"><ele>635.0</ele><time>2026-04-25T15:44:43.001Z</time></trkpt><trkpt lat="45.427184077252804" lon="7.69105109507695"><ele>635.0</ele><time>2026-04-25T15:44:44.001Z</time></trkpt><trkpt lat="45.42710462278325" lon="7.6910851388948025"><ele>635.0</ele><time>2026-04-25T15:44:46.001Z</time></trkpt><trkpt lat="45.42717192206027" lon="7.691376725450826"><ele>634.2</ele><time>2026-04-25T15:44:49.001Z</time></trkpt><trkpt lat="45.42718152761936" lon="7.691483113645343"><ele>633.4</ele><time>2026-04-25T15:44:50.001Z</time></trkpt><trkpt lat="45.427174175815665" lon="7.691585046671962"><ele>632.6</ele><time>2026-04-25T15:44:51.001Z</time></trkpt><trkpt lat="45.42714851940187" lon="7.691715677342993"><ele>631.8</ele><time>2026-04-25T15:44:52.001Z</time></trkpt><trkpt lat="45.42710818984887" lon="7.6918671334929485"><ele>631.0</ele><time>2026-04-25T15:44:53.001Z</time></trkpt><trkpt lat="45.427067015021215" lon="7.692064892217523"><ele>632.6</ele><time>2026-04-25T15:44:54.001Z</time></trkpt><trkpt lat="45.426992101245" lon="7.692255269550403"><ele>634.2</ele><time>2026-04-25T15:44:55.001Z</time></trkpt><trkpt lat="45.42693012419203" lon="7.692389599681412"><ele>635.8</ele><time>2026-04-25T15:44:56.001Z</time></trkpt><trkpt lat="45.42688341854196" lon="7.6925409326370415"><ele>637.4</ele><time>2026-04-25T15:44:58.001Z</time></trkpt><trkpt lat="45.42684468261041" lon="7.692618729319173"><ele>639.0</ele><time>2026-04-25T15:44:59.001Z</time></trkpt><trkpt lat="45.4267921664287" lon="7.692770080348356"><ele>635.6</ele><time>2026-04-25T15:45:01.001Z</time></trkpt><trkpt lat="45.42674063900823" lon="7.692824663465632"><ele>632.2</ele><time>2026-04-25T15:45:02.001Z</time></trkpt><trkpt lat="45.426680519240435" lon="7.692885104190034"><ele>628.8000000000001</ele><time>2026-04-25T15:45:03.001Z</time></trkpt><trkpt lat="45.42659527933148" lon="7.692932742377551"><ele>625.4</ele><time>2026-04-25T15:45:04.001Z</time></trkpt><trkpt lat="45.426473479762635" lon="7.693000423496348"><ele>622.0</ele><time>2026-04-25T15:45:05.001Z</time></trkpt><trkpt lat="45.4263713645918" lon="7.69305789134891"><ele>621.6666666666667</ele><time>2026-04-25T15:45:06.001Z</time></trkpt><trkpt lat="45.42619874173579" lon="7.693142422427031"><ele>621.3333333333334</ele><time>2026-04-25T15:45:07.001Z</time></trkpt><trkpt lat="45.426062159109264" lon="7.693172665780607"><ele>621.0</ele><time>2026-04-25T15:45:08.001Z</time></trkpt><trkpt lat="45.42588231665894" lon="7.693201609670735"><ele>621.0</ele><time>2026-04-25T15:45:09.001Z</time></trkpt><trkpt lat="45.42576428871037" lon="7.6931994106434045"><ele>621.0</ele><time>2026-04-25T15:45:10.001Z</time></trkpt><trkpt lat="45.42565606982019" lon="7.693216810597983"><ele>621.0</ele><time>2026-04-25T15:45:11.001Z</time></trkpt><trkpt lat="45.425526345195735" lon="7.693199224130325"><ele>621.0</ele><time>2026-04-25T15:45:12.001Z</time></trkpt><trkpt lat="45.425454986129104" lon="7.693158821958052"><ele>621.0</ele><time>2026-04-25T15:45:13.001Z</time></trkpt><trkpt lat="45.425370880588794" lon="7.6931630607461825"><ele>619.8</ele><time>2026-04-25T15:45:14.001Z</time></trkpt><trkpt lat="45.42527107283846" lon="7.693188935807444"><ele>618.6</ele><time>2026-04-25T15:45:15.001Z</time></trkpt><trkpt lat="45.425181069170236" lon="7.693225264315154"><ele>617.4</ele><time>2026-04-25T15:45:16.001Z</time></trkpt><trkpt lat="45.425088783244014" lon="7.69326813421241"><ele>616.2</ele><time>2026-04-25T15:45:17.001Z</time></trkpt><trkpt lat="45.425009712628146" lon="7.693321690763585"><ele>615.0</ele><time>2026-04-25T15:45:18.001Z</time></trkpt><trkpt lat="45.424916329780864" lon="7.693440770640714"><ele>615.0</ele><time>2026-04-25T15:45:19.001Z</time></trkpt><trkpt lat="45.424798657422194" lon="7.6935469067799405"><ele>615.0</ele><time>2026-04-25T15:45:20.001Z</time></trkpt><trkpt lat="45.4247422809085" lon="7.693606389982917"><ele>615.0</ele><time>2026-04-25T15:45:21.001Z</time></trkpt><trkpt lat="45.42466573533603" lon="7.693647161288453"><ele>615.0</ele><time>2026-04-25T15:45:22.001Z</time></trkpt><trkpt lat="45.424599122526814" lon="7.693653836490122"><ele>615.0</ele><time>2026-04-25T15:45:23.001Z</time></trkpt><trkpt lat="45.424511617619935" lon="7.6936667584295515"><ele>615.0</ele><time>2026-04-25T15:45:24.001Z</time></trkpt><trkpt lat="45.42443013497465" lon="7.6936544106916"><ele>613.25</ele><time>2026-04-25T15:45:25.001Z</time></trkpt><trkpt lat="45.4243661884534" lon="7.69352584227132"><ele>611.5</ele><time>2026-04-25T15:45:26.001Z</time></trkpt><trkpt lat="45.424280619745886" lon="7.69339074290471"><ele>609.75</ele><time>2026-04-25T15:45:27.001Z</time></trkpt><trkpt lat="45.42416755518681" lon="7.693295326741151"><ele>608.0</ele><time>2026-04-25T15:45:28.001Z</time></trkpt><trkpt lat="45.424047258749795" lon="7.693207074713283"><ele>608.0</ele><time>2026-04-25T15:45:29.001Z</time></trkpt><trkpt lat="45.423933781815826" lon="7.693132411151026"><ele>608.0</ele><time>2026-04-25T15:45:30.001Z</time></trkpt><trkpt lat="45.423840511300924" lon="7.693074301273865"><ele>608.0</ele><time>2026-04-25T15:45:31.001Z</time></trkpt><trkpt lat="45.42371881517181" lon="7.693041201477907"><ele>608.0</ele><time>2026-04-25T15:45:32.001Z</time></trkpt><trkpt lat="45.423616727831345" lon="7.692995150361937"><ele>607.6</ele><time>2026-04-25T15:45:33.001Z</time></trkpt><trkpt lat="45.42354395491847" lon="7.692922899899336"><ele>607.1999999999999</ele><time>2026-04-25T15:45:34.001Z</time></trkpt><trkpt lat="45.423479254469896" lon="7.692803725962074"><ele>606.8</ele><time>2026-04-25T15:45:36.001Z</time></trkpt><trkpt lat="45.423421116638856" lon="7.692746106263306"><ele>606.4</ele><time>2026-04-25T15:45:38.001Z</time></trkpt><trkpt lat="45.423332268824645" lon="7.692842927249364"><ele>606.0</ele><time>2026-04-25T15:45:40.001Z</time></trkpt><trkpt lat="45.42325602381565" lon="7.692926951915724"><ele>601.0</ele><time>2026-04-25T15:45:42.001Z</time></trkpt><trkpt lat="45.42307497132537" lon="7.692918938394939"><ele>596.0</ele><time>2026-04-25T15:45:44.001Z</time></trkpt><trkpt lat="45.42293347370052" lon="7.6928072076125344"><ele>591.0</ele><time>2026-04-25T15:45:45.001Z</time></trkpt><trkpt lat="45.422805385941146" lon="7.6927298435174984"><ele>591.0</ele><time>2026-04-25T15:45:46.001Z</time></trkpt><trkpt lat="45.422664756782595" lon="7.6926289187653145"><ele>591.0</ele><time>2026-04-25T15:45:47.001Z</time></trkpt><trkpt lat="45.42258099368209" lon="7.692575641265751"><ele>591.0</ele><time>2026-04-25T15:45:48.001Z</time></trkpt><trkpt lat="45.422489576349406" lon="7.692511784778359"><ele>591.0</ele><time>2026-04-25T15:45:49.001Z</time></trkpt><trkpt lat="45.42239454189698" lon="7.69241296042022"><ele>591.0</ele><time>2026-04-25T15:45:50.001Z</time></trkpt><trkpt lat="45.422337269990145" lon="7.692347907891798"><ele>591.0</ele><time>2026-04-25T15:45:54.001Z</time></trkpt><trkpt lat="45.42226968950658" lon="7.692292307580741"><ele>591.0</ele><time>2026-04-25T15:45:56.001Z</time></trkpt><trkpt lat="45.42207816870237" lon="7.6919502721503195"><ele>587.3333333333334</ele><time>2026-04-25T15:45:59.001Z</time></trkpt><trkpt lat="45.42202668523066" lon="7.691647379301265"><ele>583.6666666666667</ele><time>2026-04-25T15:46:00.001Z</time></trkpt><trkpt lat="45.42204223453344" lon="7.691407724136637"><ele>580.0</ele><time>2026-04-25T15:46:01.001Z</time></trkpt><trkpt lat="45.42200272701909" lon="7.691253424227632"><ele>580.0</ele><time>2026-04-25T15:46:02.001Z</time></trkpt><trkpt lat="45.421929243431784" lon="7.6911419616098025"><ele>580.0</ele><time>2026-04-25T15:46:03.001Z</time></trkpt><trkpt lat="45.42185772176094" lon="7.69119024389228"><ele>580.0</ele><time>2026-04-25T15:46:04.001Z</time></trkpt><trkpt lat="45.42181486716999" lon="7.691056613533487"><ele>580.0</ele><time>2026-04-25T15:46:05.001Z</time></trkpt><trkpt lat="45.42174904908979" lon="7.690916447249742"><ele>580.0</ele><time>2026-04-25T15:46:06.001Z</time></trkpt><trkpt lat="45.42166327459758" lon="7.690853087760902"><ele>580.75</ele><time>2026-04-25T15:46:07.001Z</time></trkpt><trkpt lat="45.42160198025019" lon="7.690734350382302"><ele>581.5</ele><time>2026-04-25T15:46:08.001Z</time></trkpt><trkpt lat="45.42148084818936" lon="7.690604755155204"><ele>582.25</ele><time>2026-04-25T15:46:09.001Z</time></trkpt><trkpt lat="45.42135313988752" lon="7.690547925629542"><ele>583.0</ele><time>2026-04-25T15:46:10.001Z</time></trkpt><trkpt lat="45.42127111063148" lon="7.690467187706341"><ele>580.6666666666667</ele><time>2026-04-25T15:46:11.001Z</time></trkpt><trkpt lat="45.421208381077776" lon="7.690419744136801"><ele>578.3333333333334</ele><time>2026-04-25T15:46:12.001Z</time></trkpt><trkpt lat="45.42116772393166" lon="7.690340566307067"><ele>576.0</ele><time>2026-04-25T15:46:13.001Z</time></trkpt><trkpt lat="45.421173087041396" lon="7.690243900109801"><ele>573.6666666666666</ele><time>2026-04-25T15:46:14.001Z</time></trkpt><trkpt lat="45.42116311512592" lon="7.690101854661713"><ele>571.3333333333333</ele><time>2026-04-25T15:46:16.001Z</time></trkpt><trkpt lat="45.42121106371951" lon="7.689970794352936"><ele>569.0</ele><time>2026-04-25T15:46:18.001Z</time></trkpt><trkpt lat="45.42124252154259" lon="7.689880458104232"><ele>567.25</ele><time>2026-04-25T15:46:19.001Z</time></trkpt><trkpt lat="45.42132017998027" lon="7.689778521095302"><ele>565.5</ele><time>2026-04-25T15:46:20.001Z</time></trkpt><trkpt lat="45.42137221107915" lon="7.689540482228124"><ele>563.75</ele><time>2026-04-25T15:46:22.001Z</time></trkpt><trkpt lat="45.42132752445982" lon="7.689624800057828"><ele>562.0</ele><time>2026-04-25T15:46:27.001Z</time></trkpt><trkpt lat="45.42126650944127" lon="7.689767699408833"><ele>562.0</ele><time>2026-04-25T15:46:28.001Z</time></trkpt><trkpt lat="45.421212556233506" lon="7.689685739108661"><ele>562.0</ele><time>2026-04-25T15:46:29.001Z</time></trkpt><trkpt lat="45.42114133939591" lon="7.689663450543582"><ele>562.0</ele><time>2026-04-25T15:46:30.001Z</time></trkpt><trkpt lat="45.42103629931012" lon="7.689657082473321"><ele>562.0</ele><time>2026-04-25T15:46:32.001Z</time></trkpt><trkpt lat="45.420552289657" lon="7.6893996192210885"><ele>563.25</ele><time>2026-04-25T15:46:34.001Z</time></trkpt><trkpt lat="45.42043511433072" lon="7.689367962548816"><ele>564.5</ele><time>2026-04-25T15:46:35.001Z</time></trkpt><trkpt lat="45.420334377045194" lon="7.6892575463605075"><ele>565.75</ele><time>2026-04-25T15:46:36.001Z</time></trkpt><trkpt lat="45.4202118458612" lon="7.6892219036888125"><ele>567.0</ele><time>2026-04-25T15:46:37.001Z</time></trkpt><trkpt lat="45.42015352079678" lon="7.689144701430778"><ele>567.0</ele><time>2026-04-25T15:46:38.001Z</time></trkpt><trkpt lat="45.41999975293038" lon="7.689076232993665"><ele>567.0</ele><time>2026-04-25T15:46:39.001Z</time></trkpt><trkpt lat="45.41988904422213" lon="7.689070919029445"><ele>567.0</ele><time>2026-04-25T15:46:40.001Z</time></trkpt><trkpt lat="45.41978116124937" lon="7.689042698333957"><ele>567.0</ele><time>2026-04-25T15:46:41.001Z</time></trkpt><trkpt lat="45.41971622827065" lon="7.689097306730012"><ele>567.0</ele><time>2026-04-25T15:46:42.001Z</time></trkpt><trkpt lat="45.41966029950765" lon="7.689002930922545"><ele>567.0</ele><time>2026-04-25T15:46:45.001Z</time></trkpt><trkpt lat="45.41961725382809" lon="7.688922295835034"><ele>567.0</ele><time>2026-04-25T15:46:46.001Z</time></trkpt><trkpt lat="45.41956757731633" lon="7.6888241186684185"><ele>567.0</ele><time>2026-04-25T15:46:47.001Z</time></trkpt><trkpt lat="45.4195254788284" lon="7.688543499166695"><ele>567.0</ele><time>2026-04-25T15:46:48.001Z</time></trkpt><trkpt lat="45.4194772833511" lon="7.6883021153476125"><ele>565.0</ele><time>2026-04-25T15:46:49.001Z</time></trkpt><trkpt lat="45.419432411313295" lon="7.688128870760103"><ele>563.0</ele><time>2026-04-25T15:46:50.001Z</time></trkpt><trkpt lat="45.419391415362234" lon="7.687980503210103"><ele>561.0</ele><time>2026-04-25T15:46:51.001Z</time></trkpt><trkpt lat="45.4192648839232" lon="7.687881117038732"><ele>559.0</ele><time>2026-04-25T15:46:53.001Z</time></trkpt><trkpt lat="45.4192137078694" lon="7.6876894608901845"><ele>559.0</ele><time>2026-04-25T15:46:54.001Z</time></trkpt><trkpt lat="45.419157517707276" lon="7.687533985025751"><ele>559.0</ele><time>2026-04-25T15:46:55.001Z</time></trkpt><trkpt lat="45.41913623776937" lon="7.687443791303584"><ele>559.0</ele><time>2026-04-25T15:46:56.001Z</time></trkpt><trkpt lat="45.41899847418118" lon="7.68734416928813"><ele>559.0</ele><time>2026-04-25T15:46:58.001Z</time></trkpt><trkpt lat="45.418927559742066" lon="7.687186618561653"><ele>559.0</ele><time>2026-04-25T15:46:59.001Z</time></trkpt><trkpt lat="45.418852506957485" lon="7.687062042153326"><ele>559.0</ele><time>2026-04-25T15:47:00.001Z</time></trkpt><trkpt lat="45.418781031231546" lon="7.686959551439248"><ele>559.0</ele><time>2026-04-25T15:47:01.001Z</time></trkpt><trkpt lat="45.41872341293459" lon="7.686923240225601"><ele>559.0</ele><time>2026-04-25T15:47:02.001Z</time></trkpt><trkpt lat="45.41868432043567" lon="7.68684435100683"><ele>559.0</ele><time>2026-04-25T15:47:03.001Z</time></trkpt><trkpt lat="45.41865877648718" lon="7.686748377726562"><ele>559.0</ele><time>2026-04-25T15:47:04.001Z</time></trkpt><trkpt lat="45.418623011863325" lon="7.686665907318195"><ele>557.8333333333334</ele><time>2026-04-25T15:47:05.001Z</time></trkpt><trkpt lat="45.418581333637675" lon="7.686573447529274"><ele>556.6666666666667</ele><time>2026-04-25T15:47:06.001Z</time></trkpt><trkpt lat="45.41852483230758" lon="7.686506336971077"><ele>555.5</ele><time>2026-04-25T15:47:07.001Z</time></trkpt><trkpt lat="45.41845966401253" lon="7.686456881755334"><ele>554.3333333333334</ele><time>2026-04-25T15:47:08.001Z</time></trkpt><trkpt lat="45.41838368786303" lon="7.686376769626017"><ele>553.1666666666666</ele><time>2026-04-25T15:47:10.001Z</time></trkpt><trkpt lat="45.41831393503619" lon="7.686334575528654"><ele>552.0</ele><time>2026-04-25T15:47:12Z</time></trkpt><trkpt lat="45.418228893198574" lon="7.686269710589884"><ele>552.0</ele><time>2026-04-25T15:47:14Z</time></trkpt><trkpt lat="45.41814230769412" lon="7.6863466372948235"><ele>552.0</ele><time>2026-04-25T15:47:16Z</time></trkpt><trkpt lat="45.41806286504293" lon="7.686417098097787"><ele>552.0</ele><time>2026-04-25T15:47:17Z</time></trkpt><trkpt lat="45.41795487001134" lon="7.686494311159216"><ele>552.0</ele><time>2026-04-25T15:47:19Z</time></trkpt><trkpt lat="45.41787065069907" lon="7.686569236109661"><ele>552.0</ele><time>2026-04-25T15:47:21Z</time></trkpt><trkpt lat="45.41790302186846" lon="7.6864555223815"><ele>552.0</ele><time>2026-04-25T15:47:30Z</time></trkpt><trkpt lat="45.41797054147311" lon="7.686333380359465"><ele>552.0</ele><time>2026-04-25T15:47:32Z</time></trkpt><trkpt lat="45.41803993738737" lon="7.68627031696082"><ele>552.0</ele><time>2026-04-25T15:47:33Z</time></trkpt><trkpt lat="45.418108552895085" lon="7.686197942541616"><ele>552.0</ele><time>2026-04-25T15:47:34Z</time></trkpt><trkpt lat="45.418189812131494" lon="7.68615288377357"><ele>552.0</ele><time>2026-04-25T15:47:35Z</time></trkpt><trkpt lat="45.41829400434783" lon="7.68607451913054"><ele>549.8000000000001</ele><time>2026-04-25T15:47:37Z</time></trkpt><trkpt lat="45.418355408923645" lon="7.685993576742667"><ele>547.6</ele><time>2026-04-25T15:47:38Z</time></trkpt><trkpt lat="45.4184288385358" lon="7.68587504851727"><ele>545.4000000000001</ele><time>2026-04-25T15:47:39Z</time></trkpt><trkpt lat="45.418529050442764" lon="7.685754931917967"><ele>543.2</ele><time>2026-04-25T15:47:40Z</time></trkpt><trkpt lat="45.41861189204143" lon="7.685654817454506"><ele>541.0</ele><time>2026-04-25T15:47:41Z</time></trkpt><trkpt lat="45.41867978455853" lon="7.685563120986202"><ele>541.0</ele><time>2026-04-25T15:47:42Z</time></trkpt><trkpt lat="45.418727098245576" lon="7.6854700427936695"><ele>541.0</ele><time>2026-04-25T15:47:43Z</time></trkpt><trkpt lat="45.418758878693154" lon="7.685360446908105"><ele>541.0</ele><time>2026-04-25T15:47:44Z</time></trkpt><trkpt lat="45.41878565866116" lon="7.685208831084796"><ele>541.0</ele><time>2026-04-25T15:47:45Z</time></trkpt><trkpt lat="45.41880002986669" lon="7.685080383780381"><ele>541.0</ele><time>2026-04-25T15:47:46Z</time></trkpt><trkpt lat="45.41882472331582" lon="7.684948459381739"><ele>541.4</ele><time>2026-04-25T15:47:47Z</time></trkpt><trkpt lat="45.41884601341873" lon="7.68480850695776"><ele>541.8</ele><time>2026-04-25T15:47:48Z</time></trkpt><trkpt lat="45.4188676260608" lon="7.684670757869597"><ele>542.1999999999999</ele><time>2026-04-25T15:47:49Z</time></trkpt><trkpt lat="45.4189018380029" lon="7.684520998132879"><ele>542.6</ele><time>2026-04-25T15:47:50Z</time></trkpt><trkpt lat="45.41894092412372" lon="7.684399668359285"><ele>543.0</ele><time>2026-04-25T15:47:51Z</time></trkpt><trkpt lat="45.41900621436766" lon="7.6843072838125694"><ele>543.0</ele><time>2026-04-25T15:47:52Z</time></trkpt><trkpt lat="45.41906943730593" lon="7.684236063317235"><ele>543.0</ele><time>2026-04-25T15:47:53Z</time></trkpt><trkpt lat="45.41916287591167" lon="7.6841757574128025"><ele>543.0</ele><time>2026-04-25T15:47:54Z</time></trkpt><trkpt lat="45.4192506840687" lon="7.684162161960834"><ele>543.0</ele><time>2026-04-25T15:47:55Z</time></trkpt><trkpt lat="45.41927389476496" lon="7.683944853101201"><ele>543.0</ele><time>2026-04-25T15:47:57Z</time></trkpt><trkpt lat="45.41927218164156" lon="7.6838118073728126"><ele>543.0</ele><time>2026-04-25T15:47:59Z</time></trkpt><trkpt lat="45.41910942004255" lon="7.683731054088747"><ele>543.0</ele><time>2026-04-25T15:48:02Z</time></trkpt><trkpt lat="45.41899102898527" lon="7.683752107209422"><ele>543.0</ele><time>2026-04-25T15:48:03Z</time></trkpt><trkpt lat="45.41887361295189" lon="7.6837741048121755"><ele>543.0</ele><time>2026-04-25T15:48:04Z</time></trkpt><trkpt lat="45.4187844331441" lon="7.683827631443889"><ele>541.4</ele><time>2026-04-25T15:48:05Z</time></trkpt><trkpt lat="45.4187057948297" lon="7.683851709863024"><ele>539.8</ele><time>2026-04-25T15:48:06Z</time></trkpt><trkpt lat="45.41864169247682" lon="7.683878405229755"><ele>538.2</ele><time>2026-04-25T15:48:07Z</time></trkpt><trkpt lat="45.41852289167693" lon="7.683867538029544"><ele>536.6</ele><time>2026-04-25T15:48:08Z</time></trkpt><trkpt lat="45.41839222199284" lon="7.6838707271814375"><ele>535.0</ele><time>2026-04-25T15:48:09Z</time></trkpt><trkpt lat="45.41829705937758" lon="7.683867386500045"><ele>535.0</ele><time>2026-04-25T15:48:10Z</time></trkpt><trkpt lat="45.41823016006515" lon="7.6838599526983185"><ele>535.0</ele><time>2026-04-25T15:48:11Z</time></trkpt><trkpt lat="45.41820395370455" lon="7.683753727735455"><ele>535.0</ele><time>2026-04-25T15:48:13Z</time></trkpt><trkpt lat="45.418194200211545" lon="7.683617453960022"><ele>535.0</ele><time>2026-04-25T15:48:14Z</time></trkpt><trkpt lat="45.41818224389856" lon="7.683422384715976"><ele>535.0</ele><time>2026-04-25T15:48:15Z</time></trkpt><trkpt lat="45.41816224850981" lon="7.683230032640882"><ele>535.6</ele><time>2026-04-25T15:48:16Z</time></trkpt><trkpt lat="45.41813813787721" lon="7.683047770703957"><ele>536.2</ele><time>2026-04-25T15:48:17Z</time></trkpt><trkpt lat="45.41809115742523" lon="7.682911947108942"><ele>536.8</ele><time>2026-04-25T15:48:18Z</time></trkpt><trkpt lat="45.418039522976535" lon="7.6827797733660805"><ele>537.4</ele><time>2026-04-25T15:48:19Z</time></trkpt><trkpt lat="45.41800529349296" lon="7.682698633684503"><ele>538.0</ele><time>2026-04-25T15:48:20Z</time></trkpt><trkpt lat="45.417873661633095" lon="7.682655297144458"><ele>538.0</ele><time>2026-04-25T15:48:22Z</time></trkpt><trkpt lat="45.41775639105328" lon="7.682656384542639"><ele>538.0</ele><time>2026-04-25T15:48:23Z</time></trkpt><trkpt lat="45.417625028425455" lon="7.682617403874448"><ele>538.0</ele><time>2026-04-25T15:48:24Z</time></trkpt><trkpt lat="45.41752270637075" lon="7.682555798337746"><ele>538.0</ele><time>2026-04-25T15:48:25Z</time></trkpt><trkpt lat="45.417432023141245" lon="7.682486632922191"><ele>538.0</ele><time>2026-04-25T15:48:26Z</time></trkpt><trkpt lat="45.41734182977243" lon="7.682440020812575"><ele>538.0</ele><time>2026-04-25T15:48:27Z</time></trkpt><trkpt lat="45.41723567890314" lon="7.68238771234233"><ele>538.0</ele><time>2026-04-25T15:48:28Z</time></trkpt><trkpt lat="45.41711984296756" lon="7.682327962866819"><ele>538.0</ele><time>2026-04-25T15:48:29Z</time></trkpt><trkpt lat="45.417032938148665" lon="7.682267251695097"><ele>538.0</ele><time>2026-04-25T15:48:30Z</time></trkpt><trkpt lat="45.416961912483835" lon="7.682188967023347"><ele>536.4</ele><time>2026-04-25T15:48:31Z</time></trkpt><trkpt lat="45.41689788184906" lon="7.682127459120841"><ele>534.8</ele><time>2026-04-25T15:48:32Z</time></trkpt><trkpt lat="45.41681461415295" lon="7.682102862057411"><ele>533.2</ele><time>2026-04-25T15:48:33Z</time></trkpt><trkpt lat="45.41669282088457" lon="7.6821069622755065"><ele>531.6</ele><time>2026-04-25T15:48:34Z</time></trkpt><trkpt lat="45.41656095453894" lon="7.682082572492594"><ele>530.0</ele><time>2026-04-25T15:48:35Z</time></trkpt><trkpt lat="45.416451637138096" lon="7.68205247730152"><ele>530.0</ele><time>2026-04-25T15:48:36Z</time></trkpt><trkpt lat="45.41636380720619" lon="7.68204302546277"><ele>530.0</ele><time>2026-04-25T15:48:37Z</time></trkpt><trkpt lat="45.41628769450648" lon="7.682012789759838"><ele>530.0</ele><time>2026-04-25T15:48:38Z</time></trkpt><trkpt lat="45.41623836208272" lon="7.681946934340442"><ele>530.0</ele><time>2026-04-25T15:48:39Z</time></trkpt><trkpt lat="45.416232984275204" lon="7.681805467782846"><ele>530.0</ele><time>2026-04-25T15:48:41Z</time></trkpt><trkpt lat="45.41625312881526" lon="7.6816839173914335"><ele>530.0</ele><time>2026-04-25T15:48:42Z</time></trkpt><trkpt lat="45.41628361612463" lon="7.681559112636125"><ele>530.6</ele><time>2026-04-25T15:48:43Z</time></trkpt><trkpt lat="45.416299015255845" lon="7.681427329496171"><ele>531.2</ele><time>2026-04-25T15:48:44Z</time></trkpt><trkpt lat="45.41630857710452" lon="7.681277998615419"><ele>531.8</ele><time>2026-04-25T15:48:45Z</time></trkpt><trkpt lat="45.416318870289075" lon="7.681114356080099"><ele>532.4</ele><time>2026-04-25T15:48:46Z</time></trkpt><trkpt lat="45.41632019107019" lon="7.680986941583936"><ele>533.0</ele><time>2026-04-25T15:48:47Z</time></trkpt><trkpt lat="45.41629241633137" lon="7.680860870794284"><ele>531.6</ele><time>2026-04-25T15:48:48Z</time></trkpt><trkpt lat="45.41625253737555" lon="7.68073533825161"><ele>530.1999999999999</ele><time>2026-04-25T15:48:49Z</time></trkpt><trkpt lat="45.416190345369586" lon="7.680661456501404"><ele>528.8</ele><time>2026-04-25T15:48:50Z</time></trkpt><trkpt lat="45.41612236915548" lon="7.680630502514326"><ele>527.4</ele><time>2026-04-25T15:48:51Z</time></trkpt><trkpt lat="45.416033116556264" lon="7.680589802613305"><ele>526.0</ele><time>2026-04-25T15:48:52Z</time></trkpt><trkpt lat="45.41592426082287" lon="7.680558791423129"><ele>526.0</ele><time>2026-04-25T15:48:53Z</time></trkpt><trkpt lat="45.41582841745121" lon="7.680494764260004"><ele>526.0</ele><time>2026-04-25T15:48:54Z</time></trkpt><trkpt lat="45.41573661804299" lon="7.680383643144397"><ele>526.0</ele><time>2026-04-25T15:48:55Z</time></trkpt><trkpt lat="45.41565302755947" lon="7.680286388282824"><ele>526.0</ele><time>2026-04-25T15:48:56Z</time></trkpt><trkpt lat="45.41557592267238" lon="7.6802292764572035"><ele>526.0</ele><time>2026-04-25T15:48:57Z</time></trkpt><trkpt lat="45.41550201268578" lon="7.680189475925756"><ele>524.6</ele><time>2026-04-25T15:48:58Z</time></trkpt><trkpt lat="45.415420560823065" lon="7.680174460635511"><ele>523.2</ele><time>2026-04-25T15:48:59Z</time></trkpt><trkpt lat="45.41531974646136" lon="7.680168132531933"><ele>521.8</ele><time>2026-04-25T15:49:00Z</time></trkpt><trkpt lat="45.41524932132395" lon="7.680123476438209"><ele>520.4</ele><time>2026-04-25T15:49:01Z</time></trkpt><trkpt lat="45.41517417647624" lon="7.679977763285707"><ele>519.0</ele><time>2026-04-25T15:49:03Z</time></trkpt><trkpt lat="45.41504190912614" lon="7.680011564661161"><ele>519.0</ele><time>2026-04-25T15:49:05Z</time></trkpt><trkpt lat="45.4149635577046" lon="7.680050311187319"><ele>519.0</ele><time>2026-04-25T15:49:06Z</time></trkpt><trkpt lat="45.41488111521327" lon="7.6800378158899605"><ele>519.0</ele><time>2026-04-25T15:49:07Z</time></trkpt><trkpt lat="45.41481217767264" lon="7.67998831097866"><ele>519.0</ele><time>2026-04-25T15:49:08Z</time></trkpt><trkpt lat="45.4147600545423" lon="7.679909002508326"><ele>519.0</ele><time>2026-04-25T15:49:09Z</time></trkpt><trkpt lat="45.41469986641706" lon="7.679790639521978"><ele>519.0</ele><time>2026-04-25T15:49:10Z</time></trkpt><trkpt lat="45.41465282104931" lon="7.679637744911924"><ele>517.0</ele><time>2026-04-25T15:49:11Z</time></trkpt><trkpt lat="45.41459420920128" lon="7.679510815650906"><ele>515.0</ele><time>2026-04-25T15:49:12Z</time></trkpt><trkpt lat="45.41452064791367" lon="7.679370414995983"><ele>513.0</ele><time>2026-04-25T15:49:13Z</time></trkpt><trkpt lat="45.41444547887348" lon="7.679219430845939"><ele>511.0</ele><time>2026-04-25T15:49:14Z</time></trkpt><trkpt lat="45.41437194765522" lon="7.679029360159413"><ele>511.0</ele><time>2026-04-25T15:49:15Z</time></trkpt><trkpt lat="45.41430285903348" lon="7.678954879052033"><ele>511.0</ele><time>2026-04-25T15:49:16Z</time></trkpt><trkpt lat="45.41421566228952" lon="7.678842382187232"><ele>511.0</ele><time>2026-04-25T15:49:17Z</time></trkpt><trkpt lat="45.41410871660668" lon="7.678710453425961"><ele>511.0</ele><time>2026-04-25T15:49:18Z</time></trkpt><trkpt lat="45.414021272443264" lon="7.678558819986834"><ele>510.4</ele><time>2026-04-25T15:49:19Z</time></trkpt><trkpt lat="45.41393388110379" lon="7.678438442564808"><ele>509.8</ele><time>2026-04-25T15:49:20Z</time></trkpt><trkpt lat="45.413864413861496" lon="7.67838638416979"><ele>509.19999999999993</ele><time>2026-04-25T15:49:21Z</time></trkpt><trkpt lat="45.41376695106308" lon="7.678323833956642"><ele>508.59999999999997</ele><time>2026-04-25T15:49:22Z</time></trkpt><trkpt lat="45.41363502063899" lon="7.6782546138045795"><ele>508.0</ele><time>2026-04-25T15:49:23Z</time></trkpt><trkpt lat="45.413535433355385" lon="7.678228331179103"><ele>508.0</ele><time>2026-04-25T15:49:24Z</time></trkpt><trkpt lat="45.41346419920005" lon="7.678209590904708"><ele>507.99999999999994</ele><time>2026-04-25T15:49:25Z</time></trkpt><trkpt lat="45.41334654796243" lon="7.678193624765593"><ele>507.99999999999994</ele><time>2026-04-25T15:49:26Z</time></trkpt><trkpt lat="45.41321365067022" lon="7.678228285695455"><ele>508.0</ele><time>2026-04-25T15:49:27Z</time></trkpt><trkpt lat="45.41312057553218" lon="7.678235126681058"><ele>508.0</ele><time>2026-04-25T15:49:28Z</time></trkpt><trkpt lat="45.41303091015978" lon="7.67813311281216"><ele>507.25</ele><time>2026-04-25T15:49:29Z</time></trkpt><trkpt lat="45.412958608297984" lon="7.67805702548471"><ele>506.5</ele><time>2026-04-25T15:49:30Z</time></trkpt><trkpt lat="45.41286400932395" lon="7.677989000443119"><ele>505.75</ele><time>2026-04-25T15:49:31Z</time></trkpt><trkpt lat="45.412777780432435" lon="7.677843444298365"><ele>505.0</ele><time>2026-04-25T15:49:32Z</time></trkpt><trkpt lat="45.41269298988936" lon="7.677681363947895"><ele>505.0</ele><time>2026-04-25T15:49:33Z</time></trkpt><trkpt lat="45.41261234652682" lon="7.677545622971912"><ele>505.0</ele><time>2026-04-25T15:49:34Z</time></trkpt><trkpt lat="45.41254820491917" lon="7.67744701528441"><ele>505.0</ele><time>2026-04-25T15:49:35Z</time></trkpt><trkpt lat="45.41246156204644" lon="7.677369088217315"><ele>505.0</ele><time>2026-04-25T15:49:36Z</time></trkpt><trkpt lat="45.412357856024414" lon="7.677256232030955"><ele>505.00000000000006</ele><time>2026-04-25T15:49:37Z</time></trkpt><trkpt lat="45.412284869553446" lon="7.677164979282957"><ele>505.0</ele><time>2026-04-25T15:49:38Z</time></trkpt><trkpt lat="45.41222649591768" lon="7.677067075952688"><ele>505.0</ele><time>2026-04-25T15:49:40Z</time></trkpt><trkpt lat="45.41228256537955" lon="7.677000588306998"><ele>505.0</ele><time>2026-04-25T15:49:42Z</time></trkpt><trkpt lat="45.412386797577376" lon="7.676980113656897"><ele>505.00000000000006</ele><time>2026-04-25T15:49:44Z</time></trkpt><trkpt lat="45.41245955693664" lon="7.676992613582835"><ele>505.0</ele><time>2026-04-25T15:49:45Z</time></trkpt><trkpt lat="45.41255112775633" lon="7.677005452083117"><ele>505.0</ele><time>2026-04-25T15:49:48Z</time></trkpt><trkpt lat="45.41268885159271" lon="7.6770138624981525"><ele>505.0</ele><time>2026-04-25T15:49:50Z</time></trkpt><trkpt lat="45.41279167266205" lon="7.676966054069035"><ele>505.0</ele><time>2026-04-25T15:49:51Z</time></trkpt><trkpt lat="45.41292154550641" lon="7.676914214651225"><ele>505.0</ele><time>2026-04-25T15:49:53Z</time></trkpt><trkpt lat="45.41301162575952" lon="7.676872316907369"><ele>505.33333333333337</ele><time>2026-04-25T15:49:54Z</time></trkpt><trkpt lat="45.41310701246413" lon="7.676854172975127"><ele>505.6666666666667</ele><time>2026-04-25T15:49:55Z</time></trkpt><trkpt lat="45.41320474575652" lon="7.676833860136111"><ele>506.0</ele><time>2026-04-25T15:49:56Z</time></trkpt><trkpt lat="45.413280198596446" lon="7.676823014953681"><ele>506.33333333333337</ele><time>2026-04-25T15:49:57Z</time></trkpt><trkpt lat="45.413267795967464" lon="7.676692284442811"><ele>506.6666666666667</ele><time>2026-04-25T15:50:01Z</time></trkpt><trkpt lat="45.41319898952441" lon="7.676663627271639"><ele>507.0</ele><time>2026-04-25T15:50:08Z</time></trkpt><trkpt lat="45.413131494390456" lon="7.676616844703683"><ele>507.0</ele><time>2026-04-25T15:50:10Z</time></trkpt><trkpt lat="45.413081254766446" lon="7.676547039421543"><ele>507.0</ele><time>2026-04-25T15:50:11Z</time></trkpt><trkpt lat="45.4130276759353" lon="7.6764466350317235"><ele>507.0</ele><time>2026-04-25T15:50:13Z</time></trkpt><trkpt lat="45.412935530381226" lon="7.676423377693295"><ele>507.0</ele><time>2026-04-25T15:50:16Z</time></trkpt><trkpt lat="45.412844699873375" lon="7.676388389339494"><ele>507.0</ele><time>2026-04-25T15:50:19Z</time></trkpt><trkpt lat="45.41275121008431" lon="7.676353479240979"><ele>507.0</ele><time>2026-04-25T15:50:21Z</time></trkpt><trkpt lat="45.412686214770886" lon="7.6763486776481065"><ele>506.85714285714283</ele><time>2026-04-25T15:50:23Z</time></trkpt><trkpt lat="45.41264201399904" lon="7.676259891526126"><ele>506.7142857142858</ele><time>2026-04-25T15:50:34Z</time></trkpt><trkpt lat="45.41257843047423" lon="7.676228746769804"><ele>506.5714285714286</ele><time>2026-04-25T15:50:40Z</time></trkpt><trkpt lat="45.4125450982266" lon="7.676151894901265"><ele>506.42857142857144</ele><time>2026-04-25T15:50:43Z</time></trkpt><trkpt lat="45.41248197164793" lon="7.67608374611584"><ele>506.28571428571433</ele><time>2026-04-25T15:50:48Z</time></trkpt><trkpt lat="45.41244455702957" lon="7.675965988279586"><ele>506.1428571428572</ele><time>2026-04-25T15:50:51Z</time></trkpt><trkpt lat="45.41239907660558" lon="7.675895667559259"><ele>506.00000000000006</ele><time>2026-04-25T15:50:52Z</time></trkpt><trkpt lat="45.41234541748351" lon="7.675778401254954"><ele>504.8571428571429</ele><time>2026-04-25T15:50:56Z</time></trkpt><trkpt lat="45.41231173725672" lon="7.675683983570449"><ele>503.7142857142857</ele><time>2026-04-25T15:50:58Z</time></trkpt><trkpt lat="45.41224906592685" lon="7.675607676431711"><ele>502.57142857142856</ele><time>2026-04-25T15:51:01Z</time></trkpt><trkpt lat="45.41219174894909" lon="7.675552007453484"><ele>501.42857142857144</ele><time>2026-04-25T15:51:03Z</time></trkpt><trkpt lat="45.4121226733313" lon="7.6755579216278935"><ele>500.2857142857142</ele><time>2026-04-25T15:51:05Z</time></trkpt><trkpt lat="45.412051687026505" lon="7.675543305904079"><ele>499.1428571428571</ele><time>2026-04-25T15:51:08Z</time></trkpt><trkpt lat="45.41198094274908" lon="7.675545213260092"><ele>498.0</ele><time>2026-04-25T15:51:12Z</time></trkpt><trkpt lat="45.41187748919273" lon="7.675545112033978"><ele>497.59999999999997</ele><time>2026-04-25T15:51:14Z</time></trkpt><trkpt lat="45.41177180706994" lon="7.675599422668016"><ele>497.19999999999993</ele><time>2026-04-25T15:51:16Z</time></trkpt><trkpt lat="45.41168873098177" lon="7.675677041133986"><ele>496.8</ele><time>2026-04-25T15:51:18Z</time></trkpt><trkpt lat="45.411585221886305" lon="7.675630820364205"><ele>496.4</ele><time>2026-04-25T15:51:20Z</time></trkpt><trkpt lat="45.41150034623059" lon="7.67560374745156"><ele>496.0</ele><time>2026-04-25T15:51:22Z</time></trkpt><trkpt lat="45.41143706744026" lon="7.675512300700262"><ele>496.0</ele><time>2026-04-25T15:51:26Z</time></trkpt><trkpt lat="45.41135697028428" lon="7.675483634975972"><ele>496.0</ele><time>2026-04-25T15:51:33Z</time></trkpt><trkpt lat="45.41128190332562" lon="7.675489838507137"><ele>496.0</ele><time>2026-04-25T15:51:40Z</time></trkpt><trkpt lat="45.41118582123497" lon="7.675493076464202"><ele>496.0</ele><time>2026-04-25T15:51:42Z</time></trkpt><trkpt lat="45.411114456031626" lon="7.675452177623781"><ele>496.0</ele><time>2026-04-25T15:51:44Z</time></trkpt><trkpt lat="45.41087145680783" lon="7.6749969778112135"><ele>493.75</ele><time>2026-04-25T15:51:47Z</time></trkpt><trkpt lat="45.41078771197881" lon="7.6748621587652455"><ele>491.5</ele><time>2026-04-25T15:51:48Z</time></trkpt><trkpt lat="45.41071492860643" lon="7.6746993523272256"><ele>489.25</ele><time>2026-04-25T15:51:49Z</time></trkpt><trkpt lat="45.4106453677762" lon="7.674583895671419"><ele>487.0</ele><time>2026-04-25T15:51:50Z</time></trkpt><trkpt lat="45.41059267444839" lon="7.674490793088442"><ele>486.6</ele><time>2026-04-25T15:51:51Z</time></trkpt><trkpt lat="45.410551172956815" lon="7.674393739561028"><ele>486.20000000000005</ele><time>2026-04-25T15:51:52Z</time></trkpt><trkpt lat="45.4105152580222" lon="7.674271523687222"><ele>485.8</ele><time>2026-04-25T15:51:53Z</time></trkpt><trkpt lat="45.410488529336334" lon="7.674187110666195"><ele>485.4</ele><time>2026-04-25T15:51:54Z</time></trkpt><trkpt lat="45.41042092026241" lon="7.674055854895592"><ele>485.0</ele><time>2026-04-25T15:51:55Z</time></trkpt><trkpt lat="45.41030781163352" lon="7.673915804676753"><ele>485.0</ele><time>2026-04-25T15:51:56Z</time></trkpt><trkpt lat="45.410192779681566" lon="7.673795786600093"><ele>485.0</ele><time>2026-04-25T15:51:57Z</time></trkpt><trkpt lat="45.410110772999374" lon="7.673712679038235"><ele>485.0</ele><time>2026-04-25T15:51:58Z</time></trkpt><trkpt lat="45.4100205244094" lon="7.673612962101993"><ele>485.0</ele><time>2026-04-25T15:51:59Z</time></trkpt><trkpt lat="45.409947234101644" lon="7.6735737875353776"><ele>485.0</ele><time>2026-04-25T15:52:00Z</time></trkpt><trkpt lat="45.409894984943016" lon="7.673493943839822"><ele>486.16666666666663</ele><time>2026-04-25T15:52:01Z</time></trkpt><trkpt lat="45.40981976127489" lon="7.673357693453237"><ele>487.3333333333333</ele><time>2026-04-25T15:52:03Z</time></trkpt><trkpt lat="45.40977588922384" lon="7.673293365446842"><ele>488.5</ele><time>2026-04-25T15:52:04Z</time></trkpt><trkpt lat="45.40973793262051" lon="7.673197376084424"><ele>489.66666666666663</ele><time>2026-04-25T15:52:05Z</time></trkpt><trkpt lat="45.409697635574" lon="7.673099760565457"><ele>490.8333333333333</ele><time>2026-04-25T15:52:06Z</time></trkpt><trkpt lat="45.40962459875447" lon="7.673054158487466"><ele>492.0</ele><time>2026-04-25T15:52:09Z</time></trkpt><trkpt lat="45.409520880819805" lon="7.6731104493828495"><ele>492.3333333333333</ele><time>2026-04-25T15:52:10Z</time></trkpt><trkpt lat="45.40943423052548" lon="7.67311245172936"><ele>492.66666666666663</ele><time>2026-04-25T15:52:11Z</time></trkpt><trkpt lat="45.40934889926814" lon="7.673120341820159"><ele>493.0</ele><time>2026-04-25T15:52:12Z</time></trkpt><trkpt lat="45.40929371480027" lon="7.673181605097828"><ele>493.3333333333333</ele><time>2026-04-25T15:52:13Z</time></trkpt><trkpt lat="45.40922571305902" lon="7.673210152461698"><ele>493.66666666666663</ele><time>2026-04-25T15:52:15Z</time></trkpt><trkpt lat="45.40920901188001" lon="7.673100939688244"><ele>494.0</ele><time>2026-04-25T15:52:17Z</time></trkpt><trkpt lat="45.40927441437779" lon="7.672996470415157"><ele>493.99999999999994</ele><time>2026-04-25T15:52:19Z</time></trkpt><trkpt lat="45.40923670083258" lon="7.672915224293552"><ele>494.0</ele><time>2026-04-25T15:52:22Z</time></trkpt><trkpt lat="45.40921937952246" lon="7.673018985576094"><ele>494.0</ele><time>2026-04-25T15:52:26Z</time></trkpt><trkpt lat="45.40918893657544" lon="7.673160772096369"><ele>494.0</ele><time>2026-04-25T15:52:29Z</time></trkpt><trkpt lat="45.409106882225345" lon="7.673230874988555"><ele>493.99999999999994</ele><time>2026-04-25T15:52:30Z</time></trkpt><trkpt lat="45.40901343442396" lon="7.673207767819757"><ele>494.0</ele><time>2026-04-25T15:52:31Z</time></trkpt><trkpt lat="45.408901364382366" lon="7.673204045156705"><ele>497.25</ele><time>2026-04-25T15:52:32Z</time></trkpt><trkpt lat="45.40880894054233" lon="7.673228682459326"><ele>500.5</ele><time>2026-04-25T15:52:33Z</time></trkpt><trkpt lat="45.40867217761147" lon="7.673229540702682"><ele>503.75</ele><time>2026-04-25T15:52:34Z</time></trkpt><trkpt lat="45.40853665315199" lon="7.673197794250164"><ele>507.0</ele><time>2026-04-25T15:52:35Z</time></trkpt><trkpt lat="45.40840938228589" lon="7.673190610412888"><ele>507.0</ele><time>2026-04-25T15:52:36Z</time></trkpt><trkpt lat="45.40829623026038" lon="7.673232649183405"><ele>507.0</ele><time>2026-04-25T15:52:37Z</time></trkpt><trkpt lat="45.40818939949387" lon="7.673329177105669"><ele>507.0</ele><time>2026-04-25T15:52:38Z</time></trkpt><trkpt lat="45.40809638078207" lon="7.673387451928843"><ele>507.0</ele><time>2026-04-25T15:52:39Z</time></trkpt><trkpt lat="45.40798736523619" lon="7.673442920787879"><ele>507.0</ele><time>2026-04-25T15:52:41Z</time></trkpt><trkpt lat="45.40788622836366" lon="7.673410193186115"><ele>507.00000000000006</ele><time>2026-04-25T15:52:42Z</time></trkpt><trkpt lat="45.40780668337124" lon="7.673335084003804"><ele>507.00000000000006</ele><time>2026-04-25T15:52:43Z</time></trkpt><trkpt lat="45.40770383589229" lon="7.673207200229956"><ele>507.0</ele><time>2026-04-25T15:52:44Z</time></trkpt><trkpt lat="45.40762553749245" lon="7.673124194618379"><ele>507.0</ele><time>2026-04-25T15:52:45Z</time></trkpt><trkpt lat="45.40756796580596" lon="7.673016248326997"><ele>507.0</ele><time>2026-04-25T15:52:46Z</time></trkpt><trkpt lat="45.407497727705625" lon="7.672850380340223"><ele>507.0</ele><time>2026-04-25T15:52:47Z</time></trkpt><trkpt lat="45.40741897567726" lon="7.672645205978932"><ele>507.0</ele><time>2026-04-25T15:52:48Z</time></trkpt><trkpt lat="45.40734709830399" lon="7.672464885958031"><ele>507.0</ele><time>2026-04-25T15:52:49Z</time></trkpt><trkpt lat="45.40728881170219" lon="7.672354491656439"><ele>509.6</ele><time>2026-04-25T15:52:50Z</time></trkpt><trkpt lat="45.4072307592917" lon="7.67230721887457"><ele>512.2</ele><time>2026-04-25T15:52:51Z</time></trkpt><trkpt lat="45.40714168607343" lon="7.672290827641337"><ele>514.8</ele><time>2026-04-25T15:52:52Z</time></trkpt><trkpt lat="45.407035462969546" lon="7.672266252407263"><ele>517.4</ele><time>2026-04-25T15:52:53Z</time></trkpt><trkpt lat="45.40694009853509" lon="7.6722192054340566"><ele>520.0</ele><time>2026-04-25T15:52:54Z</time></trkpt><trkpt lat="45.406861669750114" lon="7.672155995679237"><ele>518.25</ele><time>2026-04-25T15:52:55Z</time></trkpt><trkpt lat="45.40677685291888" lon="7.672070253729742"><ele>516.5</ele><time>2026-04-25T15:52:56Z</time></trkpt><trkpt lat="45.40669197811333" lon="7.67194847392178"><ele>514.75</ele><time>2026-04-25T15:52:57Z</time></trkpt><trkpt lat="45.40662034194027" lon="7.671825037612951"><ele>513.0</ele><time>2026-04-25T15:52:58Z</time></trkpt><trkpt lat="45.40654134217643" lon="7.671684868349459"><ele>513.0</ele><time>2026-04-25T15:52:59Z</time></trkpt><trkpt lat="45.40647128534114" lon="7.671543101415247"><ele>513.0</ele><time>2026-04-25T15:53:00Z</time></trkpt><trkpt lat="45.406419875107815" lon="7.671458779776657"><ele>513.0</ele><time>2026-04-25T15:53:01Z</time></trkpt><trkpt lat="45.406333274405505" lon="7.67141894430268"><ele>513.0</ele><time>2026-04-25T15:53:08Z</time></trkpt><trkpt lat="45.40619559224838" lon="7.671410194392228"><ele>513.0</ele><time>2026-04-25T15:53:10Z</time></trkpt><trkpt lat="45.40608406276568" lon="7.671372323807804"><ele>511.2</ele><time>2026-04-25T15:53:11Z</time></trkpt><trkpt lat="45.40597422555982" lon="7.671320251039154"><ele>509.4</ele><time>2026-04-25T15:53:12Z</time></trkpt><trkpt lat="45.40586673099342" lon="7.67131049896768"><ele>507.59999999999997</ele><time>2026-04-25T15:53:13Z</time></trkpt><trkpt lat="45.40577974967543" lon="7.671305337311067"><ele>505.79999999999995</ele><time>2026-04-25T15:53:13.999Z</time></trkpt><trkpt lat="45.40569820644349" lon="7.671278783957396"><ele>504.0</ele><time>2026-04-25T15:53:14.999Z</time></trkpt><trkpt lat="45.40556068576865" lon="7.6712555406512415"><ele>501.6</ele><time>2026-04-25T15:53:16.999Z</time></trkpt><trkpt lat="45.40547432098153" lon="7.671243039403692"><ele>499.2</ele><time>2026-04-25T15:53:17.999Z</time></trkpt><trkpt lat="45.40537891052846" lon="7.671216913588222"><ele>496.80000000000007</ele><time>2026-04-25T15:53:18.999Z</time></trkpt><trkpt lat="45.40527013466633" lon="7.671192102167493"><ele>494.40000000000003</ele><time>2026-04-25T15:53:19.999Z</time></trkpt><trkpt lat="45.40518446660777" lon="7.671167945971275"><ele>492.0</ele><time>2026-04-25T15:53:20.999Z</time></trkpt><trkpt lat="45.40510349193398" lon="7.67113665011872"><ele>494.1666666666667</ele><time>2026-04-25T15:53:21.999Z</time></trkpt><trkpt lat="45.405028832585046" lon="7.671091027520172"><ele>496.33333333333337</ele><time>2026-04-25T15:53:22.999Z</time></trkpt><trkpt lat="45.404960706387754" lon="7.671026845070281"><ele>498.5</ele><time>2026-04-25T15:53:23.999Z</time></trkpt><trkpt lat="45.404907390554364" lon="7.670949550434258"><ele>500.6666666666667</ele><time>2026-04-25T15:53:24.999Z</time></trkpt><trkpt lat="45.4048691228798" lon="7.670857482073735"><ele>502.83333333333337</ele><time>2026-04-25T15:53:25.999Z</time></trkpt><trkpt lat="45.40482310141792" lon="7.670777470262714"><ele>505.0</ele><time>2026-04-25T15:53:26.999Z</time></trkpt><trkpt lat="45.40476357961069" lon="7.6707303756550385"><ele>505.0</ele><time>2026-04-25T15:53:29Z</time></trkpt><trkpt lat="45.404695939558756" lon="7.670654668877121"><ele>505.0</ele><time>2026-04-25T15:53:31Z</time></trkpt><trkpt lat="45.40464401746114" lon="7.6705323005357595"><ele>505.0</ele><time>2026-04-25T15:53:34Z</time></trkpt><trkpt lat="45.40464075194957" lon="7.670424031241557"><ele>505.0</ele><time>2026-04-25T15:53:36Z</time></trkpt><trkpt lat="45.40461684563612" lon="7.670261713874911"><ele>505.0</ele><time>2026-04-25T15:53:38Z</time></trkpt><trkpt lat="45.40464069630715" lon="7.670128334912241"><ele>502.0</ele><time>2026-04-25T15:53:39Z</time></trkpt><trkpt lat="45.40464047673039" lon="7.669965973205507"><ele>499.0</ele><time>2026-04-25T15:53:40Z</time></trkpt><trkpt lat="45.404612176359436" lon="7.669821793519164"><ele>496.0</ele><time>2026-04-25T15:53:41Z</time></trkpt><trkpt lat="45.40455913486154" lon="7.669656368082188"><ele>493.0</ele><time>2026-04-25T15:53:42Z</time></trkpt><trkpt lat="45.404541171394406" lon="7.669512463782187"><ele>490.0</ele><time>2026-04-25T15:53:43Z</time></trkpt><trkpt lat="45.40449289304158" lon="7.669381017867658"><ele>489.50000000000006</ele><time>2026-04-25T15:53:45Z</time></trkpt><trkpt lat="45.40441293423028" lon="7.669247480131958"><ele>489.0</ele><time>2026-04-25T15:53:47Z</time></trkpt><trkpt lat="45.40434602640236" lon="7.669230135542203"><ele>488.5</ele><time>2026-04-25T15:53:48Z</time></trkpt><trkpt lat="45.40427045656855" lon="7.669214604649851"><ele>488.0</ele><time>2026-04-25T15:53:50Z</time></trkpt><trkpt lat="45.40419358972283" lon="7.669170048717643"><ele>487.50000000000006</ele><time>2026-04-25T15:53:53Z</time></trkpt><trkpt lat="45.40414816585465" lon="7.669103261686165"><ele>487.0</ele><time>2026-04-25T15:53:54Z</time></trkpt><trkpt lat="45.40407953891467" lon="7.668969536063343"><ele>487.0</ele><time>2026-04-25T15:53:56Z</time></trkpt><trkpt lat="45.4040392059269" lon="7.668878399353738"><ele>487.00000000000006</ele><time>2026-04-25T15:53:57Z</time></trkpt><trkpt lat="45.40395016172688" lon="7.668867839747415"><ele>487.00000000000006</ele><time>2026-04-25T15:53:58Z</time></trkpt><trkpt lat="45.4038915451594" lon="7.668756786692094"><ele>487.0</ele><time>2026-04-25T15:53:59Z</time></trkpt><trkpt lat="45.40385143533426" lon="7.66862436182758"><ele>487.0</ele><time>2026-04-25T15:54:00Z</time></trkpt><trkpt lat="45.403839301478776" lon="7.668499247891281"><ele>489.40000000000003</ele><time>2026-04-25T15:54:01Z</time></trkpt><trkpt lat="45.40381708843206" lon="7.668330941044368"><ele>491.80000000000007</ele><time>2026-04-25T15:54:03Z</time></trkpt><trkpt lat="45.40378523455089" lon="7.668172035070796"><ele>494.2</ele><time>2026-04-25T15:54:05Z</time></trkpt><trkpt lat="45.40375334518761" lon="7.668055838034939"><ele>496.6</ele><time>2026-04-25T15:54:06Z</time></trkpt><trkpt lat="45.40372026936882" lon="7.667945130835799"><ele>499.0</ele><time>2026-04-25T15:54:07Z</time></trkpt><trkpt lat="45.403683940603926" lon="7.6678718523011975"><ele>499.0</ele><time>2026-04-25T15:54:08Z</time></trkpt><trkpt lat="45.403608819890955" lon="7.667792059060225"><ele>499.0</ele><time>2026-04-25T15:54:10Z</time></trkpt><trkpt lat="45.403429074336024" lon="7.66762812185265"><ele>499.0</ele><time>2026-04-25T15:54:12Z</time></trkpt><trkpt lat="45.403374790208105" lon="7.667514094481027"><ele>499.0</ele><time>2026-04-25T15:54:13Z</time></trkpt><trkpt lat="45.40343626771201" lon="7.667257643502908"><ele>496.79999999999995</ele><time>2026-04-25T15:54:14Z</time></trkpt><trkpt lat="45.40340675356606" lon="7.667165719030691"><ele>494.59999999999997</ele><time>2026-04-25T15:54:15Z</time></trkpt><trkpt lat="45.40339455656526" lon="7.667064701162472"><ele>492.4</ele><time>2026-04-25T15:54:16Z</time></trkpt><trkpt lat="45.40337334391457" lon="7.666980037571947"><ele>490.2</ele><time>2026-04-25T15:54:18Z</time></trkpt><trkpt lat="45.4033535773012" lon="7.666892831669969"><ele>488.0</ele><time>2026-04-25T15:54:19Z</time></trkpt><trkpt lat="45.40360237266229" lon="7.666610002880511"><ele>484.16666666666663</ele><time>2026-04-25T15:54:21Z</time></trkpt><trkpt lat="45.40353687769482" lon="7.666565433699867"><ele>480.3333333333333</ele><time>2026-04-25T15:54:23Z</time></trkpt><trkpt lat="45.403447664654706" lon="7.66648629306623"><ele>476.5</ele><time>2026-04-25T15:54:25Z</time></trkpt><trkpt lat="45.4033890485038" lon="7.666409402900935"><ele>472.66666666666663</ele><time>2026-04-25T15:54:27Z</time></trkpt><trkpt lat="45.40333879117008" lon="7.666354664857775"><ele>468.8333333333333</ele><time>2026-04-25T15:54:29Z</time></trkpt><trkpt lat="45.403239274032956" lon="7.666316605170001"><ele>465.0</ele><time>2026-04-25T15:54:31Z</time></trkpt><trkpt lat="45.40310227464911" lon="7.6662645989631075"><ele>465.0</ele><time>2026-04-25T15:54:33Z</time></trkpt><trkpt lat="45.40302234023677" lon="7.666272027766422"><ele>465.0</ele><time>2026-04-25T15:54:35Z</time></trkpt><trkpt lat="45.4029286731084" lon="7.666181921141768"><ele>465.0</ele><time>2026-04-25T15:54:37Z</time></trkpt><trkpt lat="45.402861171688116" lon="7.666088566883877"><ele>465.0</ele><time>2026-04-25T15:54:39Z</time></trkpt><trkpt lat="45.40286330178603" lon="7.6659741981342915"><ele>465.0</ele><time>2026-04-25T15:54:42Z</time></trkpt><trkpt lat="45.40296014606545" lon="7.6659694223218455"><ele>456.66666666666663</ele><time>2026-04-25T15:54:44Z</time></trkpt><trkpt lat="45.403062831781824" lon="7.665955748989604"><ele>448.3333333333333</ele><time>2026-04-25T15:54:46Z</time></trkpt><trkpt lat="45.403160965243664" lon="7.665599878283283"><ele>440.0</ele><time>2026-04-25T15:54:50Z</time></trkpt><trkpt lat="45.40322472696803" lon="7.665495976759188"><ele>440.0</ele><time>2026-04-25T15:54:51Z</time></trkpt><trkpt lat="45.40333814596983" lon="7.6654686669981595"><ele>440.0</ele><time>2026-04-25T15:54:52Z</time></trkpt><trkpt lat="45.403473661346474" lon="7.665478040018783"><ele>440.0</ele><time>2026-04-25T15:54:53Z</time></trkpt><trkpt lat="45.40357488829351" lon="7.665416944285782"><ele>440.0</ele><time>2026-04-25T15:54:54Z</time></trkpt><trkpt lat="45.40365949861081" lon="7.665351814457221"><ele>440.0</ele><time>2026-04-25T15:54:55Z</time></trkpt><trkpt lat="45.403738186527754" lon="7.6653616864174525"><ele>440.0</ele><time>2026-04-25T15:54:56Z</time></trkpt><trkpt lat="45.40381571962528" lon="7.665296377695948"><ele>440.0</ele><time>2026-04-25T15:54:57Z</time></trkpt><trkpt lat="45.40374760547811" lon="7.665103102438213"><ele>440.0</ele><time>2026-04-25T15:54:58Z</time></trkpt><trkpt lat="45.40371780002739" lon="7.664954026028265"><ele>440.0</ele><time>2026-04-25T15:54:59Z</time></trkpt><trkpt lat="45.40368614872535" lon="7.664831819418037"><ele>440.6</ele><time>2026-04-25T15:55:00Z</time></trkpt><trkpt lat="45.403638745819364" lon="7.664721087757913"><ele>441.2</ele><time>2026-04-25T15:55:01Z</time></trkpt><trkpt lat="45.40359588298308" lon="7.6645821716373"><ele>441.79999999999995</ele><time>2026-04-25T15:55:02Z</time></trkpt><trkpt lat="45.40357529512401" lon="7.664456548882112"><ele>442.4</ele><time>2026-04-25T15:55:03Z</time></trkpt><trkpt lat="45.403546749452715" lon="7.664337766762854"><ele>443.0</ele><time>2026-04-25T15:55:04Z</time></trkpt><trkpt lat="45.40363840062646" lon="7.664192996614601"><ele>443.0</ele><time>2026-04-25T15:55:05Z</time></trkpt><trkpt lat="45.40361898886813" lon="7.6641061491644225"><ele>442.99999999999994</ele><time>2026-04-25T15:55:06Z</time></trkpt><trkpt lat="45.40360581765965" lon="7.663932378321852"><ele>442.99999999999994</ele><time>2026-04-25T15:55:08Z</time></trkpt><trkpt lat="45.40361987987644" lon="7.6638442734663474"><ele>443.0</ele><time>2026-04-25T15:55:09Z</time></trkpt><trkpt lat="45.40358795846943" lon="7.663670653299768"><ele>443.0</ele><time>2026-04-25T15:55:10Z</time></trkpt><trkpt lat="45.403586037212875" lon="7.663517682248299"><ele>441.59999999999997</ele><time>2026-04-25T15:55:11Z</time></trkpt><trkpt lat="45.40357740318557" lon="7.663352546492193"><ele>440.19999999999993</ele><time>2026-04-25T15:55:12Z</time></trkpt><trkpt lat="45.40354628158281" lon="7.663204203182139"><ele>438.8</ele><time>2026-04-25T15:55:13Z</time></trkpt><trkpt lat="45.4035137958904" lon="7.663081008988618"><ele>437.4</ele><time>2026-04-25T15:55:14Z</time></trkpt><trkpt lat="45.40348941810336" lon="7.66295850055419"><ele>436.0</ele><time>2026-04-25T15:55:15Z</time></trkpt><trkpt lat="45.40347233335916" lon="7.66283709600338"><ele>433.8</ele><time>2026-04-25T15:55:16Z</time></trkpt><trkpt lat="45.40344740089747" lon="7.6626939852071105"><ele>431.6</ele><time>2026-04-25T15:55:17Z</time></trkpt><trkpt lat="45.40334397202081" lon="7.662638491669392"><ele>429.4</ele><time>2026-04-25T15:55:18Z</time></trkpt><trkpt lat="45.40326506229132" lon="7.662505023312085"><ele>427.2</ele><time>2026-04-25T15:55:20Z</time></trkpt><trkpt lat="45.40320117005257" lon="7.662415960265559"><ele>425.0</ele><time>2026-04-25T15:55:21Z</time></trkpt><trkpt lat="45.40316818638186" lon="7.662325279448283"><ele>424.99999999999994</ele><time>2026-04-25T15:55:22Z</time></trkpt><trkpt lat="45.403110519157096" lon="7.66224556907321"><ele>425.0</ele><time>2026-04-25T15:55:23Z</time></trkpt><trkpt lat="45.403052497906856" lon="7.662172152254325"><ele>425.0</ele><time>2026-04-25T15:55:24Z</time></trkpt><trkpt lat="45.40302851301199" lon="7.662057493546758"><ele>425.0</ele><time>2026-04-25T15:55:25Z</time></trkpt><trkpt lat="45.40297618341087" lon="7.661992157607414"><ele>424.99999999999994</ele><time>2026-04-25T15:55:26Z</time></trkpt><trkpt lat="45.402925161394265" lon="7.661924554512816"><ele>425.0</ele><time>2026-04-25T15:55:27Z</time></trkpt><trkpt lat="45.40287253959269" lon="7.661850741622848"><ele>426.2</ele><time>2026-04-25T15:55:28Z</time></trkpt><trkpt lat="45.402824294910005" lon="7.661777352712508"><ele>427.4</ele><time>2026-04-25T15:55:29Z</time></trkpt><trkpt lat="45.402779894599036" lon="7.661702508927755"><ele>428.6</ele><time>2026-04-25T15:55:30Z</time></trkpt><trkpt lat="45.40268065648122" lon="7.661531133773109"><ele>429.8</ele><time>2026-04-25T15:55:32Z</time></trkpt><trkpt lat="45.402640170738295" lon="7.661434130577326"><ele>431.0</ele><time>2026-04-25T15:55:33Z</time></trkpt><trkpt lat="45.40261478421373" lon="7.661283471800286"><ele>431.0</ele><time>2026-04-25T15:55:34Z</time></trkpt><trkpt lat="45.402581078183864" lon="7.661197723547102"><ele>431.0</ele><time>2026-04-25T15:55:35Z</time></trkpt><trkpt lat="45.40250703837827" lon="7.661040554724425"><ele>431.0</ele><time>2026-04-25T15:55:37Z</time></trkpt><trkpt lat="45.40245807297714" lon="7.660886171101769"><ele>431.0</ele><time>2026-04-25T15:55:39Z</time></trkpt><trkpt lat="45.40239069290411" lon="7.660762376645297"><ele>431.0</ele><time>2026-04-25T15:55:41Z</time></trkpt><trkpt lat="45.402336307382086" lon="7.660653235551913"><ele>428.20000000000005</ele><time>2026-04-25T15:55:43Z</time></trkpt><trkpt lat="45.40228329203579" lon="7.660534478494149"><ele>425.40000000000003</ele><time>2026-04-25T15:55:45Z</time></trkpt><trkpt lat="45.402240413304256" lon="7.660444928030841"><ele>422.6</ele><time>2026-04-25T15:55:46Z</time></trkpt><trkpt lat="45.4021887286306" lon="7.660350354515705"><ele>419.8</ele><time>2026-04-25T15:55:47Z</time></trkpt><trkpt lat="45.402133246149845" lon="7.660279471282428"><ele>417.0</ele><time>2026-04-25T15:55:48Z</time></trkpt><trkpt lat="45.40203357866583" lon="7.660135419211709"><ele>416.1666666666667</ele><time>2026-04-25T15:55:50Z</time></trkpt><trkpt lat="45.40197663712714" lon="7.660053119958958"><ele>415.33333333333337</ele><time>2026-04-25T15:55:51Z</time></trkpt><trkpt lat="45.40188030178408" lon="7.659998468293542"><ele>414.5</ele><time>2026-04-25T15:55:52Z</time></trkpt><trkpt lat="45.40181532364312" lon="7.659924929677204"><ele>413.6666666666667</ele><time>2026-04-25T15:55:53Z</time></trkpt><trkpt lat="45.401758539273764" lon="7.659849929343176"><ele>412.83333333333337</ele><time>2026-04-25T15:55:54Z</time></trkpt><trkpt lat="45.40170840689436" lon="7.659782401281616"><ele>412.0</ele><time>2026-04-25T15:55:55Z</time></trkpt><trkpt lat="45.40166616708627" lon="7.659710529735406"><ele>412.00000000000006</ele><time>2026-04-25T15:55:56Z</time></trkpt><trkpt lat="45.40162625629656" lon="7.6596354941588825"><ele>412.0</ele><time>2026-04-25T15:55:57Z</time></trkpt><trkpt lat="45.40159464025086" lon="7.659549999373624"><ele>412.0</ele><time>2026-04-25T15:55:58Z</time></trkpt><trkpt lat="45.40152713173862" lon="7.659397310231137"><ele>412.0</ele><time>2026-04-25T15:56:00Z</time></trkpt><trkpt lat="45.40149884018739" lon="7.659316623855306"><ele>412.00000000000006</ele><time>2026-04-25T15:56:01Z</time></trkpt><trkpt lat="45.40147086435185" lon="7.6591857225122455"><ele>412.0</ele><time>2026-04-25T15:56:03Z</time></trkpt><trkpt lat="45.40144164420318" lon="7.659068823532336"><ele>409.5</ele><time>2026-04-25T15:56:04Z</time></trkpt><trkpt lat="45.40134203495407" lon="7.659104076611743"><ele>407.0</ele><time>2026-04-25T15:56:05Z</time></trkpt><trkpt lat="45.401335842474325" lon="7.6589702062124605"><ele>404.5</ele><time>2026-04-25T15:56:06Z</time></trkpt><trkpt lat="45.4012921038024" lon="7.658875279821773"><ele>402.0</ele><time>2026-04-25T15:56:07Z</time></trkpt><trkpt lat="45.40148460943779" lon="7.658517624638181"><ele>401.6</ele><time>2026-04-25T15:56:09Z</time></trkpt><trkpt lat="45.401499232742545" lon="7.658359737769748"><ele>401.20000000000005</ele><time>2026-04-25T15:56:11Z</time></trkpt><trkpt lat="45.40151438314724" lon="7.658252322076277"><ele>400.8</ele><time>2026-04-25T15:56:17Z</time></trkpt><trkpt lat="45.40153945486254" lon="7.658063841187651"><ele>400.4</ele><time>2026-04-25T15:56:23Z</time></trkpt><trkpt lat="45.40154807842797" lon="7.6579407787280775"><ele>400.0</ele><time>2026-04-25T15:56:24Z</time></trkpt><trkpt lat="45.40156125821008" lon="7.657822948165363"><ele>399.50000000000006</ele><time>2026-04-25T15:56:25Z</time></trkpt><trkpt lat="45.401564027348236" lon="7.6577105088328565"><ele>399.0</ele><time>2026-04-25T15:56:26Z</time></trkpt><trkpt lat="45.40154903533272" lon="7.657608828082307"><ele>398.5</ele><time>2026-04-25T15:56:27Z</time></trkpt><trkpt lat="45.401514803324595" lon="7.657533181220405"><ele>398.0</ele><time>2026-04-25T15:56:28Z</time></trkpt><trkpt lat="45.40145910750681" lon="7.657455997784014"><ele>397.50000000000006</ele><time>2026-04-25T15:56:29Z</time></trkpt><trkpt lat="45.40140201443989" lon="7.6573668737691545"><ele>397.0</ele><time>2026-04-25T15:56:30Z</time></trkpt><trkpt lat="45.401352967170986" lon="7.657257361628631"><ele>397.1428571428571</ele><time>2026-04-25T15:56:31Z</time></trkpt><trkpt lat="45.40132075417239" lon="7.657159297409813"><ele>397.2857142857143</ele><time>2026-04-25T15:56:32Z</time></trkpt><trkpt lat="45.401292293663786" lon="7.6570739391772324"><ele>397.42857142857144</ele><time>2026-04-25T15:56:33Z</time></trkpt><trkpt lat="45.40126048503355" lon="7.656983265752"><ele>397.57142857142856</ele><time>2026-04-25T15:56:34Z</time></trkpt><trkpt lat="45.40121419522214" lon="7.656900043761047"><ele>397.7142857142857</ele><time>2026-04-25T15:56:35Z</time></trkpt><trkpt lat="45.40115419074187" lon="7.656828869501452"><ele>397.85714285714283</ele><time>2026-04-25T15:56:36Z</time></trkpt><trkpt lat="45.40108554980871" lon="7.656780323725693"><ele>398.0</ele><time>2026-04-25T15:56:37Z</time></trkpt><trkpt lat="45.401012163504404" lon="7.656760136497934"><ele>398.0</ele><time>2026-04-25T15:56:38Z</time></trkpt><trkpt lat="45.40088880100312" lon="7.656740756781296"><ele>398.0</ele><time>2026-04-25T15:56:39Z</time></trkpt><trkpt lat="45.400759916522205" lon="7.656706232132318"><ele>398.0</ele><time>2026-04-25T15:56:40Z</time></trkpt><trkpt lat="45.40063753711678" lon="7.656673890412486"><ele>398.0</ele><time>2026-04-25T15:56:41Z</time></trkpt><trkpt lat="45.40049770229038" lon="7.656637965940665"><ele>397.49999999999994</ele><time>2026-04-25T15:56:43Z</time></trkpt><trkpt lat="45.40040619853898" lon="7.656613036056442"><ele>397.0</ele><time>2026-04-25T15:56:44Z</time></trkpt><trkpt lat="45.40032467346744" lon="7.656594377300677"><ele>396.5</ele><time>2026-04-25T15:56:45Z</time></trkpt><trkpt lat="45.40025003520072" lon="7.656589701565373"><ele>396.0</ele><time>2026-04-25T15:56:46Z</time></trkpt><trkpt lat="45.40016927169115" lon="7.656607707072842"><ele>395.49999999999994</ele><time>2026-04-25T15:56:47Z</time></trkpt><trkpt lat="45.40009572583997" lon="7.656626696488157"><ele>395.0</ele><time>2026-04-25T15:56:48Z</time></trkpt><trkpt lat="45.40001314343923" lon="7.6566386362081"><ele>394.99999999999994</ele><time>2026-04-25T15:56:49Z</time></trkpt><trkpt lat="45.39992013275504" lon="7.656652975553701"><ele>395.0</ele><time>2026-04-25T15:56:50Z</time></trkpt><trkpt lat="45.39983715262569" lon="7.6566586269178085"><ele>395.0</ele><time>2026-04-25T15:56:51Z</time></trkpt><trkpt lat="45.39976142759803" lon="7.656633626267502"><ele>395.0</ele><time>2026-04-25T15:56:52Z</time></trkpt><trkpt lat="45.39969757814759" lon="7.6566043723011505"><ele>394.99999999999994</ele><time>2026-04-25T15:56:53Z</time></trkpt><trkpt lat="45.399624574689845" lon="7.656540901664386"><ele>395.0</ele><time>2026-04-25T15:56:54Z</time></trkpt><trkpt lat="45.399542118186815" lon="7.65648359997536"><ele>393.0</ele><time>2026-04-25T15:56:55Z</time></trkpt><trkpt lat="45.39944923493663" lon="7.656435733054554"><ele>391.0</ele><time>2026-04-25T15:56:56Z</time></trkpt><trkpt lat="45.399345967012565" lon="7.6563869983170845"><ele>389.0</ele><time>2026-04-25T15:56:57Z</time></trkpt><trkpt lat="45.399252794635764" lon="7.65634031240899"><ele>387.0</ele><time>2026-04-25T15:56:58Z</time></trkpt><trkpt lat="45.39916940557437" lon="7.656284165037686"><ele>385.0</ele><time>2026-04-25T15:56:59Z</time></trkpt><trkpt lat="45.39908513196776" lon="7.656219453457703"><ele>385.00000000000006</ele><time>2026-04-25T15:57:00Z</time></trkpt><trkpt lat="45.3990170087014" lon="7.656130385445042"><ele>385.0</ele><time>2026-04-25T15:57:01Z</time></trkpt><trkpt lat="45.398945282015085" lon="7.6560172753294315"><ele>385.0</ele><time>2026-04-25T15:57:02Z</time></trkpt><trkpt lat="45.398881900379344" lon="7.655936192763335"><ele>385.0</ele><time>2026-04-25T15:57:03Z</time></trkpt><trkpt lat="45.3988252781949" lon="7.655844458463542"><ele>385.00000000000006</ele><time>2026-04-25T15:57:04Z</time></trkpt><trkpt lat="45.39876626985498" lon="7.65577643137363"><ele>385.0</ele><time>2026-04-25T15:57:05Z</time></trkpt><trkpt lat="45.398690746954905" lon="7.655716922769061"><ele>384.8</ele><time>2026-04-25T15:57:06Z</time></trkpt><trkpt lat="45.39861907322319" lon="7.655651355366799"><ele>384.6</ele><time>2026-04-25T15:57:07Z</time></trkpt><trkpt lat="45.39855591302024" lon="7.655564708906932"><ele>384.4</ele><time>2026-04-25T15:57:08Z</time></trkpt><trkpt lat="45.398499972113115" lon="7.655466906895047"><ele>384.2</ele><time>2026-04-25T15:57:09Z</time></trkpt><trkpt lat="45.398423468771796" lon="7.655369852765216"><ele>384.0</ele><time>2026-04-25T15:57:10Z</time></trkpt><trkpt lat="45.39835719504143" lon="7.655279664403782"><ele>384.0</ele><time>2026-04-25T15:57:11Z</time></trkpt><trkpt lat="45.39829647901113" lon="7.655209265625694"><ele>384.0</ele><time>2026-04-25T15:57:12Z</time></trkpt><trkpt lat="45.398227272518724" lon="7.655167949650468"><ele>384.0</ele><time>2026-04-25T15:57:13Z</time></trkpt><trkpt lat="45.39813568159413" lon="7.655135426495248"><ele>384.0</ele><time>2026-04-25T15:57:14Z</time></trkpt><trkpt lat="45.398045624285295" lon="7.655124481709262"><ele>384.0</ele><time>2026-04-25T15:57:15Z</time></trkpt><trkpt lat="45.397934680320795" lon="7.655126214833978"><ele>384.0</ele><time>2026-04-25T15:57:16Z</time></trkpt><trkpt lat="45.39783033466352" lon="7.655154473339514"><ele>384.0</ele><time>2026-04-25T15:57:17Z</time></trkpt><trkpt lat="45.39774367072699" lon="7.65518496268599"><ele>384.0</ele><time>2026-04-25T15:57:18Z</time></trkpt><trkpt lat="45.39766469221894" lon="7.655211178993888"><ele>384.0</ele><time>2026-04-25T15:57:19Z</time></trkpt><trkpt lat="45.397600756186975" lon="7.655240828055503"><ele>384.0</ele><time>2026-04-25T15:57:20Z</time></trkpt><trkpt lat="45.39754321426698" lon="7.655310642944034"><ele>384.0</ele><time>2026-04-25T15:57:22Z</time></trkpt><trkpt lat="45.39747663687412" lon="7.655348789314146"><ele>384.0</ele><time>2026-04-25T15:57:25Z</time></trkpt><trkpt lat="45.397450543462746" lon="7.655198250790193"><ele>383.99999999999994</ele><time>2026-04-25T15:57:40Z</time></trkpt><trkpt lat="45.39740534932804" lon="7.655125627558927"><ele>384.0</ele><time>2026-04-25T15:57:59Z</time></trkpt><trkpt lat="45.39735079216353" lon="7.655178092360601"><ele>384.0</ele><time>2026-04-25T15:58:01Z</time></trkpt><trkpt lat="45.39733712773654" lon="7.655270162063785"><ele>384.0</ele><time>2026-04-25T15:58:03Z</time></trkpt><trkpt lat="45.39737232063381" lon="7.655359105506041"><ele>384.0</ele><time>2026-04-25T15:58:05Z</time></trkpt><trkpt lat="45.397418664803574" lon="7.655443993498189"><ele>383.99999999999994</ele><time>2026-04-25T15:58:09Z</time></trkpt><trkpt lat="45.397402428774264" lon="7.655532519514688"><ele>384.0</ele><time>2026-04-25T15:58:18Z</time></trkpt><trkpt lat="45.39745249274871" lon="7.6557490944936335"><ele>381.0</ele><time>2026-04-25T16:00:44Z</time></trkpt></trkseg></trk></gpx>